<?xml version="1.0" encoding="UTF-8" standalone="no" ?>
<gpx xmlns="http://www.topografix.com/GPX/1/1" xmlns:xsi="http://www.w3.org/2001/XMLSchema-instance" xsi:schemaLocation="http://www.topografix.com/GPX/1/1 http://www.topografix.com/GPX/1/1/gpx.xsd" version="1.1" creator="VisuGPX - https://www.visugpx.com">
  <metadata>
    <name>Rando vtt Chauvigny 2019</name>
    <desc><![CDATA[Terrain gras mais bel endroit pour le vtt]]></desc>
  </metadata>
  <trk>
    <name><![CDATA[Rando vtt Chauvigny 2019]]></name>
    <trkseg>
      <trkpt lat="46.56339" lon="0.63053">
        <ele>158.88</ele>
        <time>2019-11-17T07:40:48.999Z</time>
      </trkpt>
      <trkpt lat="46.5633" lon="0.63049">
        <ele>158.44</ele>
        <time>2019-11-17T07:41:19.999Z</time>
      </trkpt>
      <trkpt lat="46.56335" lon="0.63037">
        <ele>158.71</ele>
        <time>2019-11-17T07:43:01.999Z</time>
      </trkpt>
      <trkpt lat="46.56344" lon="0.6303">
        <ele>158.25</ele>
        <time>2019-11-17T07:43:09.999Z</time>
      </trkpt>
      <trkpt lat="46.56352" lon="0.63022">
        <ele>157.77</ele>
        <time>2019-11-17T07:43:14.999Z</time>
      </trkpt>
      <trkpt lat="46.56359" lon="0.63014">
        <ele>157.32</ele>
        <time>2019-11-17T07:43:18.999Z</time>
      </trkpt>
      <trkpt lat="46.5637" lon="0.6302">
        <ele>156.92</ele>
        <time>2019-11-17T07:43:22.999Z</time>
      </trkpt>
      <trkpt lat="46.56377" lon="0.63034">
        <ele>156.57</ele>
        <time>2019-11-17T07:43:25.999Z</time>
      </trkpt>
      <trkpt lat="46.56384" lon="0.63047">
        <ele>156.07</ele>
        <time>2019-11-17T07:43:28.999Z</time>
      </trkpt>
      <trkpt lat="46.56391" lon="0.6306">
        <ele>155.52</ele>
        <time>2019-11-17T07:43:31.999Z</time>
      </trkpt>
      <trkpt lat="46.564" lon="0.63072">
        <ele>151.85</ele>
        <time>2019-11-17T07:43:34.999Z</time>
      </trkpt>
      <trkpt lat="46.5641" lon="0.63082">
        <ele>149.06</ele>
        <time>2019-11-17T07:43:37.999Z</time>
      </trkpt>
      <trkpt lat="46.5642" lon="0.63091">
        <ele>147.23</ele>
        <time>2019-11-17T07:43:40.999Z</time>
      </trkpt>
      <trkpt lat="46.56429" lon="0.63096">
        <ele>146.64</ele>
        <time>2019-11-17T07:43:42.999Z</time>
      </trkpt>
      <trkpt lat="46.56438" lon="0.63102">
        <ele>146.13</ele>
        <time>2019-11-17T07:43:44.999Z</time>
      </trkpt>
      <trkpt lat="46.5645" lon="0.63109">
        <ele>145.7</ele>
        <time>2019-11-17T07:43:47.999Z</time>
      </trkpt>
      <trkpt lat="46.5646" lon="0.63116">
        <ele>147.2</ele>
        <time>2019-11-17T07:43:50.999Z</time>
      </trkpt>
      <trkpt lat="46.56468" lon="0.63122">
        <ele>148.44</ele>
        <time>2019-11-17T07:43:52.999Z</time>
      </trkpt>
      <trkpt lat="46.56478" lon="0.63128">
        <ele>149.33</ele>
        <time>2019-11-17T07:43:54.999Z</time>
      </trkpt>
      <trkpt lat="46.56487" lon="0.63135">
        <ele>149.98</ele>
        <time>2019-11-17T07:43:56.999Z</time>
      </trkpt>
      <trkpt lat="46.56497" lon="0.63141">
        <ele>150.25</ele>
        <time>2019-11-17T07:43:58.999Z</time>
      </trkpt>
      <trkpt lat="46.56508" lon="0.63147">
        <ele>150.46</ele>
        <time>2019-11-17T07:44:00.999Z</time>
      </trkpt>
      <trkpt lat="46.56518" lon="0.63152">
        <ele>150.53</ele>
        <time>2019-11-17T07:44:02.999Z</time>
      </trkpt>
      <trkpt lat="46.56528" lon="0.63156">
        <ele>150.8</ele>
        <time>2019-11-17T07:44:04.999Z</time>
      </trkpt>
      <trkpt lat="46.5654" lon="0.63157">
        <ele>151.05</ele>
        <time>2019-11-17T07:44:06.999Z</time>
      </trkpt>
      <trkpt lat="46.5655" lon="0.63156">
        <ele>151.56</ele>
        <time>2019-11-17T07:44:08.999Z</time>
      </trkpt>
      <trkpt lat="46.5656" lon="0.63155">
        <ele>151.45</ele>
        <time>2019-11-17T07:44:10.999Z</time>
      </trkpt>
      <trkpt lat="46.56571" lon="0.63153">
        <ele>151.17</ele>
        <time>2019-11-17T07:44:12.999Z</time>
      </trkpt>
      <trkpt lat="46.56581" lon="0.63152">
        <ele>151.02</ele>
        <time>2019-11-17T07:44:14.999Z</time>
      </trkpt>
      <trkpt lat="46.56593" lon="0.63149">
        <ele>151.45</ele>
        <time>2019-11-17T07:44:16.999Z</time>
      </trkpt>
      <trkpt lat="46.56604" lon="0.63148">
        <ele>151.97</ele>
        <time>2019-11-17T07:44:18.999Z</time>
      </trkpt>
      <trkpt lat="46.56616" lon="0.63148">
        <ele>152.51</ele>
        <time>2019-11-17T07:44:20.999Z</time>
      </trkpt>
      <trkpt lat="46.56626" lon="0.63149">
        <ele>153.4</ele>
        <time>2019-11-17T07:44:22.999Z</time>
      </trkpt>
      <trkpt lat="46.56635" lon="0.6315">
        <ele>153.87</ele>
        <time>2019-11-17T07:44:24.999Z</time>
      </trkpt>
      <trkpt lat="46.56646" lon="0.63153">
        <ele>154.28</ele>
        <time>2019-11-17T07:44:26.999Z</time>
      </trkpt>
      <trkpt lat="46.56658" lon="0.63162">
        <ele>154.3</ele>
        <time>2019-11-17T07:44:28.999Z</time>
      </trkpt>
      <trkpt lat="46.56668" lon="0.63171">
        <ele>153.74</ele>
        <time>2019-11-17T07:44:30.999Z</time>
      </trkpt>
      <trkpt lat="46.56678" lon="0.63183">
        <ele>152.74</ele>
        <time>2019-11-17T07:44:32.999Z</time>
      </trkpt>
      <trkpt lat="46.56685" lon="0.63194">
        <ele>152.43</ele>
        <time>2019-11-17T07:44:34.999Z</time>
      </trkpt>
      <trkpt lat="46.56689" lon="0.63208">
        <ele>152.35</ele>
        <time>2019-11-17T07:44:36.999Z</time>
      </trkpt>
      <trkpt lat="46.56694" lon="0.6322">
        <ele>152.34</ele>
        <time>2019-11-17T07:44:38.999Z</time>
      </trkpt>
      <trkpt lat="46.567" lon="0.63233">
        <ele>152.28</ele>
        <time>2019-11-17T07:44:40.999Z</time>
      </trkpt>
      <trkpt lat="46.56707" lon="0.63247">
        <ele>152.76</ele>
        <time>2019-11-17T07:44:42.999Z</time>
      </trkpt>
      <trkpt lat="46.56715" lon="0.63262">
        <ele>154.12</ele>
        <time>2019-11-17T07:44:44.999Z</time>
      </trkpt>
      <trkpt lat="46.56723" lon="0.63276">
        <ele>155.5</ele>
        <time>2019-11-17T07:44:46.999Z</time>
      </trkpt>
      <trkpt lat="46.56732" lon="0.63288">
        <ele>156.66</ele>
        <time>2019-11-17T07:44:48.999Z</time>
      </trkpt>
      <trkpt lat="46.56743" lon="0.63297">
        <ele>157.77</ele>
        <time>2019-11-17T07:44:50.999Z</time>
      </trkpt>
      <trkpt lat="46.56754" lon="0.63303">
        <ele>158.39</ele>
        <time>2019-11-17T07:44:52.999Z</time>
      </trkpt>
      <trkpt lat="46.56768" lon="0.63304">
        <ele>158.49</ele>
        <time>2019-11-17T07:44:54.999Z</time>
      </trkpt>
      <trkpt lat="46.56781" lon="0.63306">
        <ele>158.16</ele>
        <time>2019-11-17T07:44:56.999Z</time>
      </trkpt>
      <trkpt lat="46.56794" lon="0.63307">
        <ele>157.53</ele>
        <time>2019-11-17T07:44:58.999Z</time>
      </trkpt>
      <trkpt lat="46.56807" lon="0.63309">
        <ele>156.95</ele>
        <time>2019-11-17T07:45:00.999Z</time>
      </trkpt>
      <trkpt lat="46.56819" lon="0.63312">
        <ele>156.49</ele>
        <time>2019-11-17T07:45:02.999Z</time>
      </trkpt>
      <trkpt lat="46.56828" lon="0.63317">
        <ele>155.8</ele>
        <time>2019-11-17T07:45:04.999Z</time>
      </trkpt>
      <trkpt lat="46.5683" lon="0.63331">
        <ele>155.37</ele>
        <time>2019-11-17T07:45:06.999Z</time>
      </trkpt>
      <trkpt lat="46.56831" lon="0.63346">
        <ele>155.28</ele>
        <time>2019-11-17T07:45:09.999Z</time>
      </trkpt>
      <trkpt lat="46.56832" lon="0.6336">
        <ele>154.95</ele>
        <time>2019-11-17T07:45:14.999Z</time>
      </trkpt>
      <trkpt lat="46.56837" lon="0.63372">
        <ele>153.84</ele>
        <time>2019-11-17T07:45:58.999Z</time>
      </trkpt>
      <trkpt lat="46.56847" lon="0.6338">
        <ele>153.47</ele>
        <time>2019-11-17T07:46:02.999Z</time>
      </trkpt>
      <trkpt lat="46.56852" lon="0.63397">
        <ele>151.25</ele>
        <time>2019-11-17T07:46:05.999Z</time>
      </trkpt>
      <trkpt lat="46.56855" lon="0.63413">
        <ele>150.42</ele>
        <time>2019-11-17T07:46:07.999Z</time>
      </trkpt>
      <trkpt lat="46.56857" lon="0.63432">
        <ele>149.68</ele>
        <time>2019-11-17T07:46:09.999Z</time>
      </trkpt>
      <trkpt lat="46.56858" lon="0.63453">
        <ele>148.59</ele>
        <time>2019-11-17T07:46:11.999Z</time>
      </trkpt>
      <trkpt lat="46.56859" lon="0.63475">
        <ele>148.02</ele>
        <time>2019-11-17T07:46:13.999Z</time>
      </trkpt>
      <trkpt lat="46.56862" lon="0.63499">
        <ele>147.93</ele>
        <time>2019-11-17T07:46:15.999Z</time>
      </trkpt>
      <trkpt lat="46.56866" lon="0.63523">
        <ele>148.02</ele>
        <time>2019-11-17T07:46:17.999Z</time>
      </trkpt>
      <trkpt lat="46.56871" lon="0.63547">
        <ele>148.47</ele>
        <time>2019-11-17T07:46:19.999Z</time>
      </trkpt>
      <trkpt lat="46.56873" lon="0.6356">
        <ele>148.74</ele>
        <time>2019-11-17T07:46:20.999Z</time>
      </trkpt>
      <trkpt lat="46.56876" lon="0.63573">
        <ele>148.99</ele>
        <time>2019-11-17T07:46:21.999Z</time>
      </trkpt>
      <trkpt lat="46.56877" lon="0.63586">
        <ele>149.24</ele>
        <time>2019-11-17T07:46:22.999Z</time>
      </trkpt>
      <trkpt lat="46.56879" lon="0.636">
        <ele>149.48</ele>
        <time>2019-11-17T07:46:23.999Z</time>
      </trkpt>
      <trkpt lat="46.56881" lon="0.63613">
        <ele>149.64</ele>
        <time>2019-11-17T07:46:24.999Z</time>
      </trkpt>
      <trkpt lat="46.56882" lon="0.63627">
        <ele>149.78</ele>
        <time>2019-11-17T07:46:25.999Z</time>
      </trkpt>
      <trkpt lat="46.56884" lon="0.6364">
        <ele>149.83</ele>
        <time>2019-11-17T07:46:26.999Z</time>
      </trkpt>
      <trkpt lat="46.56886" lon="0.63654">
        <ele>149.8</ele>
        <time>2019-11-17T07:46:27.999Z</time>
      </trkpt>
      <trkpt lat="46.56888" lon="0.63669">
        <ele>149.67</ele>
        <time>2019-11-17T07:46:28.999Z</time>
      </trkpt>
      <trkpt lat="46.56889" lon="0.63683">
        <ele>149.41</ele>
        <time>2019-11-17T07:46:29.999Z</time>
      </trkpt>
      <trkpt lat="46.56891" lon="0.63695">
        <ele>149.15</ele>
        <time>2019-11-17T07:46:30.999Z</time>
      </trkpt>
      <trkpt lat="46.56895" lon="0.63719">
        <ele>148.72</ele>
        <time>2019-11-17T07:46:32.999Z</time>
      </trkpt>
      <trkpt lat="46.56898" lon="0.63741">
        <ele>148.33</ele>
        <time>2019-11-17T07:46:34.999Z</time>
      </trkpt>
      <trkpt lat="46.56902" lon="0.63765">
        <ele>148.15</ele>
        <time>2019-11-17T07:46:36.999Z</time>
      </trkpt>
      <trkpt lat="46.56905" lon="0.63789">
        <ele>147.77</ele>
        <time>2019-11-17T07:46:38.999Z</time>
      </trkpt>
      <trkpt lat="46.56909" lon="0.63815">
        <ele>147.29</ele>
        <time>2019-11-17T07:46:40.999Z</time>
      </trkpt>
      <trkpt lat="46.56911" lon="0.63828">
        <ele>146.9</ele>
        <time>2019-11-17T07:46:41.999Z</time>
      </trkpt>
      <trkpt lat="46.56913" lon="0.63842">
        <ele>146.58</ele>
        <time>2019-11-17T07:46:42.999Z</time>
      </trkpt>
      <trkpt lat="46.56915" lon="0.63855">
        <ele>146.3</ele>
        <time>2019-11-17T07:46:43.999Z</time>
      </trkpt>
      <trkpt lat="46.56917" lon="0.63869">
        <ele>145.85</ele>
        <time>2019-11-17T07:46:44.999Z</time>
      </trkpt>
      <trkpt lat="46.5692" lon="0.63882">
        <ele>145.52</ele>
        <time>2019-11-17T07:46:45.999Z</time>
      </trkpt>
      <trkpt lat="46.56923" lon="0.63896">
        <ele>145.22</ele>
        <time>2019-11-17T07:46:46.999Z</time>
      </trkpt>
      <trkpt lat="46.56925" lon="0.63909">
        <ele>145.04</ele>
        <time>2019-11-17T07:46:47.999Z</time>
      </trkpt>
      <trkpt lat="46.56927" lon="0.63923">
        <ele>144.81</ele>
        <time>2019-11-17T07:46:48.999Z</time>
      </trkpt>
      <trkpt lat="46.56928" lon="0.63937">
        <ele>144.5</ele>
        <time>2019-11-17T07:46:49.999Z</time>
      </trkpt>
      <trkpt lat="46.56928" lon="0.63951">
        <ele>144.25</ele>
        <time>2019-11-17T07:46:50.999Z</time>
      </trkpt>
      <trkpt lat="46.56929" lon="0.63965">
        <ele>144.11</ele>
        <time>2019-11-17T07:46:51.999Z</time>
      </trkpt>
      <trkpt lat="46.56931" lon="0.63979">
        <ele>143.93</ele>
        <time>2019-11-17T07:46:52.999Z</time>
      </trkpt>
      <trkpt lat="46.56932" lon="0.63993">
        <ele>143.74</ele>
        <time>2019-11-17T07:46:53.999Z</time>
      </trkpt>
      <trkpt lat="46.56935" lon="0.64006">
        <ele>143.58</ele>
        <time>2019-11-17T07:46:54.999Z</time>
      </trkpt>
      <trkpt lat="46.56939" lon="0.64031">
        <ele>143.13</ele>
        <time>2019-11-17T07:46:56.999Z</time>
      </trkpt>
      <trkpt lat="46.56942" lon="0.64053">
        <ele>142.5</ele>
        <time>2019-11-17T07:46:58.999Z</time>
      </trkpt>
      <trkpt lat="46.56944" lon="0.64076">
        <ele>141.27</ele>
        <time>2019-11-17T07:47:00.999Z</time>
      </trkpt>
      <trkpt lat="46.56948" lon="0.64097">
        <ele>140.33</ele>
        <time>2019-11-17T07:47:02.999Z</time>
      </trkpt>
      <trkpt lat="46.5695" lon="0.64115">
        <ele>139.86</ele>
        <time>2019-11-17T07:47:04.999Z</time>
      </trkpt>
      <trkpt lat="46.56953" lon="0.64132">
        <ele>139.57</ele>
        <time>2019-11-17T07:47:06.999Z</time>
      </trkpt>
      <trkpt lat="46.56955" lon="0.64148">
        <ele>139.19</ele>
        <time>2019-11-17T07:47:08.999Z</time>
      </trkpt>
      <trkpt lat="46.56957" lon="0.64162">
        <ele>138.8</ele>
        <time>2019-11-17T07:47:10.999Z</time>
      </trkpt>
      <trkpt lat="46.56959" lon="0.64175">
        <ele>138.66</ele>
        <time>2019-11-17T07:47:12.999Z</time>
      </trkpt>
      <trkpt lat="46.56961" lon="0.64193">
        <ele>138.72</ele>
        <time>2019-11-17T07:47:15.999Z</time>
      </trkpt>
      <trkpt lat="46.56959" lon="0.64211">
        <ele>137.85</ele>
        <time>2019-11-17T07:47:18.999Z</time>
      </trkpt>
      <trkpt lat="46.56953" lon="0.64227">
        <ele>136.2</ele>
        <time>2019-11-17T07:47:21.999Z</time>
      </trkpt>
      <trkpt lat="46.56951" lon="0.64243">
        <ele>135.6</ele>
        <time>2019-11-17T07:47:24.999Z</time>
      </trkpt>
      <trkpt lat="46.56965" lon="0.6424">
        <ele>134.34</ele>
        <time>2019-11-17T07:47:28.999Z</time>
      </trkpt>
      <trkpt lat="46.56977" lon="0.64238">
        <ele>132.36</ele>
        <time>2019-11-17T07:47:30.999Z</time>
      </trkpt>
      <trkpt lat="46.56991" lon="0.64236">
        <ele>130.69</ele>
        <time>2019-11-17T07:47:32.999Z</time>
      </trkpt>
      <trkpt lat="46.57005" lon="0.64231">
        <ele>129.41</ele>
        <time>2019-11-17T07:47:34.999Z</time>
      </trkpt>
      <trkpt lat="46.57019" lon="0.64226">
        <ele>128.04</ele>
        <time>2019-11-17T07:47:36.999Z</time>
      </trkpt>
      <trkpt lat="46.57033" lon="0.64222">
        <ele>126.74</ele>
        <time>2019-11-17T07:47:38.999Z</time>
      </trkpt>
      <trkpt lat="46.57048" lon="0.64222">
        <ele>125.31</ele>
        <time>2019-11-17T07:47:40.999Z</time>
      </trkpt>
      <trkpt lat="46.57062" lon="0.64222">
        <ele>124.45</ele>
        <time>2019-11-17T07:47:42.999Z</time>
      </trkpt>
      <trkpt lat="46.57075" lon="0.64223">
        <ele>123.68</ele>
        <time>2019-11-17T07:47:44.999Z</time>
      </trkpt>
      <trkpt lat="46.57087" lon="0.64224">
        <ele>123.5</ele>
        <time>2019-11-17T07:47:46.999Z</time>
      </trkpt>
      <trkpt lat="46.571" lon="0.64224">
        <ele>123.72</ele>
        <time>2019-11-17T07:47:48.999Z</time>
      </trkpt>
      <trkpt lat="46.57111" lon="0.64222">
        <ele>123.65</ele>
        <time>2019-11-17T07:47:50.999Z</time>
      </trkpt>
      <trkpt lat="46.57123" lon="0.6422">
        <ele>123.66</ele>
        <time>2019-11-17T07:47:52.999Z</time>
      </trkpt>
      <trkpt lat="46.57136" lon="0.64219">
        <ele>123.5</ele>
        <time>2019-11-17T07:47:54.999Z</time>
      </trkpt>
      <trkpt lat="46.57148" lon="0.64218">
        <ele>123.19</ele>
        <time>2019-11-17T07:47:56.999Z</time>
      </trkpt>
      <trkpt lat="46.57159" lon="0.64217">
        <ele>122.76</ele>
        <time>2019-11-17T07:47:58.999Z</time>
      </trkpt>
      <trkpt lat="46.57169" lon="0.64214">
        <ele>122.24</ele>
        <time>2019-11-17T07:48:00.999Z</time>
      </trkpt>
      <trkpt lat="46.5718" lon="0.64214">
        <ele>121.96</ele>
        <time>2019-11-17T07:48:02.999Z</time>
      </trkpt>
      <trkpt lat="46.57191" lon="0.64215">
        <ele>122.07</ele>
        <time>2019-11-17T07:48:04.999Z</time>
      </trkpt>
      <trkpt lat="46.57201" lon="0.64215">
        <ele>122.44</ele>
        <time>2019-11-17T07:48:06.999Z</time>
      </trkpt>
      <trkpt lat="46.57211" lon="0.64213">
        <ele>123.11</ele>
        <time>2019-11-17T07:48:08.999Z</time>
      </trkpt>
      <trkpt lat="46.57221" lon="0.6421">
        <ele>123.82</ele>
        <time>2019-11-17T07:48:10.999Z</time>
      </trkpt>
      <trkpt lat="46.57231" lon="0.6421">
        <ele>124.46</ele>
        <time>2019-11-17T07:48:12.999Z</time>
      </trkpt>
      <trkpt lat="46.57241" lon="0.64208">
        <ele>124.99</ele>
        <time>2019-11-17T07:48:14.999Z</time>
      </trkpt>
      <trkpt lat="46.5725" lon="0.64206">
        <ele>125.29</ele>
        <time>2019-11-17T07:48:16.999Z</time>
      </trkpt>
      <trkpt lat="46.5726" lon="0.64204">
        <ele>125.59</ele>
        <time>2019-11-17T07:48:18.999Z</time>
      </trkpt>
      <trkpt lat="46.5727" lon="0.64202">
        <ele>126.17</ele>
        <time>2019-11-17T07:48:20.999Z</time>
      </trkpt>
      <trkpt lat="46.5728" lon="0.64201">
        <ele>126.77</ele>
        <time>2019-11-17T07:48:22.999Z</time>
      </trkpt>
      <trkpt lat="46.57289" lon="0.64198">
        <ele>126.73</ele>
        <time>2019-11-17T07:48:24.999Z</time>
      </trkpt>
      <trkpt lat="46.57298" lon="0.64192">
        <ele>126.28</ele>
        <time>2019-11-17T07:48:26.999Z</time>
      </trkpt>
      <trkpt lat="46.57307" lon="0.64184">
        <ele>125.46</ele>
        <time>2019-11-17T07:48:28.999Z</time>
      </trkpt>
      <trkpt lat="46.57317" lon="0.64181">
        <ele>125.19</ele>
        <time>2019-11-17T07:48:31.999Z</time>
      </trkpt>
      <trkpt lat="46.57325" lon="0.64164">
        <ele>125.47</ele>
        <time>2019-11-17T07:48:34.999Z</time>
      </trkpt>
      <trkpt lat="46.57331" lon="0.64151">
        <ele>125.42</ele>
        <time>2019-11-17T07:48:36.999Z</time>
      </trkpt>
      <trkpt lat="46.57337" lon="0.64138">
        <ele>124.86</ele>
        <time>2019-11-17T07:48:38.999Z</time>
      </trkpt>
      <trkpt lat="46.57343" lon="0.64122">
        <ele>124.26</ele>
        <time>2019-11-17T07:48:40.999Z</time>
      </trkpt>
      <trkpt lat="46.57349" lon="0.64107">
        <ele>124.11</ele>
        <time>2019-11-17T07:48:42.999Z</time>
      </trkpt>
      <trkpt lat="46.57357" lon="0.64093">
        <ele>124.26</ele>
        <time>2019-11-17T07:48:44.999Z</time>
      </trkpt>
      <trkpt lat="46.57364" lon="0.64077">
        <ele>124.56</ele>
        <time>2019-11-17T07:48:46.999Z</time>
      </trkpt>
      <trkpt lat="46.5737" lon="0.64062">
        <ele>124.78</ele>
        <time>2019-11-17T07:48:48.999Z</time>
      </trkpt>
      <trkpt lat="46.57377" lon="0.64048">
        <ele>124.77</ele>
        <time>2019-11-17T07:48:50.999Z</time>
      </trkpt>
      <trkpt lat="46.57384" lon="0.64033">
        <ele>124.59</ele>
        <time>2019-11-17T07:48:52.999Z</time>
      </trkpt>
      <trkpt lat="46.5739" lon="0.64019">
        <ele>124.3</ele>
        <time>2019-11-17T07:48:54.999Z</time>
      </trkpt>
      <trkpt lat="46.57397" lon="0.64004">
        <ele>123.94</ele>
        <time>2019-11-17T07:48:56.999Z</time>
      </trkpt>
      <trkpt lat="46.57404" lon="0.63988">
        <ele>123.57</ele>
        <time>2019-11-17T07:48:58.999Z</time>
      </trkpt>
      <trkpt lat="46.57411" lon="0.63972">
        <ele>123.16</ele>
        <time>2019-11-17T07:49:00.999Z</time>
      </trkpt>
      <trkpt lat="46.57417" lon="0.63956">
        <ele>122.74</ele>
        <time>2019-11-17T07:49:02.999Z</time>
      </trkpt>
      <trkpt lat="46.57425" lon="0.63941">
        <ele>122.33</ele>
        <time>2019-11-17T07:49:04.999Z</time>
      </trkpt>
      <trkpt lat="46.57432" lon="0.63926">
        <ele>121.94</ele>
        <time>2019-11-17T07:49:06.999Z</time>
      </trkpt>
      <trkpt lat="46.57438" lon="0.63911">
        <ele>121.59</ele>
        <time>2019-11-17T07:49:08.999Z</time>
      </trkpt>
      <trkpt lat="46.57444" lon="0.63895">
        <ele>121.19</ele>
        <time>2019-11-17T07:49:10.999Z</time>
      </trkpt>
      <trkpt lat="46.57451" lon="0.63881">
        <ele>120.95</ele>
        <time>2019-11-17T07:49:12.999Z</time>
      </trkpt>
      <trkpt lat="46.57457" lon="0.63866">
        <ele>120.63</ele>
        <time>2019-11-17T07:49:14.999Z</time>
      </trkpt>
      <trkpt lat="46.57464" lon="0.63851">
        <ele>120.54</ele>
        <time>2019-11-17T07:49:16.999Z</time>
      </trkpt>
      <trkpt lat="46.5747" lon="0.63835">
        <ele>120.4</ele>
        <time>2019-11-17T07:49:18.999Z</time>
      </trkpt>
      <trkpt lat="46.57476" lon="0.6382">
        <ele>120.18</ele>
        <time>2019-11-17T07:49:20.999Z</time>
      </trkpt>
      <trkpt lat="46.57483" lon="0.63805">
        <ele>119.72</ele>
        <time>2019-11-17T07:49:22.999Z</time>
      </trkpt>
      <trkpt lat="46.5749" lon="0.63792">
        <ele>118.72</ele>
        <time>2019-11-17T07:49:24.999Z</time>
      </trkpt>
      <trkpt lat="46.57497" lon="0.63778">
        <ele>118.05</ele>
        <time>2019-11-17T07:49:26.999Z</time>
      </trkpt>
      <trkpt lat="46.57504" lon="0.63762">
        <ele>117.49</ele>
        <time>2019-11-17T07:49:28.999Z</time>
      </trkpt>
      <trkpt lat="46.57511" lon="0.63748">
        <ele>117.61</ele>
        <time>2019-11-17T07:49:30.999Z</time>
      </trkpt>
      <trkpt lat="46.57518" lon="0.63732">
        <ele>117.9</ele>
        <time>2019-11-17T07:49:32.999Z</time>
      </trkpt>
      <trkpt lat="46.57525" lon="0.63715">
        <ele>118.01</ele>
        <time>2019-11-17T07:49:34.999Z</time>
      </trkpt>
      <trkpt lat="46.57533" lon="0.63701">
        <ele>118.1</ele>
        <time>2019-11-17T07:49:36.999Z</time>
      </trkpt>
      <trkpt lat="46.57541" lon="0.63687">
        <ele>118.22</ele>
        <time>2019-11-17T07:49:38.999Z</time>
      </trkpt>
      <trkpt lat="46.57546" lon="0.63673">
        <ele>118.14</ele>
        <time>2019-11-17T07:49:40.999Z</time>
      </trkpt>
      <trkpt lat="46.57553" lon="0.63658">
        <ele>117.95</ele>
        <time>2019-11-17T07:49:42.999Z</time>
      </trkpt>
      <trkpt lat="46.57558" lon="0.63644">
        <ele>117.6</ele>
        <time>2019-11-17T07:49:44.999Z</time>
      </trkpt>
      <trkpt lat="46.57564" lon="0.6363">
        <ele>117.52</ele>
        <time>2019-11-17T07:49:46.999Z</time>
      </trkpt>
      <trkpt lat="46.57569" lon="0.63614">
        <ele>117.32</ele>
        <time>2019-11-17T07:49:48.999Z</time>
      </trkpt>
      <trkpt lat="46.57575" lon="0.63598">
        <ele>117.35</ele>
        <time>2019-11-17T07:49:50.999Z</time>
      </trkpt>
      <trkpt lat="46.57581" lon="0.63582">
        <ele>117.49</ele>
        <time>2019-11-17T07:49:52.999Z</time>
      </trkpt>
      <trkpt lat="46.57587" lon="0.63565">
        <ele>117.68</ele>
        <time>2019-11-17T07:49:54.999Z</time>
      </trkpt>
      <trkpt lat="46.57593" lon="0.6355">
        <ele>118.02</ele>
        <time>2019-11-17T07:49:56.999Z</time>
      </trkpt>
      <trkpt lat="46.57597" lon="0.63534">
        <ele>118.44</ele>
        <time>2019-11-17T07:49:58.999Z</time>
      </trkpt>
      <trkpt lat="46.57601" lon="0.63517">
        <ele>118.66</ele>
        <time>2019-11-17T07:50:00.999Z</time>
      </trkpt>
      <trkpt lat="46.57606" lon="0.63502">
        <ele>119.04</ele>
        <time>2019-11-17T07:50:02.999Z</time>
      </trkpt>
      <trkpt lat="46.57612" lon="0.63487">
        <ele>119.11</ele>
        <time>2019-11-17T07:50:04.999Z</time>
      </trkpt>
      <trkpt lat="46.57618" lon="0.63472">
        <ele>118.71</ele>
        <time>2019-11-17T07:50:06.999Z</time>
      </trkpt>
      <trkpt lat="46.57623" lon="0.63458">
        <ele>118.15</ele>
        <time>2019-11-17T07:50:08.999Z</time>
      </trkpt>
      <trkpt lat="46.57629" lon="0.63446">
        <ele>117.41</ele>
        <time>2019-11-17T07:50:10.999Z</time>
      </trkpt>
      <trkpt lat="46.57636" lon="0.63431">
        <ele>116.57</ele>
        <time>2019-11-17T07:50:12.999Z</time>
      </trkpt>
      <trkpt lat="46.57642" lon="0.63415">
        <ele>115.79</ele>
        <time>2019-11-17T07:50:14.999Z</time>
      </trkpt>
      <trkpt lat="46.57648" lon="0.63398">
        <ele>115.45</ele>
        <time>2019-11-17T07:50:16.999Z</time>
      </trkpt>
      <trkpt lat="46.57654" lon="0.63382">
        <ele>114.98</ele>
        <time>2019-11-17T07:50:18.999Z</time>
      </trkpt>
      <trkpt lat="46.57659" lon="0.63366">
        <ele>114.54</ele>
        <time>2019-11-17T07:50:20.999Z</time>
      </trkpt>
      <trkpt lat="46.57662" lon="0.63348">
        <ele>115.25</ele>
        <time>2019-11-17T07:50:23.999Z</time>
      </trkpt>
      <trkpt lat="46.57665" lon="0.63334">
        <ele>116.33</ele>
        <time>2019-11-17T07:50:25.999Z</time>
      </trkpt>
      <trkpt lat="46.57669" lon="0.63321">
        <ele>117.92</ele>
        <time>2019-11-17T07:50:27.999Z</time>
      </trkpt>
      <trkpt lat="46.57674" lon="0.63303">
        <ele>119.3</ele>
        <time>2019-11-17T07:50:29.999Z</time>
      </trkpt>
      <trkpt lat="46.5768" lon="0.63288">
        <ele>120.56</ele>
        <time>2019-11-17T07:50:31.999Z</time>
      </trkpt>
      <trkpt lat="46.57685" lon="0.63272">
        <ele>121.75</ele>
        <time>2019-11-17T07:50:33.999Z</time>
      </trkpt>
      <trkpt lat="46.5769" lon="0.63254">
        <ele>122.65</ele>
        <time>2019-11-17T07:50:35.999Z</time>
      </trkpt>
      <trkpt lat="46.57696" lon="0.63235">
        <ele>123.23</ele>
        <time>2019-11-17T07:50:37.999Z</time>
      </trkpt>
      <trkpt lat="46.57699" lon="0.6322">
        <ele>123.44</ele>
        <time>2019-11-17T07:50:39.999Z</time>
      </trkpt>
      <trkpt lat="46.57703" lon="0.63205">
        <ele>123.84</ele>
        <time>2019-11-17T07:50:41.999Z</time>
      </trkpt>
      <trkpt lat="46.5771" lon="0.6319">
        <ele>124.63</ele>
        <time>2019-11-17T07:50:43.999Z</time>
      </trkpt>
      <trkpt lat="46.57717" lon="0.63174">
        <ele>125.47</ele>
        <time>2019-11-17T07:50:45.999Z</time>
      </trkpt>
      <trkpt lat="46.57726" lon="0.63155">
        <ele>125.57</ele>
        <time>2019-11-17T07:50:47.999Z</time>
      </trkpt>
      <trkpt lat="46.57735" lon="0.63137">
        <ele>124.94</ele>
        <time>2019-11-17T07:50:49.999Z</time>
      </trkpt>
      <trkpt lat="46.57745" lon="0.63123">
        <ele>123.89</ele>
        <time>2019-11-17T07:50:51.999Z</time>
      </trkpt>
      <trkpt lat="46.57754" lon="0.6311">
        <ele>122.45</ele>
        <time>2019-11-17T07:50:53.999Z</time>
      </trkpt>
      <trkpt lat="46.57762" lon="0.63099">
        <ele>121.37</ele>
        <time>2019-11-17T07:50:55.999Z</time>
      </trkpt>
      <trkpt lat="46.5777" lon="0.63087">
        <ele>120.74</ele>
        <time>2019-11-17T07:50:57.999Z</time>
      </trkpt>
      <trkpt lat="46.57779" lon="0.63076">
        <ele>120.24</ele>
        <time>2019-11-17T07:50:59.999Z</time>
      </trkpt>
      <trkpt lat="46.57786" lon="0.63065">
        <ele>119.77</ele>
        <time>2019-11-17T07:51:01.999Z</time>
      </trkpt>
      <trkpt lat="46.57795" lon="0.63054">
        <ele>119.24</ele>
        <time>2019-11-17T07:51:03.999Z</time>
      </trkpt>
      <trkpt lat="46.57803" lon="0.63044">
        <ele>118.43</ele>
        <time>2019-11-17T07:51:05.999Z</time>
      </trkpt>
      <trkpt lat="46.57811" lon="0.63034">
        <ele>117.59</ele>
        <time>2019-11-17T07:51:07.999Z</time>
      </trkpt>
      <trkpt lat="46.5782" lon="0.63024">
        <ele>116.96</ele>
        <time>2019-11-17T07:51:09.999Z</time>
      </trkpt>
      <trkpt lat="46.57828" lon="0.63012">
        <ele>116.88</ele>
        <time>2019-11-17T07:51:11.999Z</time>
      </trkpt>
      <trkpt lat="46.57836" lon="0.63">
        <ele>117.3</ele>
        <time>2019-11-17T07:51:13.999Z</time>
      </trkpt>
      <trkpt lat="46.57843" lon="0.62989">
        <ele>117.75</ele>
        <time>2019-11-17T07:51:15.999Z</time>
      </trkpt>
      <trkpt lat="46.57849" lon="0.62978">
        <ele>118</ele>
        <time>2019-11-17T07:51:17.999Z</time>
      </trkpt>
      <trkpt lat="46.57854" lon="0.62966">
        <ele>118.11</ele>
        <time>2019-11-17T07:51:19.999Z</time>
      </trkpt>
      <trkpt lat="46.5786" lon="0.62954">
        <ele>118.42</ele>
        <time>2019-11-17T07:51:21.999Z</time>
      </trkpt>
      <trkpt lat="46.57866" lon="0.62942">
        <ele>118.43</ele>
        <time>2019-11-17T07:51:23.999Z</time>
      </trkpt>
      <trkpt lat="46.57874" lon="0.62932">
        <ele>118.16</ele>
        <time>2019-11-17T07:51:25.999Z</time>
      </trkpt>
      <trkpt lat="46.57884" lon="0.62928">
        <ele>117.86</ele>
        <time>2019-11-17T07:51:27.999Z</time>
      </trkpt>
      <trkpt lat="46.57897" lon="0.62922">
        <ele>118.67</ele>
        <time>2019-11-17T07:51:30.999Z</time>
      </trkpt>
      <trkpt lat="46.57908" lon="0.62919">
        <ele>119.05</ele>
        <time>2019-11-17T07:51:33.999Z</time>
      </trkpt>
      <trkpt lat="46.57917" lon="0.62915">
        <ele>119.18</ele>
        <time>2019-11-17T07:51:35.999Z</time>
      </trkpt>
      <trkpt lat="46.57926" lon="0.6291">
        <ele>120.66</ele>
        <time>2019-11-17T07:51:37.999Z</time>
      </trkpt>
      <trkpt lat="46.57936" lon="0.62903">
        <ele>121.13</ele>
        <time>2019-11-17T07:51:40.999Z</time>
      </trkpt>
      <trkpt lat="46.57945" lon="0.62898">
        <ele>121.19</ele>
        <time>2019-11-17T07:51:43.999Z</time>
      </trkpt>
      <trkpt lat="46.57956" lon="0.62892">
        <ele>121.24</ele>
        <time>2019-11-17T07:51:46.999Z</time>
      </trkpt>
      <trkpt lat="46.57968" lon="0.62886">
        <ele>121.72</ele>
        <time>2019-11-17T07:51:49.999Z</time>
      </trkpt>
      <trkpt lat="46.57979" lon="0.62879">
        <ele>122.03</ele>
        <time>2019-11-17T07:51:52.999Z</time>
      </trkpt>
      <trkpt lat="46.5799" lon="0.62877">
        <ele>123</ele>
        <time>2019-11-17T07:51:54.999Z</time>
      </trkpt>
      <trkpt lat="46.58" lon="0.62874">
        <ele>123.33</ele>
        <time>2019-11-17T07:51:56.999Z</time>
      </trkpt>
      <trkpt lat="46.58011" lon="0.62873">
        <ele>124.04</ele>
        <time>2019-11-17T07:51:58.999Z</time>
      </trkpt>
      <trkpt lat="46.58024" lon="0.62869">
        <ele>124.14</ele>
        <time>2019-11-17T07:52:01.999Z</time>
      </trkpt>
      <trkpt lat="46.58035" lon="0.62859">
        <ele>123.19</ele>
        <time>2019-11-17T07:52:04.999Z</time>
      </trkpt>
      <trkpt lat="46.58044" lon="0.62852">
        <ele>122.71</ele>
        <time>2019-11-17T07:52:06.999Z</time>
      </trkpt>
      <trkpt lat="46.58055" lon="0.62842">
        <ele>121.8</ele>
        <time>2019-11-17T07:52:09.999Z</time>
      </trkpt>
      <trkpt lat="46.58066" lon="0.62833">
        <ele>121.28</ele>
        <time>2019-11-17T07:52:12.999Z</time>
      </trkpt>
      <trkpt lat="46.58075" lon="0.62829">
        <ele>121.44</ele>
        <time>2019-11-17T07:52:14.999Z</time>
      </trkpt>
      <trkpt lat="46.58087" lon="0.6282">
        <ele>122.35</ele>
        <time>2019-11-17T07:52:17.999Z</time>
      </trkpt>
      <trkpt lat="46.58095" lon="0.62814">
        <ele>123.54</ele>
        <time>2019-11-17T07:52:19.999Z</time>
      </trkpt>
      <trkpt lat="46.58104" lon="0.62809">
        <ele>125.21</ele>
        <time>2019-11-17T07:52:21.999Z</time>
      </trkpt>
      <trkpt lat="46.58112" lon="0.62801">
        <ele>126.82</ele>
        <time>2019-11-17T07:52:23.999Z</time>
      </trkpt>
      <trkpt lat="46.5812" lon="0.62794">
        <ele>128.08</ele>
        <time>2019-11-17T07:52:25.999Z</time>
      </trkpt>
      <trkpt lat="46.58128" lon="0.62786">
        <ele>128.87</ele>
        <time>2019-11-17T07:52:27.999Z</time>
      </trkpt>
      <trkpt lat="46.58135" lon="0.62778">
        <ele>129.08</ele>
        <time>2019-11-17T07:52:29.999Z</time>
      </trkpt>
      <trkpt lat="46.58142" lon="0.62767">
        <ele>128.08</ele>
        <time>2019-11-17T07:52:31.999Z</time>
      </trkpt>
      <trkpt lat="46.5815" lon="0.62759">
        <ele>127.6</ele>
        <time>2019-11-17T07:52:33.999Z</time>
      </trkpt>
      <trkpt lat="46.58158" lon="0.62751">
        <ele>128.07</ele>
        <time>2019-11-17T07:52:35.999Z</time>
      </trkpt>
      <trkpt lat="46.58166" lon="0.62744">
        <ele>128.37</ele>
        <time>2019-11-17T07:52:37.999Z</time>
      </trkpt>
      <trkpt lat="46.58175" lon="0.62736">
        <ele>127.79</ele>
        <time>2019-11-17T07:52:39.999Z</time>
      </trkpt>
      <trkpt lat="46.58183" lon="0.62727">
        <ele>126.48</ele>
        <time>2019-11-17T07:52:41.999Z</time>
      </trkpt>
      <trkpt lat="46.5819" lon="0.6272">
        <ele>125.04</ele>
        <time>2019-11-17T07:52:43.999Z</time>
      </trkpt>
      <trkpt lat="46.58198" lon="0.62711">
        <ele>124.52</ele>
        <time>2019-11-17T07:52:45.999Z</time>
      </trkpt>
      <trkpt lat="46.58207" lon="0.62697">
        <ele>124.31</ele>
        <time>2019-11-17T07:52:48.999Z</time>
      </trkpt>
      <trkpt lat="46.58217" lon="0.62686">
        <ele>124.59</ele>
        <time>2019-11-17T07:52:51.999Z</time>
      </trkpt>
      <trkpt lat="46.58226" lon="0.62674">
        <ele>125.21</ele>
        <time>2019-11-17T07:52:54.999Z</time>
      </trkpt>
      <trkpt lat="46.58235" lon="0.62669">
        <ele>125.73</ele>
        <time>2019-11-17T07:52:56.999Z</time>
      </trkpt>
      <trkpt lat="46.58247" lon="0.62663">
        <ele>126.91</ele>
        <time>2019-11-17T07:52:59.999Z</time>
      </trkpt>
      <trkpt lat="46.5826" lon="0.62662">
        <ele>128.51</ele>
        <time>2019-11-17T07:53:02.999Z</time>
      </trkpt>
      <trkpt lat="46.58272" lon="0.62666">
        <ele>129.81</ele>
        <time>2019-11-17T07:53:05.999Z</time>
      </trkpt>
      <trkpt lat="46.58281" lon="0.62672">
        <ele>129.88</ele>
        <time>2019-11-17T07:53:08.999Z</time>
      </trkpt>
      <trkpt lat="46.58291" lon="0.62671">
        <ele>130.07</ele>
        <time>2019-11-17T07:53:13.999Z</time>
      </trkpt>
      <trkpt lat="46.583" lon="0.62663">
        <ele>130.4</ele>
        <time>2019-11-17T07:53:17.999Z</time>
      </trkpt>
      <trkpt lat="46.58307" lon="0.62653">
        <ele>130.63</ele>
        <time>2019-11-17T07:53:20.999Z</time>
      </trkpt>
      <trkpt lat="46.58316" lon="0.62645">
        <ele>131.19</ele>
        <time>2019-11-17T07:53:23.999Z</time>
      </trkpt>
      <trkpt lat="46.58325" lon="0.62641">
        <ele>131.9</ele>
        <time>2019-11-17T07:53:26.999Z</time>
      </trkpt>
      <trkpt lat="46.58335" lon="0.6264">
        <ele>132.79</ele>
        <time>2019-11-17T07:53:30.999Z</time>
      </trkpt>
      <trkpt lat="46.58347" lon="0.6264">
        <ele>133.56</ele>
        <time>2019-11-17T07:53:34.999Z</time>
      </trkpt>
      <trkpt lat="46.58358" lon="0.62645">
        <ele>134.37</ele>
        <time>2019-11-17T07:53:38.999Z</time>
      </trkpt>
      <trkpt lat="46.58366" lon="0.62657">
        <ele>135.27</ele>
        <time>2019-11-17T07:53:42.999Z</time>
      </trkpt>
      <trkpt lat="46.58371" lon="0.62669">
        <ele>136.15</ele>
        <time>2019-11-17T07:53:46.999Z</time>
      </trkpt>
      <trkpt lat="46.5838" lon="0.62681">
        <ele>137.1</ele>
        <time>2019-11-17T07:53:50.999Z</time>
      </trkpt>
      <trkpt lat="46.58389" lon="0.62692">
        <ele>138.2</ele>
        <time>2019-11-17T07:53:54.999Z</time>
      </trkpt>
      <trkpt lat="46.58394" lon="0.62704">
        <ele>139.22</ele>
        <time>2019-11-17T07:53:58.999Z</time>
      </trkpt>
      <trkpt lat="46.58394" lon="0.62717">
        <ele>140.09</ele>
        <time>2019-11-17T07:54:02.999Z</time>
      </trkpt>
      <trkpt lat="46.58398" lon="0.62731">
        <ele>140.7</ele>
        <time>2019-11-17T07:54:05.999Z</time>
      </trkpt>
      <trkpt lat="46.58402" lon="0.62747">
        <ele>141.18</ele>
        <time>2019-11-17T07:54:09.999Z</time>
      </trkpt>
      <trkpt lat="46.58405" lon="0.62761">
        <ele>141.67</ele>
        <time>2019-11-17T07:54:13.999Z</time>
      </trkpt>
      <trkpt lat="46.5841" lon="0.62776">
        <ele>142.26</ele>
        <time>2019-11-17T07:54:17.999Z</time>
      </trkpt>
      <trkpt lat="46.58413" lon="0.62788">
        <ele>142.71</ele>
        <time>2019-11-17T07:54:20.999Z</time>
      </trkpt>
      <trkpt lat="46.58419" lon="0.62802">
        <ele>143.65</ele>
        <time>2019-11-17T07:54:24.999Z</time>
      </trkpt>
      <trkpt lat="46.58424" lon="0.62817">
        <ele>144.73</ele>
        <time>2019-11-17T07:54:28.999Z</time>
      </trkpt>
      <trkpt lat="46.58429" lon="0.62832">
        <ele>145.92</ele>
        <time>2019-11-17T07:54:32.999Z</time>
      </trkpt>
      <trkpt lat="46.58433" lon="0.62848">
        <ele>147.1</ele>
        <time>2019-11-17T07:54:36.999Z</time>
      </trkpt>
      <trkpt lat="46.58438" lon="0.62863">
        <ele>148.27</ele>
        <time>2019-11-17T07:54:40.999Z</time>
      </trkpt>
      <trkpt lat="46.58441" lon="0.62876">
        <ele>149.09</ele>
        <time>2019-11-17T07:54:43.999Z</time>
      </trkpt>
      <trkpt lat="46.58444" lon="0.62888">
        <ele>149.73</ele>
        <time>2019-11-17T07:54:46.999Z</time>
      </trkpt>
      <trkpt lat="46.58447" lon="0.629">
        <ele>150.31</ele>
        <time>2019-11-17T07:54:49.999Z</time>
      </trkpt>
      <trkpt lat="46.58451" lon="0.62915">
        <ele>151.01</ele>
        <time>2019-11-17T07:54:53.999Z</time>
      </trkpt>
      <trkpt lat="46.58455" lon="0.62929">
        <ele>151.95</ele>
        <time>2019-11-17T07:54:58.999Z</time>
      </trkpt>
      <trkpt lat="46.58459" lon="0.62942">
        <ele>152.8</ele>
        <time>2019-11-17T07:55:02.999Z</time>
      </trkpt>
      <trkpt lat="46.58462" lon="0.62954">
        <ele>153.29</ele>
        <time>2019-11-17T07:55:05.999Z</time>
      </trkpt>
      <trkpt lat="46.58465" lon="0.62968">
        <ele>153.74</ele>
        <time>2019-11-17T07:55:08.999Z</time>
      </trkpt>
      <trkpt lat="46.58468" lon="0.62982">
        <ele>154.26</ele>
        <time>2019-11-17T07:55:11.999Z</time>
      </trkpt>
      <trkpt lat="46.58471" lon="0.62998">
        <ele>154.85</ele>
        <time>2019-11-17T07:55:14.999Z</time>
      </trkpt>
      <trkpt lat="46.58475" lon="0.63013">
        <ele>155.62</ele>
        <time>2019-11-17T07:55:18.999Z</time>
      </trkpt>
      <trkpt lat="46.58478" lon="0.63029">
        <ele>156.42</ele>
        <time>2019-11-17T07:55:22.999Z</time>
      </trkpt>
      <trkpt lat="46.58481" lon="0.63044">
        <ele>157.08</ele>
        <time>2019-11-17T07:55:25.999Z</time>
      </trkpt>
      <trkpt lat="46.58483" lon="0.6306">
        <ele>157.69</ele>
        <time>2019-11-17T07:55:28.999Z</time>
      </trkpt>
      <trkpt lat="46.58485" lon="0.63079">
        <ele>158.38</ele>
        <time>2019-11-17T07:55:32.999Z</time>
      </trkpt>
      <trkpt lat="46.58486" lon="0.63094">
        <ele>158.73</ele>
        <time>2019-11-17T07:55:35.999Z</time>
      </trkpt>
      <trkpt lat="46.58482" lon="0.63109">
        <ele>159</ele>
        <time>2019-11-17T07:55:39.999Z</time>
      </trkpt>
      <trkpt lat="46.58475" lon="0.6312">
        <ele>159.08</ele>
        <time>2019-11-17T07:55:42.999Z</time>
      </trkpt>
      <trkpt lat="46.58466" lon="0.63127">
        <ele>159.01</ele>
        <time>2019-11-17T07:55:46.999Z</time>
      </trkpt>
      <trkpt lat="46.58457" lon="0.63136">
        <ele>158.77</ele>
        <time>2019-11-17T07:55:50.999Z</time>
      </trkpt>
      <trkpt lat="46.58449" lon="0.63145">
        <ele>158.52</ele>
        <time>2019-11-17T07:55:53.999Z</time>
      </trkpt>
      <trkpt lat="46.58443" lon="0.63159">
        <ele>158.47</ele>
        <time>2019-11-17T07:55:56.999Z</time>
      </trkpt>
      <trkpt lat="46.58443" lon="0.63174">
        <ele>158.63</ele>
        <time>2019-11-17T07:56:01.999Z</time>
      </trkpt>
      <trkpt lat="46.58444" lon="0.63194">
        <ele>158.74</ele>
        <time>2019-11-17T07:56:04.999Z</time>
      </trkpt>
      <trkpt lat="46.58446" lon="0.63213">
        <ele>158.94</ele>
        <time>2019-11-17T07:56:07.999Z</time>
      </trkpt>
      <trkpt lat="46.58447" lon="0.63227">
        <ele>159.15</ele>
        <time>2019-11-17T07:56:10.999Z</time>
      </trkpt>
      <trkpt lat="46.58448" lon="0.63243">
        <ele>159.46</ele>
        <time>2019-11-17T07:56:13.999Z</time>
      </trkpt>
      <trkpt lat="46.58452" lon="0.63257">
        <ele>159.83</ele>
        <time>2019-11-17T07:56:17.999Z</time>
      </trkpt>
      <trkpt lat="46.58458" lon="0.63273">
        <ele>160.23</ele>
        <time>2019-11-17T07:56:20.999Z</time>
      </trkpt>
      <trkpt lat="46.58464" lon="0.63288">
        <ele>160.81</ele>
        <time>2019-11-17T07:56:23.999Z</time>
      </trkpt>
      <trkpt lat="46.58469" lon="0.63301">
        <ele>161.4</ele>
        <time>2019-11-17T07:56:26.999Z</time>
      </trkpt>
      <trkpt lat="46.58473" lon="0.63316">
        <ele>162.02</ele>
        <time>2019-11-17T07:56:29.999Z</time>
      </trkpt>
      <trkpt lat="46.58478" lon="0.63334">
        <ele>162.54</ele>
        <time>2019-11-17T07:56:32.999Z</time>
      </trkpt>
      <trkpt lat="46.58481" lon="0.63349">
        <ele>163.82</ele>
        <time>2019-11-17T07:56:35.999Z</time>
      </trkpt>
      <trkpt lat="46.58484" lon="0.63365">
        <ele>165.73</ele>
        <time>2019-11-17T07:56:38.999Z</time>
      </trkpt>
      <trkpt lat="46.58488" lon="0.63382">
        <ele>167.7</ele>
        <time>2019-11-17T07:56:41.999Z</time>
      </trkpt>
      <trkpt lat="46.58491" lon="0.63401">
        <ele>169.18</ele>
        <time>2019-11-17T07:56:44.999Z</time>
      </trkpt>
      <trkpt lat="46.58494" lon="0.63417">
        <ele>169.29</ele>
        <time>2019-11-17T07:56:47.999Z</time>
      </trkpt>
      <trkpt lat="46.58488" lon="0.63427">
        <ele>169.36</ele>
        <time>2019-11-17T07:56:50.999Z</time>
      </trkpt>
      <trkpt lat="46.58479" lon="0.6343">
        <ele>169.49</ele>
        <time>2019-11-17T07:56:52.999Z</time>
      </trkpt>
      <trkpt lat="46.5847" lon="0.63435">
        <ele>170.08</ele>
        <time>2019-11-17T07:56:54.999Z</time>
      </trkpt>
      <trkpt lat="46.58461" lon="0.63443">
        <ele>170.55</ele>
        <time>2019-11-17T07:56:56.999Z</time>
      </trkpt>
      <trkpt lat="46.58451" lon="0.63453">
        <ele>171.2</ele>
        <time>2019-11-17T07:56:58.999Z</time>
      </trkpt>
      <trkpt lat="46.58443" lon="0.63464">
        <ele>172.88</ele>
        <time>2019-11-17T07:57:00.999Z</time>
      </trkpt>
      <trkpt lat="46.58436" lon="0.63476">
        <ele>174.23</ele>
        <time>2019-11-17T07:57:02.999Z</time>
      </trkpt>
      <trkpt lat="46.5843" lon="0.63489">
        <ele>175.51</ele>
        <time>2019-11-17T07:57:04.999Z</time>
      </trkpt>
      <trkpt lat="46.58424" lon="0.63502">
        <ele>176.49</ele>
        <time>2019-11-17T07:57:06.999Z</time>
      </trkpt>
      <trkpt lat="46.58418" lon="0.63515">
        <ele>177.09</ele>
        <time>2019-11-17T07:57:08.999Z</time>
      </trkpt>
      <trkpt lat="46.58411" lon="0.63529">
        <ele>177.63</ele>
        <time>2019-11-17T07:57:10.999Z</time>
      </trkpt>
      <trkpt lat="46.58404" lon="0.63542">
        <ele>177.88</ele>
        <time>2019-11-17T07:57:12.999Z</time>
      </trkpt>
      <trkpt lat="46.58397" lon="0.63556">
        <ele>177.85</ele>
        <time>2019-11-17T07:57:14.999Z</time>
      </trkpt>
      <trkpt lat="46.58392" lon="0.63567">
        <ele>177.73</ele>
        <time>2019-11-17T07:57:16.999Z</time>
      </trkpt>
      <trkpt lat="46.58384" lon="0.63582">
        <ele>177.7</ele>
        <time>2019-11-17T07:57:19.999Z</time>
      </trkpt>
      <trkpt lat="46.58386" lon="0.63596">
        <ele>177.74</ele>
        <time>2019-11-17T07:57:22.999Z</time>
      </trkpt>
      <trkpt lat="46.58391" lon="0.63612">
        <ele>177.67</ele>
        <time>2019-11-17T07:57:25.999Z</time>
      </trkpt>
      <trkpt lat="46.58394" lon="0.63627">
        <ele>177.33</ele>
        <time>2019-11-17T07:57:28.999Z</time>
      </trkpt>
      <trkpt lat="46.58397" lon="0.63641">
        <ele>176.74</ele>
        <time>2019-11-17T07:57:31.999Z</time>
      </trkpt>
      <trkpt lat="46.58401" lon="0.63658">
        <ele>172.87</ele>
        <time>2019-11-17T07:57:34.999Z</time>
      </trkpt>
      <trkpt lat="46.58403" lon="0.63671">
        <ele>172.04</ele>
        <time>2019-11-17T07:57:36.999Z</time>
      </trkpt>
      <trkpt lat="46.58406" lon="0.63689">
        <ele>171.9</ele>
        <time>2019-11-17T07:57:39.999Z</time>
      </trkpt>
      <trkpt lat="46.58409" lon="0.63705">
        <ele>171.65</ele>
        <time>2019-11-17T07:57:42.999Z</time>
      </trkpt>
      <trkpt lat="46.58412" lon="0.63719">
        <ele>171.37</ele>
        <time>2019-11-17T07:57:45.999Z</time>
      </trkpt>
      <trkpt lat="46.58415" lon="0.63735">
        <ele>170.95</ele>
        <time>2019-11-17T07:57:49.999Z</time>
      </trkpt>
      <trkpt lat="46.58417" lon="0.63749">
        <ele>170.64</ele>
        <time>2019-11-17T07:57:52.999Z</time>
      </trkpt>
      <trkpt lat="46.58418" lon="0.63764">
        <ele>170.27</ele>
        <time>2019-11-17T07:57:56.999Z</time>
      </trkpt>
      <trkpt lat="46.58419" lon="0.63778">
        <ele>170.06</ele>
        <time>2019-11-17T07:58:01.999Z</time>
      </trkpt>
      <trkpt lat="46.5842" lon="0.63795">
        <ele>169.97</ele>
        <time>2019-11-17T07:58:05.999Z</time>
      </trkpt>
      <trkpt lat="46.58424" lon="0.6381">
        <ele>170</ele>
        <time>2019-11-17T07:58:09.999Z</time>
      </trkpt>
      <trkpt lat="46.58427" lon="0.63822">
        <ele>170.27</ele>
        <time>2019-11-17T07:58:13.999Z</time>
      </trkpt>
      <trkpt lat="46.5843" lon="0.63835">
        <ele>170.75</ele>
        <time>2019-11-17T07:58:17.999Z</time>
      </trkpt>
      <trkpt lat="46.58433" lon="0.63848">
        <ele>171.14</ele>
        <time>2019-11-17T07:58:21.999Z</time>
      </trkpt>
      <trkpt lat="46.58435" lon="0.63861">
        <ele>171.3</ele>
        <time>2019-11-17T07:58:25.999Z</time>
      </trkpt>
      <trkpt lat="46.58436" lon="0.63876">
        <ele>171.39</ele>
        <time>2019-11-17T07:58:30.999Z</time>
      </trkpt>
      <trkpt lat="46.58437" lon="0.63889">
        <ele>171.56</ele>
        <time>2019-11-17T07:58:36.999Z</time>
      </trkpt>
      <trkpt lat="46.58436" lon="0.63906">
        <ele>171.87</ele>
        <time>2019-11-17T07:58:41.999Z</time>
      </trkpt>
      <trkpt lat="46.58431" lon="0.63921">
        <ele>172.19</ele>
        <time>2019-11-17T07:58:46.999Z</time>
      </trkpt>
      <trkpt lat="46.58426" lon="0.63934">
        <ele>172.55</ele>
        <time>2019-11-17T07:58:50.999Z</time>
      </trkpt>
      <trkpt lat="46.58421" lon="0.63947">
        <ele>173.03</ele>
        <time>2019-11-17T07:58:54.999Z</time>
      </trkpt>
      <trkpt lat="46.58416" lon="0.63959">
        <ele>173.72</ele>
        <time>2019-11-17T07:58:58.999Z</time>
      </trkpt>
      <trkpt lat="46.58414" lon="0.63976">
        <ele>174.62</ele>
        <time>2019-11-17T07:59:02.999Z</time>
      </trkpt>
      <trkpt lat="46.58416" lon="0.63992">
        <ele>175.71</ele>
        <time>2019-11-17T07:59:06.999Z</time>
      </trkpt>
      <trkpt lat="46.58419" lon="0.64004">
        <ele>176.55</ele>
        <time>2019-11-17T07:59:09.999Z</time>
      </trkpt>
      <trkpt lat="46.58421" lon="0.64018">
        <ele>177.4</ele>
        <time>2019-11-17T07:59:12.999Z</time>
      </trkpt>
      <trkpt lat="46.58423" lon="0.64032">
        <ele>178.05</ele>
        <time>2019-11-17T07:59:15.999Z</time>
      </trkpt>
      <trkpt lat="46.58425" lon="0.64045">
        <ele>178.44</ele>
        <time>2019-11-17T07:59:18.999Z</time>
      </trkpt>
      <trkpt lat="46.58427" lon="0.64059">
        <ele>178.69</ele>
        <time>2019-11-17T07:59:21.999Z</time>
      </trkpt>
      <trkpt lat="46.5843" lon="0.64073">
        <ele>179.51</ele>
        <time>2019-11-17T07:59:24.999Z</time>
      </trkpt>
      <trkpt lat="46.58432" lon="0.64091">
        <ele>179.66</ele>
        <time>2019-11-17T07:59:28.999Z</time>
      </trkpt>
      <trkpt lat="46.58433" lon="0.64105">
        <ele>179.76</ele>
        <time>2019-11-17T07:59:31.999Z</time>
      </trkpt>
      <trkpt lat="46.58435" lon="0.6412">
        <ele>180</ele>
        <time>2019-11-17T07:59:34.999Z</time>
      </trkpt>
      <trkpt lat="46.58438" lon="0.64135">
        <ele>180.33</ele>
        <time>2019-11-17T07:59:37.999Z</time>
      </trkpt>
      <trkpt lat="46.5844" lon="0.64148">
        <ele>180.65</ele>
        <time>2019-11-17T07:59:40.999Z</time>
      </trkpt>
      <trkpt lat="46.58441" lon="0.64164">
        <ele>181.04</ele>
        <time>2019-11-17T07:59:45.999Z</time>
      </trkpt>
      <trkpt lat="46.58443" lon="0.64181">
        <ele>181.51</ele>
        <time>2019-11-17T07:59:48.999Z</time>
      </trkpt>
      <trkpt lat="46.58445" lon="0.642">
        <ele>182.03</ele>
        <time>2019-11-17T07:59:52.999Z</time>
      </trkpt>
      <trkpt lat="46.58447" lon="0.64215">
        <ele>182.49</ele>
        <time>2019-11-17T07:59:55.999Z</time>
      </trkpt>
      <trkpt lat="46.58449" lon="0.64232">
        <ele>182.87</ele>
        <time>2019-11-17T07:59:58.999Z</time>
      </trkpt>
      <trkpt lat="46.5845" lon="0.64249">
        <ele>183.79</ele>
        <time>2019-11-17T08:00:01.999Z</time>
      </trkpt>
      <trkpt lat="46.58452" lon="0.64267">
        <ele>183.41</ele>
        <time>2019-11-17T08:00:05.999Z</time>
      </trkpt>
      <trkpt lat="46.58455" lon="0.64286">
        <ele>183.58</ele>
        <time>2019-11-17T08:00:08.999Z</time>
      </trkpt>
      <trkpt lat="46.58461" lon="0.64302">
        <ele>183.71</ele>
        <time>2019-11-17T08:00:11.999Z</time>
      </trkpt>
      <trkpt lat="46.58473" lon="0.64309">
        <ele>183.56</ele>
        <time>2019-11-17T08:00:14.999Z</time>
      </trkpt>
      <trkpt lat="46.58481" lon="0.64317">
        <ele>183.56</ele>
        <time>2019-11-17T08:00:16.999Z</time>
      </trkpt>
      <trkpt lat="46.58488" lon="0.64328">
        <ele>183.64</ele>
        <time>2019-11-17T08:00:18.999Z</time>
      </trkpt>
      <trkpt lat="46.58496" lon="0.64338">
        <ele>184.06</ele>
        <time>2019-11-17T08:00:20.999Z</time>
      </trkpt>
      <trkpt lat="46.58504" lon="0.6435">
        <ele>184.69</ele>
        <time>2019-11-17T08:00:22.999Z</time>
      </trkpt>
      <trkpt lat="46.58513" lon="0.64363">
        <ele>185.75</ele>
        <time>2019-11-17T08:00:24.999Z</time>
      </trkpt>
      <trkpt lat="46.58521" lon="0.64374">
        <ele>187.22</ele>
        <time>2019-11-17T08:00:26.999Z</time>
      </trkpt>
      <trkpt lat="46.58528" lon="0.64386">
        <ele>188.73</ele>
        <time>2019-11-17T08:00:28.999Z</time>
      </trkpt>
      <trkpt lat="46.58537" lon="0.644">
        <ele>189.93</ele>
        <time>2019-11-17T08:00:30.999Z</time>
      </trkpt>
      <trkpt lat="46.58545" lon="0.64413">
        <ele>190.77</ele>
        <time>2019-11-17T08:00:32.999Z</time>
      </trkpt>
      <trkpt lat="46.58553" lon="0.64427">
        <ele>191.59</ele>
        <time>2019-11-17T08:00:34.999Z</time>
      </trkpt>
      <trkpt lat="46.58562" lon="0.64441">
        <ele>191.98</ele>
        <time>2019-11-17T08:00:36.999Z</time>
      </trkpt>
      <trkpt lat="46.58571" lon="0.64454">
        <ele>192.24</ele>
        <time>2019-11-17T08:00:38.999Z</time>
      </trkpt>
      <trkpt lat="46.58579" lon="0.64468">
        <ele>192.4</ele>
        <time>2019-11-17T08:00:40.999Z</time>
      </trkpt>
      <trkpt lat="46.58587" lon="0.64481">
        <ele>192.43</ele>
        <time>2019-11-17T08:00:42.999Z</time>
      </trkpt>
      <trkpt lat="46.58596" lon="0.64495">
        <ele>192.37</ele>
        <time>2019-11-17T08:00:44.999Z</time>
      </trkpt>
      <trkpt lat="46.58605" lon="0.64509">
        <ele>192.34</ele>
        <time>2019-11-17T08:00:46.999Z</time>
      </trkpt>
      <trkpt lat="46.58614" lon="0.64524">
        <ele>192.32</ele>
        <time>2019-11-17T08:00:48.999Z</time>
      </trkpt>
      <trkpt lat="46.58623" lon="0.64539">
        <ele>192.36</ele>
        <time>2019-11-17T08:00:50.999Z</time>
      </trkpt>
      <trkpt lat="46.58633" lon="0.64554">
        <ele>192.45</ele>
        <time>2019-11-17T08:00:52.999Z</time>
      </trkpt>
      <trkpt lat="46.58643" lon="0.6457">
        <ele>192.55</ele>
        <time>2019-11-17T08:00:54.999Z</time>
      </trkpt>
      <trkpt lat="46.58652" lon="0.64586">
        <ele>192.58</ele>
        <time>2019-11-17T08:00:56.999Z</time>
      </trkpt>
      <trkpt lat="46.58661" lon="0.64601">
        <ele>192.61</ele>
        <time>2019-11-17T08:00:58.999Z</time>
      </trkpt>
      <trkpt lat="46.5867" lon="0.64616">
        <ele>192.66</ele>
        <time>2019-11-17T08:01:00.999Z</time>
      </trkpt>
      <trkpt lat="46.5868" lon="0.64631">
        <ele>192.68</ele>
        <time>2019-11-17T08:01:02.999Z</time>
      </trkpt>
      <trkpt lat="46.58689" lon="0.64646">
        <ele>192.65</ele>
        <time>2019-11-17T08:01:04.999Z</time>
      </trkpt>
      <trkpt lat="46.58698" lon="0.64662">
        <ele>192.6</ele>
        <time>2019-11-17T08:01:06.999Z</time>
      </trkpt>
      <trkpt lat="46.58708" lon="0.64673">
        <ele>192.57</ele>
        <time>2019-11-17T08:01:08.999Z</time>
      </trkpt>
      <trkpt lat="46.58722" lon="0.64675">
        <ele>192.59</ele>
        <time>2019-11-17T08:01:10.999Z</time>
      </trkpt>
      <trkpt lat="46.58736" lon="0.6467">
        <ele>192.62</ele>
        <time>2019-11-17T08:01:12.999Z</time>
      </trkpt>
      <trkpt lat="46.58751" lon="0.64664">
        <ele>192.62</ele>
        <time>2019-11-17T08:01:14.999Z</time>
      </trkpt>
      <trkpt lat="46.58765" lon="0.64658">
        <ele>192.65</ele>
        <time>2019-11-17T08:01:16.999Z</time>
      </trkpt>
      <trkpt lat="46.58779" lon="0.64654">
        <ele>192.6</ele>
        <time>2019-11-17T08:01:18.999Z</time>
      </trkpt>
      <trkpt lat="46.58793" lon="0.64648">
        <ele>192.53</ele>
        <time>2019-11-17T08:01:20.999Z</time>
      </trkpt>
      <trkpt lat="46.58807" lon="0.64643">
        <ele>192.42</ele>
        <time>2019-11-17T08:01:22.999Z</time>
      </trkpt>
      <trkpt lat="46.58821" lon="0.64638">
        <ele>192.3</ele>
        <time>2019-11-17T08:01:24.999Z</time>
      </trkpt>
      <trkpt lat="46.58835" lon="0.64633">
        <ele>192.08</ele>
        <time>2019-11-17T08:01:26.999Z</time>
      </trkpt>
      <trkpt lat="46.58848" lon="0.6463">
        <ele>191.7</ele>
        <time>2019-11-17T08:01:28.999Z</time>
      </trkpt>
      <trkpt lat="46.58861" lon="0.64626">
        <ele>191.15</ele>
        <time>2019-11-17T08:01:30.999Z</time>
      </trkpt>
      <trkpt lat="46.58872" lon="0.64626">
        <ele>190.67</ele>
        <time>2019-11-17T08:01:32.999Z</time>
      </trkpt>
      <trkpt lat="46.58883" lon="0.64633">
        <ele>189.78</ele>
        <time>2019-11-17T08:01:34.999Z</time>
      </trkpt>
      <trkpt lat="46.58887" lon="0.6465">
        <ele>188.92</ele>
        <time>2019-11-17T08:01:36.999Z</time>
      </trkpt>
      <trkpt lat="46.5889" lon="0.64669">
        <ele>187.85</ele>
        <time>2019-11-17T08:01:38.999Z</time>
      </trkpt>
      <trkpt lat="46.58897" lon="0.64687">
        <ele>187.43</ele>
        <time>2019-11-17T08:01:40.999Z</time>
      </trkpt>
      <trkpt lat="46.58901" lon="0.64705">
        <ele>187.31</ele>
        <time>2019-11-17T08:01:42.999Z</time>
      </trkpt>
      <trkpt lat="46.58904" lon="0.64722">
        <ele>187.38</ele>
        <time>2019-11-17T08:01:44.999Z</time>
      </trkpt>
      <trkpt lat="46.58907" lon="0.64735">
        <ele>187</ele>
        <time>2019-11-17T08:01:46.999Z</time>
      </trkpt>
      <trkpt lat="46.5891" lon="0.64752">
        <ele>186.3</ele>
        <time>2019-11-17T08:01:49.999Z</time>
      </trkpt>
      <trkpt lat="46.58915" lon="0.64769">
        <ele>185.91</ele>
        <time>2019-11-17T08:01:52.999Z</time>
      </trkpt>
      <trkpt lat="46.58918" lon="0.64787">
        <ele>185.97</ele>
        <time>2019-11-17T08:01:55.999Z</time>
      </trkpt>
      <trkpt lat="46.58922" lon="0.64805">
        <ele>186.63</ele>
        <time>2019-11-17T08:01:58.999Z</time>
      </trkpt>
      <trkpt lat="46.58925" lon="0.64823">
        <ele>187.04</ele>
        <time>2019-11-17T08:02:01.999Z</time>
      </trkpt>
      <trkpt lat="46.58928" lon="0.6484">
        <ele>187.5</ele>
        <time>2019-11-17T08:02:04.999Z</time>
      </trkpt>
      <trkpt lat="46.58931" lon="0.64855">
        <ele>188.31</ele>
        <time>2019-11-17T08:02:07.999Z</time>
      </trkpt>
      <trkpt lat="46.58935" lon="0.64871">
        <ele>189.23</ele>
        <time>2019-11-17T08:02:10.999Z</time>
      </trkpt>
      <trkpt lat="46.58938" lon="0.64889">
        <ele>190.05</ele>
        <time>2019-11-17T08:02:13.999Z</time>
      </trkpt>
      <trkpt lat="46.58942" lon="0.64907">
        <ele>189.56</ele>
        <time>2019-11-17T08:02:16.999Z</time>
      </trkpt>
      <trkpt lat="46.58944" lon="0.6492">
        <ele>189.39</ele>
        <time>2019-11-17T08:02:18.999Z</time>
      </trkpt>
      <trkpt lat="46.58947" lon="0.64934">
        <ele>189.16</ele>
        <time>2019-11-17T08:02:20.999Z</time>
      </trkpt>
      <trkpt lat="46.58949" lon="0.64949">
        <ele>189.27</ele>
        <time>2019-11-17T08:02:22.999Z</time>
      </trkpt>
      <trkpt lat="46.5895" lon="0.64963">
        <ele>189.3</ele>
        <time>2019-11-17T08:02:24.999Z</time>
      </trkpt>
      <trkpt lat="46.58953" lon="0.64981">
        <ele>189.18</ele>
        <time>2019-11-17T08:02:27.999Z</time>
      </trkpt>
      <trkpt lat="46.58956" lon="0.65">
        <ele>189.51</ele>
        <time>2019-11-17T08:02:30.999Z</time>
      </trkpt>
      <trkpt lat="46.58958" lon="0.65013">
        <ele>189.23</ele>
        <time>2019-11-17T08:02:32.999Z</time>
      </trkpt>
      <trkpt lat="46.5896" lon="0.65027">
        <ele>188.76</ele>
        <time>2019-11-17T08:02:34.999Z</time>
      </trkpt>
      <trkpt lat="46.58962" lon="0.6504">
        <ele>188.44</ele>
        <time>2019-11-17T08:02:36.999Z</time>
      </trkpt>
      <trkpt lat="46.58964" lon="0.65054">
        <ele>188.35</ele>
        <time>2019-11-17T08:02:38.999Z</time>
      </trkpt>
      <trkpt lat="46.58965" lon="0.65068">
        <ele>188.24</ele>
        <time>2019-11-17T08:02:40.999Z</time>
      </trkpt>
      <trkpt lat="46.58967" lon="0.65083">
        <ele>187.8</ele>
        <time>2019-11-17T08:02:42.999Z</time>
      </trkpt>
      <trkpt lat="46.58968" lon="0.65097">
        <ele>187.24</ele>
        <time>2019-11-17T08:02:44.999Z</time>
      </trkpt>
      <trkpt lat="46.58969" lon="0.65116">
        <ele>186.63</ele>
        <time>2019-11-17T08:02:47.999Z</time>
      </trkpt>
      <trkpt lat="46.5897" lon="0.65131">
        <ele>186.36</ele>
        <time>2019-11-17T08:02:49.999Z</time>
      </trkpt>
      <trkpt lat="46.5897" lon="0.65145">
        <ele>186.16</ele>
        <time>2019-11-17T08:02:51.999Z</time>
      </trkpt>
      <trkpt lat="46.58971" lon="0.65161">
        <ele>185.72</ele>
        <time>2019-11-17T08:02:53.999Z</time>
      </trkpt>
      <trkpt lat="46.58971" lon="0.65176">
        <ele>185.16</ele>
        <time>2019-11-17T08:02:55.999Z</time>
      </trkpt>
      <trkpt lat="46.58972" lon="0.65189">
        <ele>184.35</ele>
        <time>2019-11-17T08:02:57.999Z</time>
      </trkpt>
      <trkpt lat="46.58973" lon="0.65205">
        <ele>183.31</ele>
        <time>2019-11-17T08:02:59.999Z</time>
      </trkpt>
      <trkpt lat="46.58975" lon="0.65222">
        <ele>181.76</ele>
        <time>2019-11-17T08:03:01.999Z</time>
      </trkpt>
      <trkpt lat="46.5898" lon="0.65235">
        <ele>180.54</ele>
        <time>2019-11-17T08:03:03.999Z</time>
      </trkpt>
      <trkpt lat="46.58986" lon="0.65249">
        <ele>180.08</ele>
        <time>2019-11-17T08:03:05.999Z</time>
      </trkpt>
      <trkpt lat="46.58993" lon="0.65263">
        <ele>179.57</ele>
        <time>2019-11-17T08:03:07.999Z</time>
      </trkpt>
      <trkpt lat="46.59001" lon="0.65277">
        <ele>179.13</ele>
        <time>2019-11-17T08:03:09.999Z</time>
      </trkpt>
      <trkpt lat="46.59008" lon="0.6529">
        <ele>179.09</ele>
        <time>2019-11-17T08:03:11.999Z</time>
      </trkpt>
      <trkpt lat="46.59014" lon="0.65304">
        <ele>178.83</ele>
        <time>2019-11-17T08:03:13.999Z</time>
      </trkpt>
      <trkpt lat="46.59019" lon="0.65321">
        <ele>178.78</ele>
        <time>2019-11-17T08:03:15.999Z</time>
      </trkpt>
      <trkpt lat="46.59023" lon="0.65337">
        <ele>178.52</ele>
        <time>2019-11-17T08:03:17.999Z</time>
      </trkpt>
      <trkpt lat="46.59027" lon="0.65352">
        <ele>178.29</ele>
        <time>2019-11-17T08:03:19.999Z</time>
      </trkpt>
      <trkpt lat="46.59032" lon="0.65366">
        <ele>178.13</ele>
        <time>2019-11-17T08:03:21.999Z</time>
      </trkpt>
      <trkpt lat="46.59037" lon="0.6538">
        <ele>178.2</ele>
        <time>2019-11-17T08:03:23.999Z</time>
      </trkpt>
      <trkpt lat="46.59042" lon="0.65394">
        <ele>178.24</ele>
        <time>2019-11-17T08:03:25.999Z</time>
      </trkpt>
      <trkpt lat="46.59046" lon="0.65407">
        <ele>178.48</ele>
        <time>2019-11-17T08:03:27.999Z</time>
      </trkpt>
      <trkpt lat="46.5905" lon="0.65419">
        <ele>178.79</ele>
        <time>2019-11-17T08:03:29.999Z</time>
      </trkpt>
      <trkpt lat="46.59054" lon="0.65431">
        <ele>179</ele>
        <time>2019-11-17T08:03:31.999Z</time>
      </trkpt>
      <trkpt lat="46.59058" lon="0.65448">
        <ele>179.12</ele>
        <time>2019-11-17T08:03:34.999Z</time>
      </trkpt>
      <trkpt lat="46.5905" lon="0.65459">
        <ele>179.42</ele>
        <time>2019-11-17T08:03:37.999Z</time>
      </trkpt>
      <trkpt lat="46.59041" lon="0.65459">
        <ele>179.61</ele>
        <time>2019-11-17T08:03:39.999Z</time>
      </trkpt>
      <trkpt lat="46.5903" lon="0.6546">
        <ele>179.76</ele>
        <time>2019-11-17T08:03:41.999Z</time>
      </trkpt>
      <trkpt lat="46.5902" lon="0.65466">
        <ele>179.68</ele>
        <time>2019-11-17T08:03:43.999Z</time>
      </trkpt>
      <trkpt lat="46.59008" lon="0.65474">
        <ele>179.54</ele>
        <time>2019-11-17T08:03:45.999Z</time>
      </trkpt>
      <trkpt lat="46.58997" lon="0.65484">
        <ele>179.34</ele>
        <time>2019-11-17T08:03:47.999Z</time>
      </trkpt>
      <trkpt lat="46.58985" lon="0.65496">
        <ele>179.41</ele>
        <time>2019-11-17T08:03:49.999Z</time>
      </trkpt>
      <trkpt lat="46.58975" lon="0.65509">
        <ele>179.72</ele>
        <time>2019-11-17T08:03:51.999Z</time>
      </trkpt>
      <trkpt lat="46.58965" lon="0.65522">
        <ele>180.15</ele>
        <time>2019-11-17T08:03:53.999Z</time>
      </trkpt>
      <trkpt lat="46.58954" lon="0.65534">
        <ele>180.62</ele>
        <time>2019-11-17T08:03:55.999Z</time>
      </trkpt>
      <trkpt lat="46.58943" lon="0.65546">
        <ele>180.95</ele>
        <time>2019-11-17T08:03:57.999Z</time>
      </trkpt>
      <trkpt lat="46.58932" lon="0.65558">
        <ele>181.28</ele>
        <time>2019-11-17T08:03:59.999Z</time>
      </trkpt>
      <trkpt lat="46.58922" lon="0.65569">
        <ele>181.48</ele>
        <time>2019-11-17T08:04:01.999Z</time>
      </trkpt>
      <trkpt lat="46.58911" lon="0.65579">
        <ele>181.53</ele>
        <time>2019-11-17T08:04:03.999Z</time>
      </trkpt>
      <trkpt lat="46.58901" lon="0.65588">
        <ele>181.67</ele>
        <time>2019-11-17T08:04:05.999Z</time>
      </trkpt>
      <trkpt lat="46.58891" lon="0.65599">
        <ele>181.73</ele>
        <time>2019-11-17T08:04:07.999Z</time>
      </trkpt>
      <trkpt lat="46.5888" lon="0.65609">
        <ele>181.81</ele>
        <time>2019-11-17T08:04:09.999Z</time>
      </trkpt>
      <trkpt lat="46.5887" lon="0.65618">
        <ele>181.84</ele>
        <time>2019-11-17T08:04:11.999Z</time>
      </trkpt>
      <trkpt lat="46.5886" lon="0.65627">
        <ele>181.81</ele>
        <time>2019-11-17T08:04:13.999Z</time>
      </trkpt>
      <trkpt lat="46.58849" lon="0.65637">
        <ele>181.66</ele>
        <time>2019-11-17T08:04:15.999Z</time>
      </trkpt>
      <trkpt lat="46.58838" lon="0.65647">
        <ele>181.39</ele>
        <time>2019-11-17T08:04:17.999Z</time>
      </trkpt>
      <trkpt lat="46.58828" lon="0.65657">
        <ele>181.18</ele>
        <time>2019-11-17T08:04:19.999Z</time>
      </trkpt>
      <trkpt lat="46.58817" lon="0.65666">
        <ele>181.18</ele>
        <time>2019-11-17T08:04:21.999Z</time>
      </trkpt>
      <trkpt lat="46.58806" lon="0.65676">
        <ele>181.21</ele>
        <time>2019-11-17T08:04:23.999Z</time>
      </trkpt>
      <trkpt lat="46.58795" lon="0.65685">
        <ele>181.19</ele>
        <time>2019-11-17T08:04:25.999Z</time>
      </trkpt>
      <trkpt lat="46.58784" lon="0.65694">
        <ele>181.05</ele>
        <time>2019-11-17T08:04:27.999Z</time>
      </trkpt>
      <trkpt lat="46.58772" lon="0.65701">
        <ele>181.01</ele>
        <time>2019-11-17T08:04:29.999Z</time>
      </trkpt>
      <trkpt lat="46.5876" lon="0.65709">
        <ele>180.96</ele>
        <time>2019-11-17T08:04:31.999Z</time>
      </trkpt>
      <trkpt lat="46.58748" lon="0.65715">
        <ele>180.83</ele>
        <time>2019-11-17T08:04:33.999Z</time>
      </trkpt>
      <trkpt lat="46.58736" lon="0.65723">
        <ele>180.65</ele>
        <time>2019-11-17T08:04:35.999Z</time>
      </trkpt>
      <trkpt lat="46.58725" lon="0.6573">
        <ele>180.54</ele>
        <time>2019-11-17T08:04:37.999Z</time>
      </trkpt>
      <trkpt lat="46.58713" lon="0.65738">
        <ele>180.49</ele>
        <time>2019-11-17T08:04:39.999Z</time>
      </trkpt>
      <trkpt lat="46.58703" lon="0.65747">
        <ele>180.38</ele>
        <time>2019-11-17T08:04:41.999Z</time>
      </trkpt>
      <trkpt lat="46.58693" lon="0.65757">
        <ele>180.27</ele>
        <time>2019-11-17T08:04:43.999Z</time>
      </trkpt>
      <trkpt lat="46.58683" lon="0.65767">
        <ele>180.18</ele>
        <time>2019-11-17T08:04:45.999Z</time>
      </trkpt>
      <trkpt lat="46.58673" lon="0.65777">
        <ele>180</ele>
        <time>2019-11-17T08:04:47.999Z</time>
      </trkpt>
      <trkpt lat="46.58663" lon="0.65787">
        <ele>179.64</ele>
        <time>2019-11-17T08:04:49.999Z</time>
      </trkpt>
      <trkpt lat="46.58652" lon="0.65798">
        <ele>179.38</ele>
        <time>2019-11-17T08:04:51.999Z</time>
      </trkpt>
      <trkpt lat="46.58641" lon="0.65808">
        <ele>179.14</ele>
        <time>2019-11-17T08:04:53.999Z</time>
      </trkpt>
      <trkpt lat="46.5863" lon="0.65819">
        <ele>179.07</ele>
        <time>2019-11-17T08:04:55.999Z</time>
      </trkpt>
      <trkpt lat="46.58618" lon="0.65829">
        <ele>178.91</ele>
        <time>2019-11-17T08:04:57.999Z</time>
      </trkpt>
      <trkpt lat="46.58605" lon="0.65836">
        <ele>178.95</ele>
        <time>2019-11-17T08:04:59.999Z</time>
      </trkpt>
      <trkpt lat="46.58591" lon="0.65841">
        <ele>178.87</ele>
        <time>2019-11-17T08:05:01.999Z</time>
      </trkpt>
      <trkpt lat="46.58577" lon="0.65841">
        <ele>178.76</ele>
        <time>2019-11-17T08:05:03.999Z</time>
      </trkpt>
      <trkpt lat="46.58562" lon="0.65839">
        <ele>178.66</ele>
        <time>2019-11-17T08:05:05.999Z</time>
      </trkpt>
      <trkpt lat="46.58548" lon="0.65838">
        <ele>178.64</ele>
        <time>2019-11-17T08:05:07.999Z</time>
      </trkpt>
      <trkpt lat="46.58533" lon="0.65837">
        <ele>178.7</ele>
        <time>2019-11-17T08:05:09.999Z</time>
      </trkpt>
      <trkpt lat="46.58519" lon="0.65839">
        <ele>178.93</ele>
        <time>2019-11-17T08:05:11.999Z</time>
      </trkpt>
      <trkpt lat="46.58504" lon="0.65841">
        <ele>178.97</ele>
        <time>2019-11-17T08:05:13.999Z</time>
      </trkpt>
      <trkpt lat="46.5849" lon="0.65845">
        <ele>178.98</ele>
        <time>2019-11-17T08:05:15.999Z</time>
      </trkpt>
      <trkpt lat="46.58476" lon="0.65851">
        <ele>179.26</ele>
        <time>2019-11-17T08:05:17.999Z</time>
      </trkpt>
      <trkpt lat="46.58464" lon="0.65856">
        <ele>179.81</ele>
        <time>2019-11-17T08:05:19.999Z</time>
      </trkpt>
      <trkpt lat="46.58452" lon="0.65863">
        <ele>180.28</ele>
        <time>2019-11-17T08:05:21.999Z</time>
      </trkpt>
      <trkpt lat="46.5844" lon="0.6587">
        <ele>180.63</ele>
        <time>2019-11-17T08:05:23.999Z</time>
      </trkpt>
      <trkpt lat="46.58427" lon="0.65876">
        <ele>180.76</ele>
        <time>2019-11-17T08:05:25.999Z</time>
      </trkpt>
      <trkpt lat="46.58416" lon="0.65883">
        <ele>181.09</ele>
        <time>2019-11-17T08:05:27.999Z</time>
      </trkpt>
      <trkpt lat="46.58403" lon="0.65887">
        <ele>181.19</ele>
        <time>2019-11-17T08:05:29.999Z</time>
      </trkpt>
      <trkpt lat="46.58391" lon="0.65891">
        <ele>181.37</ele>
        <time>2019-11-17T08:05:31.999Z</time>
      </trkpt>
      <trkpt lat="46.58378" lon="0.65893">
        <ele>181.53</ele>
        <time>2019-11-17T08:05:33.999Z</time>
      </trkpt>
      <trkpt lat="46.58366" lon="0.65897">
        <ele>181.67</ele>
        <time>2019-11-17T08:05:35.999Z</time>
      </trkpt>
      <trkpt lat="46.58355" lon="0.65897">
        <ele>182.14</ele>
        <time>2019-11-17T08:05:37.999Z</time>
      </trkpt>
      <trkpt lat="46.58344" lon="0.65893">
        <ele>182.2</ele>
        <time>2019-11-17T08:05:39.999Z</time>
      </trkpt>
      <trkpt lat="46.58333" lon="0.65888">
        <ele>181.85</ele>
        <time>2019-11-17T08:05:41.999Z</time>
      </trkpt>
      <trkpt lat="46.58324" lon="0.65884">
        <ele>182.39</ele>
        <time>2019-11-17T08:05:43.999Z</time>
      </trkpt>
      <trkpt lat="46.58313" lon="0.65881">
        <ele>182.13</ele>
        <time>2019-11-17T08:05:45.999Z</time>
      </trkpt>
      <trkpt lat="46.583" lon="0.6588">
        <ele>181.45</ele>
        <time>2019-11-17T08:05:47.999Z</time>
      </trkpt>
      <trkpt lat="46.58289" lon="0.65876">
        <ele>181.01</ele>
        <time>2019-11-17T08:05:49.999Z</time>
      </trkpt>
      <trkpt lat="46.58281" lon="0.65871">
        <ele>181.07</ele>
        <time>2019-11-17T08:05:51.999Z</time>
      </trkpt>
      <trkpt lat="46.58271" lon="0.65865">
        <ele>181.2</ele>
        <time>2019-11-17T08:05:54.999Z</time>
      </trkpt>
      <trkpt lat="46.5826" lon="0.65857">
        <ele>181.33</ele>
        <time>2019-11-17T08:05:57.999Z</time>
      </trkpt>
      <trkpt lat="46.58248" lon="0.65852">
        <ele>181.46</ele>
        <time>2019-11-17T08:06:00.999Z</time>
      </trkpt>
      <trkpt lat="46.5824" lon="0.65846">
        <ele>181.53</ele>
        <time>2019-11-17T08:06:02.999Z</time>
      </trkpt>
      <trkpt lat="46.58228" lon="0.65841">
        <ele>182.05</ele>
        <time>2019-11-17T08:06:05.999Z</time>
      </trkpt>
      <trkpt lat="46.58218" lon="0.65837">
        <ele>182.29</ele>
        <time>2019-11-17T08:06:08.999Z</time>
      </trkpt>
      <trkpt lat="46.58209" lon="0.65833">
        <ele>183.28</ele>
        <time>2019-11-17T08:06:10.999Z</time>
      </trkpt>
      <trkpt lat="46.58197" lon="0.65827">
        <ele>183.31</ele>
        <time>2019-11-17T08:06:12.999Z</time>
      </trkpt>
      <trkpt lat="46.58185" lon="0.65823">
        <ele>182.66</ele>
        <time>2019-11-17T08:06:14.999Z</time>
      </trkpt>
      <trkpt lat="46.58176" lon="0.65819">
        <ele>181.5</ele>
        <time>2019-11-17T08:06:16.999Z</time>
      </trkpt>
      <trkpt lat="46.58162" lon="0.65821">
        <ele>180.22</ele>
        <time>2019-11-17T08:06:18.999Z</time>
      </trkpt>
      <trkpt lat="46.58151" lon="0.65821">
        <ele>178.58</ele>
        <time>2019-11-17T08:06:20.999Z</time>
      </trkpt>
      <trkpt lat="46.58151" lon="0.65837">
        <ele>177.67</ele>
        <time>2019-11-17T08:06:26.999Z</time>
      </trkpt>
      <trkpt lat="46.58157" lon="0.6585">
        <ele>177.29</ele>
        <time>2019-11-17T08:06:28.999Z</time>
      </trkpt>
      <trkpt lat="46.58163" lon="0.65863">
        <ele>175.29</ele>
        <time>2019-11-17T08:06:30.999Z</time>
      </trkpt>
      <trkpt lat="46.58168" lon="0.65875">
        <ele>174.88</ele>
        <time>2019-11-17T08:06:33.999Z</time>
      </trkpt>
      <trkpt lat="46.58178" lon="0.65883">
        <ele>174.49</ele>
        <time>2019-11-17T08:06:37.999Z</time>
      </trkpt>
      <trkpt lat="46.58187" lon="0.6589">
        <ele>174.34</ele>
        <time>2019-11-17T08:06:40.999Z</time>
      </trkpt>
      <trkpt lat="46.58195" lon="0.65896">
        <ele>174.25</ele>
        <time>2019-11-17T08:06:43.999Z</time>
      </trkpt>
      <trkpt lat="46.58206" lon="0.65906">
        <ele>174.23</ele>
        <time>2019-11-17T08:06:46.999Z</time>
      </trkpt>
      <trkpt lat="46.58212" lon="0.65916">
        <ele>174.17</ele>
        <time>2019-11-17T08:06:49.999Z</time>
      </trkpt>
      <trkpt lat="46.5822" lon="0.65927">
        <ele>174.19</ele>
        <time>2019-11-17T08:06:52.999Z</time>
      </trkpt>
      <trkpt lat="46.58221" lon="0.65944">
        <ele>174.36</ele>
        <time>2019-11-17T08:06:57.999Z</time>
      </trkpt>
      <trkpt lat="46.58226" lon="0.65958">
        <ele>174.55</ele>
        <time>2019-11-17T08:07:00.999Z</time>
      </trkpt>
      <trkpt lat="46.5823" lon="0.6597">
        <ele>175.18</ele>
        <time>2019-11-17T08:07:02.999Z</time>
      </trkpt>
      <trkpt lat="46.58234" lon="0.65987">
        <ele>176.89</ele>
        <time>2019-11-17T08:07:05.999Z</time>
      </trkpt>
      <trkpt lat="46.58237" lon="0.66002">
        <ele>177.78</ele>
        <time>2019-11-17T08:07:08.999Z</time>
      </trkpt>
      <trkpt lat="46.58238" lon="0.66018">
        <ele>178.95</ele>
        <time>2019-11-17T08:07:11.999Z</time>
      </trkpt>
      <trkpt lat="46.58239" lon="0.66032">
        <ele>180.19</ele>
        <time>2019-11-17T08:07:13.999Z</time>
      </trkpt>
      <trkpt lat="46.5824" lon="0.66047">
        <ele>181.06</ele>
        <time>2019-11-17T08:07:15.999Z</time>
      </trkpt>
      <trkpt lat="46.58243" lon="0.66066">
        <ele>180.38</ele>
        <time>2019-11-17T08:07:18.999Z</time>
      </trkpt>
      <trkpt lat="46.5825" lon="0.66074">
        <ele>179.54</ele>
        <time>2019-11-17T08:07:20.999Z</time>
      </trkpt>
      <trkpt lat="46.58259" lon="0.66081">
        <ele>179.09</ele>
        <time>2019-11-17T08:07:22.999Z</time>
      </trkpt>
      <trkpt lat="46.58261" lon="0.66099">
        <ele>177.46</ele>
        <time>2019-11-17T08:07:25.999Z</time>
      </trkpt>
      <trkpt lat="46.58259" lon="0.66117">
        <ele>176.89</ele>
        <time>2019-11-17T08:07:27.999Z</time>
      </trkpt>
      <trkpt lat="46.58261" lon="0.66135">
        <ele>175.5</ele>
        <time>2019-11-17T08:07:30.999Z</time>
      </trkpt>
      <trkpt lat="46.58269" lon="0.66139">
        <ele>174.69</ele>
        <time>2019-11-17T08:07:32.999Z</time>
      </trkpt>
      <trkpt lat="46.58277" lon="0.66146">
        <ele>174.46</ele>
        <time>2019-11-17T08:07:34.999Z</time>
      </trkpt>
      <trkpt lat="46.58272" lon="0.66165">
        <ele>174.45</ele>
        <time>2019-11-17T08:07:37.999Z</time>
      </trkpt>
      <trkpt lat="46.58266" lon="0.66177">
        <ele>174.59</ele>
        <time>2019-11-17T08:07:39.999Z</time>
      </trkpt>
      <trkpt lat="46.58261" lon="0.66189">
        <ele>173.96</ele>
        <time>2019-11-17T08:07:41.999Z</time>
      </trkpt>
      <trkpt lat="46.58256" lon="0.66201">
        <ele>172.71</ele>
        <time>2019-11-17T08:07:43.999Z</time>
      </trkpt>
      <trkpt lat="46.5825" lon="0.66215">
        <ele>171.29</ele>
        <time>2019-11-17T08:07:45.999Z</time>
      </trkpt>
      <trkpt lat="46.58244" lon="0.6623">
        <ele>169.92</ele>
        <time>2019-11-17T08:07:47.999Z</time>
      </trkpt>
      <trkpt lat="46.58239" lon="0.66244">
        <ele>169</ele>
        <time>2019-11-17T08:07:49.999Z</time>
      </trkpt>
      <trkpt lat="46.58233" lon="0.66259">
        <ele>168.04</ele>
        <time>2019-11-17T08:07:51.999Z</time>
      </trkpt>
      <trkpt lat="46.58228" lon="0.66271">
        <ele>167.9</ele>
        <time>2019-11-17T08:07:53.999Z</time>
      </trkpt>
      <trkpt lat="46.58223" lon="0.66287">
        <ele>167.87</ele>
        <time>2019-11-17T08:07:56.999Z</time>
      </trkpt>
      <trkpt lat="46.5822" lon="0.663">
        <ele>168.61</ele>
        <time>2019-11-17T08:07:58.999Z</time>
      </trkpt>
      <trkpt lat="46.58216" lon="0.66321">
        <ele>169.79</ele>
        <time>2019-11-17T08:08:00.999Z</time>
      </trkpt>
      <trkpt lat="46.58213" lon="0.66336">
        <ele>170.79</ele>
        <time>2019-11-17T08:08:02.999Z</time>
      </trkpt>
      <trkpt lat="46.5821" lon="0.66354">
        <ele>171.23</ele>
        <time>2019-11-17T08:08:04.999Z</time>
      </trkpt>
      <trkpt lat="46.58206" lon="0.66369">
        <ele>171.26</ele>
        <time>2019-11-17T08:08:06.999Z</time>
      </trkpt>
      <trkpt lat="46.58202" lon="0.66383">
        <ele>171.08</ele>
        <time>2019-11-17T08:08:08.999Z</time>
      </trkpt>
      <trkpt lat="46.58198" lon="0.66401">
        <ele>170.35</ele>
        <time>2019-11-17T08:08:10.999Z</time>
      </trkpt>
      <trkpt lat="46.58193" lon="0.66417">
        <ele>169.89</ele>
        <time>2019-11-17T08:08:12.999Z</time>
      </trkpt>
      <trkpt lat="46.58188" lon="0.66435">
        <ele>168.98</ele>
        <time>2019-11-17T08:08:14.999Z</time>
      </trkpt>
      <trkpt lat="46.58182" lon="0.66452">
        <ele>167.65</ele>
        <time>2019-11-17T08:08:16.999Z</time>
      </trkpt>
      <trkpt lat="46.58182" lon="0.66469">
        <ele>166.11</ele>
        <time>2019-11-17T08:08:18.999Z</time>
      </trkpt>
      <trkpt lat="46.58186" lon="0.66485">
        <ele>164.5</ele>
        <time>2019-11-17T08:08:20.999Z</time>
      </trkpt>
      <trkpt lat="46.5819" lon="0.66498">
        <ele>162.76</ele>
        <time>2019-11-17T08:08:22.999Z</time>
      </trkpt>
      <trkpt lat="46.58194" lon="0.66511">
        <ele>161.26</ele>
        <time>2019-11-17T08:08:24.999Z</time>
      </trkpt>
      <trkpt lat="46.58198" lon="0.66528">
        <ele>160.04</ele>
        <time>2019-11-17T08:08:26.999Z</time>
      </trkpt>
      <trkpt lat="46.58201" lon="0.66541">
        <ele>159.01</ele>
        <time>2019-11-17T08:08:28.999Z</time>
      </trkpt>
      <trkpt lat="46.58204" lon="0.66559">
        <ele>158.51</ele>
        <time>2019-11-17T08:08:30.999Z</time>
      </trkpt>
      <trkpt lat="46.58206" lon="0.66577">
        <ele>157.98</ele>
        <time>2019-11-17T08:08:32.999Z</time>
      </trkpt>
      <trkpt lat="46.58209" lon="0.66594">
        <ele>157.71</ele>
        <time>2019-11-17T08:08:34.999Z</time>
      </trkpt>
      <trkpt lat="46.58212" lon="0.66608">
        <ele>157.36</ele>
        <time>2019-11-17T08:08:36.999Z</time>
      </trkpt>
      <trkpt lat="46.58218" lon="0.66622">
        <ele>157.48</ele>
        <time>2019-11-17T08:08:38.999Z</time>
      </trkpt>
      <trkpt lat="46.58222" lon="0.66636">
        <ele>157.68</ele>
        <time>2019-11-17T08:08:40.999Z</time>
      </trkpt>
      <trkpt lat="46.58217" lon="0.66653">
        <ele>157.71</ele>
        <time>2019-11-17T08:08:43.999Z</time>
      </trkpt>
      <trkpt lat="46.58209" lon="0.66663">
        <ele>157.44</ele>
        <time>2019-11-17T08:08:46.999Z</time>
      </trkpt>
      <trkpt lat="46.58198" lon="0.66671">
        <ele>157.24</ele>
        <time>2019-11-17T08:08:49.999Z</time>
      </trkpt>
      <trkpt lat="46.58191" lon="0.66679">
        <ele>157.12</ele>
        <time>2019-11-17T08:08:52.999Z</time>
      </trkpt>
      <trkpt lat="46.5818" lon="0.66687">
        <ele>157.6</ele>
        <time>2019-11-17T08:08:55.999Z</time>
      </trkpt>
      <trkpt lat="46.5817" lon="0.66699">
        <ele>157.76</ele>
        <time>2019-11-17T08:08:58.999Z</time>
      </trkpt>
      <trkpt lat="46.58162" lon="0.6671">
        <ele>158</ele>
        <time>2019-11-17T08:09:01.999Z</time>
      </trkpt>
      <trkpt lat="46.58154" lon="0.66719">
        <ele>158.43</ele>
        <time>2019-11-17T08:09:04.999Z</time>
      </trkpt>
      <trkpt lat="46.58146" lon="0.66728">
        <ele>158.93</ele>
        <time>2019-11-17T08:09:07.999Z</time>
      </trkpt>
      <trkpt lat="46.58138" lon="0.66738">
        <ele>159.52</ele>
        <time>2019-11-17T08:09:10.999Z</time>
      </trkpt>
      <trkpt lat="46.5813" lon="0.66747">
        <ele>159.99</ele>
        <time>2019-11-17T08:09:13.999Z</time>
      </trkpt>
      <trkpt lat="46.58119" lon="0.66756">
        <ele>160.43</ele>
        <time>2019-11-17T08:09:16.999Z</time>
      </trkpt>
      <trkpt lat="46.58109" lon="0.66761">
        <ele>160.6</ele>
        <time>2019-11-17T08:09:19.999Z</time>
      </trkpt>
      <trkpt lat="46.58094" lon="0.66761">
        <ele>160.65</ele>
        <time>2019-11-17T08:09:21.999Z</time>
      </trkpt>
      <trkpt lat="46.58084" lon="0.66764">
        <ele>161.17</ele>
        <time>2019-11-17T08:09:23.999Z</time>
      </trkpt>
      <trkpt lat="46.5807" lon="0.66767">
        <ele>161.16</ele>
        <time>2019-11-17T08:09:26.999Z</time>
      </trkpt>
      <trkpt lat="46.58061" lon="0.66769">
        <ele>161</ele>
        <time>2019-11-17T08:09:29.999Z</time>
      </trkpt>
      <trkpt lat="46.58051" lon="0.66774">
        <ele>160.71</ele>
        <time>2019-11-17T08:09:33.999Z</time>
      </trkpt>
      <trkpt lat="46.58042" lon="0.66778">
        <ele>159.79</ele>
        <time>2019-11-17T08:09:39.999Z</time>
      </trkpt>
      <trkpt lat="46.58033" lon="0.66787">
        <ele>158.74</ele>
        <time>2019-11-17T08:09:43.999Z</time>
      </trkpt>
      <trkpt lat="46.58024" lon="0.66792">
        <ele>157.5</ele>
        <time>2019-11-17T08:09:47.999Z</time>
      </trkpt>
      <trkpt lat="46.58014" lon="0.66798">
        <ele>156.22</ele>
        <time>2019-11-17T08:09:51.999Z</time>
      </trkpt>
      <trkpt lat="46.58006" lon="0.66805">
        <ele>154.84</ele>
        <time>2019-11-17T08:09:55.999Z</time>
      </trkpt>
      <trkpt lat="46.58006" lon="0.6682">
        <ele>154.2</ele>
        <time>2019-11-17T08:10:01.999Z</time>
      </trkpt>
      <trkpt lat="46.58" lon="0.66832">
        <ele>154.69</ele>
        <time>2019-11-17T08:10:07.999Z</time>
      </trkpt>
      <trkpt lat="46.57992" lon="0.66845">
        <ele>154.92</ele>
        <time>2019-11-17T08:10:11.999Z</time>
      </trkpt>
      <trkpt lat="46.57987" lon="0.66856">
        <ele>154.97</ele>
        <time>2019-11-17T08:10:15.999Z</time>
      </trkpt>
      <trkpt lat="46.57983" lon="0.66869">
        <ele>155.12</ele>
        <time>2019-11-17T08:10:20.999Z</time>
      </trkpt>
      <trkpt lat="46.57978" lon="0.66882">
        <ele>155.85</ele>
        <time>2019-11-17T08:10:28.999Z</time>
      </trkpt>
      <trkpt lat="46.57971" lon="0.66892">
        <ele>156.81</ele>
        <time>2019-11-17T08:10:32.999Z</time>
      </trkpt>
      <trkpt lat="46.57963" lon="0.66902">
        <ele>157.8</ele>
        <time>2019-11-17T08:10:36.999Z</time>
      </trkpt>
      <trkpt lat="46.57955" lon="0.66913">
        <ele>158.63</ele>
        <time>2019-11-17T08:10:40.999Z</time>
      </trkpt>
      <trkpt lat="46.57951" lon="0.66929">
        <ele>159.49</ele>
        <time>2019-11-17T08:10:44.999Z</time>
      </trkpt>
      <trkpt lat="46.57947" lon="0.66945">
        <ele>160.13</ele>
        <time>2019-11-17T08:10:47.999Z</time>
      </trkpt>
      <trkpt lat="46.5794" lon="0.66955">
        <ele>160.9</ele>
        <time>2019-11-17T08:10:50.999Z</time>
      </trkpt>
      <trkpt lat="46.57934" lon="0.66968">
        <ele>161.53</ele>
        <time>2019-11-17T08:10:53.999Z</time>
      </trkpt>
      <trkpt lat="46.57928" lon="0.66979">
        <ele>161.87</ele>
        <time>2019-11-17T08:10:56.999Z</time>
      </trkpt>
      <trkpt lat="46.57923" lon="0.6699">
        <ele>162.13</ele>
        <time>2019-11-17T08:10:59.999Z</time>
      </trkpt>
      <trkpt lat="46.57919" lon="0.67004">
        <ele>162.25</ele>
        <time>2019-11-17T08:11:02.999Z</time>
      </trkpt>
      <trkpt lat="46.57915" lon="0.67018">
        <ele>162.19</ele>
        <time>2019-11-17T08:11:06.999Z</time>
      </trkpt>
      <trkpt lat="46.5791" lon="0.67032">
        <ele>162.19</ele>
        <time>2019-11-17T08:11:11.999Z</time>
      </trkpt>
      <trkpt lat="46.57904" lon="0.67045">
        <ele>162.49</ele>
        <time>2019-11-17T08:11:14.999Z</time>
      </trkpt>
      <trkpt lat="46.57897" lon="0.67055">
        <ele>162.92</ele>
        <time>2019-11-17T08:11:17.999Z</time>
      </trkpt>
      <trkpt lat="46.57888" lon="0.67064">
        <ele>163.61</ele>
        <time>2019-11-17T08:11:20.999Z</time>
      </trkpt>
      <trkpt lat="46.57879" lon="0.67074">
        <ele>167.05</ele>
        <time>2019-11-17T08:11:23.999Z</time>
      </trkpt>
      <trkpt lat="46.5787" lon="0.67084">
        <ele>167.66</ele>
        <time>2019-11-17T08:11:26.999Z</time>
      </trkpt>
      <trkpt lat="46.57862" lon="0.67091">
        <ele>168.25</ele>
        <time>2019-11-17T08:11:29.999Z</time>
      </trkpt>
      <trkpt lat="46.57852" lon="0.671">
        <ele>169.2</ele>
        <time>2019-11-17T08:11:33.999Z</time>
      </trkpt>
      <trkpt lat="46.57844" lon="0.67106">
        <ele>170.1</ele>
        <time>2019-11-17T08:11:36.999Z</time>
      </trkpt>
      <trkpt lat="46.57834" lon="0.67102">
        <ele>171.06</ele>
        <time>2019-11-17T08:11:39.999Z</time>
      </trkpt>
      <trkpt lat="46.5783" lon="0.6709">
        <ele>174.89</ele>
        <time>2019-11-17T08:11:41.999Z</time>
      </trkpt>
      <trkpt lat="46.57826" lon="0.67077">
        <ele>176.87</ele>
        <time>2019-11-17T08:11:43.999Z</time>
      </trkpt>
      <trkpt lat="46.57822" lon="0.67059">
        <ele>177.84</ele>
        <time>2019-11-17T08:11:46.999Z</time>
      </trkpt>
      <trkpt lat="46.5781" lon="0.67046">
        <ele>175.04</ele>
        <time>2019-11-17T08:11:49.999Z</time>
      </trkpt>
      <trkpt lat="46.57802" lon="0.67034">
        <ele>172.43</ele>
        <time>2019-11-17T08:11:51.999Z</time>
      </trkpt>
      <trkpt lat="46.57796" lon="0.67018">
        <ele>167.84</ele>
        <time>2019-11-17T08:11:54.999Z</time>
      </trkpt>
      <trkpt lat="46.57789" lon="0.67003">
        <ele>164.73</ele>
        <time>2019-11-17T08:11:56.999Z</time>
      </trkpt>
      <trkpt lat="46.5778" lon="0.66985">
        <ele>161.91</ele>
        <time>2019-11-17T08:11:58.999Z</time>
      </trkpt>
      <trkpt lat="46.57777" lon="0.66969">
        <ele>159.65</ele>
        <time>2019-11-17T08:12:00.999Z</time>
      </trkpt>
      <trkpt lat="46.57769" lon="0.66958">
        <ele>158.03</ele>
        <time>2019-11-17T08:12:02.999Z</time>
      </trkpt>
      <trkpt lat="46.5776" lon="0.66947">
        <ele>157.69</ele>
        <time>2019-11-17T08:12:04.999Z</time>
      </trkpt>
      <trkpt lat="46.57751" lon="0.66929">
        <ele>157.63</ele>
        <time>2019-11-17T08:12:06.999Z</time>
      </trkpt>
      <trkpt lat="46.57742" lon="0.66916">
        <ele>157.63</ele>
        <time>2019-11-17T08:12:08.999Z</time>
      </trkpt>
      <trkpt lat="46.57733" lon="0.66899">
        <ele>157.32</ele>
        <time>2019-11-17T08:12:10.999Z</time>
      </trkpt>
      <trkpt lat="46.57726" lon="0.6688">
        <ele>156.34</ele>
        <time>2019-11-17T08:12:12.999Z</time>
      </trkpt>
      <trkpt lat="46.5772" lon="0.66863">
        <ele>155.96</ele>
        <time>2019-11-17T08:12:14.999Z</time>
      </trkpt>
      <trkpt lat="46.57712" lon="0.66854">
        <ele>155.83</ele>
        <time>2019-11-17T08:12:16.999Z</time>
      </trkpt>
      <trkpt lat="46.57701" lon="0.66848">
        <ele>156.98</ele>
        <time>2019-11-17T08:12:18.999Z</time>
      </trkpt>
      <trkpt lat="46.5769" lon="0.66849">
        <ele>159.08</ele>
        <time>2019-11-17T08:12:20.999Z</time>
      </trkpt>
      <trkpt lat="46.57682" lon="0.66853">
        <ele>160.45</ele>
        <time>2019-11-17T08:12:22.999Z</time>
      </trkpt>
      <trkpt lat="46.57673" lon="0.66864">
        <ele>163.4</ele>
        <time>2019-11-17T08:12:25.999Z</time>
      </trkpt>
      <trkpt lat="46.57664" lon="0.66876">
        <ele>166.12</ele>
        <time>2019-11-17T08:12:28.999Z</time>
      </trkpt>
      <trkpt lat="46.57655" lon="0.66886">
        <ele>167.79</ele>
        <time>2019-11-17T08:12:31.999Z</time>
      </trkpt>
      <trkpt lat="46.57648" lon="0.66896">
        <ele>169.23</ele>
        <time>2019-11-17T08:12:34.999Z</time>
      </trkpt>
      <trkpt lat="46.57639" lon="0.66904">
        <ele>171.01</ele>
        <time>2019-11-17T08:12:37.999Z</time>
      </trkpt>
      <trkpt lat="46.5763" lon="0.669">
        <ele>173.76</ele>
        <time>2019-11-17T08:12:39.999Z</time>
      </trkpt>
      <trkpt lat="46.5762" lon="0.66892">
        <ele>175.82</ele>
        <time>2019-11-17T08:12:41.999Z</time>
      </trkpt>
      <trkpt lat="46.57611" lon="0.66883">
        <ele>177.35</ele>
        <time>2019-11-17T08:12:43.999Z</time>
      </trkpt>
      <trkpt lat="46.57602" lon="0.66873">
        <ele>178.51</ele>
        <time>2019-11-17T08:12:45.999Z</time>
      </trkpt>
      <trkpt lat="46.57592" lon="0.66864">
        <ele>178.55</ele>
        <time>2019-11-17T08:12:47.999Z</time>
      </trkpt>
      <trkpt lat="46.57581" lon="0.6686">
        <ele>178.5</ele>
        <time>2019-11-17T08:12:49.999Z</time>
      </trkpt>
      <trkpt lat="46.57571" lon="0.66856">
        <ele>178.69</ele>
        <time>2019-11-17T08:12:51.999Z</time>
      </trkpt>
      <trkpt lat="46.57558" lon="0.66853">
        <ele>179.23</ele>
        <time>2019-11-17T08:12:54.999Z</time>
      </trkpt>
      <trkpt lat="46.57546" lon="0.66854">
        <ele>179.12</ele>
        <time>2019-11-17T08:12:57.999Z</time>
      </trkpt>
      <trkpt lat="46.57533" lon="0.66855">
        <ele>178.24</ele>
        <time>2019-11-17T08:13:00.999Z</time>
      </trkpt>
      <trkpt lat="46.57522" lon="0.66858">
        <ele>178.19</ele>
        <time>2019-11-17T08:13:03.999Z</time>
      </trkpt>
      <trkpt lat="46.57516" lon="0.66869">
        <ele>178.2</ele>
        <time>2019-11-17T08:13:07.999Z</time>
      </trkpt>
      <trkpt lat="46.57515" lon="0.66885">
        <ele>178.17</ele>
        <time>2019-11-17T08:13:10.999Z</time>
      </trkpt>
      <trkpt lat="46.57517" lon="0.66899">
        <ele>178.09</ele>
        <time>2019-11-17T08:13:13.999Z</time>
      </trkpt>
      <trkpt lat="46.57519" lon="0.66912">
        <ele>178.21</ele>
        <time>2019-11-17T08:13:16.999Z</time>
      </trkpt>
      <trkpt lat="46.57522" lon="0.66925">
        <ele>178.3</ele>
        <time>2019-11-17T08:13:18.999Z</time>
      </trkpt>
      <trkpt lat="46.57523" lon="0.66939">
        <ele>178.23</ele>
        <time>2019-11-17T08:13:21.999Z</time>
      </trkpt>
      <trkpt lat="46.57512" lon="0.66942">
        <ele>178.02</ele>
        <time>2019-11-17T08:13:24.999Z</time>
      </trkpt>
      <trkpt lat="46.57504" lon="0.66935">
        <ele>177.9</ele>
        <time>2019-11-17T08:13:26.999Z</time>
      </trkpt>
      <trkpt lat="46.57496" lon="0.66928">
        <ele>177.92</ele>
        <time>2019-11-17T08:13:28.999Z</time>
      </trkpt>
      <trkpt lat="46.57488" lon="0.66918">
        <ele>178.18</ele>
        <time>2019-11-17T08:13:30.999Z</time>
      </trkpt>
      <trkpt lat="46.5748" lon="0.66908">
        <ele>178.26</ele>
        <time>2019-11-17T08:13:32.999Z</time>
      </trkpt>
      <trkpt lat="46.57472" lon="0.66899">
        <ele>178.41</ele>
        <time>2019-11-17T08:13:34.999Z</time>
      </trkpt>
      <trkpt lat="46.57464" lon="0.66891">
        <ele>178.66</ele>
        <time>2019-11-17T08:13:36.999Z</time>
      </trkpt>
      <trkpt lat="46.57454" lon="0.6688">
        <ele>178.68</ele>
        <time>2019-11-17T08:13:38.999Z</time>
      </trkpt>
      <trkpt lat="46.57442" lon="0.66867">
        <ele>178.11</ele>
        <time>2019-11-17T08:13:40.999Z</time>
      </trkpt>
      <trkpt lat="46.57431" lon="0.66855">
        <ele>177.13</ele>
        <time>2019-11-17T08:13:42.999Z</time>
      </trkpt>
      <trkpt lat="46.57418" lon="0.66843">
        <ele>176.58</ele>
        <time>2019-11-17T08:13:44.999Z</time>
      </trkpt>
      <trkpt lat="46.57407" lon="0.6683">
        <ele>176.36</ele>
        <time>2019-11-17T08:13:46.999Z</time>
      </trkpt>
      <trkpt lat="46.57396" lon="0.66818">
        <ele>176.31</ele>
        <time>2019-11-17T08:13:48.999Z</time>
      </trkpt>
      <trkpt lat="46.57385" lon="0.66809">
        <ele>176.49</ele>
        <time>2019-11-17T08:13:50.999Z</time>
      </trkpt>
      <trkpt lat="46.57378" lon="0.66798">
        <ele>176.58</ele>
        <time>2019-11-17T08:13:52.999Z</time>
      </trkpt>
      <trkpt lat="46.57381" lon="0.6678">
        <ele>175.15</ele>
        <time>2019-11-17T08:13:55.999Z</time>
      </trkpt>
      <trkpt lat="46.57388" lon="0.6677">
        <ele>173.6</ele>
        <time>2019-11-17T08:13:57.999Z</time>
      </trkpt>
      <trkpt lat="46.57395" lon="0.66758">
        <ele>172.23</ele>
        <time>2019-11-17T08:13:59.999Z</time>
      </trkpt>
      <trkpt lat="46.57403" lon="0.66747">
        <ele>170.73</ele>
        <time>2019-11-17T08:14:01.999Z</time>
      </trkpt>
      <trkpt lat="46.57413" lon="0.66734">
        <ele>169.44</ele>
        <time>2019-11-17T08:14:03.999Z</time>
      </trkpt>
      <trkpt lat="46.57423" lon="0.6672">
        <ele>167.95</ele>
        <time>2019-11-17T08:14:05.999Z</time>
      </trkpt>
      <trkpt lat="46.57434" lon="0.66705">
        <ele>166.67</ele>
        <time>2019-11-17T08:14:07.999Z</time>
      </trkpt>
      <trkpt lat="46.57446" lon="0.6669">
        <ele>165.91</ele>
        <time>2019-11-17T08:14:09.999Z</time>
      </trkpt>
      <trkpt lat="46.57459" lon="0.66673">
        <ele>165.65</ele>
        <time>2019-11-17T08:14:11.999Z</time>
      </trkpt>
      <trkpt lat="46.57473" lon="0.66656">
        <ele>165.46</ele>
        <time>2019-11-17T08:14:13.999Z</time>
      </trkpt>
      <trkpt lat="46.57481" lon="0.66648">
        <ele>165.35</ele>
        <time>2019-11-17T08:14:14.999Z</time>
      </trkpt>
      <trkpt lat="46.57489" lon="0.66639">
        <ele>165.33</ele>
        <time>2019-11-17T08:14:15.999Z</time>
      </trkpt>
      <trkpt lat="46.57496" lon="0.6663">
        <ele>165.44</ele>
        <time>2019-11-17T08:14:16.999Z</time>
      </trkpt>
      <trkpt lat="46.57502" lon="0.6662">
        <ele>165.58</ele>
        <time>2019-11-17T08:14:17.999Z</time>
      </trkpt>
      <trkpt lat="46.57509" lon="0.66611">
        <ele>165.74</ele>
        <time>2019-11-17T08:14:18.999Z</time>
      </trkpt>
      <trkpt lat="46.5752" lon="0.66592">
        <ele>166.05</ele>
        <time>2019-11-17T08:14:20.999Z</time>
      </trkpt>
      <trkpt lat="46.57529" lon="0.66577">
        <ele>166.47</ele>
        <time>2019-11-17T08:14:22.999Z</time>
      </trkpt>
      <trkpt lat="46.57538" lon="0.66563">
        <ele>166.91</ele>
        <time>2019-11-17T08:14:24.999Z</time>
      </trkpt>
      <trkpt lat="46.57545" lon="0.66545">
        <ele>167.16</ele>
        <time>2019-11-17T08:14:26.999Z</time>
      </trkpt>
      <trkpt lat="46.5755" lon="0.66527">
        <ele>167.18</ele>
        <time>2019-11-17T08:14:28.999Z</time>
      </trkpt>
      <trkpt lat="46.57552" lon="0.66511">
        <ele>166.61</ele>
        <time>2019-11-17T08:14:30.999Z</time>
      </trkpt>
      <trkpt lat="46.57553" lon="0.66494">
        <ele>165.66</ele>
        <time>2019-11-17T08:14:32.999Z</time>
      </trkpt>
      <trkpt lat="46.57552" lon="0.66472">
        <ele>164.77</ele>
        <time>2019-11-17T08:14:34.999Z</time>
      </trkpt>
      <trkpt lat="46.57546" lon="0.6645">
        <ele>163.43</ele>
        <time>2019-11-17T08:14:36.999Z</time>
      </trkpt>
      <trkpt lat="46.57538" lon="0.66428">
        <ele>162.25</ele>
        <time>2019-11-17T08:14:38.999Z</time>
      </trkpt>
      <trkpt lat="46.57534" lon="0.66408">
        <ele>160.83</ele>
        <time>2019-11-17T08:14:40.999Z</time>
      </trkpt>
      <trkpt lat="46.57531" lon="0.66388">
        <ele>159.28</ele>
        <time>2019-11-17T08:14:42.999Z</time>
      </trkpt>
      <trkpt lat="46.57528" lon="0.66367">
        <ele>158.12</ele>
        <time>2019-11-17T08:14:44.999Z</time>
      </trkpt>
      <trkpt lat="46.57525" lon="0.66346">
        <ele>157.26</ele>
        <time>2019-11-17T08:14:46.999Z</time>
      </trkpt>
      <trkpt lat="46.57523" lon="0.66327">
        <ele>156.43</ele>
        <time>2019-11-17T08:14:48.999Z</time>
      </trkpt>
      <trkpt lat="46.57523" lon="0.66308">
        <ele>155.57</ele>
        <time>2019-11-17T08:14:50.999Z</time>
      </trkpt>
      <trkpt lat="46.57522" lon="0.66288">
        <ele>154.64</ele>
        <time>2019-11-17T08:14:52.999Z</time>
      </trkpt>
      <trkpt lat="46.57522" lon="0.66269">
        <ele>154.13</ele>
        <time>2019-11-17T08:14:54.999Z</time>
      </trkpt>
      <trkpt lat="46.57522" lon="0.66249">
        <ele>153.85</ele>
        <time>2019-11-17T08:14:56.999Z</time>
      </trkpt>
      <trkpt lat="46.57519" lon="0.6623">
        <ele>153.63</ele>
        <time>2019-11-17T08:14:58.999Z</time>
      </trkpt>
      <trkpt lat="46.57518" lon="0.6621">
        <ele>153.49</ele>
        <time>2019-11-17T08:15:00.999Z</time>
      </trkpt>
      <trkpt lat="46.57516" lon="0.66193">
        <ele>153.34</ele>
        <time>2019-11-17T08:15:02.999Z</time>
      </trkpt>
      <trkpt lat="46.57512" lon="0.66178">
        <ele>152.97</ele>
        <time>2019-11-17T08:15:04.999Z</time>
      </trkpt>
      <trkpt lat="46.57502" lon="0.66161">
        <ele>152.54</ele>
        <time>2019-11-17T08:15:06.999Z</time>
      </trkpt>
      <trkpt lat="46.57493" lon="0.66144">
        <ele>151.02</ele>
        <time>2019-11-17T08:15:08.999Z</time>
      </trkpt>
      <trkpt lat="46.57479" lon="0.66131">
        <ele>150.14</ele>
        <time>2019-11-17T08:15:10.999Z</time>
      </trkpt>
      <trkpt lat="46.57465" lon="0.66121">
        <ele>148.87</ele>
        <time>2019-11-17T08:15:12.999Z</time>
      </trkpt>
      <trkpt lat="46.57454" lon="0.66111">
        <ele>148.3</ele>
        <time>2019-11-17T08:15:14.999Z</time>
      </trkpt>
      <trkpt lat="46.57441" lon="0.661">
        <ele>147.03</ele>
        <time>2019-11-17T08:15:16.999Z</time>
      </trkpt>
      <trkpt lat="46.57428" lon="0.66093">
        <ele>146.56</ele>
        <time>2019-11-17T08:15:18.999Z</time>
      </trkpt>
      <trkpt lat="46.57415" lon="0.66082">
        <ele>144.53</ele>
        <time>2019-11-17T08:15:20.999Z</time>
      </trkpt>
      <trkpt lat="46.57408" lon="0.66071">
        <ele>141.84</ele>
        <time>2019-11-17T08:15:22.999Z</time>
      </trkpt>
      <trkpt lat="46.57397" lon="0.66069">
        <ele>139.47</ele>
        <time>2019-11-17T08:15:25.999Z</time>
      </trkpt>
      <trkpt lat="46.57388" lon="0.66073">
        <ele>139.09</ele>
        <time>2019-11-17T08:15:29.999Z</time>
      </trkpt>
      <trkpt lat="46.57387" lon="0.66087">
        <ele>138.06</ele>
        <time>2019-11-17T08:15:43.999Z</time>
      </trkpt>
      <trkpt lat="46.57395" lon="0.66098">
        <ele>137.63</ele>
        <time>2019-11-17T08:15:47.999Z</time>
      </trkpt>
      <trkpt lat="46.57404" lon="0.66113">
        <ele>137.43</ele>
        <time>2019-11-17T08:15:50.999Z</time>
      </trkpt>
      <trkpt lat="46.57411" lon="0.66124">
        <ele>137.36</ele>
        <time>2019-11-17T08:15:54.999Z</time>
      </trkpt>
      <trkpt lat="46.57419" lon="0.66133">
        <ele>137.25</ele>
        <time>2019-11-17T08:15:58.999Z</time>
      </trkpt>
      <trkpt lat="46.57427" lon="0.66142">
        <ele>136.89</ele>
        <time>2019-11-17T08:16:05.999Z</time>
      </trkpt>
      <trkpt lat="46.57431" lon="0.66157">
        <ele>137.11</ele>
        <time>2019-11-17T08:16:11.999Z</time>
      </trkpt>
      <trkpt lat="46.57427" lon="0.66171">
        <ele>139.81</ele>
        <time>2019-11-17T08:16:20.999Z</time>
      </trkpt>
      <trkpt lat="46.57419" lon="0.66179">
        <ele>143.51</ele>
        <time>2019-11-17T08:16:29.999Z</time>
      </trkpt>
      <trkpt lat="46.5741" lon="0.66182">
        <ele>145.95</ele>
        <time>2019-11-17T08:16:35.999Z</time>
      </trkpt>
      <trkpt lat="46.574" lon="0.66179">
        <ele>147.96</ele>
        <time>2019-11-17T08:16:40.999Z</time>
      </trkpt>
      <trkpt lat="46.57391" lon="0.66182">
        <ele>150.37</ele>
        <time>2019-11-17T08:16:48.999Z</time>
      </trkpt>
      <trkpt lat="46.5738" lon="0.66186">
        <ele>151.43</ele>
        <time>2019-11-17T08:16:53.999Z</time>
      </trkpt>
      <trkpt lat="46.57369" lon="0.6619">
        <ele>152.67</ele>
        <time>2019-11-17T08:17:01.999Z</time>
      </trkpt>
      <trkpt lat="46.5736" lon="0.66194">
        <ele>153.1</ele>
        <time>2019-11-17T08:17:06.999Z</time>
      </trkpt>
      <trkpt lat="46.57349" lon="0.66197">
        <ele>153.3</ele>
        <time>2019-11-17T08:17:11.999Z</time>
      </trkpt>
      <trkpt lat="46.57338" lon="0.66196">
        <ele>153.57</ele>
        <time>2019-11-17T08:17:16.999Z</time>
      </trkpt>
      <trkpt lat="46.57328" lon="0.66197">
        <ele>153.9</ele>
        <time>2019-11-17T08:17:21.999Z</time>
      </trkpt>
      <trkpt lat="46.57317" lon="0.66204">
        <ele>154.16</ele>
        <time>2019-11-17T08:17:26.999Z</time>
      </trkpt>
      <trkpt lat="46.57309" lon="0.66211">
        <ele>154.24</ele>
        <time>2019-11-17T08:17:30.999Z</time>
      </trkpt>
      <trkpt lat="46.57299" lon="0.66219">
        <ele>154.03</ele>
        <time>2019-11-17T08:17:35.999Z</time>
      </trkpt>
      <trkpt lat="46.57291" lon="0.66228">
        <ele>153.74</ele>
        <time>2019-11-17T08:17:40.999Z</time>
      </trkpt>
      <trkpt lat="46.57283" lon="0.66236">
        <ele>153.58</ele>
        <time>2019-11-17T08:17:44.999Z</time>
      </trkpt>
      <trkpt lat="46.57276" lon="0.66246">
        <ele>153.63</ele>
        <time>2019-11-17T08:17:48.999Z</time>
      </trkpt>
      <trkpt lat="46.57268" lon="0.66253">
        <ele>153.79</ele>
        <time>2019-11-17T08:17:51.999Z</time>
      </trkpt>
      <trkpt lat="46.57259" lon="0.66263">
        <ele>154.49</ele>
        <time>2019-11-17T08:17:56.999Z</time>
      </trkpt>
      <trkpt lat="46.57251" lon="0.66271">
        <ele>155.03</ele>
        <time>2019-11-17T08:17:59.999Z</time>
      </trkpt>
      <trkpt lat="46.5724" lon="0.6628">
        <ele>155.72</ele>
        <time>2019-11-17T08:18:03.999Z</time>
      </trkpt>
      <trkpt lat="46.57232" lon="0.66287">
        <ele>156.19</ele>
        <time>2019-11-17T08:18:06.999Z</time>
      </trkpt>
      <trkpt lat="46.57227" lon="0.66298">
        <ele>156.6</ele>
        <time>2019-11-17T08:18:09.999Z</time>
      </trkpt>
      <trkpt lat="46.57219" lon="0.66309">
        <ele>156.91</ele>
        <time>2019-11-17T08:18:12.999Z</time>
      </trkpt>
      <trkpt lat="46.57212" lon="0.66317">
        <ele>157.42</ele>
        <time>2019-11-17T08:18:14.999Z</time>
      </trkpt>
      <trkpt lat="46.57203" lon="0.66324">
        <ele>158.42</ele>
        <time>2019-11-17T08:18:16.999Z</time>
      </trkpt>
      <trkpt lat="46.57193" lon="0.66331">
        <ele>160.73</ele>
        <time>2019-11-17T08:18:19.999Z</time>
      </trkpt>
      <trkpt lat="46.57181" lon="0.66338">
        <ele>162.03</ele>
        <time>2019-11-17T08:18:22.999Z</time>
      </trkpt>
      <trkpt lat="46.57173" lon="0.66348">
        <ele>162.03</ele>
        <time>2019-11-17T08:18:25.999Z</time>
      </trkpt>
      <trkpt lat="46.57163" lon="0.66357">
        <ele>161.69</ele>
        <time>2019-11-17T08:18:28.999Z</time>
      </trkpt>
      <trkpt lat="46.57153" lon="0.66363">
        <ele>161.39</ele>
        <time>2019-11-17T08:18:30.999Z</time>
      </trkpt>
      <trkpt lat="46.57146" lon="0.66375">
        <ele>161.32</ele>
        <time>2019-11-17T08:18:33.999Z</time>
      </trkpt>
      <trkpt lat="46.57135" lon="0.6639">
        <ele>161.32</ele>
        <time>2019-11-17T08:18:36.999Z</time>
      </trkpt>
      <trkpt lat="46.57128" lon="0.66397">
        <ele>161.25</ele>
        <time>2019-11-17T08:18:38.999Z</time>
      </trkpt>
      <trkpt lat="46.57122" lon="0.66409">
        <ele>160.55</ele>
        <time>2019-11-17T08:18:40.999Z</time>
      </trkpt>
      <trkpt lat="46.57115" lon="0.66419">
        <ele>160.15</ele>
        <time>2019-11-17T08:18:42.999Z</time>
      </trkpt>
      <trkpt lat="46.57107" lon="0.66427">
        <ele>159.01</ele>
        <time>2019-11-17T08:18:44.999Z</time>
      </trkpt>
      <trkpt lat="46.57097" lon="0.66436">
        <ele>157.17</ele>
        <time>2019-11-17T08:18:46.999Z</time>
      </trkpt>
      <trkpt lat="46.57088" lon="0.66447">
        <ele>154.8</ele>
        <time>2019-11-17T08:18:48.999Z</time>
      </trkpt>
      <trkpt lat="46.57076" lon="0.66458">
        <ele>151.96</ele>
        <time>2019-11-17T08:18:51.999Z</time>
      </trkpt>
      <trkpt lat="46.5707" lon="0.66467">
        <ele>149.7</ele>
        <time>2019-11-17T08:18:53.999Z</time>
      </trkpt>
      <trkpt lat="46.57069" lon="0.66485">
        <ele>149.37</ele>
        <time>2019-11-17T08:18:56.999Z</time>
      </trkpt>
      <trkpt lat="46.57074" lon="0.66498">
        <ele>149.05</ele>
        <time>2019-11-17T08:19:00.999Z</time>
      </trkpt>
      <trkpt lat="46.57081" lon="0.66513">
        <ele>149.06</ele>
        <time>2019-11-17T08:19:03.999Z</time>
      </trkpt>
      <trkpt lat="46.57083" lon="0.66529">
        <ele>149.27</ele>
        <time>2019-11-17T08:19:06.999Z</time>
      </trkpt>
      <trkpt lat="46.57087" lon="0.66541">
        <ele>149.75</ele>
        <time>2019-11-17T08:19:10.999Z</time>
      </trkpt>
      <trkpt lat="46.57093" lon="0.66555">
        <ele>150.25</ele>
        <time>2019-11-17T08:19:14.999Z</time>
      </trkpt>
      <trkpt lat="46.57094" lon="0.66569">
        <ele>150.67</ele>
        <time>2019-11-17T08:19:17.999Z</time>
      </trkpt>
      <trkpt lat="46.57092" lon="0.66582">
        <ele>151.33</ele>
        <time>2019-11-17T08:19:23.999Z</time>
      </trkpt>
      <trkpt lat="46.57088" lon="0.66594">
        <ele>151.27</ele>
        <time>2019-11-17T08:19:31.999Z</time>
      </trkpt>
      <trkpt lat="46.57086" lon="0.66611">
        <ele>151.16</ele>
        <time>2019-11-17T08:19:36.999Z</time>
      </trkpt>
      <trkpt lat="46.57082" lon="0.66624">
        <ele>151.34</ele>
        <time>2019-11-17T08:19:40.999Z</time>
      </trkpt>
      <trkpt lat="46.57081" lon="0.66638">
        <ele>151.74</ele>
        <time>2019-11-17T08:19:45.999Z</time>
      </trkpt>
      <trkpt lat="46.57075" lon="0.6665">
        <ele>152.3</ele>
        <time>2019-11-17T08:19:49.999Z</time>
      </trkpt>
      <trkpt lat="46.57074" lon="0.66667">
        <ele>152.48</ele>
        <time>2019-11-17T08:19:53.999Z</time>
      </trkpt>
      <trkpt lat="46.57075" lon="0.66682">
        <ele>152.33</ele>
        <time>2019-11-17T08:19:56.999Z</time>
      </trkpt>
      <trkpt lat="46.57081" lon="0.66692">
        <ele>151.66</ele>
        <time>2019-11-17T08:20:02.999Z</time>
      </trkpt>
      <trkpt lat="46.5709" lon="0.66691">
        <ele>151.28</ele>
        <time>2019-11-17T08:20:07.999Z</time>
      </trkpt>
      <trkpt lat="46.571" lon="0.66698">
        <ele>151.01</ele>
        <time>2019-11-17T08:20:11.999Z</time>
      </trkpt>
      <trkpt lat="46.57102" lon="0.66711">
        <ele>150.73</ele>
        <time>2019-11-17T08:20:15.999Z</time>
      </trkpt>
      <trkpt lat="46.57102" lon="0.66724">
        <ele>149.84</ele>
        <time>2019-11-17T08:20:26.999Z</time>
      </trkpt>
      <trkpt lat="46.57107" lon="0.66737">
        <ele>149.38</ele>
        <time>2019-11-17T08:20:32.999Z</time>
      </trkpt>
      <trkpt lat="46.57113" lon="0.66749">
        <ele>149.43</ele>
        <time>2019-11-17T08:20:36.999Z</time>
      </trkpt>
      <trkpt lat="46.57121" lon="0.66756">
        <ele>149.39</ele>
        <time>2019-11-17T08:20:40.999Z</time>
      </trkpt>
      <trkpt lat="46.57129" lon="0.66768">
        <ele>149.5</ele>
        <time>2019-11-17T08:20:43.999Z</time>
      </trkpt>
      <trkpt lat="46.57128" lon="0.66783">
        <ele>149.9</ele>
        <time>2019-11-17T08:20:47.999Z</time>
      </trkpt>
      <trkpt lat="46.57128" lon="0.66799">
        <ele>150.08</ele>
        <time>2019-11-17T08:20:50.999Z</time>
      </trkpt>
      <trkpt lat="46.57126" lon="0.66812">
        <ele>150.21</ele>
        <time>2019-11-17T08:20:59.999Z</time>
      </trkpt>
      <trkpt lat="46.5713" lon="0.66825">
        <ele>150.24</ele>
        <time>2019-11-17T08:21:20.999Z</time>
      </trkpt>
      <trkpt lat="46.57139" lon="0.66829">
        <ele>151.86</ele>
        <time>2019-11-17T08:22:48.999Z</time>
      </trkpt>
      <trkpt lat="46.5714" lon="0.66842">
        <ele>152.85</ele>
        <time>2019-11-17T08:23:10.999Z</time>
      </trkpt>
      <trkpt lat="46.57143" lon="0.66855">
        <ele>152.11</ele>
        <time>2019-11-17T08:23:17.999Z</time>
      </trkpt>
      <trkpt lat="46.57148" lon="0.66866">
        <ele>149.73</ele>
        <time>2019-11-17T08:23:33.999Z</time>
      </trkpt>
      <trkpt lat="46.57136" lon="0.66863">
        <ele>146.97</ele>
        <time>2019-11-17T08:23:49.999Z</time>
      </trkpt>
      <trkpt lat="46.57123" lon="0.66862">
        <ele>146.34</ele>
        <time>2019-11-17T08:23:52.999Z</time>
      </trkpt>
      <trkpt lat="46.57112" lon="0.66855">
        <ele>145.75</ele>
        <time>2019-11-17T08:23:55.999Z</time>
      </trkpt>
      <trkpt lat="46.57102" lon="0.66846">
        <ele>145.13</ele>
        <time>2019-11-17T08:23:58.999Z</time>
      </trkpt>
      <trkpt lat="46.57094" lon="0.66839">
        <ele>144.4</ele>
        <time>2019-11-17T08:24:02.999Z</time>
      </trkpt>
      <trkpt lat="46.57085" lon="0.66833">
        <ele>143.82</ele>
        <time>2019-11-17T08:24:06.999Z</time>
      </trkpt>
      <trkpt lat="46.57077" lon="0.66826">
        <ele>143.47</ele>
        <time>2019-11-17T08:24:08.999Z</time>
      </trkpt>
      <trkpt lat="46.57069" lon="0.66816">
        <ele>142.92</ele>
        <time>2019-11-17T08:24:11.999Z</time>
      </trkpt>
      <trkpt lat="46.5706" lon="0.66807">
        <ele>142.4</ele>
        <time>2019-11-17T08:24:14.999Z</time>
      </trkpt>
      <trkpt lat="46.57051" lon="0.66795">
        <ele>142.17</ele>
        <time>2019-11-17T08:24:16.999Z</time>
      </trkpt>
      <trkpt lat="46.57044" lon="0.66783">
        <ele>141.93</ele>
        <time>2019-11-17T08:24:19.999Z</time>
      </trkpt>
      <trkpt lat="46.57038" lon="0.66768">
        <ele>141.94</ele>
        <time>2019-11-17T08:24:22.999Z</time>
      </trkpt>
      <trkpt lat="46.57035" lon="0.66756">
        <ele>141.87</ele>
        <time>2019-11-17T08:24:25.999Z</time>
      </trkpt>
      <trkpt lat="46.5703" lon="0.66742">
        <ele>141.83</ele>
        <time>2019-11-17T08:24:27.999Z</time>
      </trkpt>
      <trkpt lat="46.57023" lon="0.6673">
        <ele>141.88</ele>
        <time>2019-11-17T08:24:30.999Z</time>
      </trkpt>
      <trkpt lat="46.57014" lon="0.66723">
        <ele>141.65</ele>
        <time>2019-11-17T08:24:35.999Z</time>
      </trkpt>
      <trkpt lat="46.57" lon="0.66722">
        <ele>141.17</ele>
        <time>2019-11-17T08:24:38.999Z</time>
      </trkpt>
      <trkpt lat="46.5699" lon="0.6672">
        <ele>140.62</ele>
        <time>2019-11-17T08:24:41.999Z</time>
      </trkpt>
      <trkpt lat="46.5699" lon="0.66734">
        <ele>139.85</ele>
        <time>2019-11-17T08:24:45.999Z</time>
      </trkpt>
      <trkpt lat="46.56992" lon="0.66749">
        <ele>138.87</ele>
        <time>2019-11-17T08:24:49.999Z</time>
      </trkpt>
      <trkpt lat="46.56991" lon="0.66763">
        <ele>137.84</ele>
        <time>2019-11-17T08:24:54.999Z</time>
      </trkpt>
      <trkpt lat="46.56985" lon="0.66773">
        <ele>137.26</ele>
        <time>2019-11-17T08:24:58.999Z</time>
      </trkpt>
      <trkpt lat="46.56977" lon="0.6678">
        <ele>136.5</ele>
        <time>2019-11-17T08:25:05.999Z</time>
      </trkpt>
      <trkpt lat="46.56965" lon="0.66784">
        <ele>136.5</ele>
        <time>2019-11-17T08:25:09.999Z</time>
      </trkpt>
      <trkpt lat="46.56956" lon="0.66787">
        <ele>136.39</ele>
        <time>2019-11-17T08:25:12.999Z</time>
      </trkpt>
      <trkpt lat="46.56946" lon="0.66792">
        <ele>136.42</ele>
        <time>2019-11-17T08:25:16.999Z</time>
      </trkpt>
      <trkpt lat="46.56936" lon="0.66797">
        <ele>136.43</ele>
        <time>2019-11-17T08:25:19.999Z</time>
      </trkpt>
      <trkpt lat="46.56925" lon="0.66803">
        <ele>136.47</ele>
        <time>2019-11-17T08:25:23.999Z</time>
      </trkpt>
      <trkpt lat="46.56913" lon="0.6681">
        <ele>136.52</ele>
        <time>2019-11-17T08:25:26.999Z</time>
      </trkpt>
      <trkpt lat="46.56903" lon="0.66816">
        <ele>136.48</ele>
        <time>2019-11-17T08:25:28.999Z</time>
      </trkpt>
      <trkpt lat="46.56894" lon="0.66818">
        <ele>136.38</ele>
        <time>2019-11-17T08:25:30.999Z</time>
      </trkpt>
      <trkpt lat="46.56884" lon="0.66821">
        <ele>136.21</ele>
        <time>2019-11-17T08:25:33.999Z</time>
      </trkpt>
      <trkpt lat="46.56874" lon="0.66821">
        <ele>135.91</ele>
        <time>2019-11-17T08:25:36.999Z</time>
      </trkpt>
      <trkpt lat="46.56863" lon="0.6682">
        <ele>135.47</ele>
        <time>2019-11-17T08:25:39.999Z</time>
      </trkpt>
      <trkpt lat="46.5685" lon="0.66814">
        <ele>135.01</ele>
        <time>2019-11-17T08:25:42.999Z</time>
      </trkpt>
      <trkpt lat="46.56841" lon="0.66811">
        <ele>134.66</ele>
        <time>2019-11-17T08:25:44.999Z</time>
      </trkpt>
      <trkpt lat="46.56831" lon="0.6681">
        <ele>133.09</ele>
        <time>2019-11-17T08:26:11.999Z</time>
      </trkpt>
      <trkpt lat="46.56823" lon="0.66817">
        <ele>132.71</ele>
        <time>2019-11-17T08:26:20.999Z</time>
      </trkpt>
      <trkpt lat="46.56819" lon="0.6683">
        <ele>132.67</ele>
        <time>2019-11-17T08:26:27.999Z</time>
      </trkpt>
      <trkpt lat="46.5681" lon="0.66838">
        <ele>132.31</ele>
        <time>2019-11-17T08:26:33.999Z</time>
      </trkpt>
      <trkpt lat="46.56795" lon="0.66841">
        <ele>132.24</ele>
        <time>2019-11-17T08:26:38.999Z</time>
      </trkpt>
      <trkpt lat="46.56783" lon="0.66848">
        <ele>132.17</ele>
        <time>2019-11-17T08:26:43.999Z</time>
      </trkpt>
      <trkpt lat="46.56772" lon="0.66861">
        <ele>131.9</ele>
        <time>2019-11-17T08:26:47.999Z</time>
      </trkpt>
      <trkpt lat="46.56763" lon="0.66859">
        <ele>131.43</ele>
        <time>2019-11-17T08:26:52.999Z</time>
      </trkpt>
      <trkpt lat="46.56753" lon="0.66859">
        <ele>131.45</ele>
        <time>2019-11-17T08:26:59.999Z</time>
      </trkpt>
      <trkpt lat="46.56745" lon="0.66866">
        <ele>131.96</ele>
        <time>2019-11-17T08:27:05.999Z</time>
      </trkpt>
      <trkpt lat="46.56737" lon="0.66881">
        <ele>132.9</ele>
        <time>2019-11-17T08:27:09.999Z</time>
      </trkpt>
      <trkpt lat="46.5673" lon="0.6689">
        <ele>133.46</ele>
        <time>2019-11-17T08:27:11.999Z</time>
      </trkpt>
      <trkpt lat="46.56721" lon="0.66897">
        <ele>134.2</ele>
        <time>2019-11-17T08:27:14.999Z</time>
      </trkpt>
      <trkpt lat="46.56713" lon="0.66902">
        <ele>134.64</ele>
        <time>2019-11-17T08:27:16.999Z</time>
      </trkpt>
      <trkpt lat="46.56704" lon="0.66904">
        <ele>134.98</ele>
        <time>2019-11-17T08:27:18.999Z</time>
      </trkpt>
      <trkpt lat="46.56696" lon="0.66911">
        <ele>135.39</ele>
        <time>2019-11-17T08:27:22.999Z</time>
      </trkpt>
      <trkpt lat="46.56685" lon="0.66916">
        <ele>135.5</ele>
        <time>2019-11-17T08:27:26.999Z</time>
      </trkpt>
      <trkpt lat="46.56675" lon="0.66921">
        <ele>135.43</ele>
        <time>2019-11-17T08:27:28.999Z</time>
      </trkpt>
      <trkpt lat="46.56664" lon="0.66928">
        <ele>135.4</ele>
        <time>2019-11-17T08:27:31.999Z</time>
      </trkpt>
      <trkpt lat="46.56656" lon="0.66936">
        <ele>135.73</ele>
        <time>2019-11-17T08:27:34.999Z</time>
      </trkpt>
      <trkpt lat="46.56648" lon="0.66949">
        <ele>136.1</ele>
        <time>2019-11-17T08:27:37.999Z</time>
      </trkpt>
      <trkpt lat="46.56642" lon="0.66961">
        <ele>136.49</ele>
        <time>2019-11-17T08:27:40.999Z</time>
      </trkpt>
      <trkpt lat="46.5664" lon="0.66976">
        <ele>136.76</ele>
        <time>2019-11-17T08:27:43.999Z</time>
      </trkpt>
      <trkpt lat="46.56639" lon="0.66993">
        <ele>137.07</ele>
        <time>2019-11-17T08:27:47.999Z</time>
      </trkpt>
      <trkpt lat="46.56639" lon="0.67007">
        <ele>137.15</ele>
        <time>2019-11-17T08:27:50.999Z</time>
      </trkpt>
      <trkpt lat="46.5664" lon="0.67021">
        <ele>137.22</ele>
        <time>2019-11-17T08:27:54.999Z</time>
      </trkpt>
      <trkpt lat="46.56642" lon="0.67034">
        <ele>137.38</ele>
        <time>2019-11-17T08:27:57.999Z</time>
      </trkpt>
      <trkpt lat="46.56645" lon="0.67052">
        <ele>137.57</ele>
        <time>2019-11-17T08:28:01.999Z</time>
      </trkpt>
      <trkpt lat="46.56649" lon="0.67069">
        <ele>137.55</ele>
        <time>2019-11-17T08:28:03.999Z</time>
      </trkpt>
      <trkpt lat="46.5665" lon="0.67085">
        <ele>137.45</ele>
        <time>2019-11-17T08:28:05.999Z</time>
      </trkpt>
      <trkpt lat="46.56651" lon="0.671">
        <ele>137.33</ele>
        <time>2019-11-17T08:28:07.999Z</time>
      </trkpt>
      <trkpt lat="46.56656" lon="0.67117">
        <ele>137.23</ele>
        <time>2019-11-17T08:28:10.999Z</time>
      </trkpt>
      <trkpt lat="46.56659" lon="0.67133">
        <ele>137.28</ele>
        <time>2019-11-17T08:28:13.999Z</time>
      </trkpt>
      <trkpt lat="46.56662" lon="0.67147">
        <ele>137.37</ele>
        <time>2019-11-17T08:28:15.999Z</time>
      </trkpt>
      <trkpt lat="46.56663" lon="0.67163">
        <ele>137.63</ele>
        <time>2019-11-17T08:28:18.999Z</time>
      </trkpt>
      <trkpt lat="46.56667" lon="0.6718">
        <ele>137.76</ele>
        <time>2019-11-17T08:28:21.999Z</time>
      </trkpt>
      <trkpt lat="46.56671" lon="0.67193">
        <ele>137.64</ele>
        <time>2019-11-17T08:28:23.999Z</time>
      </trkpt>
      <trkpt lat="46.56675" lon="0.67207">
        <ele>137.57</ele>
        <time>2019-11-17T08:28:26.999Z</time>
      </trkpt>
      <trkpt lat="46.56678" lon="0.67221">
        <ele>137.58</ele>
        <time>2019-11-17T08:28:28.999Z</time>
      </trkpt>
      <trkpt lat="46.56678" lon="0.67237">
        <ele>137.76</ele>
        <time>2019-11-17T08:28:31.999Z</time>
      </trkpt>
      <trkpt lat="46.56679" lon="0.6725">
        <ele>137.96</ele>
        <time>2019-11-17T08:28:33.999Z</time>
      </trkpt>
      <trkpt lat="46.5668" lon="0.67263">
        <ele>138.11</ele>
        <time>2019-11-17T08:28:35.999Z</time>
      </trkpt>
      <trkpt lat="46.56683" lon="0.67277">
        <ele>138.17</ele>
        <time>2019-11-17T08:28:38.999Z</time>
      </trkpt>
      <trkpt lat="46.56684" lon="0.6729">
        <ele>138.3</ele>
        <time>2019-11-17T08:28:41.999Z</time>
      </trkpt>
      <trkpt lat="46.56688" lon="0.67306">
        <ele>138.5</ele>
        <time>2019-11-17T08:28:44.999Z</time>
      </trkpt>
      <trkpt lat="46.56692" lon="0.6732">
        <ele>138.58</ele>
        <time>2019-11-17T08:28:46.999Z</time>
      </trkpt>
      <trkpt lat="46.56695" lon="0.67332">
        <ele>138.67</ele>
        <time>2019-11-17T08:28:48.999Z</time>
      </trkpt>
      <trkpt lat="46.56703" lon="0.67347">
        <ele>138.71</ele>
        <time>2019-11-17T08:28:51.999Z</time>
      </trkpt>
      <trkpt lat="46.56711" lon="0.67358">
        <ele>138.74</ele>
        <time>2019-11-17T08:28:55.999Z</time>
      </trkpt>
      <trkpt lat="46.56718" lon="0.67368">
        <ele>138.48</ele>
        <time>2019-11-17T08:28:58.999Z</time>
      </trkpt>
      <trkpt lat="46.56726" lon="0.67378">
        <ele>137.92</ele>
        <time>2019-11-17T08:29:02.999Z</time>
      </trkpt>
      <trkpt lat="46.56735" lon="0.67384">
        <ele>137.39</ele>
        <time>2019-11-17T08:29:06.999Z</time>
      </trkpt>
      <trkpt lat="46.56744" lon="0.67388">
        <ele>136.79</ele>
        <time>2019-11-17T08:29:11.999Z</time>
      </trkpt>
      <trkpt lat="46.56753" lon="0.67396">
        <ele>136.34</ele>
        <time>2019-11-17T08:29:16.000Z</time>
      </trkpt>
      <trkpt lat="46.5676" lon="0.67408">
        <ele>135.86</ele>
        <time>2019-11-17T08:29:21.000Z</time>
      </trkpt>
      <trkpt lat="46.5677" lon="0.67412">
        <ele>135.48</ele>
        <time>2019-11-17T08:29:28.000Z</time>
      </trkpt>
      <trkpt lat="46.56781" lon="0.67419">
        <ele>135.65</ele>
        <time>2019-11-17T08:29:31.000Z</time>
      </trkpt>
      <trkpt lat="46.56787" lon="0.67428">
        <ele>135.91</ele>
        <time>2019-11-17T08:29:33.000Z</time>
      </trkpt>
      <trkpt lat="46.56794" lon="0.67438">
        <ele>136.23</ele>
        <time>2019-11-17T08:29:36.000Z</time>
      </trkpt>
      <trkpt lat="46.568" lon="0.67451">
        <ele>136.82</ele>
        <time>2019-11-17T08:29:41.000Z</time>
      </trkpt>
      <trkpt lat="46.56804" lon="0.67464">
        <ele>137.38</ele>
        <time>2019-11-17T08:29:45.000Z</time>
      </trkpt>
      <trkpt lat="46.56809" lon="0.67476">
        <ele>137.76</ele>
        <time>2019-11-17T08:29:51.000Z</time>
      </trkpt>
      <trkpt lat="46.56814" lon="0.67488">
        <ele>137.94</ele>
        <time>2019-11-17T08:29:56.000Z</time>
      </trkpt>
      <trkpt lat="46.56818" lon="0.675">
        <ele>138.03</ele>
        <time>2019-11-17T08:30:02.000Z</time>
      </trkpt>
      <trkpt lat="46.56824" lon="0.67512">
        <ele>138.62</ele>
        <time>2019-11-17T08:30:09.000Z</time>
      </trkpt>
      <trkpt lat="46.56829" lon="0.67523">
        <ele>140.51</ele>
        <time>2019-11-17T08:30:59.000Z</time>
      </trkpt>
      <trkpt lat="46.56827" lon="0.67536">
        <ele>151.63</ele>
        <time>2019-11-17T08:33:01.000Z</time>
      </trkpt>
      <trkpt lat="46.56826" lon="0.6755">
        <ele>151.82</ele>
        <time>2019-11-17T08:33:06.000Z</time>
      </trkpt>
      <trkpt lat="46.56828" lon="0.67563">
        <ele>151.93</ele>
        <time>2019-11-17T08:33:12.000Z</time>
      </trkpt>
      <trkpt lat="46.56829" lon="0.67577">
        <ele>152.13</ele>
        <time>2019-11-17T08:33:19.000Z</time>
      </trkpt>
      <trkpt lat="46.56827" lon="0.67592">
        <ele>152.15</ele>
        <time>2019-11-17T08:33:26.000Z</time>
      </trkpt>
      <trkpt lat="46.56826" lon="0.67608">
        <ele>152.37</ele>
        <time>2019-11-17T08:33:30.000Z</time>
      </trkpt>
      <trkpt lat="46.56826" lon="0.67624">
        <ele>152.79</ele>
        <time>2019-11-17T08:33:35.000Z</time>
      </trkpt>
      <trkpt lat="46.56825" lon="0.67639">
        <ele>153.13</ele>
        <time>2019-11-17T08:33:39.000Z</time>
      </trkpt>
      <trkpt lat="46.56823" lon="0.67653">
        <ele>153.62</ele>
        <time>2019-11-17T08:33:44.000Z</time>
      </trkpt>
      <trkpt lat="46.56817" lon="0.67665">
        <ele>154.44</ele>
        <time>2019-11-17T08:33:51.000Z</time>
      </trkpt>
      <trkpt lat="46.56812" lon="0.67677">
        <ele>155.21</ele>
        <time>2019-11-17T08:33:58.000Z</time>
      </trkpt>
      <trkpt lat="46.56808" lon="0.67692">
        <ele>155.49</ele>
        <time>2019-11-17T08:34:02.000Z</time>
      </trkpt>
      <trkpt lat="46.56804" lon="0.67704">
        <ele>156.05</ele>
        <time>2019-11-17T08:34:06.000Z</time>
      </trkpt>
      <trkpt lat="46.56798" lon="0.67715">
        <ele>157.14</ele>
        <time>2019-11-17T08:34:13.000Z</time>
      </trkpt>
      <trkpt lat="46.56797" lon="0.6773">
        <ele>157.94</ele>
        <time>2019-11-17T08:34:18.000Z</time>
      </trkpt>
      <trkpt lat="46.568" lon="0.67744">
        <ele>158.5</ele>
        <time>2019-11-17T08:34:24.000Z</time>
      </trkpt>
      <trkpt lat="46.56805" lon="0.67757">
        <ele>158.61</ele>
        <time>2019-11-17T08:34:31.000Z</time>
      </trkpt>
      <trkpt lat="46.56807" lon="0.67772">
        <ele>159.39</ele>
        <time>2019-11-17T08:34:39.000Z</time>
      </trkpt>
      <trkpt lat="46.56811" lon="0.67783">
        <ele>159.91</ele>
        <time>2019-11-17T08:34:44.000Z</time>
      </trkpt>
      <trkpt lat="46.56819" lon="0.67792">
        <ele>160.93</ele>
        <time>2019-11-17T08:34:51.000Z</time>
      </trkpt>
      <trkpt lat="46.56827" lon="0.67801">
        <ele>162.63</ele>
        <time>2019-11-17T08:34:58.000Z</time>
      </trkpt>
      <trkpt lat="46.56835" lon="0.6781">
        <ele>163.21</ele>
        <time>2019-11-17T08:35:02.000Z</time>
      </trkpt>
      <trkpt lat="46.56842" lon="0.6782">
        <ele>163.66</ele>
        <time>2019-11-17T08:35:06.000Z</time>
      </trkpt>
      <trkpt lat="46.56849" lon="0.6783">
        <ele>164.67</ele>
        <time>2019-11-17T08:35:16.000Z</time>
      </trkpt>
      <trkpt lat="46.56858" lon="0.67841">
        <ele>164.85</ele>
        <time>2019-11-17T08:35:19.000Z</time>
      </trkpt>
      <trkpt lat="46.56865" lon="0.67854">
        <ele>165.52</ele>
        <time>2019-11-17T08:35:24.000Z</time>
      </trkpt>
      <trkpt lat="46.5687" lon="0.67866">
        <ele>166.5</ele>
        <time>2019-11-17T08:35:30.000Z</time>
      </trkpt>
      <trkpt lat="46.56878" lon="0.67874">
        <ele>166.93</ele>
        <time>2019-11-17T08:35:38.000Z</time>
      </trkpt>
      <trkpt lat="46.56884" lon="0.67888">
        <ele>167.69</ele>
        <time>2019-11-17T08:35:45.000Z</time>
      </trkpt>
      <trkpt lat="46.56881" lon="0.67901">
        <ele>168.34</ele>
        <time>2019-11-17T08:35:59.000Z</time>
      </trkpt>
      <trkpt lat="46.56877" lon="0.67913">
        <ele>168.16</ele>
        <time>2019-11-17T08:36:03.000Z</time>
      </trkpt>
      <trkpt lat="46.56872" lon="0.67927">
        <ele>167.83</ele>
        <time>2019-11-17T08:36:07.000Z</time>
      </trkpt>
      <trkpt lat="46.56865" lon="0.67938">
        <ele>167.37</ele>
        <time>2019-11-17T08:36:14.000Z</time>
      </trkpt>
      <trkpt lat="46.56859" lon="0.67948">
        <ele>167.16</ele>
        <time>2019-11-17T08:36:18.000Z</time>
      </trkpt>
      <trkpt lat="46.56854" lon="0.67963">
        <ele>166.87</ele>
        <time>2019-11-17T08:36:23.000Z</time>
      </trkpt>
      <trkpt lat="46.56851" lon="0.67976">
        <ele>166.38</ele>
        <time>2019-11-17T08:36:28.000Z</time>
      </trkpt>
      <trkpt lat="46.56847" lon="0.67991">
        <ele>165.89</ele>
        <time>2019-11-17T08:36:33.000Z</time>
      </trkpt>
      <trkpt lat="46.56845" lon="0.68004">
        <ele>165.77</ele>
        <time>2019-11-17T08:36:37.000Z</time>
      </trkpt>
      <trkpt lat="46.5684" lon="0.68017">
        <ele>165.83</ele>
        <time>2019-11-17T08:36:43.000Z</time>
      </trkpt>
      <trkpt lat="46.56837" lon="0.68032">
        <ele>166.06</ele>
        <time>2019-11-17T08:36:47.000Z</time>
      </trkpt>
      <trkpt lat="46.56833" lon="0.68046">
        <ele>166.41</ele>
        <time>2019-11-17T08:36:52.000Z</time>
      </trkpt>
      <trkpt lat="46.56829" lon="0.6806">
        <ele>166.53</ele>
        <time>2019-11-17T08:36:56.000Z</time>
      </trkpt>
      <trkpt lat="46.56823" lon="0.68075">
        <ele>166.65</ele>
        <time>2019-11-17T08:37:00.000Z</time>
      </trkpt>
      <trkpt lat="46.56818" lon="0.68088">
        <ele>166.73</ele>
        <time>2019-11-17T08:37:03.000Z</time>
      </trkpt>
      <trkpt lat="46.56814" lon="0.68101">
        <ele>166.91</ele>
        <time>2019-11-17T08:37:06.000Z</time>
      </trkpt>
      <trkpt lat="46.56809" lon="0.68112">
        <ele>167.21</ele>
        <time>2019-11-17T08:37:09.000Z</time>
      </trkpt>
      <trkpt lat="46.56803" lon="0.68125">
        <ele>167.77</ele>
        <time>2019-11-17T08:37:13.000Z</time>
      </trkpt>
      <trkpt lat="46.56797" lon="0.68142">
        <ele>168.46</ele>
        <time>2019-11-17T08:37:17.000Z</time>
      </trkpt>
      <trkpt lat="46.56792" lon="0.68157">
        <ele>168.87</ele>
        <time>2019-11-17T08:37:20.000Z</time>
      </trkpt>
      <trkpt lat="46.56788" lon="0.6817">
        <ele>169.35</ele>
        <time>2019-11-17T08:37:23.000Z</time>
      </trkpt>
      <trkpt lat="46.56781" lon="0.68184">
        <ele>170.17</ele>
        <time>2019-11-17T08:37:27.000Z</time>
      </trkpt>
      <trkpt lat="46.56776" lon="0.68196">
        <ele>170.83</ele>
        <time>2019-11-17T08:37:30.000Z</time>
      </trkpt>
      <trkpt lat="46.5677" lon="0.68208">
        <ele>171.78</ele>
        <time>2019-11-17T08:37:34.000Z</time>
      </trkpt>
      <trkpt lat="46.56767" lon="0.6822">
        <ele>172.5</ele>
        <time>2019-11-17T08:37:37.000Z</time>
      </trkpt>
      <trkpt lat="46.56761" lon="0.68234">
        <ele>173.19</ele>
        <time>2019-11-17T08:37:40.000Z</time>
      </trkpt>
      <trkpt lat="46.56758" lon="0.68246">
        <ele>173.84</ele>
        <time>2019-11-17T08:37:43.000Z</time>
      </trkpt>
      <trkpt lat="46.56755" lon="0.6826">
        <ele>174.72</ele>
        <time>2019-11-17T08:37:47.000Z</time>
      </trkpt>
      <trkpt lat="46.56751" lon="0.68273">
        <ele>175.25</ele>
        <time>2019-11-17T08:37:50.000Z</time>
      </trkpt>
      <trkpt lat="46.56746" lon="0.68286">
        <ele>175.78</ele>
        <time>2019-11-17T08:37:53.000Z</time>
      </trkpt>
      <trkpt lat="46.56741" lon="0.683">
        <ele>176.23</ele>
        <time>2019-11-17T08:37:56.000Z</time>
      </trkpt>
      <trkpt lat="46.56738" lon="0.68314">
        <ele>176.74</ele>
        <time>2019-11-17T08:37:59.000Z</time>
      </trkpt>
      <trkpt lat="46.56737" lon="0.68328">
        <ele>177.06</ele>
        <time>2019-11-17T08:38:01.000Z</time>
      </trkpt>
      <trkpt lat="46.56732" lon="0.6834">
        <ele>177.59</ele>
        <time>2019-11-17T08:38:04.000Z</time>
      </trkpt>
      <trkpt lat="46.56727" lon="0.68352">
        <ele>178</ele>
        <time>2019-11-17T08:38:07.000Z</time>
      </trkpt>
      <trkpt lat="46.56726" lon="0.68366">
        <ele>178.36</ele>
        <time>2019-11-17T08:38:10.000Z</time>
      </trkpt>
      <trkpt lat="46.56721" lon="0.6838">
        <ele>178.74</ele>
        <time>2019-11-17T08:38:14.000Z</time>
      </trkpt>
      <trkpt lat="46.56716" lon="0.68392">
        <ele>178.95</ele>
        <time>2019-11-17T08:38:17.000Z</time>
      </trkpt>
      <trkpt lat="46.56711" lon="0.68408">
        <ele>179.35</ele>
        <time>2019-11-17T08:38:21.000Z</time>
      </trkpt>
      <trkpt lat="46.56705" lon="0.68421">
        <ele>179.63</ele>
        <time>2019-11-17T08:38:24.000Z</time>
      </trkpt>
      <trkpt lat="46.567" lon="0.68433">
        <ele>179.82</ele>
        <time>2019-11-17T08:38:27.000Z</time>
      </trkpt>
      <trkpt lat="46.56695" lon="0.68446">
        <ele>179.94</ele>
        <time>2019-11-17T08:38:30.000Z</time>
      </trkpt>
      <trkpt lat="46.5669" lon="0.68458">
        <ele>180.11</ele>
        <time>2019-11-17T08:38:33.000Z</time>
      </trkpt>
      <trkpt lat="46.56685" lon="0.68471">
        <ele>180.31</ele>
        <time>2019-11-17T08:38:36.000Z</time>
      </trkpt>
      <trkpt lat="46.5668" lon="0.68484">
        <ele>180.57</ele>
        <time>2019-11-17T08:38:39.000Z</time>
      </trkpt>
      <trkpt lat="46.56675" lon="0.685">
        <ele>180.84</ele>
        <time>2019-11-17T08:38:42.000Z</time>
      </trkpt>
      <trkpt lat="46.5667" lon="0.68516">
        <ele>181.57</ele>
        <time>2019-11-17T08:38:45.000Z</time>
      </trkpt>
      <trkpt lat="46.56664" lon="0.68532">
        <ele>182.05</ele>
        <time>2019-11-17T08:38:48.000Z</time>
      </trkpt>
      <trkpt lat="46.56659" lon="0.68547">
        <ele>181.85</ele>
        <time>2019-11-17T08:38:51.000Z</time>
      </trkpt>
      <trkpt lat="46.56653" lon="0.68563">
        <ele>181.08</ele>
        <time>2019-11-17T08:38:54.000Z</time>
      </trkpt>
      <trkpt lat="46.56649" lon="0.68575">
        <ele>180.04</ele>
        <time>2019-11-17T08:38:56.000Z</time>
      </trkpt>
      <trkpt lat="46.56642" lon="0.68593">
        <ele>177.64</ele>
        <time>2019-11-17T08:38:59.000Z</time>
      </trkpt>
      <trkpt lat="46.56636" lon="0.68605">
        <ele>177.28</ele>
        <time>2019-11-17T08:39:01.000Z</time>
      </trkpt>
      <trkpt lat="46.56629" lon="0.68621">
        <ele>177.33</ele>
        <time>2019-11-17T08:39:04.000Z</time>
      </trkpt>
      <trkpt lat="46.56623" lon="0.68634">
        <ele>177.49</ele>
        <time>2019-11-17T08:39:06.000Z</time>
      </trkpt>
      <trkpt lat="46.56616" lon="0.68649">
        <ele>177.37</ele>
        <time>2019-11-17T08:39:08.000Z</time>
      </trkpt>
      <trkpt lat="46.56611" lon="0.68663">
        <ele>177</ele>
        <time>2019-11-17T08:39:10.000Z</time>
      </trkpt>
      <trkpt lat="46.56606" lon="0.68675">
        <ele>177.6</ele>
        <time>2019-11-17T08:39:12.000Z</time>
      </trkpt>
      <trkpt lat="46.566" lon="0.68684">
        <ele>178.69</ele>
        <time>2019-11-17T08:39:14.000Z</time>
      </trkpt>
      <trkpt lat="46.56592" lon="0.687">
        <ele>180.46</ele>
        <time>2019-11-17T08:39:17.000Z</time>
      </trkpt>
      <trkpt lat="46.56587" lon="0.68712">
        <ele>181.94</ele>
        <time>2019-11-17T08:39:19.000Z</time>
      </trkpt>
      <trkpt lat="46.5658" lon="0.68725">
        <ele>184.7</ele>
        <time>2019-11-17T08:39:22.000Z</time>
      </trkpt>
      <trkpt lat="46.56575" lon="0.68739">
        <ele>186.08</ele>
        <time>2019-11-17T08:39:24.000Z</time>
      </trkpt>
      <trkpt lat="46.56567" lon="0.68756">
        <ele>186.62</ele>
        <time>2019-11-17T08:39:27.000Z</time>
      </trkpt>
      <trkpt lat="46.5656" lon="0.68772">
        <ele>186.53</ele>
        <time>2019-11-17T08:39:30.000Z</time>
      </trkpt>
      <trkpt lat="46.56556" lon="0.68784">
        <ele>186.52</ele>
        <time>2019-11-17T08:39:32.000Z</time>
      </trkpt>
      <trkpt lat="46.56549" lon="0.68799">
        <ele>186.85</ele>
        <time>2019-11-17T08:39:35.000Z</time>
      </trkpt>
      <trkpt lat="46.56544" lon="0.68812">
        <ele>186.71</ele>
        <time>2019-11-17T08:39:37.000Z</time>
      </trkpt>
      <trkpt lat="46.56539" lon="0.68825">
        <ele>186.39</ele>
        <time>2019-11-17T08:39:39.000Z</time>
      </trkpt>
      <trkpt lat="46.56535" lon="0.68836">
        <ele>186.05</ele>
        <time>2019-11-17T08:39:41.000Z</time>
      </trkpt>
      <trkpt lat="46.56529" lon="0.6885">
        <ele>186.23</ele>
        <time>2019-11-17T08:39:44.000Z</time>
      </trkpt>
      <trkpt lat="46.56524" lon="0.68865">
        <ele>186.28</ele>
        <time>2019-11-17T08:39:47.000Z</time>
      </trkpt>
      <trkpt lat="46.56518" lon="0.68879">
        <ele>186.41</ele>
        <time>2019-11-17T08:39:50.000Z</time>
      </trkpt>
      <trkpt lat="46.56513" lon="0.68893">
        <ele>186.44</ele>
        <time>2019-11-17T08:39:53.000Z</time>
      </trkpt>
      <trkpt lat="46.56508" lon="0.68907">
        <ele>186.47</ele>
        <time>2019-11-17T08:39:56.000Z</time>
      </trkpt>
      <trkpt lat="46.56501" lon="0.68919">
        <ele>186.41</ele>
        <time>2019-11-17T08:39:59.000Z</time>
      </trkpt>
      <trkpt lat="46.56496" lon="0.68932">
        <ele>186.13</ele>
        <time>2019-11-17T08:40:02.000Z</time>
      </trkpt>
      <trkpt lat="46.56489" lon="0.68945">
        <ele>185.74</ele>
        <time>2019-11-17T08:40:05.000Z</time>
      </trkpt>
      <trkpt lat="46.56481" lon="0.68957">
        <ele>185.34</ele>
        <time>2019-11-17T08:40:11.000Z</time>
      </trkpt>
      <trkpt lat="46.56476" lon="0.68969">
        <ele>185.4</ele>
        <time>2019-11-17T08:40:15.000Z</time>
      </trkpt>
      <trkpt lat="46.56473" lon="0.68956">
        <ele>188.02</ele>
        <time>2019-11-17T08:40:46.000Z</time>
      </trkpt>
      <trkpt lat="46.56481" lon="0.68964">
        <ele>189.43</ele>
        <time>2019-11-17T08:41:45.000Z</time>
      </trkpt>
      <trkpt lat="46.56472" lon="0.6896">
        <ele>189.99</ele>
        <time>2019-11-17T08:45:21.000Z</time>
      </trkpt>
      <trkpt lat="46.5646" lon="0.68959">
        <ele>187.8</ele>
        <time>2019-11-17T08:46:46.000Z</time>
      </trkpt>
      <trkpt lat="46.5645" lon="0.68966">
        <ele>188.37</ele>
        <time>2019-11-17T08:46:49.000Z</time>
      </trkpt>
      <trkpt lat="46.5644" lon="0.68971">
        <ele>188.8</ele>
        <time>2019-11-17T08:46:51.000Z</time>
      </trkpt>
      <trkpt lat="46.56429" lon="0.68976">
        <ele>188.89</ele>
        <time>2019-11-17T08:46:54.000Z</time>
      </trkpt>
      <trkpt lat="46.56424" lon="0.68987">
        <ele>188.89</ele>
        <time>2019-11-17T08:46:57.000Z</time>
      </trkpt>
      <trkpt lat="46.56424" lon="0.69002">
        <ele>188.68</ele>
        <time>2019-11-17T08:47:00.000Z</time>
      </trkpt>
      <trkpt lat="46.56426" lon="0.69021">
        <ele>190.48</ele>
        <time>2019-11-17T08:47:03.000Z</time>
      </trkpt>
      <trkpt lat="46.56429" lon="0.69034">
        <ele>191.41</ele>
        <time>2019-11-17T08:47:05.000Z</time>
      </trkpt>
      <trkpt lat="46.5643" lon="0.69051">
        <ele>192.36</ele>
        <time>2019-11-17T08:47:08.000Z</time>
      </trkpt>
      <trkpt lat="46.56428" lon="0.69064">
        <ele>192.72</ele>
        <time>2019-11-17T08:47:10.000Z</time>
      </trkpt>
      <trkpt lat="46.56427" lon="0.69079">
        <ele>192.5</ele>
        <time>2019-11-17T08:47:12.000Z</time>
      </trkpt>
      <trkpt lat="46.56429" lon="0.69099">
        <ele>192.95</ele>
        <time>2019-11-17T08:47:15.000Z</time>
      </trkpt>
      <trkpt lat="46.56435" lon="0.69115">
        <ele>192.88</ele>
        <time>2019-11-17T08:47:18.000Z</time>
      </trkpt>
      <trkpt lat="46.56439" lon="0.69129">
        <ele>193.01</ele>
        <time>2019-11-17T08:47:20.000Z</time>
      </trkpt>
      <trkpt lat="46.56439" lon="0.69142">
        <ele>193.01</ele>
        <time>2019-11-17T08:47:22.000Z</time>
      </trkpt>
      <trkpt lat="46.56431" lon="0.69156">
        <ele>193.97</ele>
        <time>2019-11-17T08:47:25.000Z</time>
      </trkpt>
      <trkpt lat="46.56423" lon="0.69166">
        <ele>194.19</ele>
        <time>2019-11-17T08:47:27.000Z</time>
      </trkpt>
      <trkpt lat="46.56416" lon="0.69177">
        <ele>193.29</ele>
        <time>2019-11-17T08:47:30.000Z</time>
      </trkpt>
      <trkpt lat="46.56405" lon="0.6919">
        <ele>192.47</ele>
        <time>2019-11-17T08:47:33.000Z</time>
      </trkpt>
      <trkpt lat="46.56398" lon="0.69197">
        <ele>192.09</ele>
        <time>2019-11-17T08:47:35.000Z</time>
      </trkpt>
      <trkpt lat="46.5639" lon="0.69209">
        <ele>191.7</ele>
        <time>2019-11-17T08:47:37.000Z</time>
      </trkpt>
      <trkpt lat="46.56382" lon="0.69219">
        <ele>191.9</ele>
        <time>2019-11-17T08:47:39.000Z</time>
      </trkpt>
      <trkpt lat="46.56373" lon="0.69223">
        <ele>192.36</ele>
        <time>2019-11-17T08:47:41.000Z</time>
      </trkpt>
      <trkpt lat="46.56362" lon="0.69219">
        <ele>192.46</ele>
        <time>2019-11-17T08:47:43.000Z</time>
      </trkpt>
      <trkpt lat="46.56352" lon="0.69214">
        <ele>192.45</ele>
        <time>2019-11-17T08:47:45.000Z</time>
      </trkpt>
      <trkpt lat="46.5634" lon="0.69207">
        <ele>192.41</ele>
        <time>2019-11-17T08:47:47.000Z</time>
      </trkpt>
      <trkpt lat="46.56329" lon="0.69201">
        <ele>192.65</ele>
        <time>2019-11-17T08:47:49.000Z</time>
      </trkpt>
      <trkpt lat="46.56319" lon="0.69195">
        <ele>192.97</ele>
        <time>2019-11-17T08:47:51.000Z</time>
      </trkpt>
      <trkpt lat="46.56306" lon="0.69188">
        <ele>192.52</ele>
        <time>2019-11-17T08:47:53.000Z</time>
      </trkpt>
      <trkpt lat="46.56296" lon="0.69183">
        <ele>192.18</ele>
        <time>2019-11-17T08:47:55.000Z</time>
      </trkpt>
      <trkpt lat="46.56286" lon="0.69177">
        <ele>191.64</ele>
        <time>2019-11-17T08:47:57.000Z</time>
      </trkpt>
      <trkpt lat="46.56275" lon="0.69172">
        <ele>190.82</ele>
        <time>2019-11-17T08:47:59.000Z</time>
      </trkpt>
      <trkpt lat="46.56263" lon="0.69166">
        <ele>189.99</ele>
        <time>2019-11-17T08:48:01.000Z</time>
      </trkpt>
      <trkpt lat="46.56252" lon="0.69159">
        <ele>189.11</ele>
        <time>2019-11-17T08:48:03.000Z</time>
      </trkpt>
      <trkpt lat="46.56239" lon="0.69153">
        <ele>188.35</ele>
        <time>2019-11-17T08:48:05.000Z</time>
      </trkpt>
      <trkpt lat="46.56227" lon="0.69146">
        <ele>187.59</ele>
        <time>2019-11-17T08:48:07.000Z</time>
      </trkpt>
      <trkpt lat="46.56214" lon="0.69139">
        <ele>186.86</ele>
        <time>2019-11-17T08:48:09.000Z</time>
      </trkpt>
      <trkpt lat="46.56201" lon="0.69131">
        <ele>186.19</ele>
        <time>2019-11-17T08:48:11.000Z</time>
      </trkpt>
      <trkpt lat="46.56188" lon="0.69123">
        <ele>185.61</ele>
        <time>2019-11-17T08:48:13.000Z</time>
      </trkpt>
      <trkpt lat="46.56174" lon="0.69117">
        <ele>185.08</ele>
        <time>2019-11-17T08:48:15.000Z</time>
      </trkpt>
      <trkpt lat="46.56159" lon="0.6911">
        <ele>184.46</ele>
        <time>2019-11-17T08:48:17.000Z</time>
      </trkpt>
      <trkpt lat="46.56144" lon="0.69103">
        <ele>184.01</ele>
        <time>2019-11-17T08:48:19.000Z</time>
      </trkpt>
      <trkpt lat="46.56129" lon="0.69096">
        <ele>183.59</ele>
        <time>2019-11-17T08:48:21.000Z</time>
      </trkpt>
      <trkpt lat="46.56115" lon="0.69089">
        <ele>183.05</ele>
        <time>2019-11-17T08:48:23.000Z</time>
      </trkpt>
      <trkpt lat="46.56106" lon="0.6908">
        <ele>182.98</ele>
        <time>2019-11-17T08:48:26.000Z</time>
      </trkpt>
      <trkpt lat="46.56107" lon="0.69067">
        <ele>182.85</ele>
        <time>2019-11-17T08:48:29.000Z</time>
      </trkpt>
      <trkpt lat="46.56106" lon="0.69048">
        <ele>182.11</ele>
        <time>2019-11-17T08:48:32.000Z</time>
      </trkpt>
      <trkpt lat="46.56103" lon="0.69035">
        <ele>182.12</ele>
        <time>2019-11-17T08:48:34.000Z</time>
      </trkpt>
      <trkpt lat="46.56099" lon="0.69022">
        <ele>182.3</ele>
        <time>2019-11-17T08:48:36.000Z</time>
      </trkpt>
      <trkpt lat="46.56096" lon="0.69009">
        <ele>182.54</ele>
        <time>2019-11-17T08:48:38.000Z</time>
      </trkpt>
      <trkpt lat="46.56094" lon="0.68996">
        <ele>183.19</ele>
        <time>2019-11-17T08:48:40.000Z</time>
      </trkpt>
      <trkpt lat="46.56091" lon="0.68983">
        <ele>183.58</ele>
        <time>2019-11-17T08:48:42.000Z</time>
      </trkpt>
      <trkpt lat="46.56085" lon="0.68967">
        <ele>183.69</ele>
        <time>2019-11-17T08:48:45.000Z</time>
      </trkpt>
      <trkpt lat="46.56076" lon="0.6896">
        <ele>183.85</ele>
        <time>2019-11-17T08:48:49.000Z</time>
      </trkpt>
      <trkpt lat="46.56067" lon="0.68952">
        <ele>184.04</ele>
        <time>2019-11-17T08:48:53.000Z</time>
      </trkpt>
      <trkpt lat="46.56057" lon="0.68933">
        <ele>184.28</ele>
        <time>2019-11-17T08:48:56.000Z</time>
      </trkpt>
      <trkpt lat="46.5605" lon="0.68918">
        <ele>188.1</ele>
        <time>2019-11-17T08:48:58.000Z</time>
      </trkpt>
      <trkpt lat="46.56045" lon="0.689">
        <ele>190.04</ele>
        <time>2019-11-17T08:49:00.000Z</time>
      </trkpt>
      <trkpt lat="46.56042" lon="0.68883">
        <ele>190.06</ele>
        <time>2019-11-17T08:49:01.000Z</time>
      </trkpt>
      <trkpt lat="46.56038" lon="0.68871">
        <ele>190.09</ele>
        <time>2019-11-17T08:49:02.000Z</time>
      </trkpt>
      <trkpt lat="46.56043" lon="0.68849">
        <ele>189.76</ele>
        <time>2019-11-17T08:49:04.000Z</time>
      </trkpt>
      <trkpt lat="46.56047" lon="0.68832">
        <ele>188.78</ele>
        <time>2019-11-17T08:49:06.000Z</time>
      </trkpt>
      <trkpt lat="46.56051" lon="0.68816">
        <ele>188.33</ele>
        <time>2019-11-17T08:49:08.000Z</time>
      </trkpt>
      <trkpt lat="46.5606" lon="0.68798">
        <ele>187.16</ele>
        <time>2019-11-17T08:49:10.000Z</time>
      </trkpt>
      <trkpt lat="46.56069" lon="0.68777">
        <ele>186.49</ele>
        <time>2019-11-17T08:49:12.000Z</time>
      </trkpt>
      <trkpt lat="46.56075" lon="0.6876">
        <ele>186.74</ele>
        <time>2019-11-17T08:49:14.000Z</time>
      </trkpt>
      <trkpt lat="46.56081" lon="0.68747">
        <ele>186.84</ele>
        <time>2019-11-17T08:49:16.000Z</time>
      </trkpt>
      <trkpt lat="46.56084" lon="0.68734">
        <ele>186.44</ele>
        <time>2019-11-17T08:49:17.000Z</time>
      </trkpt>
      <trkpt lat="46.5609" lon="0.68718">
        <ele>184.26</ele>
        <time>2019-11-17T08:49:19.000Z</time>
      </trkpt>
      <trkpt lat="46.56095" lon="0.68703">
        <ele>181.51</ele>
        <time>2019-11-17T08:49:21.000Z</time>
      </trkpt>
      <trkpt lat="46.56099" lon="0.68682">
        <ele>179.93</ele>
        <time>2019-11-17T08:49:23.000Z</time>
      </trkpt>
      <trkpt lat="46.56101" lon="0.68669">
        <ele>178.61</ele>
        <time>2019-11-17T08:49:25.000Z</time>
      </trkpt>
      <trkpt lat="46.56102" lon="0.68653">
        <ele>177.63</ele>
        <time>2019-11-17T08:49:27.000Z</time>
      </trkpt>
      <trkpt lat="46.56102" lon="0.68634">
        <ele>176.93</ele>
        <time>2019-11-17T08:49:29.000Z</time>
      </trkpt>
      <trkpt lat="46.56105" lon="0.68613">
        <ele>176.67</ele>
        <time>2019-11-17T08:49:31.000Z</time>
      </trkpt>
      <trkpt lat="46.56109" lon="0.68591">
        <ele>177.35</ele>
        <time>2019-11-17T08:49:33.000Z</time>
      </trkpt>
      <trkpt lat="46.56113" lon="0.68573">
        <ele>179.26</ele>
        <time>2019-11-17T08:49:35.000Z</time>
      </trkpt>
      <trkpt lat="46.56116" lon="0.68555">
        <ele>179.82</ele>
        <time>2019-11-17T08:49:37.000Z</time>
      </trkpt>
      <trkpt lat="46.56119" lon="0.68535">
        <ele>178.79</ele>
        <time>2019-11-17T08:49:39.000Z</time>
      </trkpt>
      <trkpt lat="46.56119" lon="0.68516">
        <ele>176.55</ele>
        <time>2019-11-17T08:49:41.000Z</time>
      </trkpt>
      <trkpt lat="46.56122" lon="0.68501">
        <ele>173.09</ele>
        <time>2019-11-17T08:49:43.000Z</time>
      </trkpt>
      <trkpt lat="46.56123" lon="0.68488">
        <ele>172.06</ele>
        <time>2019-11-17T08:49:47.000Z</time>
      </trkpt>
      <trkpt lat="46.56113" lon="0.68499">
        <ele>171.12</ele>
        <time>2019-11-17T08:49:50.000Z</time>
      </trkpt>
      <trkpt lat="46.56107" lon="0.68511">
        <ele>168.03</ele>
        <time>2019-11-17T08:49:52.000Z</time>
      </trkpt>
      <trkpt lat="46.56104" lon="0.68523">
        <ele>167.54</ele>
        <time>2019-11-17T08:49:54.000Z</time>
      </trkpt>
      <trkpt lat="46.56098" lon="0.68538">
        <ele>166.84</ele>
        <time>2019-11-17T08:49:57.000Z</time>
      </trkpt>
      <trkpt lat="46.56093" lon="0.6855">
        <ele>165.82</ele>
        <time>2019-11-17T08:50:01.000Z</time>
      </trkpt>
      <trkpt lat="46.56086" lon="0.6856">
        <ele>163.65</ele>
        <time>2019-11-17T08:50:08.000Z</time>
      </trkpt>
      <trkpt lat="46.56081" lon="0.68573">
        <ele>159.23</ele>
        <time>2019-11-17T08:50:19.000Z</time>
      </trkpt>
      <trkpt lat="46.56072" lon="0.68579">
        <ele>157.37</ele>
        <time>2019-11-17T08:50:24.000Z</time>
      </trkpt>
      <trkpt lat="46.56062" lon="0.68575">
        <ele>156.5</ele>
        <time>2019-11-17T08:50:28.000Z</time>
      </trkpt>
      <trkpt lat="46.56054" lon="0.68572">
        <ele>156.18</ele>
        <time>2019-11-17T08:50:31.000Z</time>
      </trkpt>
      <trkpt lat="46.56043" lon="0.68568">
        <ele>155.9</ele>
        <time>2019-11-17T08:50:34.000Z</time>
      </trkpt>
      <trkpt lat="46.56033" lon="0.68571">
        <ele>155.58</ele>
        <time>2019-11-17T08:50:37.000Z</time>
      </trkpt>
      <trkpt lat="46.56025" lon="0.68576">
        <ele>153.66</ele>
        <time>2019-11-17T08:50:52.000Z</time>
      </trkpt>
      <trkpt lat="46.56018" lon="0.68585">
        <ele>153.04</ele>
        <time>2019-11-17T08:50:56.000Z</time>
      </trkpt>
      <trkpt lat="46.56012" lon="0.68595">
        <ele>152.05</ele>
        <time>2019-11-17T08:51:03.000Z</time>
      </trkpt>
      <trkpt lat="46.56004" lon="0.68602">
        <ele>150.77</ele>
        <time>2019-11-17T08:51:11.000Z</time>
      </trkpt>
      <trkpt lat="46.55995" lon="0.68606">
        <ele>150.56</ele>
        <time>2019-11-17T08:51:19.000Z</time>
      </trkpt>
      <trkpt lat="46.55986" lon="0.686">
        <ele>151.22</ele>
        <time>2019-11-17T08:51:28.000Z</time>
      </trkpt>
      <trkpt lat="46.55979" lon="0.68591">
        <ele>152.06</ele>
        <time>2019-11-17T08:51:39.000Z</time>
      </trkpt>
      <trkpt lat="46.55971" lon="0.68583">
        <ele>152.79</ele>
        <time>2019-11-17T08:51:48.000Z</time>
      </trkpt>
      <trkpt lat="46.55963" lon="0.68575">
        <ele>153.41</ele>
        <time>2019-11-17T08:51:52.000Z</time>
      </trkpt>
      <trkpt lat="46.55955" lon="0.68563">
        <ele>153.84</ele>
        <time>2019-11-17T08:51:57.000Z</time>
      </trkpt>
      <trkpt lat="46.55948" lon="0.68549">
        <ele>154.13</ele>
        <time>2019-11-17T08:52:01.000Z</time>
      </trkpt>
      <trkpt lat="46.55942" lon="0.68536">
        <ele>154.64</ele>
        <time>2019-11-17T08:52:05.000Z</time>
      </trkpt>
      <trkpt lat="46.55933" lon="0.68528">
        <ele>155.49</ele>
        <time>2019-11-17T08:52:11.000Z</time>
      </trkpt>
      <trkpt lat="46.55921" lon="0.68526">
        <ele>156.38</ele>
        <time>2019-11-17T08:52:16.000Z</time>
      </trkpt>
      <trkpt lat="46.5591" lon="0.68529">
        <ele>156.93</ele>
        <time>2019-11-17T08:52:20.000Z</time>
      </trkpt>
      <trkpt lat="46.55902" lon="0.68536">
        <ele>157.43</ele>
        <time>2019-11-17T08:52:27.000Z</time>
      </trkpt>
      <trkpt lat="46.55893" lon="0.68546">
        <ele>157.33</ele>
        <time>2019-11-17T08:52:30.000Z</time>
      </trkpt>
      <trkpt lat="46.55884" lon="0.68551">
        <ele>157.01</ele>
        <time>2019-11-17T08:52:33.000Z</time>
      </trkpt>
      <trkpt lat="46.55875" lon="0.68554">
        <ele>156.5</ele>
        <time>2019-11-17T08:52:36.000Z</time>
      </trkpt>
      <trkpt lat="46.55865" lon="0.68557">
        <ele>155.55</ele>
        <time>2019-11-17T08:52:42.000Z</time>
      </trkpt>
      <trkpt lat="46.55855" lon="0.68559">
        <ele>155.52</ele>
        <time>2019-11-17T08:52:47.000Z</time>
      </trkpt>
      <trkpt lat="46.55846" lon="0.68559">
        <ele>155.8</ele>
        <time>2019-11-17T08:52:52.000Z</time>
      </trkpt>
      <trkpt lat="46.55836" lon="0.68562">
        <ele>156.18</ele>
        <time>2019-11-17T08:52:57.000Z</time>
      </trkpt>
      <trkpt lat="46.55826" lon="0.68563">
        <ele>156.49</ele>
        <time>2019-11-17T08:53:02.000Z</time>
      </trkpt>
      <trkpt lat="46.55813" lon="0.68566">
        <ele>156.77</ele>
        <time>2019-11-17T08:53:06.000Z</time>
      </trkpt>
      <trkpt lat="46.55804" lon="0.68573">
        <ele>156.93</ele>
        <time>2019-11-17T08:53:09.000Z</time>
      </trkpt>
      <trkpt lat="46.55795" lon="0.68584">
        <ele>156.98</ele>
        <time>2019-11-17T08:53:12.000Z</time>
      </trkpt>
      <trkpt lat="46.55788" lon="0.68593">
        <ele>156.92</ele>
        <time>2019-11-17T08:53:15.000Z</time>
      </trkpt>
      <trkpt lat="46.55778" lon="0.686">
        <ele>157.15</ele>
        <time>2019-11-17T08:53:18.000Z</time>
      </trkpt>
      <trkpt lat="46.55768" lon="0.68608">
        <ele>157.54</ele>
        <time>2019-11-17T08:53:21.000Z</time>
      </trkpt>
      <trkpt lat="46.55756" lon="0.68613">
        <ele>157.87</ele>
        <time>2019-11-17T08:53:24.000Z</time>
      </trkpt>
      <trkpt lat="46.55745" lon="0.68618">
        <ele>158.43</ele>
        <time>2019-11-17T08:53:27.000Z</time>
      </trkpt>
      <trkpt lat="46.55735" lon="0.6862">
        <ele>158.86</ele>
        <time>2019-11-17T08:53:29.000Z</time>
      </trkpt>
      <trkpt lat="46.55725" lon="0.68625">
        <ele>159.69</ele>
        <time>2019-11-17T08:53:33.000Z</time>
      </trkpt>
      <trkpt lat="46.55723" lon="0.68611">
        <ele>160.42</ele>
        <time>2019-11-17T08:53:37.000Z</time>
      </trkpt>
      <trkpt lat="46.55729" lon="0.68595">
        <ele>160.83</ele>
        <time>2019-11-17T08:53:40.000Z</time>
      </trkpt>
      <trkpt lat="46.55733" lon="0.68575">
        <ele>162.16</ele>
        <time>2019-11-17T08:53:43.000Z</time>
      </trkpt>
      <trkpt lat="46.55736" lon="0.6856">
        <ele>163.51</ele>
        <time>2019-11-17T08:53:45.000Z</time>
      </trkpt>
      <trkpt lat="46.55736" lon="0.68546">
        <ele>164.22</ele>
        <time>2019-11-17T08:53:49.000Z</time>
      </trkpt>
      <trkpt lat="46.55739" lon="0.68533">
        <ele>164.53</ele>
        <time>2019-11-17T08:53:54.000Z</time>
      </trkpt>
      <trkpt lat="46.55739" lon="0.68516">
        <ele>164.63</ele>
        <time>2019-11-17T08:53:58.000Z</time>
      </trkpt>
      <trkpt lat="46.55741" lon="0.685">
        <ele>164.66</ele>
        <time>2019-11-17T08:54:00.000Z</time>
      </trkpt>
      <trkpt lat="46.55743" lon="0.68487">
        <ele>164.72</ele>
        <time>2019-11-17T08:54:02.000Z</time>
      </trkpt>
      <trkpt lat="46.55746" lon="0.68473">
        <ele>164.81</ele>
        <time>2019-11-17T08:54:04.000Z</time>
      </trkpt>
      <trkpt lat="46.55748" lon="0.68457">
        <ele>164.89</ele>
        <time>2019-11-17T08:54:07.000Z</time>
      </trkpt>
      <trkpt lat="46.55756" lon="0.68446">
        <ele>165.05</ele>
        <time>2019-11-17T08:54:10.000Z</time>
      </trkpt>
      <trkpt lat="46.55765" lon="0.68439">
        <ele>165.06</ele>
        <time>2019-11-17T08:54:15.000Z</time>
      </trkpt>
      <trkpt lat="46.55777" lon="0.68445">
        <ele>164.94</ele>
        <time>2019-11-17T08:54:19.000Z</time>
      </trkpt>
      <trkpt lat="46.55787" lon="0.68444">
        <ele>164.63</ele>
        <time>2019-11-17T08:54:25.000Z</time>
      </trkpt>
      <trkpt lat="46.55796" lon="0.68449">
        <ele>164.51</ele>
        <time>2019-11-17T08:54:26.000Z</time>
      </trkpt>
      <trkpt lat="46.55804" lon="0.68455">
        <ele>163.88</ele>
        <time>2019-11-17T08:54:33.000Z</time>
      </trkpt>
      <trkpt lat="46.55815" lon="0.68453">
        <ele>163.7</ele>
        <time>2019-11-17T08:54:36.000Z</time>
      </trkpt>
      <trkpt lat="46.55824" lon="0.6845">
        <ele>163.73</ele>
        <time>2019-11-17T08:54:39.000Z</time>
      </trkpt>
      <trkpt lat="46.55835" lon="0.68454">
        <ele>163.89</ele>
        <time>2019-11-17T08:54:43.000Z</time>
      </trkpt>
      <trkpt lat="46.55844" lon="0.68458">
        <ele>164.15</ele>
        <time>2019-11-17T08:54:49.000Z</time>
      </trkpt>
      <trkpt lat="46.55853" lon="0.68458">
        <ele>163.97</ele>
        <time>2019-11-17T08:54:53.000Z</time>
      </trkpt>
      <trkpt lat="46.55863" lon="0.68461">
        <ele>163.65</ele>
        <time>2019-11-17T08:54:56.000Z</time>
      </trkpt>
      <trkpt lat="46.55871" lon="0.6847">
        <ele>163.23</ele>
        <time>2019-11-17T08:54:59.000Z</time>
      </trkpt>
      <trkpt lat="46.5588" lon="0.68478">
        <ele>162.73</ele>
        <time>2019-11-17T08:55:02.000Z</time>
      </trkpt>
      <trkpt lat="46.5589" lon="0.68483">
        <ele>162.12</ele>
        <time>2019-11-17T08:55:06.000Z</time>
      </trkpt>
      <trkpt lat="46.55897" lon="0.6849">
        <ele>161.39</ele>
        <time>2019-11-17T08:55:11.000Z</time>
      </trkpt>
      <trkpt lat="46.55906" lon="0.68498">
        <ele>160.29</ele>
        <time>2019-11-17T08:55:20.000Z</time>
      </trkpt>
      <trkpt lat="46.55913" lon="0.68507">
        <ele>159.45</ele>
        <time>2019-11-17T08:55:27.000Z</time>
      </trkpt>
      <trkpt lat="46.5592" lon="0.68521">
        <ele>158.66</ele>
        <time>2019-11-17T08:55:31.000Z</time>
      </trkpt>
      <trkpt lat="46.55928" lon="0.68528">
        <ele>158.25</ele>
        <time>2019-11-17T08:55:34.000Z</time>
      </trkpt>
      <trkpt lat="46.55938" lon="0.68533">
        <ele>157.67</ele>
        <time>2019-11-17T08:55:40.000Z</time>
      </trkpt>
      <trkpt lat="46.55944" lon="0.68521">
        <ele>157.46</ele>
        <time>2019-11-17T08:55:44.000Z</time>
      </trkpt>
      <trkpt lat="46.55949" lon="0.68507">
        <ele>157.43</ele>
        <time>2019-11-17T08:55:47.000Z</time>
      </trkpt>
      <trkpt lat="46.55953" lon="0.68489">
        <ele>157.62</ele>
        <time>2019-11-17T08:55:50.000Z</time>
      </trkpt>
      <trkpt lat="46.55955" lon="0.68475">
        <ele>158.67</ele>
        <time>2019-11-17T08:55:52.000Z</time>
      </trkpt>
      <trkpt lat="46.55958" lon="0.68459">
        <ele>161.23</ele>
        <time>2019-11-17T08:55:54.000Z</time>
      </trkpt>
      <trkpt lat="46.55961" lon="0.68445">
        <ele>163.34</ele>
        <time>2019-11-17T08:55:56.000Z</time>
      </trkpt>
      <trkpt lat="46.55965" lon="0.68429">
        <ele>166.52</ele>
        <time>2019-11-17T08:55:59.000Z</time>
      </trkpt>
      <trkpt lat="46.55967" lon="0.68416">
        <ele>168.49</ele>
        <time>2019-11-17T08:56:01.000Z</time>
      </trkpt>
      <trkpt lat="46.55973" lon="0.68398">
        <ele>169.54</ele>
        <time>2019-11-17T08:56:04.000Z</time>
      </trkpt>
      <trkpt lat="46.55976" lon="0.68384">
        <ele>169.56</ele>
        <time>2019-11-17T08:56:06.000Z</time>
      </trkpt>
      <trkpt lat="46.55979" lon="0.6837">
        <ele>169.06</ele>
        <time>2019-11-17T08:56:08.000Z</time>
      </trkpt>
      <trkpt lat="46.55982" lon="0.68356">
        <ele>167.48</ele>
        <time>2019-11-17T08:56:10.000Z</time>
      </trkpt>
      <trkpt lat="46.55986" lon="0.68342">
        <ele>166.34</ele>
        <time>2019-11-17T08:56:12.000Z</time>
      </trkpt>
      <trkpt lat="46.5599" lon="0.68324">
        <ele>165.77</ele>
        <time>2019-11-17T08:56:15.000Z</time>
      </trkpt>
      <trkpt lat="46.55993" lon="0.6831">
        <ele>165.5</ele>
        <time>2019-11-17T08:56:17.000Z</time>
      </trkpt>
      <trkpt lat="46.55998" lon="0.68291">
        <ele>165.17</ele>
        <time>2019-11-17T08:56:19.000Z</time>
      </trkpt>
      <trkpt lat="46.56001" lon="0.68275">
        <ele>164.24</ele>
        <time>2019-11-17T08:56:21.000Z</time>
      </trkpt>
      <trkpt lat="46.56003" lon="0.68258">
        <ele>163.48</ele>
        <time>2019-11-17T08:56:23.000Z</time>
      </trkpt>
      <trkpt lat="46.56005" lon="0.68237">
        <ele>162.75</ele>
        <time>2019-11-17T08:56:25.000Z</time>
      </trkpt>
      <trkpt lat="46.56005" lon="0.68219">
        <ele>161.93</ele>
        <time>2019-11-17T08:56:27.000Z</time>
      </trkpt>
      <trkpt lat="46.56005" lon="0.68201">
        <ele>161.91</ele>
        <time>2019-11-17T08:56:29.000Z</time>
      </trkpt>
      <trkpt lat="46.56003" lon="0.68182">
        <ele>162.55</ele>
        <time>2019-11-17T08:56:31.000Z</time>
      </trkpt>
      <trkpt lat="46.56002" lon="0.68162">
        <ele>163.19</ele>
        <time>2019-11-17T08:56:33.000Z</time>
      </trkpt>
      <trkpt lat="46.56001" lon="0.68144">
        <ele>162.83</ele>
        <time>2019-11-17T08:56:35.000Z</time>
      </trkpt>
      <trkpt lat="46.56005" lon="0.68129">
        <ele>160.98</ele>
        <time>2019-11-17T08:56:37.000Z</time>
      </trkpt>
      <trkpt lat="46.56006" lon="0.68108">
        <ele>158.6</ele>
        <time>2019-11-17T08:56:40.000Z</time>
      </trkpt>
      <trkpt lat="46.56007" lon="0.68093">
        <ele>157.33</ele>
        <time>2019-11-17T08:56:42.000Z</time>
      </trkpt>
      <trkpt lat="46.56007" lon="0.6808">
        <ele>156.31</ele>
        <time>2019-11-17T08:56:44.000Z</time>
      </trkpt>
      <trkpt lat="46.56006" lon="0.68065">
        <ele>155.38</ele>
        <time>2019-11-17T08:56:46.000Z</time>
      </trkpt>
      <trkpt lat="46.56008" lon="0.6805">
        <ele>155.4</ele>
        <time>2019-11-17T08:56:48.000Z</time>
      </trkpt>
      <trkpt lat="46.56008" lon="0.68033">
        <ele>155.47</ele>
        <time>2019-11-17T08:56:50.000Z</time>
      </trkpt>
      <trkpt lat="46.56009" lon="0.68018">
        <ele>156.19</ele>
        <time>2019-11-17T08:56:52.000Z</time>
      </trkpt>
      <trkpt lat="46.56008" lon="0.68002">
        <ele>156.96</ele>
        <time>2019-11-17T08:56:54.000Z</time>
      </trkpt>
      <trkpt lat="46.56007" lon="0.67985">
        <ele>157.29</ele>
        <time>2019-11-17T08:56:56.000Z</time>
      </trkpt>
      <trkpt lat="46.56008" lon="0.67969">
        <ele>157.03</ele>
        <time>2019-11-17T08:56:58.000Z</time>
      </trkpt>
      <trkpt lat="46.56008" lon="0.67952">
        <ele>156.41</ele>
        <time>2019-11-17T08:57:00.000Z</time>
      </trkpt>
      <trkpt lat="46.56008" lon="0.67938">
        <ele>155.76</ele>
        <time>2019-11-17T08:57:02.000Z</time>
      </trkpt>
      <trkpt lat="46.56008" lon="0.67922">
        <ele>154.85</ele>
        <time>2019-11-17T08:57:04.000Z</time>
      </trkpt>
      <trkpt lat="46.56008" lon="0.67907">
        <ele>153.88</ele>
        <time>2019-11-17T08:57:06.000Z</time>
      </trkpt>
      <trkpt lat="46.56008" lon="0.67892">
        <ele>152.6</ele>
        <time>2019-11-17T08:57:08.000Z</time>
      </trkpt>
      <trkpt lat="46.56008" lon="0.67874">
        <ele>150.73</ele>
        <time>2019-11-17T08:57:11.000Z</time>
      </trkpt>
      <trkpt lat="46.56008" lon="0.67856">
        <ele>150.1</ele>
        <time>2019-11-17T08:57:14.000Z</time>
      </trkpt>
      <trkpt lat="46.5601" lon="0.67836">
        <ele>150.08</ele>
        <time>2019-11-17T08:57:17.000Z</time>
      </trkpt>
      <trkpt lat="46.56011" lon="0.67822">
        <ele>149.84</ele>
        <time>2019-11-17T08:57:19.000Z</time>
      </trkpt>
      <trkpt lat="46.56011" lon="0.67803">
        <ele>149.81</ele>
        <time>2019-11-17T08:57:21.000Z</time>
      </trkpt>
      <trkpt lat="46.56011" lon="0.67784">
        <ele>150.49</ele>
        <time>2019-11-17T08:57:24.000Z</time>
      </trkpt>
      <trkpt lat="46.56014" lon="0.67763">
        <ele>150.94</ele>
        <time>2019-11-17T08:57:27.000Z</time>
      </trkpt>
      <trkpt lat="46.56017" lon="0.67749">
        <ele>151.3</ele>
        <time>2019-11-17T08:57:29.000Z</time>
      </trkpt>
      <trkpt lat="46.5602" lon="0.67735">
        <ele>151.72</ele>
        <time>2019-11-17T08:57:31.000Z</time>
      </trkpt>
      <trkpt lat="46.56022" lon="0.67721">
        <ele>152.16</ele>
        <time>2019-11-17T08:57:33.000Z</time>
      </trkpt>
      <trkpt lat="46.56024" lon="0.67705">
        <ele>152.78</ele>
        <time>2019-11-17T08:57:36.000Z</time>
      </trkpt>
      <trkpt lat="46.56024" lon="0.67688">
        <ele>153.27</ele>
        <time>2019-11-17T08:57:39.000Z</time>
      </trkpt>
      <trkpt lat="46.56027" lon="0.67674">
        <ele>153.62</ele>
        <time>2019-11-17T08:57:42.000Z</time>
      </trkpt>
      <trkpt lat="46.56033" lon="0.67661">
        <ele>153.75</ele>
        <time>2019-11-17T08:57:45.000Z</time>
      </trkpt>
      <trkpt lat="46.56039" lon="0.67647">
        <ele>153.76</ele>
        <time>2019-11-17T08:57:48.000Z</time>
      </trkpt>
      <trkpt lat="46.56046" lon="0.67631">
        <ele>154</ele>
        <time>2019-11-17T08:57:51.000Z</time>
      </trkpt>
      <trkpt lat="46.56052" lon="0.67618">
        <ele>154.3</ele>
        <time>2019-11-17T08:57:53.000Z</time>
      </trkpt>
      <trkpt lat="46.56056" lon="0.67602">
        <ele>154.56</ele>
        <time>2019-11-17T08:57:55.000Z</time>
      </trkpt>
      <trkpt lat="46.56062" lon="0.67591">
        <ele>154.87</ele>
        <time>2019-11-17T08:57:58.000Z</time>
      </trkpt>
      <trkpt lat="46.56067" lon="0.67575">
        <ele>155.17</ele>
        <time>2019-11-17T08:58:01.000Z</time>
      </trkpt>
      <trkpt lat="46.56072" lon="0.67563">
        <ele>155.37</ele>
        <time>2019-11-17T08:58:03.000Z</time>
      </trkpt>
      <trkpt lat="46.56077" lon="0.67549">
        <ele>155.6</ele>
        <time>2019-11-17T08:58:05.000Z</time>
      </trkpt>
      <trkpt lat="46.56083" lon="0.67531">
        <ele>155.82</ele>
        <time>2019-11-17T08:58:08.000Z</time>
      </trkpt>
      <trkpt lat="46.56088" lon="0.67518">
        <ele>155.96</ele>
        <time>2019-11-17T08:58:11.000Z</time>
      </trkpt>
      <trkpt lat="46.56092" lon="0.67504">
        <ele>155.99</ele>
        <time>2019-11-17T08:58:13.000Z</time>
      </trkpt>
      <trkpt lat="46.56098" lon="0.67491">
        <ele>156.03</ele>
        <time>2019-11-17T08:58:16.000Z</time>
      </trkpt>
      <trkpt lat="46.56102" lon="0.67479">
        <ele>155.98</ele>
        <time>2019-11-17T08:58:18.000Z</time>
      </trkpt>
      <trkpt lat="46.56108" lon="0.67464">
        <ele>155.85</ele>
        <time>2019-11-17T08:58:21.000Z</time>
      </trkpt>
      <trkpt lat="46.56114" lon="0.67453">
        <ele>155.73</ele>
        <time>2019-11-17T08:58:23.000Z</time>
      </trkpt>
      <trkpt lat="46.56121" lon="0.67437">
        <ele>154.45</ele>
        <time>2019-11-17T08:58:26.000Z</time>
      </trkpt>
      <trkpt lat="46.56128" lon="0.67422">
        <ele>153.69</ele>
        <time>2019-11-17T08:58:29.000Z</time>
      </trkpt>
      <trkpt lat="46.56139" lon="0.67412">
        <ele>153.27</ele>
        <time>2019-11-17T08:58:32.000Z</time>
      </trkpt>
      <trkpt lat="46.56146" lon="0.674">
        <ele>153.2</ele>
        <time>2019-11-17T08:58:34.000Z</time>
      </trkpt>
      <trkpt lat="46.56154" lon="0.67387">
        <ele>153.31</ele>
        <time>2019-11-17T08:58:37.000Z</time>
      </trkpt>
      <trkpt lat="46.56163" lon="0.67376">
        <ele>153.49</ele>
        <time>2019-11-17T08:58:41.000Z</time>
      </trkpt>
      <trkpt lat="46.56159" lon="0.6736">
        <ele>153.2</ele>
        <time>2019-11-17T08:58:47.000Z</time>
      </trkpt>
      <trkpt lat="46.56153" lon="0.67348">
        <ele>152.95</ele>
        <time>2019-11-17T08:58:49.000Z</time>
      </trkpt>
      <trkpt lat="46.56144" lon="0.6734">
        <ele>152.69</ele>
        <time>2019-11-17T08:58:51.000Z</time>
      </trkpt>
      <trkpt lat="46.56131" lon="0.6733">
        <ele>151.59</ele>
        <time>2019-11-17T08:58:53.000Z</time>
      </trkpt>
      <trkpt lat="46.56121" lon="0.67325">
        <ele>151.83</ele>
        <time>2019-11-17T08:58:55.000Z</time>
      </trkpt>
      <trkpt lat="46.56108" lon="0.67322">
        <ele>152.31</ele>
        <time>2019-11-17T08:58:58.000Z</time>
      </trkpt>
      <trkpt lat="46.56097" lon="0.67319">
        <ele>152.02</ele>
        <time>2019-11-17T08:59:00.000Z</time>
      </trkpt>
      <trkpt lat="46.56088" lon="0.67315">
        <ele>152.07</ele>
        <time>2019-11-17T08:59:02.000Z</time>
      </trkpt>
      <trkpt lat="46.56077" lon="0.67311">
        <ele>152.34</ele>
        <time>2019-11-17T08:59:05.000Z</time>
      </trkpt>
      <trkpt lat="46.56066" lon="0.67306">
        <ele>152.83</ele>
        <time>2019-11-17T08:59:08.000Z</time>
      </trkpt>
      <trkpt lat="46.56057" lon="0.67301">
        <ele>153.48</ele>
        <time>2019-11-17T08:59:10.000Z</time>
      </trkpt>
      <trkpt lat="46.56048" lon="0.67298">
        <ele>154.07</ele>
        <time>2019-11-17T08:59:12.000Z</time>
      </trkpt>
      <trkpt lat="46.56035" lon="0.67295">
        <ele>154.08</ele>
        <time>2019-11-17T08:59:15.000Z</time>
      </trkpt>
      <trkpt lat="46.56025" lon="0.673">
        <ele>154.46</ele>
        <time>2019-11-17T08:59:20.000Z</time>
      </trkpt>
      <trkpt lat="46.56019" lon="0.67314">
        <ele>155.02</ele>
        <time>2019-11-17T08:59:24.000Z</time>
      </trkpt>
      <trkpt lat="46.56014" lon="0.67327">
        <ele>155.34</ele>
        <time>2019-11-17T08:59:27.000Z</time>
      </trkpt>
      <trkpt lat="46.56008" lon="0.6734">
        <ele>155.59</ele>
        <time>2019-11-17T08:59:30.000Z</time>
      </trkpt>
      <trkpt lat="46.56" lon="0.67351">
        <ele>156.49</ele>
        <time>2019-11-17T08:59:33.000Z</time>
      </trkpt>
      <trkpt lat="46.55992" lon="0.67363">
        <ele>157.88</ele>
        <time>2019-11-17T08:59:36.000Z</time>
      </trkpt>
      <trkpt lat="46.55981" lon="0.67375">
        <ele>158.84</ele>
        <time>2019-11-17T08:59:39.000Z</time>
      </trkpt>
      <trkpt lat="46.55972" lon="0.67385">
        <ele>159.02</ele>
        <time>2019-11-17T08:59:42.000Z</time>
      </trkpt>
      <trkpt lat="46.55959" lon="0.67388">
        <ele>159.05</ele>
        <time>2019-11-17T08:59:45.000Z</time>
      </trkpt>
      <trkpt lat="46.55952" lon="0.67376">
        <ele>158.87</ele>
        <time>2019-11-17T08:59:48.000Z</time>
      </trkpt>
      <trkpt lat="46.55952" lon="0.67359">
        <ele>156.93</ele>
        <time>2019-11-17T08:59:51.000Z</time>
      </trkpt>
      <trkpt lat="46.5595" lon="0.6734">
        <ele>156.16</ele>
        <time>2019-11-17T08:59:54.000Z</time>
      </trkpt>
      <trkpt lat="46.55948" lon="0.67326">
        <ele>155.91</ele>
        <time>2019-11-17T08:59:56.000Z</time>
      </trkpt>
      <trkpt lat="46.55947" lon="0.67309">
        <ele>155.64</ele>
        <time>2019-11-17T08:59:59.000Z</time>
      </trkpt>
      <trkpt lat="46.55945" lon="0.67296">
        <ele>155.37</ele>
        <time>2019-11-17T09:00:01.000Z</time>
      </trkpt>
      <trkpt lat="46.55942" lon="0.67278">
        <ele>155.16</ele>
        <time>2019-11-17T09:00:04.000Z</time>
      </trkpt>
      <trkpt lat="46.55939" lon="0.67259">
        <ele>155.17</ele>
        <time>2019-11-17T09:00:07.000Z</time>
      </trkpt>
      <trkpt lat="46.55936" lon="0.67246">
        <ele>155.07</ele>
        <time>2019-11-17T09:00:09.000Z</time>
      </trkpt>
      <trkpt lat="46.55932" lon="0.67228">
        <ele>154.9</ele>
        <time>2019-11-17T09:00:12.000Z</time>
      </trkpt>
      <trkpt lat="46.5593" lon="0.67214">
        <ele>154.79</ele>
        <time>2019-11-17T09:00:14.000Z</time>
      </trkpt>
      <trkpt lat="46.55927" lon="0.67201">
        <ele>155.26</ele>
        <time>2019-11-17T09:00:16.000Z</time>
      </trkpt>
      <trkpt lat="46.55925" lon="0.67188">
        <ele>155.99</ele>
        <time>2019-11-17T09:00:18.000Z</time>
      </trkpt>
      <trkpt lat="46.55923" lon="0.67169">
        <ele>156.42</ele>
        <time>2019-11-17T09:00:21.000Z</time>
      </trkpt>
      <trkpt lat="46.5592" lon="0.67155">
        <ele>156.47</ele>
        <time>2019-11-17T09:00:23.000Z</time>
      </trkpt>
      <trkpt lat="46.55917" lon="0.67141">
        <ele>156.03</ele>
        <time>2019-11-17T09:00:25.000Z</time>
      </trkpt>
      <trkpt lat="46.55913" lon="0.6712">
        <ele>156.26</ele>
        <time>2019-11-17T09:00:27.000Z</time>
      </trkpt>
      <trkpt lat="46.55912" lon="0.67102">
        <ele>158.06</ele>
        <time>2019-11-17T09:00:29.000Z</time>
      </trkpt>
      <trkpt lat="46.55911" lon="0.67089">
        <ele>158.66</ele>
        <time>2019-11-17T09:00:31.000Z</time>
      </trkpt>
      <trkpt lat="46.55909" lon="0.67075">
        <ele>159.18</ele>
        <time>2019-11-17T09:00:33.000Z</time>
      </trkpt>
      <trkpt lat="46.55907" lon="0.67061">
        <ele>159.88</ele>
        <time>2019-11-17T09:00:35.000Z</time>
      </trkpt>
      <trkpt lat="46.55906" lon="0.6704">
        <ele>160.71</ele>
        <time>2019-11-17T09:00:38.000Z</time>
      </trkpt>
      <trkpt lat="46.55904" lon="0.67022">
        <ele>161.6</ele>
        <time>2019-11-17T09:00:40.000Z</time>
      </trkpt>
      <trkpt lat="46.55901" lon="0.67006">
        <ele>162.55</ele>
        <time>2019-11-17T09:00:42.000Z</time>
      </trkpt>
      <trkpt lat="46.55898" lon="0.66989">
        <ele>162.9</ele>
        <time>2019-11-17T09:00:44.000Z</time>
      </trkpt>
      <trkpt lat="46.55898" lon="0.66974">
        <ele>162.08</ele>
        <time>2019-11-17T09:00:46.000Z</time>
      </trkpt>
      <trkpt lat="46.55896" lon="0.66957">
        <ele>160.51</ele>
        <time>2019-11-17T09:00:48.000Z</time>
      </trkpt>
      <trkpt lat="46.55895" lon="0.66939">
        <ele>159.13</ele>
        <time>2019-11-17T09:00:50.000Z</time>
      </trkpt>
      <trkpt lat="46.55893" lon="0.66924">
        <ele>158</ele>
        <time>2019-11-17T09:00:52.000Z</time>
      </trkpt>
      <trkpt lat="46.5589" lon="0.66909">
        <ele>157.16</ele>
        <time>2019-11-17T09:00:54.000Z</time>
      </trkpt>
      <trkpt lat="46.55887" lon="0.66896">
        <ele>156.54</ele>
        <time>2019-11-17T09:00:56.000Z</time>
      </trkpt>
      <trkpt lat="46.55883" lon="0.66878">
        <ele>155.97</ele>
        <time>2019-11-17T09:00:59.000Z</time>
      </trkpt>
      <trkpt lat="46.55879" lon="0.66863">
        <ele>155.95</ele>
        <time>2019-11-17T09:01:03.000Z</time>
      </trkpt>
      <trkpt lat="46.55875" lon="0.66851">
        <ele>155.94</ele>
        <time>2019-11-17T09:01:06.000Z</time>
      </trkpt>
      <trkpt lat="46.5587" lon="0.66838">
        <ele>155.98</ele>
        <time>2019-11-17T09:01:09.000Z</time>
      </trkpt>
      <trkpt lat="46.55865" lon="0.66824">
        <ele>156.06</ele>
        <time>2019-11-17T09:01:12.000Z</time>
      </trkpt>
      <trkpt lat="46.5586" lon="0.66809">
        <ele>156.81</ele>
        <time>2019-11-17T09:01:15.000Z</time>
      </trkpt>
      <trkpt lat="46.55855" lon="0.66795">
        <ele>156.9</ele>
        <time>2019-11-17T09:01:18.000Z</time>
      </trkpt>
      <trkpt lat="46.55851" lon="0.66778">
        <ele>156.59</ele>
        <time>2019-11-17T09:01:21.000Z</time>
      </trkpt>
      <trkpt lat="46.55847" lon="0.66759">
        <ele>156.21</ele>
        <time>2019-11-17T09:01:24.000Z</time>
      </trkpt>
      <trkpt lat="46.55847" lon="0.66743">
        <ele>155.9</ele>
        <time>2019-11-17T09:01:27.000Z</time>
      </trkpt>
      <trkpt lat="46.55847" lon="0.66722">
        <ele>155.42</ele>
        <time>2019-11-17T09:01:30.000Z</time>
      </trkpt>
      <trkpt lat="46.55847" lon="0.66705">
        <ele>154.48</ele>
        <time>2019-11-17T09:01:33.000Z</time>
      </trkpt>
      <trkpt lat="46.55847" lon="0.66691">
        <ele>153.74</ele>
        <time>2019-11-17T09:01:35.000Z</time>
      </trkpt>
      <trkpt lat="46.55847" lon="0.66678">
        <ele>153.53</ele>
        <time>2019-11-17T09:01:37.000Z</time>
      </trkpt>
      <trkpt lat="46.55847" lon="0.66662">
        <ele>153.85</ele>
        <time>2019-11-17T09:01:40.000Z</time>
      </trkpt>
      <trkpt lat="46.55846" lon="0.66647">
        <ele>153.88</ele>
        <time>2019-11-17T09:01:43.000Z</time>
      </trkpt>
      <trkpt lat="46.55844" lon="0.66632">
        <ele>154.19</ele>
        <time>2019-11-17T09:01:46.000Z</time>
      </trkpt>
      <trkpt lat="46.55841" lon="0.66614">
        <ele>154.53</ele>
        <time>2019-11-17T09:01:50.000Z</time>
      </trkpt>
      <trkpt lat="46.55839" lon="0.66595">
        <ele>156.36</ele>
        <time>2019-11-17T09:01:53.000Z</time>
      </trkpt>
      <trkpt lat="46.55838" lon="0.66582">
        <ele>156.64</ele>
        <time>2019-11-17T09:01:55.000Z</time>
      </trkpt>
      <trkpt lat="46.55835" lon="0.66565">
        <ele>156.3</ele>
        <time>2019-11-17T09:01:58.000Z</time>
      </trkpt>
      <trkpt lat="46.55833" lon="0.66549">
        <ele>155.87</ele>
        <time>2019-11-17T09:02:01.000Z</time>
      </trkpt>
      <trkpt lat="46.55827" lon="0.66532">
        <ele>156.23</ele>
        <time>2019-11-17T09:02:04.000Z</time>
      </trkpt>
      <trkpt lat="46.55823" lon="0.66518">
        <ele>156.66</ele>
        <time>2019-11-17T09:02:07.000Z</time>
      </trkpt>
      <trkpt lat="46.55819" lon="0.66502">
        <ele>156.6</ele>
        <time>2019-11-17T09:02:10.000Z</time>
      </trkpt>
      <trkpt lat="46.55814" lon="0.66486">
        <ele>156.66</ele>
        <time>2019-11-17T09:02:13.000Z</time>
      </trkpt>
      <trkpt lat="46.5581" lon="0.66473">
        <ele>156.91</ele>
        <time>2019-11-17T09:02:16.000Z</time>
      </trkpt>
      <trkpt lat="46.55804" lon="0.66458">
        <ele>158.74</ele>
        <time>2019-11-17T09:02:19.000Z</time>
      </trkpt>
      <trkpt lat="46.55798" lon="0.66443">
        <ele>159.25</ele>
        <time>2019-11-17T09:02:22.000Z</time>
      </trkpt>
      <trkpt lat="46.55794" lon="0.66432">
        <ele>159.33</ele>
        <time>2019-11-17T09:02:24.000Z</time>
      </trkpt>
      <trkpt lat="46.55789" lon="0.66418">
        <ele>159.12</ele>
        <time>2019-11-17T09:02:27.000Z</time>
      </trkpt>
      <trkpt lat="46.55784" lon="0.66406">
        <ele>158.84</ele>
        <time>2019-11-17T09:02:29.000Z</time>
      </trkpt>
      <trkpt lat="46.55778" lon="0.66392">
        <ele>158.35</ele>
        <time>2019-11-17T09:02:32.000Z</time>
      </trkpt>
      <trkpt lat="46.55772" lon="0.66376">
        <ele>158.1</ele>
        <time>2019-11-17T09:02:35.000Z</time>
      </trkpt>
      <trkpt lat="46.55766" lon="0.66361">
        <ele>158.35</ele>
        <time>2019-11-17T09:02:38.000Z</time>
      </trkpt>
      <trkpt lat="46.5576" lon="0.66351">
        <ele>158.35</ele>
        <time>2019-11-17T09:02:41.000Z</time>
      </trkpt>
      <trkpt lat="46.55748" lon="0.66358">
        <ele>158.43</ele>
        <time>2019-11-17T09:02:44.000Z</time>
      </trkpt>
      <trkpt lat="46.5574" lon="0.66363">
        <ele>160.14</ele>
        <time>2019-11-17T09:02:46.000Z</time>
      </trkpt>
      <trkpt lat="46.5573" lon="0.66373">
        <ele>164.73</ele>
        <time>2019-11-17T09:02:49.000Z</time>
      </trkpt>
      <trkpt lat="46.55722" lon="0.66383">
        <ele>166.93</ele>
        <time>2019-11-17T09:02:51.000Z</time>
      </trkpt>
      <trkpt lat="46.55716" lon="0.66393">
        <ele>168.49</ele>
        <time>2019-11-17T09:02:53.000Z</time>
      </trkpt>
      <trkpt lat="46.55705" lon="0.66405">
        <ele>170.31</ele>
        <time>2019-11-17T09:02:56.000Z</time>
      </trkpt>
      <trkpt lat="46.55697" lon="0.66413">
        <ele>172.65</ele>
        <time>2019-11-17T09:02:58.000Z</time>
      </trkpt>
      <trkpt lat="46.5569" lon="0.66422">
        <ele>173.94</ele>
        <time>2019-11-17T09:03:00.000Z</time>
      </trkpt>
      <trkpt lat="46.55682" lon="0.66433">
        <ele>174.06</ele>
        <time>2019-11-17T09:03:02.000Z</time>
      </trkpt>
      <trkpt lat="46.55674" lon="0.66443">
        <ele>174.02</ele>
        <time>2019-11-17T09:03:04.000Z</time>
      </trkpt>
      <trkpt lat="46.55666" lon="0.66454">
        <ele>174.08</ele>
        <time>2019-11-17T09:03:06.000Z</time>
      </trkpt>
      <trkpt lat="46.55658" lon="0.66464">
        <ele>174.06</ele>
        <time>2019-11-17T09:03:08.000Z</time>
      </trkpt>
      <trkpt lat="46.55651" lon="0.66472">
        <ele>174.07</ele>
        <time>2019-11-17T09:03:10.000Z</time>
      </trkpt>
      <trkpt lat="46.55643" lon="0.6648">
        <ele>173.56</ele>
        <time>2019-11-17T09:03:12.000Z</time>
      </trkpt>
      <trkpt lat="46.55632" lon="0.66476">
        <ele>173.34</ele>
        <time>2019-11-17T09:03:14.000Z</time>
      </trkpt>
      <trkpt lat="46.55622" lon="0.66465">
        <ele>173.85</ele>
        <time>2019-11-17T09:03:16.000Z</time>
      </trkpt>
      <trkpt lat="46.55614" lon="0.66451">
        <ele>174.08</ele>
        <time>2019-11-17T09:03:18.000Z</time>
      </trkpt>
      <trkpt lat="46.55606" lon="0.66437">
        <ele>173.78</ele>
        <time>2019-11-17T09:03:20.000Z</time>
      </trkpt>
      <trkpt lat="46.55597" lon="0.66422">
        <ele>172.92</ele>
        <time>2019-11-17T09:03:22.000Z</time>
      </trkpt>
      <trkpt lat="46.5559" lon="0.66407">
        <ele>171.99</ele>
        <time>2019-11-17T09:03:24.000Z</time>
      </trkpt>
      <trkpt lat="46.55588" lon="0.66389">
        <ele>170.88</ele>
        <time>2019-11-17T09:03:26.000Z</time>
      </trkpt>
      <trkpt lat="46.55587" lon="0.6637">
        <ele>169.45</ele>
        <time>2019-11-17T09:03:28.000Z</time>
      </trkpt>
      <trkpt lat="46.55585" lon="0.6635">
        <ele>168.13</ele>
        <time>2019-11-17T09:03:30.000Z</time>
      </trkpt>
      <trkpt lat="46.55585" lon="0.66331">
        <ele>167.13</ele>
        <time>2019-11-17T09:03:32.000Z</time>
      </trkpt>
      <trkpt lat="46.55583" lon="0.66313">
        <ele>166.46</ele>
        <time>2019-11-17T09:03:34.000Z</time>
      </trkpt>
      <trkpt lat="46.5558" lon="0.66297">
        <ele>166.07</ele>
        <time>2019-11-17T09:03:36.000Z</time>
      </trkpt>
      <trkpt lat="46.55573" lon="0.66281">
        <ele>165.88</ele>
        <time>2019-11-17T09:03:38.000Z</time>
      </trkpt>
      <trkpt lat="46.55566" lon="0.66265">
        <ele>165.78</ele>
        <time>2019-11-17T09:03:40.000Z</time>
      </trkpt>
      <trkpt lat="46.55554" lon="0.66249">
        <ele>166</ele>
        <time>2019-11-17T09:03:42.000Z</time>
      </trkpt>
      <trkpt lat="46.55544" lon="0.66237">
        <ele>166.22</ele>
        <time>2019-11-17T09:03:44.000Z</time>
      </trkpt>
      <trkpt lat="46.55534" lon="0.66223">
        <ele>166.43</ele>
        <time>2019-11-17T09:03:46.000Z</time>
      </trkpt>
      <trkpt lat="46.55523" lon="0.66212">
        <ele>166.47</ele>
        <time>2019-11-17T09:03:48.000Z</time>
      </trkpt>
      <trkpt lat="46.55517" lon="0.662">
        <ele>166.34</ele>
        <time>2019-11-17T09:03:50.000Z</time>
      </trkpt>
      <trkpt lat="46.55506" lon="0.66199">
        <ele>166.3</ele>
        <time>2019-11-17T09:03:53.000Z</time>
      </trkpt>
      <trkpt lat="46.55499" lon="0.66214">
        <ele>166.35</ele>
        <time>2019-11-17T09:03:56.000Z</time>
      </trkpt>
      <trkpt lat="46.55493" lon="0.66227">
        <ele>166.57</ele>
        <time>2019-11-17T09:03:58.000Z</time>
      </trkpt>
      <trkpt lat="46.55486" lon="0.6624">
        <ele>167.01</ele>
        <time>2019-11-17T09:04:00.000Z</time>
      </trkpt>
      <trkpt lat="46.55479" lon="0.66254">
        <ele>167.6</ele>
        <time>2019-11-17T09:04:02.000Z</time>
      </trkpt>
      <trkpt lat="46.55472" lon="0.66268">
        <ele>168.24</ele>
        <time>2019-11-17T09:04:04.000Z</time>
      </trkpt>
      <trkpt lat="46.55464" lon="0.66284">
        <ele>168.68</ele>
        <time>2019-11-17T09:04:06.000Z</time>
      </trkpt>
      <trkpt lat="46.55456" lon="0.66298">
        <ele>168.82</ele>
        <time>2019-11-17T09:04:08.000Z</time>
      </trkpt>
      <trkpt lat="46.55446" lon="0.66311">
        <ele>168.74</ele>
        <time>2019-11-17T09:04:10.000Z</time>
      </trkpt>
      <trkpt lat="46.55435" lon="0.66321">
        <ele>168.43</ele>
        <time>2019-11-17T09:04:12.000Z</time>
      </trkpt>
      <trkpt lat="46.55424" lon="0.66329">
        <ele>168.14</ele>
        <time>2019-11-17T09:04:14.000Z</time>
      </trkpt>
      <trkpt lat="46.55412" lon="0.66336">
        <ele>167.83</ele>
        <time>2019-11-17T09:04:16.000Z</time>
      </trkpt>
      <trkpt lat="46.554" lon="0.66341">
        <ele>167.44</ele>
        <time>2019-11-17T09:04:18.000Z</time>
      </trkpt>
      <trkpt lat="46.55387" lon="0.66347">
        <ele>166.97</ele>
        <time>2019-11-17T09:04:20.000Z</time>
      </trkpt>
      <trkpt lat="46.55376" lon="0.66353">
        <ele>166.59</ele>
        <time>2019-11-17T09:04:22.000Z</time>
      </trkpt>
      <trkpt lat="46.55365" lon="0.66358">
        <ele>166.5</ele>
        <time>2019-11-17T09:04:24.000Z</time>
      </trkpt>
      <trkpt lat="46.55354" lon="0.66361">
        <ele>166.5</ele>
        <time>2019-11-17T09:04:26.000Z</time>
      </trkpt>
      <trkpt lat="46.55344" lon="0.66364">
        <ele>166.72</ele>
        <time>2019-11-17T09:04:28.000Z</time>
      </trkpt>
      <trkpt lat="46.55334" lon="0.66368">
        <ele>166.69</ele>
        <time>2019-11-17T09:04:30.000Z</time>
      </trkpt>
      <trkpt lat="46.55325" lon="0.66371">
        <ele>166.81</ele>
        <time>2019-11-17T09:04:32.000Z</time>
      </trkpt>
      <trkpt lat="46.55316" lon="0.66374">
        <ele>167.33</ele>
        <time>2019-11-17T09:04:34.000Z</time>
      </trkpt>
      <trkpt lat="46.55304" lon="0.6638">
        <ele>167.8</ele>
        <time>2019-11-17T09:04:37.000Z</time>
      </trkpt>
      <trkpt lat="46.55293" lon="0.66388">
        <ele>167.98</ele>
        <time>2019-11-17T09:04:40.000Z</time>
      </trkpt>
      <trkpt lat="46.55282" lon="0.66394">
        <ele>168.43</ele>
        <time>2019-11-17T09:04:43.000Z</time>
      </trkpt>
      <trkpt lat="46.55272" lon="0.66401">
        <ele>168.42</ele>
        <time>2019-11-17T09:04:46.000Z</time>
      </trkpt>
      <trkpt lat="46.55263" lon="0.66406">
        <ele>168.36</ele>
        <time>2019-11-17T09:04:49.000Z</time>
      </trkpt>
      <trkpt lat="46.55254" lon="0.66413">
        <ele>168.31</ele>
        <time>2019-11-17T09:04:52.000Z</time>
      </trkpt>
      <trkpt lat="46.55245" lon="0.66419">
        <ele>168.25</ele>
        <time>2019-11-17T09:04:55.000Z</time>
      </trkpt>
      <trkpt lat="46.55236" lon="0.66425">
        <ele>168.23</ele>
        <time>2019-11-17T09:04:58.000Z</time>
      </trkpt>
      <trkpt lat="46.55227" lon="0.66432">
        <ele>168.23</ele>
        <time>2019-11-17T09:05:01.000Z</time>
      </trkpt>
      <trkpt lat="46.55217" lon="0.6644">
        <ele>168.23</ele>
        <time>2019-11-17T09:05:04.000Z</time>
      </trkpt>
      <trkpt lat="46.55207" lon="0.66447">
        <ele>168.25</ele>
        <time>2019-11-17T09:05:07.000Z</time>
      </trkpt>
      <trkpt lat="46.55196" lon="0.66456">
        <ele>168.24</ele>
        <time>2019-11-17T09:05:10.000Z</time>
      </trkpt>
      <trkpt lat="46.55188" lon="0.66467">
        <ele>168.23</ele>
        <time>2019-11-17T09:05:13.000Z</time>
      </trkpt>
      <trkpt lat="46.55178" lon="0.66475">
        <ele>168.19</ele>
        <time>2019-11-17T09:05:16.000Z</time>
      </trkpt>
      <trkpt lat="46.55169" lon="0.66482">
        <ele>168.17</ele>
        <time>2019-11-17T09:05:19.000Z</time>
      </trkpt>
      <trkpt lat="46.5516" lon="0.6649">
        <ele>168.19</ele>
        <time>2019-11-17T09:05:22.000Z</time>
      </trkpt>
      <trkpt lat="46.55152" lon="0.66499">
        <ele>168.2</ele>
        <time>2019-11-17T09:05:25.000Z</time>
      </trkpt>
      <trkpt lat="46.55141" lon="0.66511">
        <ele>168.16</ele>
        <time>2019-11-17T09:05:28.000Z</time>
      </trkpt>
      <trkpt lat="46.55132" lon="0.66518">
        <ele>168.13</ele>
        <time>2019-11-17T09:05:31.000Z</time>
      </trkpt>
      <trkpt lat="46.55121" lon="0.66527">
        <ele>167.72</ele>
        <time>2019-11-17T09:05:34.000Z</time>
      </trkpt>
      <trkpt lat="46.55111" lon="0.66535">
        <ele>167.16</ele>
        <time>2019-11-17T09:05:36.000Z</time>
      </trkpt>
      <trkpt lat="46.55105" lon="0.66544">
        <ele>166.33</ele>
        <time>2019-11-17T09:05:38.000Z</time>
      </trkpt>
      <trkpt lat="46.55096" lon="0.66552">
        <ele>164.91</ele>
        <time>2019-11-17T09:05:40.000Z</time>
      </trkpt>
      <trkpt lat="46.55088" lon="0.66559">
        <ele>163.9</ele>
        <time>2019-11-17T09:05:42.000Z</time>
      </trkpt>
      <trkpt lat="46.55077" lon="0.66569">
        <ele>163.79</ele>
        <time>2019-11-17T09:05:45.000Z</time>
      </trkpt>
      <trkpt lat="46.55067" lon="0.66577">
        <ele>164.65</ele>
        <time>2019-11-17T09:05:48.000Z</time>
      </trkpt>
      <trkpt lat="46.55056" lon="0.66586">
        <ele>164.74</ele>
        <time>2019-11-17T09:05:51.000Z</time>
      </trkpt>
      <trkpt lat="46.55043" lon="0.66586">
        <ele>163.74</ele>
        <time>2019-11-17T09:05:54.000Z</time>
      </trkpt>
      <trkpt lat="46.55032" lon="0.66577">
        <ele>162.78</ele>
        <time>2019-11-17T09:05:56.000Z</time>
      </trkpt>
      <trkpt lat="46.55023" lon="0.66567">
        <ele>162.14</ele>
        <time>2019-11-17T09:05:58.000Z</time>
      </trkpt>
      <trkpt lat="46.55014" lon="0.66557">
        <ele>161.53</ele>
        <time>2019-11-17T09:06:00.000Z</time>
      </trkpt>
      <trkpt lat="46.55007" lon="0.66546">
        <ele>160.7</ele>
        <time>2019-11-17T09:06:02.000Z</time>
      </trkpt>
      <trkpt lat="46.54998" lon="0.66535">
        <ele>159.69</ele>
        <time>2019-11-17T09:06:04.000Z</time>
      </trkpt>
      <trkpt lat="46.54987" lon="0.66521">
        <ele>159.01</ele>
        <time>2019-11-17T09:06:06.000Z</time>
      </trkpt>
      <trkpt lat="46.54977" lon="0.66509">
        <ele>158.27</ele>
        <time>2019-11-17T09:06:08.000Z</time>
      </trkpt>
      <trkpt lat="46.54967" lon="0.66495">
        <ele>158.31</ele>
        <time>2019-11-17T09:06:10.000Z</time>
      </trkpt>
      <trkpt lat="46.54956" lon="0.6648">
        <ele>158.38</ele>
        <time>2019-11-17T09:06:12.000Z</time>
      </trkpt>
      <trkpt lat="46.54949" lon="0.66462">
        <ele>159.68</ele>
        <time>2019-11-17T09:06:14.000Z</time>
      </trkpt>
      <trkpt lat="46.5494" lon="0.66444">
        <ele>160.39</ele>
        <time>2019-11-17T09:06:16.000Z</time>
      </trkpt>
      <trkpt lat="46.54931" lon="0.66425">
        <ele>160.81</ele>
        <time>2019-11-17T09:06:18.000Z</time>
      </trkpt>
      <trkpt lat="46.54921" lon="0.66407">
        <ele>161.19</ele>
        <time>2019-11-17T09:06:20.000Z</time>
      </trkpt>
      <trkpt lat="46.54909" lon="0.66392">
        <ele>161.56</ele>
        <time>2019-11-17T09:06:22.000Z</time>
      </trkpt>
      <trkpt lat="46.54896" lon="0.66377">
        <ele>161.91</ele>
        <time>2019-11-17T09:06:24.000Z</time>
      </trkpt>
      <trkpt lat="46.54882" lon="0.66362">
        <ele>162.12</ele>
        <time>2019-11-17T09:06:26.000Z</time>
      </trkpt>
      <trkpt lat="46.54869" lon="0.66345">
        <ele>162.28</ele>
        <time>2019-11-17T09:06:28.000Z</time>
      </trkpt>
      <trkpt lat="46.54854" lon="0.66332">
        <ele>162.22</ele>
        <time>2019-11-17T09:06:30.000Z</time>
      </trkpt>
      <trkpt lat="46.54839" lon="0.66318">
        <ele>161.76</ele>
        <time>2019-11-17T09:06:32.000Z</time>
      </trkpt>
      <trkpt lat="46.54831" lon="0.66311">
        <ele>161.43</ele>
        <time>2019-11-17T09:06:33.000Z</time>
      </trkpt>
      <trkpt lat="46.54823" lon="0.66304">
        <ele>161.06</ele>
        <time>2019-11-17T09:06:34.000Z</time>
      </trkpt>
      <trkpt lat="46.54815" lon="0.66298">
        <ele>160.66</ele>
        <time>2019-11-17T09:06:35.000Z</time>
      </trkpt>
      <trkpt lat="46.54807" lon="0.66292">
        <ele>160.25</ele>
        <time>2019-11-17T09:06:36.000Z</time>
      </trkpt>
      <trkpt lat="46.5479" lon="0.66283">
        <ele>159.49</ele>
        <time>2019-11-17T09:06:38.000Z</time>
      </trkpt>
      <trkpt lat="46.54774" lon="0.66273">
        <ele>159.07</ele>
        <time>2019-11-17T09:06:40.000Z</time>
      </trkpt>
      <trkpt lat="46.5476" lon="0.66261">
        <ele>158.79</ele>
        <time>2019-11-17T09:06:42.000Z</time>
      </trkpt>
      <trkpt lat="46.54745" lon="0.6625">
        <ele>158.51</ele>
        <time>2019-11-17T09:06:44.000Z</time>
      </trkpt>
      <trkpt lat="46.54732" lon="0.66241">
        <ele>158.49</ele>
        <time>2019-11-17T09:06:46.000Z</time>
      </trkpt>
      <trkpt lat="46.54718" lon="0.66234">
        <ele>158.4</ele>
        <time>2019-11-17T09:06:48.000Z</time>
      </trkpt>
      <trkpt lat="46.54707" lon="0.66224">
        <ele>158.13</ele>
        <time>2019-11-17T09:06:50.000Z</time>
      </trkpt>
      <trkpt lat="46.54697" lon="0.66212">
        <ele>158</ele>
        <time>2019-11-17T09:06:52.000Z</time>
      </trkpt>
      <trkpt lat="46.54685" lon="0.66205">
        <ele>157.88</ele>
        <time>2019-11-17T09:06:54.000Z</time>
      </trkpt>
      <trkpt lat="46.54674" lon="0.66196">
        <ele>157.64</ele>
        <time>2019-11-17T09:06:56.000Z</time>
      </trkpt>
      <trkpt lat="46.54665" lon="0.66186">
        <ele>157.1</ele>
        <time>2019-11-17T09:06:58.000Z</time>
      </trkpt>
      <trkpt lat="46.54654" lon="0.66175">
        <ele>157.19</ele>
        <time>2019-11-17T09:07:00.000Z</time>
      </trkpt>
      <trkpt lat="46.54643" lon="0.66166">
        <ele>157.09</ele>
        <time>2019-11-17T09:07:02.000Z</time>
      </trkpt>
      <trkpt lat="46.54632" lon="0.66157">
        <ele>156.74</ele>
        <time>2019-11-17T09:07:04.000Z</time>
      </trkpt>
      <trkpt lat="46.54623" lon="0.66146">
        <ele>156.15</ele>
        <time>2019-11-17T09:07:06.000Z</time>
      </trkpt>
      <trkpt lat="46.54614" lon="0.66129">
        <ele>155.58</ele>
        <time>2019-11-17T09:07:08.000Z</time>
      </trkpt>
      <trkpt lat="46.54604" lon="0.66113">
        <ele>154.74</ele>
        <time>2019-11-17T09:07:10.000Z</time>
      </trkpt>
      <trkpt lat="46.54592" lon="0.66098">
        <ele>153.59</ele>
        <time>2019-11-17T09:07:12.000Z</time>
      </trkpt>
      <trkpt lat="46.54585" lon="0.66088">
        <ele>153.35</ele>
        <time>2019-11-17T09:07:13.000Z</time>
      </trkpt>
      <trkpt lat="46.54578" lon="0.66077">
        <ele>153.01</ele>
        <time>2019-11-17T09:07:14.000Z</time>
      </trkpt>
      <trkpt lat="46.54572" lon="0.66064">
        <ele>152.67</ele>
        <time>2019-11-17T09:07:15.000Z</time>
      </trkpt>
      <trkpt lat="46.54564" lon="0.66056">
        <ele>151.92</ele>
        <time>2019-11-17T09:07:16.000Z</time>
      </trkpt>
      <trkpt lat="46.54557" lon="0.66048">
        <ele>151.45</ele>
        <time>2019-11-17T09:07:17.000Z</time>
      </trkpt>
      <trkpt lat="46.54545" lon="0.66031">
        <ele>151.21</ele>
        <time>2019-11-17T09:07:19.000Z</time>
      </trkpt>
      <trkpt lat="46.54537" lon="0.66013">
        <ele>151.07</ele>
        <time>2019-11-17T09:07:21.000Z</time>
      </trkpt>
      <trkpt lat="46.54527" lon="0.65998">
        <ele>150.56</ele>
        <time>2019-11-17T09:07:23.000Z</time>
      </trkpt>
      <trkpt lat="46.54516" lon="0.65983">
        <ele>150.3</ele>
        <time>2019-11-17T09:07:25.000Z</time>
      </trkpt>
      <trkpt lat="46.54503" lon="0.6597">
        <ele>149.55</ele>
        <time>2019-11-17T09:07:27.000Z</time>
      </trkpt>
      <trkpt lat="46.54493" lon="0.65954">
        <ele>148.43</ele>
        <time>2019-11-17T09:07:29.000Z</time>
      </trkpt>
      <trkpt lat="46.54484" lon="0.65933">
        <ele>147.49</ele>
        <time>2019-11-17T09:07:31.000Z</time>
      </trkpt>
      <trkpt lat="46.54477" lon="0.65909">
        <ele>147.01</ele>
        <time>2019-11-17T09:07:33.000Z</time>
      </trkpt>
      <trkpt lat="46.54474" lon="0.65897">
        <ele>146.96</ele>
        <time>2019-11-17T09:07:34.000Z</time>
      </trkpt>
      <trkpt lat="46.5447" lon="0.65884">
        <ele>146.72</ele>
        <time>2019-11-17T09:07:35.000Z</time>
      </trkpt>
      <trkpt lat="46.54466" lon="0.65871">
        <ele>145.99</ele>
        <time>2019-11-17T09:07:36.000Z</time>
      </trkpt>
      <trkpt lat="46.54461" lon="0.6586">
        <ele>145.02</ele>
        <time>2019-11-17T09:07:37.000Z</time>
      </trkpt>
      <trkpt lat="46.54448" lon="0.65845">
        <ele>143.1</ele>
        <time>2019-11-17T09:07:39.000Z</time>
      </trkpt>
      <trkpt lat="46.54437" lon="0.65839">
        <ele>141.52</ele>
        <time>2019-11-17T09:07:41.000Z</time>
      </trkpt>
      <trkpt lat="46.54432" lon="0.65827">
        <ele>139.85</ele>
        <time>2019-11-17T09:07:43.000Z</time>
      </trkpt>
      <trkpt lat="46.54432" lon="0.65812">
        <ele>138.63</ele>
        <time>2019-11-17T09:07:45.000Z</time>
      </trkpt>
      <trkpt lat="46.54442" lon="0.65802">
        <ele>137.75</ele>
        <time>2019-11-17T09:07:47.000Z</time>
      </trkpt>
      <trkpt lat="46.54455" lon="0.6579">
        <ele>137.8</ele>
        <time>2019-11-17T09:07:49.000Z</time>
      </trkpt>
      <trkpt lat="46.54467" lon="0.65778">
        <ele>137.62</ele>
        <time>2019-11-17T09:07:51.000Z</time>
      </trkpt>
      <trkpt lat="46.54471" lon="0.65758">
        <ele>137.39</ele>
        <time>2019-11-17T09:07:53.000Z</time>
      </trkpt>
      <trkpt lat="46.54469" lon="0.65738">
        <ele>137.27</ele>
        <time>2019-11-17T09:07:55.000Z</time>
      </trkpt>
      <trkpt lat="46.54464" lon="0.65718">
        <ele>137.16</ele>
        <time>2019-11-17T09:07:57.000Z</time>
      </trkpt>
      <trkpt lat="46.54458" lon="0.65701">
        <ele>136.58</ele>
        <time>2019-11-17T09:07:59.000Z</time>
      </trkpt>
      <trkpt lat="46.54453" lon="0.65685">
        <ele>135.86</ele>
        <time>2019-11-17T09:08:01.000Z</time>
      </trkpt>
      <trkpt lat="46.54449" lon="0.6567">
        <ele>135.31</ele>
        <time>2019-11-17T09:08:03.000Z</time>
      </trkpt>
      <trkpt lat="46.54446" lon="0.65653">
        <ele>135.39</ele>
        <time>2019-11-17T09:08:05.000Z</time>
      </trkpt>
      <trkpt lat="46.54444" lon="0.65634">
        <ele>135.94</ele>
        <time>2019-11-17T09:08:08.000Z</time>
      </trkpt>
      <trkpt lat="46.54444" lon="0.65617">
        <ele>136.45</ele>
        <time>2019-11-17T09:08:11.000Z</time>
      </trkpt>
      <trkpt lat="46.54446" lon="0.65598">
        <ele>138.46</ele>
        <time>2019-11-17T09:08:14.000Z</time>
      </trkpt>
      <trkpt lat="46.54447" lon="0.65583">
        <ele>139.41</ele>
        <time>2019-11-17T09:08:17.000Z</time>
      </trkpt>
      <trkpt lat="46.54447" lon="0.65568">
        <ele>139.8</ele>
        <time>2019-11-17T09:08:20.000Z</time>
      </trkpt>
      <trkpt lat="46.54446" lon="0.65551">
        <ele>140.3</ele>
        <time>2019-11-17T09:08:23.000Z</time>
      </trkpt>
      <trkpt lat="46.54445" lon="0.65535">
        <ele>140.75</ele>
        <time>2019-11-17T09:08:26.000Z</time>
      </trkpt>
      <trkpt lat="46.54445" lon="0.65521">
        <ele>141.19</ele>
        <time>2019-11-17T09:08:29.000Z</time>
      </trkpt>
      <trkpt lat="46.54444" lon="0.65504">
        <ele>141.52</ele>
        <time>2019-11-17T09:08:33.000Z</time>
      </trkpt>
      <trkpt lat="46.54443" lon="0.65488">
        <ele>141.64</ele>
        <time>2019-11-17T09:08:36.000Z</time>
      </trkpt>
      <trkpt lat="46.54441" lon="0.65471">
        <ele>141.74</ele>
        <time>2019-11-17T09:08:39.000Z</time>
      </trkpt>
      <trkpt lat="46.54441" lon="0.65457">
        <ele>141.79</ele>
        <time>2019-11-17T09:08:42.000Z</time>
      </trkpt>
      <trkpt lat="46.54442" lon="0.65441">
        <ele>141.9</ele>
        <time>2019-11-17T09:08:46.000Z</time>
      </trkpt>
      <trkpt lat="46.54442" lon="0.65425">
        <ele>141.99</ele>
        <time>2019-11-17T09:08:49.000Z</time>
      </trkpt>
      <trkpt lat="46.54442" lon="0.65408">
        <ele>142.09</ele>
        <time>2019-11-17T09:08:53.000Z</time>
      </trkpt>
      <trkpt lat="46.54442" lon="0.65391">
        <ele>142.23</ele>
        <time>2019-11-17T09:08:56.000Z</time>
      </trkpt>
      <trkpt lat="46.54442" lon="0.65374">
        <ele>144.42</ele>
        <time>2019-11-17T09:09:00.000Z</time>
      </trkpt>
      <trkpt lat="46.54442" lon="0.6536">
        <ele>145.34</ele>
        <time>2019-11-17T09:09:03.000Z</time>
      </trkpt>
      <trkpt lat="46.54442" lon="0.65346">
        <ele>144.64</ele>
        <time>2019-11-17T09:09:06.000Z</time>
      </trkpt>
      <trkpt lat="46.54441" lon="0.65333">
        <ele>144.05</ele>
        <time>2019-11-17T09:09:08.000Z</time>
      </trkpt>
      <trkpt lat="46.54439" lon="0.65313">
        <ele>142.85</ele>
        <time>2019-11-17T09:09:11.000Z</time>
      </trkpt>
      <trkpt lat="46.54445" lon="0.65302">
        <ele>142.65</ele>
        <time>2019-11-17T09:09:13.000Z</time>
      </trkpt>
      <trkpt lat="46.54455" lon="0.65299">
        <ele>142.38</ele>
        <time>2019-11-17T09:09:16.000Z</time>
      </trkpt>
      <trkpt lat="46.54468" lon="0.653">
        <ele>143.25</ele>
        <time>2019-11-17T09:09:19.000Z</time>
      </trkpt>
      <trkpt lat="46.54478" lon="0.65302">
        <ele>144.3</ele>
        <time>2019-11-17T09:09:21.000Z</time>
      </trkpt>
      <trkpt lat="46.54491" lon="0.65302">
        <ele>145.57</ele>
        <time>2019-11-17T09:09:24.000Z</time>
      </trkpt>
      <trkpt lat="46.54505" lon="0.65301">
        <ele>146.79</ele>
        <time>2019-11-17T09:09:27.000Z</time>
      </trkpt>
      <trkpt lat="46.54514" lon="0.65302">
        <ele>147.47</ele>
        <time>2019-11-17T09:09:29.000Z</time>
      </trkpt>
      <trkpt lat="46.54523" lon="0.65303">
        <ele>147.87</ele>
        <time>2019-11-17T09:09:31.000Z</time>
      </trkpt>
      <trkpt lat="46.54534" lon="0.65304">
        <ele>148.09</ele>
        <time>2019-11-17T09:09:33.000Z</time>
      </trkpt>
      <trkpt lat="46.54544" lon="0.65303">
        <ele>148.01</ele>
        <time>2019-11-17T09:09:35.000Z</time>
      </trkpt>
      <trkpt lat="46.54556" lon="0.65304">
        <ele>147.39</ele>
        <time>2019-11-17T09:09:37.000Z</time>
      </trkpt>
      <trkpt lat="46.54568" lon="0.65305">
        <ele>146.82</ele>
        <time>2019-11-17T09:09:39.000Z</time>
      </trkpt>
      <trkpt lat="46.54579" lon="0.65305">
        <ele>145.54</ele>
        <time>2019-11-17T09:09:41.000Z</time>
      </trkpt>
      <trkpt lat="46.54594" lon="0.65305">
        <ele>144.88</ele>
        <time>2019-11-17T09:09:43.000Z</time>
      </trkpt>
      <trkpt lat="46.5461" lon="0.65301">
        <ele>144.21</ele>
        <time>2019-11-17T09:09:45.000Z</time>
      </trkpt>
      <trkpt lat="46.54625" lon="0.65291">
        <ele>143.55</ele>
        <time>2019-11-17T09:09:47.000Z</time>
      </trkpt>
      <trkpt lat="46.54641" lon="0.65283">
        <ele>143.22</ele>
        <time>2019-11-17T09:09:49.000Z</time>
      </trkpt>
      <trkpt lat="46.54656" lon="0.65276">
        <ele>143.27</ele>
        <time>2019-11-17T09:09:51.000Z</time>
      </trkpt>
      <trkpt lat="46.54667" lon="0.65271">
        <ele>143.18</ele>
        <time>2019-11-17T09:09:53.000Z</time>
      </trkpt>
      <trkpt lat="46.54677" lon="0.65274">
        <ele>143.62</ele>
        <time>2019-11-17T09:09:56.000Z</time>
      </trkpt>
      <trkpt lat="46.54686" lon="0.65284">
        <ele>144.02</ele>
        <time>2019-11-17T09:10:00.000Z</time>
      </trkpt>
      <trkpt lat="46.54696" lon="0.65288">
        <ele>144.37</ele>
        <time>2019-11-17T09:10:03.000Z</time>
      </trkpt>
      <trkpt lat="46.5471" lon="0.65292">
        <ele>145.99</ele>
        <time>2019-11-17T09:10:06.000Z</time>
      </trkpt>
      <trkpt lat="46.54723" lon="0.65292">
        <ele>147.59</ele>
        <time>2019-11-17T09:10:08.000Z</time>
      </trkpt>
      <trkpt lat="46.54735" lon="0.6529">
        <ele>149.14</ele>
        <time>2019-11-17T09:10:10.000Z</time>
      </trkpt>
      <trkpt lat="46.54746" lon="0.65294">
        <ele>149.25</ele>
        <time>2019-11-17T09:10:12.000Z</time>
      </trkpt>
      <trkpt lat="46.54756" lon="0.65301">
        <ele>149.36</ele>
        <time>2019-11-17T09:10:14.000Z</time>
      </trkpt>
      <trkpt lat="46.54767" lon="0.65305">
        <ele>149.47</ele>
        <time>2019-11-17T09:10:16.000Z</time>
      </trkpt>
      <trkpt lat="46.54777" lon="0.6531">
        <ele>150.18</ele>
        <time>2019-11-17T09:10:18.000Z</time>
      </trkpt>
      <trkpt lat="46.54789" lon="0.65317">
        <ele>150.21</ele>
        <time>2019-11-17T09:10:20.000Z</time>
      </trkpt>
      <trkpt lat="46.54804" lon="0.65321">
        <ele>149.65</ele>
        <time>2019-11-17T09:10:22.000Z</time>
      </trkpt>
      <trkpt lat="46.54819" lon="0.65322">
        <ele>149.05</ele>
        <time>2019-11-17T09:10:24.000Z</time>
      </trkpt>
      <trkpt lat="46.5483" lon="0.65327">
        <ele>149.01</ele>
        <time>2019-11-17T09:10:26.000Z</time>
      </trkpt>
      <trkpt lat="46.5484" lon="0.65329">
        <ele>149.18</ele>
        <time>2019-11-17T09:10:29.000Z</time>
      </trkpt>
      <trkpt lat="46.5485" lon="0.65329">
        <ele>149.41</ele>
        <time>2019-11-17T09:10:32.000Z</time>
      </trkpt>
      <trkpt lat="46.54861" lon="0.65335">
        <ele>149.83</ele>
        <time>2019-11-17T09:10:35.000Z</time>
      </trkpt>
      <trkpt lat="46.54872" lon="0.65335">
        <ele>150.55</ele>
        <time>2019-11-17T09:10:38.000Z</time>
      </trkpt>
      <trkpt lat="46.54883" lon="0.65335">
        <ele>152</ele>
        <time>2019-11-17T09:10:44.000Z</time>
      </trkpt>
      <trkpt lat="46.54892" lon="0.65339">
        <ele>152.45</ele>
        <time>2019-11-17T09:10:49.000Z</time>
      </trkpt>
      <trkpt lat="46.549" lon="0.65345">
        <ele>152.4</ele>
        <time>2019-11-17T09:10:54.000Z</time>
      </trkpt>
      <trkpt lat="46.5491" lon="0.65347">
        <ele>150.68</ele>
        <time>2019-11-17T09:11:10.000Z</time>
      </trkpt>
      <trkpt lat="46.54919" lon="0.65353">
        <ele>150.03</ele>
        <time>2019-11-17T09:11:18.000Z</time>
      </trkpt>
      <trkpt lat="46.54929" lon="0.65353">
        <ele>149.8</ele>
        <time>2019-11-17T09:11:36.000Z</time>
      </trkpt>
      <trkpt lat="46.5492" lon="0.65354">
        <ele>149.13</ele>
        <time>2019-11-17T09:12:28.000Z</time>
      </trkpt>
      <trkpt lat="46.54913" lon="0.65343">
        <ele>148.91</ele>
        <time>2019-11-17T09:12:36.000Z</time>
      </trkpt>
      <trkpt lat="46.54922" lon="0.65347">
        <ele>147.5</ele>
        <time>2019-11-17T09:12:51.000Z</time>
      </trkpt>
      <trkpt lat="46.54931" lon="0.65349">
        <ele>148.2</ele>
        <time>2019-11-17T09:13:02.000Z</time>
      </trkpt>
      <trkpt lat="46.54939" lon="0.65356">
        <ele>148.83</ele>
        <time>2019-11-17T09:13:10.000Z</time>
      </trkpt>
      <trkpt lat="46.54948" lon="0.65356">
        <ele>149.38</ele>
        <time>2019-11-17T09:13:14.000Z</time>
      </trkpt>
      <trkpt lat="46.54959" lon="0.65361">
        <ele>151.15</ele>
        <time>2019-11-17T09:13:22.000Z</time>
      </trkpt>
      <trkpt lat="46.54969" lon="0.65357">
        <ele>151.72</ele>
        <time>2019-11-17T09:13:25.000Z</time>
      </trkpt>
      <trkpt lat="46.54979" lon="0.65348">
        <ele>152.07</ele>
        <time>2019-11-17T09:13:28.000Z</time>
      </trkpt>
      <trkpt lat="46.54987" lon="0.6534">
        <ele>152.54</ele>
        <time>2019-11-17T09:13:32.000Z</time>
      </trkpt>
      <trkpt lat="46.54996" lon="0.65338">
        <ele>153.18</ele>
        <time>2019-11-17T09:13:37.000Z</time>
      </trkpt>
      <trkpt lat="46.55007" lon="0.65339">
        <ele>153.82</ele>
        <time>2019-11-17T09:13:42.000Z</time>
      </trkpt>
      <trkpt lat="46.55017" lon="0.65339">
        <ele>154.02</ele>
        <time>2019-11-17T09:13:46.000Z</time>
      </trkpt>
      <trkpt lat="46.55027" lon="0.65338">
        <ele>154</ele>
        <time>2019-11-17T09:13:51.000Z</time>
      </trkpt>
      <trkpt lat="46.55036" lon="0.65338">
        <ele>154.1</ele>
        <time>2019-11-17T09:13:54.000Z</time>
      </trkpt>
      <trkpt lat="46.55048" lon="0.65333">
        <ele>154.11</ele>
        <time>2019-11-17T09:13:58.000Z</time>
      </trkpt>
      <trkpt lat="46.55059" lon="0.65326">
        <ele>153.72</ele>
        <time>2019-11-17T09:14:02.000Z</time>
      </trkpt>
      <trkpt lat="46.55068" lon="0.65327">
        <ele>153.43</ele>
        <time>2019-11-17T09:14:05.000Z</time>
      </trkpt>
      <trkpt lat="46.55075" lon="0.65336">
        <ele>153</ele>
        <time>2019-11-17T09:14:09.000Z</time>
      </trkpt>
      <trkpt lat="46.55076" lon="0.65351">
        <ele>152.36</ele>
        <time>2019-11-17T09:14:14.000Z</time>
      </trkpt>
      <trkpt lat="46.55074" lon="0.65365">
        <ele>150.89</ele>
        <time>2019-11-17T09:14:23.000Z</time>
      </trkpt>
      <trkpt lat="46.5508" lon="0.65378">
        <ele>149.52</ele>
        <time>2019-11-17T09:14:31.000Z</time>
      </trkpt>
      <trkpt lat="46.55088" lon="0.65393">
        <ele>149.68</ele>
        <time>2019-11-17T09:14:37.000Z</time>
      </trkpt>
      <trkpt lat="46.55094" lon="0.65405">
        <ele>149.85</ele>
        <time>2019-11-17T09:14:50.000Z</time>
      </trkpt>
      <trkpt lat="46.55097" lon="0.65419">
        <ele>150.18</ele>
        <time>2019-11-17T09:14:59.000Z</time>
      </trkpt>
      <trkpt lat="46.55102" lon="0.65432">
        <ele>153.91</ele>
        <time>2019-11-17T09:15:19.000Z</time>
      </trkpt>
      <trkpt lat="46.55105" lon="0.65446">
        <ele>155.03</ele>
        <time>2019-11-17T09:15:25.000Z</time>
      </trkpt>
      <trkpt lat="46.55104" lon="0.65464">
        <ele>155.27</ele>
        <time>2019-11-17T09:15:30.000Z</time>
      </trkpt>
      <trkpt lat="46.55102" lon="0.65478">
        <ele>154.78</ele>
        <time>2019-11-17T09:15:36.000Z</time>
      </trkpt>
      <trkpt lat="46.55104" lon="0.65491">
        <ele>153.77</ele>
        <time>2019-11-17T09:15:48.000Z</time>
      </trkpt>
      <trkpt lat="46.55102" lon="0.65505">
        <ele>153.79</ele>
        <time>2019-11-17T09:15:55.000Z</time>
      </trkpt>
      <trkpt lat="46.55098" lon="0.6552">
        <ele>154.01</ele>
        <time>2019-11-17T09:16:00.000Z</time>
      </trkpt>
      <trkpt lat="46.55096" lon="0.65535">
        <ele>154.3</ele>
        <time>2019-11-17T09:16:05.000Z</time>
      </trkpt>
      <trkpt lat="46.55094" lon="0.6555">
        <ele>155.13</ele>
        <time>2019-11-17T09:16:13.000Z</time>
      </trkpt>
      <trkpt lat="46.55088" lon="0.65563">
        <ele>155.18</ele>
        <time>2019-11-17T09:16:19.000Z</time>
      </trkpt>
      <trkpt lat="46.55084" lon="0.65574">
        <ele>155.25</ele>
        <time>2019-11-17T09:16:25.000Z</time>
      </trkpt>
      <trkpt lat="46.55082" lon="0.65587">
        <ele>156</ele>
        <time>2019-11-17T09:16:32.000Z</time>
      </trkpt>
      <trkpt lat="46.55085" lon="0.656">
        <ele>157.75</ele>
        <time>2019-11-17T09:16:45.000Z</time>
      </trkpt>
      <trkpt lat="46.55087" lon="0.65613">
        <ele>158.73</ele>
        <time>2019-11-17T09:16:53.000Z</time>
      </trkpt>
      <trkpt lat="46.5509" lon="0.65626">
        <ele>159.78</ele>
        <time>2019-11-17T09:17:00.000Z</time>
      </trkpt>
      <trkpt lat="46.55096" lon="0.65637">
        <ele>160.51</ele>
        <time>2019-11-17T09:17:05.000Z</time>
      </trkpt>
      <trkpt lat="46.55102" lon="0.65648">
        <ele>160.72</ele>
        <time>2019-11-17T09:17:11.000Z</time>
      </trkpt>
      <trkpt lat="46.5511" lon="0.65656">
        <ele>160.84</ele>
        <time>2019-11-17T09:17:19.000Z</time>
      </trkpt>
      <trkpt lat="46.5512" lon="0.65657">
        <ele>160.84</ele>
        <time>2019-11-17T09:17:23.000Z</time>
      </trkpt>
      <trkpt lat="46.55125" lon="0.65668">
        <ele>161</ele>
        <time>2019-11-17T09:17:30.000Z</time>
      </trkpt>
      <trkpt lat="46.55132" lon="0.65679">
        <ele>161.06</ele>
        <time>2019-11-17T09:17:35.000Z</time>
      </trkpt>
      <trkpt lat="46.55142" lon="0.65684">
        <ele>161.24</ele>
        <time>2019-11-17T09:17:41.000Z</time>
      </trkpt>
      <trkpt lat="46.55151" lon="0.65681">
        <ele>161.93</ele>
        <time>2019-11-17T09:17:47.000Z</time>
      </trkpt>
      <trkpt lat="46.55163" lon="0.65677">
        <ele>162.97</ele>
        <time>2019-11-17T09:17:52.000Z</time>
      </trkpt>
      <trkpt lat="46.55172" lon="0.6568">
        <ele>163.71</ele>
        <time>2019-11-17T09:17:56.000Z</time>
      </trkpt>
      <trkpt lat="46.55183" lon="0.65688">
        <ele>164.43</ele>
        <time>2019-11-17T09:18:00.000Z</time>
      </trkpt>
      <trkpt lat="46.55192" lon="0.65697">
        <ele>165.13</ele>
        <time>2019-11-17T09:18:04.000Z</time>
      </trkpt>
      <trkpt lat="46.55197" lon="0.65708">
        <ele>165.48</ele>
        <time>2019-11-17T09:18:07.000Z</time>
      </trkpt>
      <trkpt lat="46.55201" lon="0.6572">
        <ele>165.55</ele>
        <time>2019-11-17T09:18:10.000Z</time>
      </trkpt>
      <trkpt lat="46.55206" lon="0.65735">
        <ele>165.31</ele>
        <time>2019-11-17T09:18:14.000Z</time>
      </trkpt>
      <trkpt lat="46.5521" lon="0.65746">
        <ele>164.96</ele>
        <time>2019-11-17T09:18:16.000Z</time>
      </trkpt>
      <trkpt lat="46.55212" lon="0.65763">
        <ele>163.98</ele>
        <time>2019-11-17T09:18:20.000Z</time>
      </trkpt>
      <trkpt lat="46.55213" lon="0.65778">
        <ele>162.88</ele>
        <time>2019-11-17T09:18:24.000Z</time>
      </trkpt>
      <trkpt lat="46.55223" lon="0.65774">
        <ele>161.7</ele>
        <time>2019-11-17T09:18:29.000Z</time>
      </trkpt>
      <trkpt lat="46.55228" lon="0.65763">
        <ele>161.01</ele>
        <time>2019-11-17T09:18:33.000Z</time>
      </trkpt>
      <trkpt lat="46.55234" lon="0.65751">
        <ele>160.68</ele>
        <time>2019-11-17T09:18:36.000Z</time>
      </trkpt>
      <trkpt lat="46.5524" lon="0.65741">
        <ele>160.29</ele>
        <time>2019-11-17T09:18:40.000Z</time>
      </trkpt>
      <trkpt lat="46.55247" lon="0.65728">
        <ele>159.96</ele>
        <time>2019-11-17T09:18:43.000Z</time>
      </trkpt>
      <trkpt lat="46.55253" lon="0.65718">
        <ele>159.86</ele>
        <time>2019-11-17T09:18:47.000Z</time>
      </trkpt>
      <trkpt lat="46.5526" lon="0.65706">
        <ele>159.95</ele>
        <time>2019-11-17T09:18:51.000Z</time>
      </trkpt>
      <trkpt lat="46.55265" lon="0.65693">
        <ele>160.19</ele>
        <time>2019-11-17T09:18:55.000Z</time>
      </trkpt>
      <trkpt lat="46.55269" lon="0.65681">
        <ele>160.36</ele>
        <time>2019-11-17T09:18:58.000Z</time>
      </trkpt>
      <trkpt lat="46.55274" lon="0.65665">
        <ele>160.49</ele>
        <time>2019-11-17T09:19:01.000Z</time>
      </trkpt>
      <trkpt lat="46.5528" lon="0.65651">
        <ele>160.69</ele>
        <time>2019-11-17T09:19:05.000Z</time>
      </trkpt>
      <trkpt lat="46.55285" lon="0.65637">
        <ele>160.82</ele>
        <time>2019-11-17T09:19:08.000Z</time>
      </trkpt>
      <trkpt lat="46.55292" lon="0.65623">
        <ele>161.06</ele>
        <time>2019-11-17T09:19:11.000Z</time>
      </trkpt>
      <trkpt lat="46.55296" lon="0.6561">
        <ele>161.28</ele>
        <time>2019-11-17T09:19:14.000Z</time>
      </trkpt>
      <trkpt lat="46.55303" lon="0.65595">
        <ele>161.36</ele>
        <time>2019-11-17T09:19:18.000Z</time>
      </trkpt>
      <trkpt lat="46.55308" lon="0.6558">
        <ele>161.38</ele>
        <time>2019-11-17T09:19:21.000Z</time>
      </trkpt>
      <trkpt lat="46.55313" lon="0.65566">
        <ele>161.43</ele>
        <time>2019-11-17T09:19:24.000Z</time>
      </trkpt>
      <trkpt lat="46.55319" lon="0.65554">
        <ele>161.7</ele>
        <time>2019-11-17T09:19:28.000Z</time>
      </trkpt>
      <trkpt lat="46.55324" lon="0.65542">
        <ele>161.98</ele>
        <time>2019-11-17T09:19:31.000Z</time>
      </trkpt>
      <trkpt lat="46.55329" lon="0.65528">
        <ele>162.6</ele>
        <time>2019-11-17T09:19:35.000Z</time>
      </trkpt>
      <trkpt lat="46.55334" lon="0.65514">
        <ele>163.04</ele>
        <time>2019-11-17T09:19:38.000Z</time>
      </trkpt>
      <trkpt lat="46.5534" lon="0.65498">
        <ele>163.52</ele>
        <time>2019-11-17T09:19:41.000Z</time>
      </trkpt>
      <trkpt lat="46.55344" lon="0.65484">
        <ele>163.69</ele>
        <time>2019-11-17T09:19:43.000Z</time>
      </trkpt>
      <trkpt lat="46.55353" lon="0.65469">
        <ele>163.77</ele>
        <time>2019-11-17T09:19:46.000Z</time>
      </trkpt>
      <trkpt lat="46.55358" lon="0.65454">
        <ele>162.6</ele>
        <time>2019-11-17T09:19:48.000Z</time>
      </trkpt>
      <trkpt lat="46.55363" lon="0.65437">
        <ele>159.88</ele>
        <time>2019-11-17T09:19:50.000Z</time>
      </trkpt>
      <trkpt lat="46.55368" lon="0.65425">
        <ele>158.79</ele>
        <time>2019-11-17T09:19:52.000Z</time>
      </trkpt>
      <trkpt lat="46.55374" lon="0.65414">
        <ele>158</ele>
        <time>2019-11-17T09:19:54.000Z</time>
      </trkpt>
      <trkpt lat="46.55381" lon="0.65401">
        <ele>158.1</ele>
        <time>2019-11-17T09:19:56.000Z</time>
      </trkpt>
      <trkpt lat="46.55387" lon="0.65388">
        <ele>158.56</ele>
        <time>2019-11-17T09:19:58.000Z</time>
      </trkpt>
      <trkpt lat="46.55394" lon="0.65372">
        <ele>159.22</ele>
        <time>2019-11-17T09:20:00.000Z</time>
      </trkpt>
      <trkpt lat="46.55399" lon="0.65361">
        <ele>159.83</ele>
        <time>2019-11-17T09:20:02.000Z</time>
      </trkpt>
      <trkpt lat="46.55406" lon="0.65348">
        <ele>161.48</ele>
        <time>2019-11-17T09:20:04.000Z</time>
      </trkpt>
      <trkpt lat="46.55411" lon="0.65336">
        <ele>161.76</ele>
        <time>2019-11-17T09:20:06.000Z</time>
      </trkpt>
      <trkpt lat="46.55415" lon="0.65319">
        <ele>165.54</ele>
        <time>2019-11-17T09:20:08.000Z</time>
      </trkpt>
      <trkpt lat="46.55421" lon="0.65303">
        <ele>168.69</ele>
        <time>2019-11-17T09:20:10.000Z</time>
      </trkpt>
      <trkpt lat="46.55425" lon="0.6529">
        <ele>170.7</ele>
        <time>2019-11-17T09:20:12.000Z</time>
      </trkpt>
      <trkpt lat="46.55432" lon="0.65274">
        <ele>170.98</ele>
        <time>2019-11-17T09:20:14.000Z</time>
      </trkpt>
      <trkpt lat="46.55439" lon="0.65259">
        <ele>170.85</ele>
        <time>2019-11-17T09:20:16.000Z</time>
      </trkpt>
      <trkpt lat="46.55446" lon="0.65248">
        <ele>170.39</ele>
        <time>2019-11-17T09:20:18.000Z</time>
      </trkpt>
      <trkpt lat="46.55453" lon="0.65235">
        <ele>169.59</ele>
        <time>2019-11-17T09:20:20.000Z</time>
      </trkpt>
      <trkpt lat="46.5546" lon="0.65221">
        <ele>168.93</ele>
        <time>2019-11-17T09:20:22.000Z</time>
      </trkpt>
      <trkpt lat="46.55468" lon="0.65203">
        <ele>168.24</ele>
        <time>2019-11-17T09:20:24.000Z</time>
      </trkpt>
      <trkpt lat="46.55474" lon="0.65187">
        <ele>167.53</ele>
        <time>2019-11-17T09:20:26.000Z</time>
      </trkpt>
      <trkpt lat="46.5548" lon="0.6517">
        <ele>166.76</ele>
        <time>2019-11-17T09:20:28.000Z</time>
      </trkpt>
      <trkpt lat="46.55486" lon="0.65153">
        <ele>166.05</ele>
        <time>2019-11-17T09:20:30.000Z</time>
      </trkpt>
      <trkpt lat="46.55492" lon="0.65135">
        <ele>165.63</ele>
        <time>2019-11-17T09:20:32.000Z</time>
      </trkpt>
      <trkpt lat="46.55499" lon="0.6512">
        <ele>165.27</ele>
        <time>2019-11-17T09:20:34.000Z</time>
      </trkpt>
      <trkpt lat="46.55506" lon="0.65105">
        <ele>164.92</ele>
        <time>2019-11-17T09:20:36.000Z</time>
      </trkpt>
      <trkpt lat="46.55512" lon="0.6509">
        <ele>165.1</ele>
        <time>2019-11-17T09:20:38.000Z</time>
      </trkpt>
      <trkpt lat="46.55519" lon="0.65075">
        <ele>164.9</ele>
        <time>2019-11-17T09:20:40.000Z</time>
      </trkpt>
      <trkpt lat="46.55525" lon="0.65058">
        <ele>164.65</ele>
        <time>2019-11-17T09:20:42.000Z</time>
      </trkpt>
      <trkpt lat="46.55532" lon="0.6504">
        <ele>164.4</ele>
        <time>2019-11-17T09:20:44.000Z</time>
      </trkpt>
      <trkpt lat="46.55539" lon="0.65022">
        <ele>164.11</ele>
        <time>2019-11-17T09:20:46.000Z</time>
      </trkpt>
      <trkpt lat="46.55547" lon="0.65006">
        <ele>163.74</ele>
        <time>2019-11-17T09:20:48.000Z</time>
      </trkpt>
      <trkpt lat="46.55554" lon="0.64987">
        <ele>163.29</ele>
        <time>2019-11-17T09:20:50.000Z</time>
      </trkpt>
      <trkpt lat="46.55562" lon="0.64971">
        <ele>162.6</ele>
        <time>2019-11-17T09:20:52.000Z</time>
      </trkpt>
      <trkpt lat="46.5557" lon="0.64956">
        <ele>162.14</ele>
        <time>2019-11-17T09:20:54.000Z</time>
      </trkpt>
      <trkpt lat="46.55579" lon="0.64941">
        <ele>161.58</ele>
        <time>2019-11-17T09:20:56.000Z</time>
      </trkpt>
      <trkpt lat="46.55587" lon="0.64924">
        <ele>160.89</ele>
        <time>2019-11-17T09:20:58.000Z</time>
      </trkpt>
      <trkpt lat="46.55596" lon="0.64907">
        <ele>160.12</ele>
        <time>2019-11-17T09:21:00.000Z</time>
      </trkpt>
      <trkpt lat="46.55605" lon="0.6489">
        <ele>159.26</ele>
        <time>2019-11-17T09:21:02.000Z</time>
      </trkpt>
      <trkpt lat="46.55612" lon="0.64874">
        <ele>158.74</ele>
        <time>2019-11-17T09:21:04.000Z</time>
      </trkpt>
      <trkpt lat="46.55618" lon="0.64861">
        <ele>158.02</ele>
        <time>2019-11-17T09:21:06.000Z</time>
      </trkpt>
      <trkpt lat="46.55609" lon="0.64856">
        <ele>157.54</ele>
        <time>2019-11-17T09:21:13.000Z</time>
      </trkpt>
      <trkpt lat="46.55597" lon="0.6486">
        <ele>155.26</ele>
        <time>2019-11-17T09:21:16.000Z</time>
      </trkpt>
      <trkpt lat="46.55587" lon="0.64864">
        <ele>153.43</ele>
        <time>2019-11-17T09:21:18.000Z</time>
      </trkpt>
      <trkpt lat="46.55576" lon="0.64869">
        <ele>151.97</ele>
        <time>2019-11-17T09:21:20.000Z</time>
      </trkpt>
      <trkpt lat="46.55564" lon="0.64873">
        <ele>150.82</ele>
        <time>2019-11-17T09:21:22.000Z</time>
      </trkpt>
      <trkpt lat="46.55552" lon="0.64876">
        <ele>150.06</ele>
        <time>2019-11-17T09:21:24.000Z</time>
      </trkpt>
      <trkpt lat="46.55541" lon="0.6488">
        <ele>149.42</ele>
        <time>2019-11-17T09:21:26.000Z</time>
      </trkpt>
      <trkpt lat="46.55529" lon="0.64883">
        <ele>149.14</ele>
        <time>2019-11-17T09:21:28.000Z</time>
      </trkpt>
      <trkpt lat="46.55518" lon="0.64883">
        <ele>149.02</ele>
        <time>2019-11-17T09:21:30.000Z</time>
      </trkpt>
      <trkpt lat="46.55507" lon="0.6488">
        <ele>149.3</ele>
        <time>2019-11-17T09:21:32.000Z</time>
      </trkpt>
      <trkpt lat="46.55498" lon="0.64876">
        <ele>149.8</ele>
        <time>2019-11-17T09:21:34.000Z</time>
      </trkpt>
      <trkpt lat="46.55487" lon="0.64869">
        <ele>149.95</ele>
        <time>2019-11-17T09:21:36.000Z</time>
      </trkpt>
      <trkpt lat="46.55476" lon="0.64861">
        <ele>149.33</ele>
        <time>2019-11-17T09:21:38.000Z</time>
      </trkpt>
      <trkpt lat="46.55463" lon="0.64852">
        <ele>148.68</ele>
        <time>2019-11-17T09:21:40.000Z</time>
      </trkpt>
      <trkpt lat="46.5545" lon="0.64844">
        <ele>147.97</ele>
        <time>2019-11-17T09:21:42.000Z</time>
      </trkpt>
      <trkpt lat="46.5544" lon="0.64837">
        <ele>146.66</ele>
        <time>2019-11-17T09:21:44.000Z</time>
      </trkpt>
      <trkpt lat="46.55432" lon="0.64828">
        <ele>145.07</ele>
        <time>2019-11-17T09:21:46.000Z</time>
      </trkpt>
      <trkpt lat="46.55422" lon="0.6482">
        <ele>143.57</ele>
        <time>2019-11-17T09:21:48.000Z</time>
      </trkpt>
      <trkpt lat="46.5541" lon="0.64816">
        <ele>142.12</ele>
        <time>2019-11-17T09:21:50.000Z</time>
      </trkpt>
      <trkpt lat="46.55394" lon="0.64816">
        <ele>141.04</ele>
        <time>2019-11-17T09:21:52.000Z</time>
      </trkpt>
      <trkpt lat="46.55379" lon="0.64813">
        <ele>140.8</ele>
        <time>2019-11-17T09:21:54.000Z</time>
      </trkpt>
      <trkpt lat="46.55364" lon="0.64808">
        <ele>140.95</ele>
        <time>2019-11-17T09:21:56.000Z</time>
      </trkpt>
      <trkpt lat="46.55348" lon="0.64801">
        <ele>140.83</ele>
        <time>2019-11-17T09:21:58.000Z</time>
      </trkpt>
      <trkpt lat="46.55332" lon="0.64797">
        <ele>140.52</ele>
        <time>2019-11-17T09:22:00.000Z</time>
      </trkpt>
      <trkpt lat="46.55317" lon="0.64796">
        <ele>140.38</ele>
        <time>2019-11-17T09:22:02.000Z</time>
      </trkpt>
      <trkpt lat="46.55305" lon="0.64797">
        <ele>140.45</ele>
        <time>2019-11-17T09:22:04.000Z</time>
      </trkpt>
      <trkpt lat="46.55292" lon="0.64798">
        <ele>140.58</ele>
        <time>2019-11-17T09:22:06.000Z</time>
      </trkpt>
      <trkpt lat="46.55279" lon="0.648">
        <ele>140.81</ele>
        <time>2019-11-17T09:22:08.000Z</time>
      </trkpt>
      <trkpt lat="46.55264" lon="0.64805">
        <ele>140.85</ele>
        <time>2019-11-17T09:22:10.000Z</time>
      </trkpt>
      <trkpt lat="46.55248" lon="0.64809">
        <ele>140.84</ele>
        <time>2019-11-17T09:22:12.000Z</time>
      </trkpt>
      <trkpt lat="46.55232" lon="0.64813">
        <ele>140.76</ele>
        <time>2019-11-17T09:22:14.000Z</time>
      </trkpt>
      <trkpt lat="46.55216" lon="0.64819">
        <ele>140.55</ele>
        <time>2019-11-17T09:22:16.000Z</time>
      </trkpt>
      <trkpt lat="46.55201" lon="0.64827">
        <ele>140.13</ele>
        <time>2019-11-17T09:22:18.000Z</time>
      </trkpt>
      <trkpt lat="46.55185" lon="0.6484">
        <ele>139.84</ele>
        <time>2019-11-17T09:22:20.000Z</time>
      </trkpt>
      <trkpt lat="46.55171" lon="0.64855">
        <ele>139.92</ele>
        <time>2019-11-17T09:22:22.000Z</time>
      </trkpt>
      <trkpt lat="46.55157" lon="0.64866">
        <ele>139.84</ele>
        <time>2019-11-17T09:22:24.000Z</time>
      </trkpt>
      <trkpt lat="46.55148" lon="0.64869">
        <ele>139.73</ele>
        <time>2019-11-17T09:22:26.000Z</time>
      </trkpt>
      <trkpt lat="46.55137" lon="0.64868">
        <ele>139.32</ele>
        <time>2019-11-17T09:22:33.000Z</time>
      </trkpt>
      <trkpt lat="46.55129" lon="0.64872">
        <ele>139.05</ele>
        <time>2019-11-17T09:22:37.000Z</time>
      </trkpt>
      <trkpt lat="46.5512" lon="0.64879">
        <ele>138.9</ele>
        <time>2019-11-17T09:22:41.000Z</time>
      </trkpt>
      <trkpt lat="46.55109" lon="0.64882">
        <ele>139.12</ele>
        <time>2019-11-17T09:22:45.000Z</time>
      </trkpt>
      <trkpt lat="46.551" lon="0.64887">
        <ele>139.32</ele>
        <time>2019-11-17T09:22:48.000Z</time>
      </trkpt>
      <trkpt lat="46.5509" lon="0.64892">
        <ele>139.48</ele>
        <time>2019-11-17T09:22:51.000Z</time>
      </trkpt>
      <trkpt lat="46.55082" lon="0.64898">
        <ele>139.57</ele>
        <time>2019-11-17T09:22:54.000Z</time>
      </trkpt>
      <trkpt lat="46.55072" lon="0.64904">
        <ele>139.57</ele>
        <time>2019-11-17T09:22:57.000Z</time>
      </trkpt>
      <trkpt lat="46.55062" lon="0.64909">
        <ele>139.47</ele>
        <time>2019-11-17T09:23:00.000Z</time>
      </trkpt>
      <trkpt lat="46.55053" lon="0.64913">
        <ele>139.01</ele>
        <time>2019-11-17T09:23:04.000Z</time>
      </trkpt>
      <trkpt lat="46.55044" lon="0.64918">
        <ele>138.15</ele>
        <time>2019-11-17T09:23:09.000Z</time>
      </trkpt>
      <trkpt lat="46.55034" lon="0.64925">
        <ele>137.33</ele>
        <time>2019-11-17T09:23:18.000Z</time>
      </trkpt>
      <trkpt lat="46.55024" lon="0.64925">
        <ele>137.58</ele>
        <time>2019-11-17T09:23:23.000Z</time>
      </trkpt>
      <trkpt lat="46.55013" lon="0.6493">
        <ele>137.72</ele>
        <time>2019-11-17T09:23:28.000Z</time>
      </trkpt>
      <trkpt lat="46.55004" lon="0.64926">
        <ele>137.76</ele>
        <time>2019-11-17T09:23:33.000Z</time>
      </trkpt>
      <trkpt lat="46.54994" lon="0.64923">
        <ele>137.21</ele>
        <time>2019-11-17T09:23:40.000Z</time>
      </trkpt>
      <trkpt lat="46.54985" lon="0.6493">
        <ele>136.85</ele>
        <time>2019-11-17T09:23:45.000Z</time>
      </trkpt>
      <trkpt lat="46.54975" lon="0.64928">
        <ele>136.92</ele>
        <time>2019-11-17T09:23:50.000Z</time>
      </trkpt>
      <trkpt lat="46.54965" lon="0.64925">
        <ele>137.6</ele>
        <time>2019-11-17T09:23:58.000Z</time>
      </trkpt>
      <trkpt lat="46.54957" lon="0.64921">
        <ele>138.24</ele>
        <time>2019-11-17T09:24:04.000Z</time>
      </trkpt>
      <trkpt lat="46.54947" lon="0.64917">
        <ele>139.08</ele>
        <time>2019-11-17T09:24:10.000Z</time>
      </trkpt>
      <trkpt lat="46.54939" lon="0.64911">
        <ele>140.04</ele>
        <time>2019-11-17T09:24:17.000Z</time>
      </trkpt>
      <trkpt lat="46.54931" lon="0.64905">
        <ele>140.67</ele>
        <time>2019-11-17T09:24:22.000Z</time>
      </trkpt>
      <trkpt lat="46.54922" lon="0.64903">
        <ele>141</ele>
        <time>2019-11-17T09:24:27.000Z</time>
      </trkpt>
      <trkpt lat="46.5491" lon="0.64902">
        <ele>141.26</ele>
        <time>2019-11-17T09:24:32.000Z</time>
      </trkpt>
      <trkpt lat="46.54901" lon="0.64901">
        <ele>141.55</ele>
        <time>2019-11-17T09:24:37.000Z</time>
      </trkpt>
      <trkpt lat="46.5489" lon="0.649">
        <ele>141.88</ele>
        <time>2019-11-17T09:24:41.000Z</time>
      </trkpt>
      <trkpt lat="46.5488" lon="0.649">
        <ele>142.07</ele>
        <time>2019-11-17T09:24:45.000Z</time>
      </trkpt>
      <trkpt lat="46.5487" lon="0.64896">
        <ele>142.29</ele>
        <time>2019-11-17T09:24:49.000Z</time>
      </trkpt>
      <trkpt lat="46.54858" lon="0.64894">
        <ele>142.5</ele>
        <time>2019-11-17T09:24:53.000Z</time>
      </trkpt>
      <trkpt lat="46.54849" lon="0.64891">
        <ele>142.49</ele>
        <time>2019-11-17T09:24:56.000Z</time>
      </trkpt>
      <trkpt lat="46.54839" lon="0.64889">
        <ele>142.47</ele>
        <time>2019-11-17T09:25:00.000Z</time>
      </trkpt>
      <trkpt lat="46.54827" lon="0.64888">
        <ele>142.59</ele>
        <time>2019-11-17T09:25:04.000Z</time>
      </trkpt>
      <trkpt lat="46.54815" lon="0.64888">
        <ele>142.84</ele>
        <time>2019-11-17T09:25:08.000Z</time>
      </trkpt>
      <trkpt lat="46.54804" lon="0.64885">
        <ele>143.25</ele>
        <time>2019-11-17T09:25:12.000Z</time>
      </trkpt>
      <trkpt lat="46.54795" lon="0.64883">
        <ele>143.6</ele>
        <time>2019-11-17T09:25:15.000Z</time>
      </trkpt>
      <trkpt lat="46.54783" lon="0.64884">
        <ele>143.93</ele>
        <time>2019-11-17T09:25:18.000Z</time>
      </trkpt>
      <trkpt lat="46.54772" lon="0.64886">
        <ele>144.33</ele>
        <time>2019-11-17T09:25:21.000Z</time>
      </trkpt>
      <trkpt lat="46.54762" lon="0.64887">
        <ele>144.86</ele>
        <time>2019-11-17T09:25:24.000Z</time>
      </trkpt>
      <trkpt lat="46.54751" lon="0.64886">
        <ele>147.06</ele>
        <time>2019-11-17T09:25:27.000Z</time>
      </trkpt>
      <trkpt lat="46.54739" lon="0.64885">
        <ele>149.55</ele>
        <time>2019-11-17T09:25:30.000Z</time>
      </trkpt>
      <trkpt lat="46.54726" lon="0.64886">
        <ele>149.8</ele>
        <time>2019-11-17T09:25:33.000Z</time>
      </trkpt>
      <trkpt lat="46.54714" lon="0.64885">
        <ele>152.57</ele>
        <time>2019-11-17T09:25:36.000Z</time>
      </trkpt>
      <trkpt lat="46.54705" lon="0.64886">
        <ele>153.65</ele>
        <time>2019-11-17T09:25:38.000Z</time>
      </trkpt>
      <trkpt lat="46.54692" lon="0.64887">
        <ele>155.72</ele>
        <time>2019-11-17T09:25:41.000Z</time>
      </trkpt>
      <trkpt lat="46.54682" lon="0.64888">
        <ele>155.87</ele>
        <time>2019-11-17T09:25:44.000Z</time>
      </trkpt>
      <trkpt lat="46.54673" lon="0.64889">
        <ele>156.01</ele>
        <time>2019-11-17T09:25:47.000Z</time>
      </trkpt>
      <trkpt lat="46.54659" lon="0.64888">
        <ele>155.93</ele>
        <time>2019-11-17T09:25:50.000Z</time>
      </trkpt>
      <trkpt lat="46.54646" lon="0.64885">
        <ele>155.71</ele>
        <time>2019-11-17T09:25:53.000Z</time>
      </trkpt>
      <trkpt lat="46.54636" lon="0.64884">
        <ele>154.25</ele>
        <time>2019-11-17T09:25:56.000Z</time>
      </trkpt>
      <trkpt lat="46.54627" lon="0.64883">
        <ele>152.55</ele>
        <time>2019-11-17T09:25:58.000Z</time>
      </trkpt>
      <trkpt lat="46.54617" lon="0.64882">
        <ele>152.95</ele>
        <time>2019-11-17T09:26:01.000Z</time>
      </trkpt>
      <trkpt lat="46.54607" lon="0.64877">
        <ele>154.93</ele>
        <time>2019-11-17T09:26:04.000Z</time>
      </trkpt>
      <trkpt lat="46.54593" lon="0.64871">
        <ele>156.2</ele>
        <time>2019-11-17T09:26:07.000Z</time>
      </trkpt>
      <trkpt lat="46.5458" lon="0.64864">
        <ele>156.26</ele>
        <time>2019-11-17T09:26:10.000Z</time>
      </trkpt>
      <trkpt lat="46.5457" lon="0.64861">
        <ele>156.15</ele>
        <time>2019-11-17T09:26:12.000Z</time>
      </trkpt>
      <trkpt lat="46.54559" lon="0.64857">
        <ele>155.59</ele>
        <time>2019-11-17T09:26:15.000Z</time>
      </trkpt>
      <trkpt lat="46.54548" lon="0.64851">
        <ele>154.5</ele>
        <time>2019-11-17T09:26:19.000Z</time>
      </trkpt>
      <trkpt lat="46.54536" lon="0.64851">
        <ele>154.41</ele>
        <time>2019-11-17T09:26:22.000Z</time>
      </trkpt>
      <trkpt lat="46.54523" lon="0.64854">
        <ele>153.99</ele>
        <time>2019-11-17T09:26:25.000Z</time>
      </trkpt>
      <trkpt lat="46.5451" lon="0.64858">
        <ele>152.65</ele>
        <time>2019-11-17T09:26:28.000Z</time>
      </trkpt>
      <trkpt lat="46.54499" lon="0.6486">
        <ele>152.21</ele>
        <time>2019-11-17T09:26:31.000Z</time>
      </trkpt>
      <trkpt lat="46.54486" lon="0.6486">
        <ele>152.16</ele>
        <time>2019-11-17T09:26:34.000Z</time>
      </trkpt>
      <trkpt lat="46.54476" lon="0.64859">
        <ele>152.15</ele>
        <time>2019-11-17T09:26:37.000Z</time>
      </trkpt>
      <trkpt lat="46.54464" lon="0.6486">
        <ele>153.11</ele>
        <time>2019-11-17T09:26:40.000Z</time>
      </trkpt>
      <trkpt lat="46.54454" lon="0.6486">
        <ele>155.25</ele>
        <time>2019-11-17T09:26:43.000Z</time>
      </trkpt>
      <trkpt lat="46.54444" lon="0.64864">
        <ele>158.2</ele>
        <time>2019-11-17T09:26:46.000Z</time>
      </trkpt>
      <trkpt lat="46.54432" lon="0.6487">
        <ele>160.88</ele>
        <time>2019-11-17T09:26:49.000Z</time>
      </trkpt>
      <trkpt lat="46.54421" lon="0.64874">
        <ele>161.58</ele>
        <time>2019-11-17T09:26:51.000Z</time>
      </trkpt>
      <trkpt lat="46.54412" lon="0.64876">
        <ele>161.08</ele>
        <time>2019-11-17T09:26:53.000Z</time>
      </trkpt>
      <trkpt lat="46.54402" lon="0.64881">
        <ele>160.43</ele>
        <time>2019-11-17T09:26:55.000Z</time>
      </trkpt>
      <trkpt lat="46.54393" lon="0.64883">
        <ele>159.54</ele>
        <time>2019-11-17T09:26:57.000Z</time>
      </trkpt>
      <trkpt lat="46.54379" lon="0.64886">
        <ele>157.98</ele>
        <time>2019-11-17T09:27:00.000Z</time>
      </trkpt>
      <trkpt lat="46.54367" lon="0.64889">
        <ele>156.18</ele>
        <time>2019-11-17T09:27:03.000Z</time>
      </trkpt>
      <trkpt lat="46.54359" lon="0.64894">
        <ele>155.82</ele>
        <time>2019-11-17T09:27:05.000Z</time>
      </trkpt>
      <trkpt lat="46.54349" lon="0.64898">
        <ele>155.82</ele>
        <time>2019-11-17T09:27:07.000Z</time>
      </trkpt>
      <trkpt lat="46.54339" lon="0.64902">
        <ele>155.72</ele>
        <time>2019-11-17T09:27:10.000Z</time>
      </trkpt>
      <trkpt lat="46.54329" lon="0.64906">
        <ele>155.54</ele>
        <time>2019-11-17T09:27:13.000Z</time>
      </trkpt>
      <trkpt lat="46.5432" lon="0.64911">
        <ele>157.3</ele>
        <time>2019-11-17T09:27:34.000Z</time>
      </trkpt>
      <trkpt lat="46.5431" lon="0.64913">
        <ele>157.92</ele>
        <time>2019-11-17T09:27:40.000Z</time>
      </trkpt>
      <trkpt lat="46.54319" lon="0.64919">
        <ele>163.51</ele>
        <time>2019-11-17T09:29:54.000Z</time>
      </trkpt>
      <trkpt lat="46.54315" lon="0.64931">
        <ele>166.03</ele>
        <time>2019-11-17T09:30:15.000Z</time>
      </trkpt>
      <trkpt lat="46.54313" lon="0.64918">
        <ele>164.68</ele>
        <time>2019-11-17T09:31:25.000Z</time>
      </trkpt>
      <trkpt lat="46.54319" lon="0.64908">
        <ele>164.7</ele>
        <time>2019-11-17T09:31:39.000Z</time>
      </trkpt>
      <trkpt lat="46.54328" lon="0.64901">
        <ele>165.57</ele>
        <time>2019-11-17T09:31:53.000Z</time>
      </trkpt>
      <trkpt lat="46.54322" lon="0.64911">
        <ele>166.63</ele>
        <time>2019-11-17T09:32:37.000Z</time>
      </trkpt>
      <trkpt lat="46.54313" lon="0.64911">
        <ele>167.36</ele>
        <time>2019-11-17T09:32:40.000Z</time>
      </trkpt>
      <trkpt lat="46.54316" lon="0.64898">
        <ele>168.3</ele>
        <time>2019-11-17T09:32:46.000Z</time>
      </trkpt>
      <trkpt lat="46.54319" lon="0.64885">
        <ele>168.58</ele>
        <time>2019-11-17T09:32:50.000Z</time>
      </trkpt>
      <trkpt lat="46.54324" lon="0.64873">
        <ele>168.65</ele>
        <time>2019-11-17T09:32:53.000Z</time>
      </trkpt>
      <trkpt lat="46.54328" lon="0.64853">
        <ele>168.98</ele>
        <time>2019-11-17T09:32:56.000Z</time>
      </trkpt>
      <trkpt lat="46.54332" lon="0.64841">
        <ele>168.88</ele>
        <time>2019-11-17T09:32:58.000Z</time>
      </trkpt>
      <trkpt lat="46.54335" lon="0.64828">
        <ele>168.98</ele>
        <time>2019-11-17T09:33:00.000Z</time>
      </trkpt>
      <trkpt lat="46.54338" lon="0.64814">
        <ele>167.67</ele>
        <time>2019-11-17T09:33:02.000Z</time>
      </trkpt>
      <trkpt lat="46.54332" lon="0.64801">
        <ele>166.43</ele>
        <time>2019-11-17T09:33:05.000Z</time>
      </trkpt>
      <trkpt lat="46.54322" lon="0.64802">
        <ele>165.83</ele>
        <time>2019-11-17T09:33:07.000Z</time>
      </trkpt>
      <trkpt lat="46.5431" lon="0.64801">
        <ele>165.46</ele>
        <time>2019-11-17T09:33:09.000Z</time>
      </trkpt>
      <trkpt lat="46.54299" lon="0.64802">
        <ele>164.85</ele>
        <time>2019-11-17T09:33:11.000Z</time>
      </trkpt>
      <trkpt lat="46.54287" lon="0.64802">
        <ele>164.41</ele>
        <time>2019-11-17T09:33:13.000Z</time>
      </trkpt>
      <trkpt lat="46.54275" lon="0.64803">
        <ele>163.89</ele>
        <time>2019-11-17T09:33:15.000Z</time>
      </trkpt>
      <trkpt lat="46.54263" lon="0.64802">
        <ele>163.25</ele>
        <time>2019-11-17T09:33:17.000Z</time>
      </trkpt>
      <trkpt lat="46.54252" lon="0.648">
        <ele>163.13</ele>
        <time>2019-11-17T09:33:19.000Z</time>
      </trkpt>
      <trkpt lat="46.5424" lon="0.64799">
        <ele>163.22</ele>
        <time>2019-11-17T09:33:21.000Z</time>
      </trkpt>
      <trkpt lat="46.54228" lon="0.64799">
        <ele>163.14</ele>
        <time>2019-11-17T09:33:23.000Z</time>
      </trkpt>
      <trkpt lat="46.54215" lon="0.648">
        <ele>163.03</ele>
        <time>2019-11-17T09:33:25.000Z</time>
      </trkpt>
      <trkpt lat="46.54203" lon="0.648">
        <ele>162.92</ele>
        <time>2019-11-17T09:33:27.000Z</time>
      </trkpt>
      <trkpt lat="46.54191" lon="0.64802">
        <ele>162.98</ele>
        <time>2019-11-17T09:33:29.000Z</time>
      </trkpt>
      <trkpt lat="46.54179" lon="0.64802">
        <ele>162.91</ele>
        <time>2019-11-17T09:33:31.000Z</time>
      </trkpt>
      <trkpt lat="46.54166" lon="0.64802">
        <ele>162.62</ele>
        <time>2019-11-17T09:33:33.000Z</time>
      </trkpt>
      <trkpt lat="46.54155" lon="0.64801">
        <ele>162.07</ele>
        <time>2019-11-17T09:33:35.000Z</time>
      </trkpt>
      <trkpt lat="46.54144" lon="0.648">
        <ele>161.69</ele>
        <time>2019-11-17T09:33:37.000Z</time>
      </trkpt>
      <trkpt lat="46.54134" lon="0.648">
        <ele>161.37</ele>
        <time>2019-11-17T09:33:39.000Z</time>
      </trkpt>
      <trkpt lat="46.54125" lon="0.64799">
        <ele>161.07</ele>
        <time>2019-11-17T09:33:41.000Z</time>
      </trkpt>
      <trkpt lat="46.54116" lon="0.64798">
        <ele>160.82</ele>
        <time>2019-11-17T09:33:43.000Z</time>
      </trkpt>
      <trkpt lat="46.54107" lon="0.64797">
        <ele>160.68</ele>
        <time>2019-11-17T09:33:45.000Z</time>
      </trkpt>
      <trkpt lat="46.54093" lon="0.64796">
        <ele>160.44</ele>
        <time>2019-11-17T09:33:48.000Z</time>
      </trkpt>
      <trkpt lat="46.5408" lon="0.64796">
        <ele>160.29</ele>
        <time>2019-11-17T09:33:51.000Z</time>
      </trkpt>
      <trkpt lat="46.54067" lon="0.64795">
        <ele>160.1</ele>
        <time>2019-11-17T09:33:54.000Z</time>
      </trkpt>
      <trkpt lat="46.54056" lon="0.64792">
        <ele>159.92</ele>
        <time>2019-11-17T09:33:57.000Z</time>
      </trkpt>
      <trkpt lat="46.54052" lon="0.64773">
        <ele>159.97</ele>
        <time>2019-11-17T09:34:00.000Z</time>
      </trkpt>
      <trkpt lat="46.54052" lon="0.64756">
        <ele>159.88</ele>
        <time>2019-11-17T09:34:02.000Z</time>
      </trkpt>
      <trkpt lat="46.54052" lon="0.64741">
        <ele>159.72</ele>
        <time>2019-11-17T09:34:04.000Z</time>
      </trkpt>
      <trkpt lat="46.54052" lon="0.64727">
        <ele>160.15</ele>
        <time>2019-11-17T09:34:06.000Z</time>
      </trkpt>
      <trkpt lat="46.54051" lon="0.6471">
        <ele>160.59</ele>
        <time>2019-11-17T09:34:08.000Z</time>
      </trkpt>
      <trkpt lat="46.54051" lon="0.64694">
        <ele>160.66</ele>
        <time>2019-11-17T09:34:10.000Z</time>
      </trkpt>
      <trkpt lat="46.54051" lon="0.64678">
        <ele>161.08</ele>
        <time>2019-11-17T09:34:12.000Z</time>
      </trkpt>
      <trkpt lat="46.54051" lon="0.64662">
        <ele>161.24</ele>
        <time>2019-11-17T09:34:14.000Z</time>
      </trkpt>
      <trkpt lat="46.54051" lon="0.64645">
        <ele>161.03</ele>
        <time>2019-11-17T09:34:16.000Z</time>
      </trkpt>
      <trkpt lat="46.54051" lon="0.64629">
        <ele>160.82</ele>
        <time>2019-11-17T09:34:18.000Z</time>
      </trkpt>
      <trkpt lat="46.5405" lon="0.64609">
        <ele>160.64</ele>
        <time>2019-11-17T09:34:20.000Z</time>
      </trkpt>
      <trkpt lat="46.54048" lon="0.64591">
        <ele>160.47</ele>
        <time>2019-11-17T09:34:22.000Z</time>
      </trkpt>
      <trkpt lat="46.54047" lon="0.64574">
        <ele>160.25</ele>
        <time>2019-11-17T09:34:24.000Z</time>
      </trkpt>
      <trkpt lat="46.54047" lon="0.64558">
        <ele>160.4</ele>
        <time>2019-11-17T09:34:26.000Z</time>
      </trkpt>
      <trkpt lat="46.54046" lon="0.64541">
        <ele>160.56</ele>
        <time>2019-11-17T09:34:28.000Z</time>
      </trkpt>
      <trkpt lat="46.54045" lon="0.64525">
        <ele>160.25</ele>
        <time>2019-11-17T09:34:30.000Z</time>
      </trkpt>
      <trkpt lat="46.54044" lon="0.64509">
        <ele>159.57</ele>
        <time>2019-11-17T09:34:32.000Z</time>
      </trkpt>
      <trkpt lat="46.54044" lon="0.64495">
        <ele>158.86</ele>
        <time>2019-11-17T09:34:34.000Z</time>
      </trkpt>
      <trkpt lat="46.54043" lon="0.64475">
        <ele>157.91</ele>
        <time>2019-11-17T09:34:37.000Z</time>
      </trkpt>
      <trkpt lat="46.54043" lon="0.64461">
        <ele>157.09</ele>
        <time>2019-11-17T09:34:39.000Z</time>
      </trkpt>
      <trkpt lat="46.54042" lon="0.64445">
        <ele>156.15</ele>
        <time>2019-11-17T09:34:41.000Z</time>
      </trkpt>
      <trkpt lat="46.54042" lon="0.64427">
        <ele>154.96</ele>
        <time>2019-11-17T09:34:44.000Z</time>
      </trkpt>
      <trkpt lat="46.54041" lon="0.64412">
        <ele>154.59</ele>
        <time>2019-11-17T09:34:46.000Z</time>
      </trkpt>
      <trkpt lat="46.54039" lon="0.64399">
        <ele>154.49</ele>
        <time>2019-11-17T09:34:52.000Z</time>
      </trkpt>
      <trkpt lat="46.5403" lon="0.64387">
        <ele>154.14</ele>
        <time>2019-11-17T09:35:03.000Z</time>
      </trkpt>
      <trkpt lat="46.54021" lon="0.64376">
        <ele>152.6</ele>
        <time>2019-11-17T09:35:06.000Z</time>
      </trkpt>
      <trkpt lat="46.54016" lon="0.64364">
        <ele>151.52</ele>
        <time>2019-11-17T09:35:08.000Z</time>
      </trkpt>
      <trkpt lat="46.5401" lon="0.64344">
        <ele>150.34</ele>
        <time>2019-11-17T09:35:11.000Z</time>
      </trkpt>
      <trkpt lat="46.54008" lon="0.6433">
        <ele>150.36</ele>
        <time>2019-11-17T09:35:13.000Z</time>
      </trkpt>
      <trkpt lat="46.54004" lon="0.64316">
        <ele>150.63</ele>
        <time>2019-11-17T09:35:15.000Z</time>
      </trkpt>
      <trkpt lat="46.54" lon="0.64304">
        <ele>150.68</ele>
        <time>2019-11-17T09:35:17.000Z</time>
      </trkpt>
      <trkpt lat="46.53996" lon="0.64291">
        <ele>151.15</ele>
        <time>2019-11-17T09:35:19.000Z</time>
      </trkpt>
      <trkpt lat="46.53994" lon="0.64276">
        <ele>152.01</ele>
        <time>2019-11-17T09:35:21.000Z</time>
      </trkpt>
      <trkpt lat="46.5399" lon="0.64261">
        <ele>152.69</ele>
        <time>2019-11-17T09:35:23.000Z</time>
      </trkpt>
      <trkpt lat="46.53986" lon="0.64247">
        <ele>153.53</ele>
        <time>2019-11-17T09:35:25.000Z</time>
      </trkpt>
      <trkpt lat="46.53983" lon="0.6423">
        <ele>154.22</ele>
        <time>2019-11-17T09:35:27.000Z</time>
      </trkpt>
      <trkpt lat="46.53979" lon="0.64215">
        <ele>154.8</ele>
        <time>2019-11-17T09:35:29.000Z</time>
      </trkpt>
      <trkpt lat="46.53975" lon="0.64199">
        <ele>155.22</ele>
        <time>2019-11-17T09:35:31.000Z</time>
      </trkpt>
      <trkpt lat="46.53971" lon="0.64183">
        <ele>155.45</ele>
        <time>2019-11-17T09:35:33.000Z</time>
      </trkpt>
      <trkpt lat="46.53967" lon="0.64167">
        <ele>155.93</ele>
        <time>2019-11-17T09:35:35.000Z</time>
      </trkpt>
      <trkpt lat="46.53963" lon="0.6415">
        <ele>156.16</ele>
        <time>2019-11-17T09:35:37.000Z</time>
      </trkpt>
      <trkpt lat="46.53959" lon="0.64137">
        <ele>156.4</ele>
        <time>2019-11-17T09:35:39.000Z</time>
      </trkpt>
      <trkpt lat="46.53954" lon="0.64118">
        <ele>156.35</ele>
        <time>2019-11-17T09:35:42.000Z</time>
      </trkpt>
      <trkpt lat="46.53952" lon="0.64104">
        <ele>156.45</ele>
        <time>2019-11-17T09:35:44.000Z</time>
      </trkpt>
      <trkpt lat="46.53952" lon="0.64087">
        <ele>156.72</ele>
        <time>2019-11-17T09:35:47.000Z</time>
      </trkpt>
      <trkpt lat="46.53962" lon="0.64077">
        <ele>156.38</ele>
        <time>2019-11-17T09:35:49.000Z</time>
      </trkpt>
      <trkpt lat="46.53973" lon="0.64071">
        <ele>155.73</ele>
        <time>2019-11-17T09:35:51.000Z</time>
      </trkpt>
      <trkpt lat="46.53985" lon="0.64065">
        <ele>155.13</ele>
        <time>2019-11-17T09:35:53.000Z</time>
      </trkpt>
      <trkpt lat="46.53996" lon="0.64061">
        <ele>154.23</ele>
        <time>2019-11-17T09:35:55.000Z</time>
      </trkpt>
      <trkpt lat="46.54004" lon="0.64048">
        <ele>152.51</ele>
        <time>2019-11-17T09:35:58.000Z</time>
      </trkpt>
      <trkpt lat="46.54007" lon="0.64034">
        <ele>152.7</ele>
        <time>2019-11-17T09:36:00.000Z</time>
      </trkpt>
      <trkpt lat="46.54011" lon="0.64019">
        <ele>152.63</ele>
        <time>2019-11-17T09:36:02.000Z</time>
      </trkpt>
      <trkpt lat="46.54019" lon="0.64008">
        <ele>152.83</ele>
        <time>2019-11-17T09:36:04.000Z</time>
      </trkpt>
      <trkpt lat="46.54032" lon="0.63997">
        <ele>153.37</ele>
        <time>2019-11-17T09:36:06.000Z</time>
      </trkpt>
      <trkpt lat="46.54045" lon="0.6399">
        <ele>153.84</ele>
        <time>2019-11-17T09:36:08.000Z</time>
      </trkpt>
      <trkpt lat="46.54056" lon="0.6399">
        <ele>153.54</ele>
        <time>2019-11-17T09:36:10.000Z</time>
      </trkpt>
      <trkpt lat="46.54068" lon="0.63994">
        <ele>153.29</ele>
        <time>2019-11-17T09:36:12.000Z</time>
      </trkpt>
      <trkpt lat="46.54082" lon="0.64002">
        <ele>152.96</ele>
        <time>2019-11-17T09:36:14.000Z</time>
      </trkpt>
      <trkpt lat="46.54095" lon="0.64005">
        <ele>153.39</ele>
        <time>2019-11-17T09:36:16.000Z</time>
      </trkpt>
      <trkpt lat="46.54105" lon="0.63998">
        <ele>153.53</ele>
        <time>2019-11-17T09:36:19.000Z</time>
      </trkpt>
      <trkpt lat="46.54117" lon="0.6399">
        <ele>153.78</ele>
        <time>2019-11-17T09:36:22.000Z</time>
      </trkpt>
      <trkpt lat="46.54125" lon="0.63982">
        <ele>154.94</ele>
        <time>2019-11-17T09:36:24.000Z</time>
      </trkpt>
      <trkpt lat="46.54135" lon="0.63973">
        <ele>156.16</ele>
        <time>2019-11-17T09:36:26.000Z</time>
      </trkpt>
      <trkpt lat="46.54145" lon="0.63964">
        <ele>157.21</ele>
        <time>2019-11-17T09:36:28.000Z</time>
      </trkpt>
      <trkpt lat="46.54155" lon="0.63958">
        <ele>157.66</ele>
        <time>2019-11-17T09:36:30.000Z</time>
      </trkpt>
      <trkpt lat="46.54163" lon="0.63951">
        <ele>157.44</ele>
        <time>2019-11-17T09:36:32.000Z</time>
      </trkpt>
      <trkpt lat="46.54171" lon="0.63941">
        <ele>156.75</ele>
        <time>2019-11-17T09:36:34.000Z</time>
      </trkpt>
      <trkpt lat="46.54178" lon="0.6393">
        <ele>155.9</ele>
        <time>2019-11-17T09:36:36.000Z</time>
      </trkpt>
      <trkpt lat="46.54186" lon="0.63917">
        <ele>155.77</ele>
        <time>2019-11-17T09:36:39.000Z</time>
      </trkpt>
      <trkpt lat="46.54196" lon="0.63904">
        <ele>155.57</ele>
        <time>2019-11-17T09:36:42.000Z</time>
      </trkpt>
      <trkpt lat="46.54201" lon="0.63894">
        <ele>154.35</ele>
        <time>2019-11-17T09:36:44.000Z</time>
      </trkpt>
      <trkpt lat="46.54208" lon="0.63881">
        <ele>153.39</ele>
        <time>2019-11-17T09:36:46.000Z</time>
      </trkpt>
      <trkpt lat="46.54216" lon="0.63868">
        <ele>151.96</ele>
        <time>2019-11-17T09:36:48.000Z</time>
      </trkpt>
      <trkpt lat="46.54225" lon="0.63859">
        <ele>149.75</ele>
        <time>2019-11-17T09:36:50.000Z</time>
      </trkpt>
      <trkpt lat="46.54233" lon="0.63852">
        <ele>148.42</ele>
        <time>2019-11-17T09:36:52.000Z</time>
      </trkpt>
      <trkpt lat="46.5424" lon="0.63843">
        <ele>147.01</ele>
        <time>2019-11-17T09:36:54.000Z</time>
      </trkpt>
      <trkpt lat="46.54251" lon="0.63834">
        <ele>146.06</ele>
        <time>2019-11-17T09:36:57.000Z</time>
      </trkpt>
      <trkpt lat="46.54259" lon="0.63826">
        <ele>145.96</ele>
        <time>2019-11-17T09:36:59.000Z</time>
      </trkpt>
      <trkpt lat="46.54266" lon="0.63816">
        <ele>145.79</ele>
        <time>2019-11-17T09:37:01.000Z</time>
      </trkpt>
      <trkpt lat="46.54274" lon="0.63807">
        <ele>145.36</ele>
        <time>2019-11-17T09:37:03.000Z</time>
      </trkpt>
      <trkpt lat="46.54284" lon="0.63794">
        <ele>145.12</ele>
        <time>2019-11-17T09:37:06.000Z</time>
      </trkpt>
      <trkpt lat="46.54296" lon="0.63785">
        <ele>146.21</ele>
        <time>2019-11-17T09:37:09.000Z</time>
      </trkpt>
      <trkpt lat="46.54303" lon="0.63777">
        <ele>146.9</ele>
        <time>2019-11-17T09:37:11.000Z</time>
      </trkpt>
      <trkpt lat="46.5431" lon="0.63768">
        <ele>147.26</ele>
        <time>2019-11-17T09:37:13.000Z</time>
      </trkpt>
      <trkpt lat="46.54317" lon="0.63758">
        <ele>147.47</ele>
        <time>2019-11-17T09:37:15.000Z</time>
      </trkpt>
      <trkpt lat="46.54324" lon="0.63751">
        <ele>147.81</ele>
        <time>2019-11-17T09:37:17.000Z</time>
      </trkpt>
      <trkpt lat="46.54336" lon="0.63741">
        <ele>148.76</ele>
        <time>2019-11-17T09:37:20.000Z</time>
      </trkpt>
      <trkpt lat="46.54346" lon="0.63736">
        <ele>148.66</ele>
        <time>2019-11-17T09:37:22.000Z</time>
      </trkpt>
      <trkpt lat="46.54353" lon="0.63727">
        <ele>147.92</ele>
        <time>2019-11-17T09:37:24.000Z</time>
      </trkpt>
      <trkpt lat="46.54361" lon="0.6372">
        <ele>147.17</ele>
        <time>2019-11-17T09:37:26.000Z</time>
      </trkpt>
      <trkpt lat="46.54372" lon="0.63709">
        <ele>146.79</ele>
        <time>2019-11-17T09:37:29.000Z</time>
      </trkpt>
      <trkpt lat="46.54382" lon="0.63702">
        <ele>147.01</ele>
        <time>2019-11-17T09:37:31.000Z</time>
      </trkpt>
      <trkpt lat="46.54391" lon="0.63697">
        <ele>146.75</ele>
        <time>2019-11-17T09:37:33.000Z</time>
      </trkpt>
      <trkpt lat="46.544" lon="0.63695">
        <ele>146.52</ele>
        <time>2019-11-17T09:37:35.000Z</time>
      </trkpt>
      <trkpt lat="46.5441" lon="0.63695">
        <ele>146.25</ele>
        <time>2019-11-17T09:37:37.000Z</time>
      </trkpt>
      <trkpt lat="46.5442" lon="0.63697">
        <ele>145.69</ele>
        <time>2019-11-17T09:37:39.000Z</time>
      </trkpt>
      <trkpt lat="46.54429" lon="0.63696">
        <ele>145.28</ele>
        <time>2019-11-17T09:37:41.000Z</time>
      </trkpt>
      <trkpt lat="46.5444" lon="0.6369">
        <ele>145.44</ele>
        <time>2019-11-17T09:37:43.000Z</time>
      </trkpt>
      <trkpt lat="46.54453" lon="0.63685">
        <ele>146.33</ele>
        <time>2019-11-17T09:37:46.000Z</time>
      </trkpt>
      <trkpt lat="46.54462" lon="0.63681">
        <ele>147.08</ele>
        <time>2019-11-17T09:37:48.000Z</time>
      </trkpt>
      <trkpt lat="46.54474" lon="0.63679">
        <ele>147.58</ele>
        <time>2019-11-17T09:37:50.000Z</time>
      </trkpt>
      <trkpt lat="46.54487" lon="0.63684">
        <ele>147.96</ele>
        <time>2019-11-17T09:37:52.000Z</time>
      </trkpt>
      <trkpt lat="46.54499" lon="0.63686">
        <ele>149.05</ele>
        <time>2019-11-17T09:37:54.000Z</time>
      </trkpt>
      <trkpt lat="46.54508" lon="0.63686">
        <ele>149.67</ele>
        <time>2019-11-17T09:37:56.000Z</time>
      </trkpt>
      <trkpt lat="46.54518" lon="0.63687">
        <ele>149.76</ele>
        <time>2019-11-17T09:37:58.000Z</time>
      </trkpt>
      <trkpt lat="46.54528" lon="0.63687">
        <ele>150.55</ele>
        <time>2019-11-17T09:38:00.000Z</time>
      </trkpt>
      <trkpt lat="46.54538" lon="0.63688">
        <ele>151</ele>
        <time>2019-11-17T09:38:02.000Z</time>
      </trkpt>
      <trkpt lat="46.54548" lon="0.63684">
        <ele>152.15</ele>
        <time>2019-11-17T09:38:04.000Z</time>
      </trkpt>
      <trkpt lat="46.54556" lon="0.63677">
        <ele>153.54</ele>
        <time>2019-11-17T09:38:06.000Z</time>
      </trkpt>
      <trkpt lat="46.54564" lon="0.6367">
        <ele>153.8</ele>
        <time>2019-11-17T09:38:08.000Z</time>
      </trkpt>
      <trkpt lat="46.54576" lon="0.63658">
        <ele>156.08</ele>
        <time>2019-11-17T09:38:11.000Z</time>
      </trkpt>
      <trkpt lat="46.54588" lon="0.63653">
        <ele>160.1</ele>
        <time>2019-11-17T09:38:13.000Z</time>
      </trkpt>
      <trkpt lat="46.546" lon="0.63648">
        <ele>162.51</ele>
        <time>2019-11-17T09:38:15.000Z</time>
      </trkpt>
      <trkpt lat="46.5461" lon="0.63643">
        <ele>164.13</ele>
        <time>2019-11-17T09:38:17.000Z</time>
      </trkpt>
      <trkpt lat="46.54619" lon="0.63637">
        <ele>165.34</ele>
        <time>2019-11-17T09:38:19.000Z</time>
      </trkpt>
      <trkpt lat="46.5463" lon="0.63631">
        <ele>165.64</ele>
        <time>2019-11-17T09:38:21.000Z</time>
      </trkpt>
      <trkpt lat="46.5464" lon="0.63628">
        <ele>165.66</ele>
        <time>2019-11-17T09:38:23.000Z</time>
      </trkpt>
      <trkpt lat="46.54653" lon="0.63622">
        <ele>165.4</ele>
        <time>2019-11-17T09:38:26.000Z</time>
      </trkpt>
      <trkpt lat="46.54662" lon="0.63617">
        <ele>165.17</ele>
        <time>2019-11-17T09:38:28.000Z</time>
      </trkpt>
      <trkpt lat="46.54671" lon="0.63611">
        <ele>164.81</ele>
        <time>2019-11-17T09:38:30.000Z</time>
      </trkpt>
      <trkpt lat="46.54681" lon="0.63606">
        <ele>164.15</ele>
        <time>2019-11-17T09:38:32.000Z</time>
      </trkpt>
      <trkpt lat="46.54692" lon="0.636">
        <ele>163.3</ele>
        <time>2019-11-17T09:38:34.000Z</time>
      </trkpt>
      <trkpt lat="46.54703" lon="0.63596">
        <ele>162.51</ele>
        <time>2019-11-17T09:38:36.000Z</time>
      </trkpt>
      <trkpt lat="46.54713" lon="0.6359">
        <ele>161.42</ele>
        <time>2019-11-17T09:38:38.000Z</time>
      </trkpt>
      <trkpt lat="46.54725" lon="0.63588">
        <ele>160.86</ele>
        <time>2019-11-17T09:38:40.000Z</time>
      </trkpt>
      <trkpt lat="46.54737" lon="0.63585">
        <ele>160.53</ele>
        <time>2019-11-17T09:38:42.000Z</time>
      </trkpt>
      <trkpt lat="46.5475" lon="0.63584">
        <ele>159.96</ele>
        <time>2019-11-17T09:38:44.000Z</time>
      </trkpt>
      <trkpt lat="46.54763" lon="0.63584">
        <ele>159.37</ele>
        <time>2019-11-17T09:38:46.000Z</time>
      </trkpt>
      <trkpt lat="46.54775" lon="0.63585">
        <ele>157.85</ele>
        <time>2019-11-17T09:38:48.000Z</time>
      </trkpt>
      <trkpt lat="46.54785" lon="0.63585">
        <ele>156.14</ele>
        <time>2019-11-17T09:38:50.000Z</time>
      </trkpt>
      <trkpt lat="46.54798" lon="0.63581">
        <ele>153.84</ele>
        <time>2019-11-17T09:38:52.000Z</time>
      </trkpt>
      <trkpt lat="46.5481" lon="0.63577">
        <ele>152.3</ele>
        <time>2019-11-17T09:38:54.000Z</time>
      </trkpt>
      <trkpt lat="46.54824" lon="0.63574">
        <ele>150.74</ele>
        <time>2019-11-17T09:38:56.000Z</time>
      </trkpt>
      <trkpt lat="46.54837" lon="0.63571">
        <ele>149.5</ele>
        <time>2019-11-17T09:38:58.000Z</time>
      </trkpt>
      <trkpt lat="46.5485" lon="0.63567">
        <ele>148.24</ele>
        <time>2019-11-17T09:39:00.000Z</time>
      </trkpt>
      <trkpt lat="46.54864" lon="0.63563">
        <ele>147.28</ele>
        <time>2019-11-17T09:39:02.000Z</time>
      </trkpt>
      <trkpt lat="46.54877" lon="0.6356">
        <ele>145.48</ele>
        <time>2019-11-17T09:39:04.000Z</time>
      </trkpt>
      <trkpt lat="46.5489" lon="0.63557">
        <ele>143.86</ele>
        <time>2019-11-17T09:39:06.000Z</time>
      </trkpt>
      <trkpt lat="46.54905" lon="0.6355">
        <ele>141.78</ele>
        <time>2019-11-17T09:39:08.000Z</time>
      </trkpt>
      <trkpt lat="46.54918" lon="0.63543">
        <ele>140.45</ele>
        <time>2019-11-17T09:39:10.000Z</time>
      </trkpt>
      <trkpt lat="46.5493" lon="0.63542">
        <ele>140.19</ele>
        <time>2019-11-17T09:39:12.000Z</time>
      </trkpt>
      <trkpt lat="46.54943" lon="0.63544">
        <ele>140.35</ele>
        <time>2019-11-17T09:39:14.000Z</time>
      </trkpt>
      <trkpt lat="46.54956" lon="0.63548">
        <ele>140.15</ele>
        <time>2019-11-17T09:39:16.000Z</time>
      </trkpt>
      <trkpt lat="46.5497" lon="0.63551">
        <ele>140.36</ele>
        <time>2019-11-17T09:39:18.000Z</time>
      </trkpt>
      <trkpt lat="46.54983" lon="0.63553">
        <ele>140.88</ele>
        <time>2019-11-17T09:39:20.000Z</time>
      </trkpt>
      <trkpt lat="46.54999" lon="0.63555">
        <ele>140.95</ele>
        <time>2019-11-17T09:39:22.000Z</time>
      </trkpt>
      <trkpt lat="46.55014" lon="0.63558">
        <ele>140.75</ele>
        <time>2019-11-17T09:39:24.000Z</time>
      </trkpt>
      <trkpt lat="46.55026" lon="0.63559">
        <ele>140.25</ele>
        <time>2019-11-17T09:39:26.000Z</time>
      </trkpt>
      <trkpt lat="46.55036" lon="0.6356">
        <ele>139.76</ele>
        <time>2019-11-17T09:39:28.000Z</time>
      </trkpt>
      <trkpt lat="46.5505" lon="0.63561">
        <ele>138.49</ele>
        <time>2019-11-17T09:39:31.000Z</time>
      </trkpt>
      <trkpt lat="46.55063" lon="0.63562">
        <ele>138.22</ele>
        <time>2019-11-17T09:39:34.000Z</time>
      </trkpt>
      <trkpt lat="46.55073" lon="0.63563">
        <ele>137.61</ele>
        <time>2019-11-17T09:39:36.000Z</time>
      </trkpt>
      <trkpt lat="46.55085" lon="0.63566">
        <ele>136.87</ele>
        <time>2019-11-17T09:39:38.000Z</time>
      </trkpt>
      <trkpt lat="46.55099" lon="0.63573">
        <ele>136.47</ele>
        <time>2019-11-17T09:39:40.000Z</time>
      </trkpt>
      <trkpt lat="46.55112" lon="0.63581">
        <ele>136.31</ele>
        <time>2019-11-17T09:39:42.000Z</time>
      </trkpt>
      <trkpt lat="46.55127" lon="0.63589">
        <ele>136.23</ele>
        <time>2019-11-17T09:39:44.000Z</time>
      </trkpt>
      <trkpt lat="46.5514" lon="0.63597">
        <ele>136.28</ele>
        <time>2019-11-17T09:39:46.000Z</time>
      </trkpt>
      <trkpt lat="46.55152" lon="0.63604">
        <ele>136.72</ele>
        <time>2019-11-17T09:39:48.000Z</time>
      </trkpt>
      <trkpt lat="46.55162" lon="0.63608">
        <ele>136.83</ele>
        <time>2019-11-17T09:39:53.000Z</time>
      </trkpt>
      <trkpt lat="46.55171" lon="0.63605">
        <ele>137.26</ele>
        <time>2019-11-17T09:40:00.000Z</time>
      </trkpt>
      <trkpt lat="46.55178" lon="0.63614">
        <ele>137.6</ele>
        <time>2019-11-17T09:40:03.000Z</time>
      </trkpt>
      <trkpt lat="46.55187" lon="0.63621">
        <ele>138.04</ele>
        <time>2019-11-17T09:40:06.000Z</time>
      </trkpt>
      <trkpt lat="46.55198" lon="0.6363">
        <ele>140.29</ele>
        <time>2019-11-17T09:40:09.000Z</time>
      </trkpt>
      <trkpt lat="46.55207" lon="0.63639">
        <ele>143.8</ele>
        <time>2019-11-17T09:40:11.000Z</time>
      </trkpt>
      <trkpt lat="46.55215" lon="0.63646">
        <ele>146.66</ele>
        <time>2019-11-17T09:40:13.000Z</time>
      </trkpt>
      <trkpt lat="46.55223" lon="0.63659">
        <ele>147.23</ele>
        <time>2019-11-17T09:40:16.000Z</time>
      </trkpt>
      <trkpt lat="46.5523" lon="0.63673">
        <ele>147.65</ele>
        <time>2019-11-17T09:40:18.000Z</time>
      </trkpt>
      <trkpt lat="46.55234" lon="0.63687">
        <ele>148.39</ele>
        <time>2019-11-17T09:40:22.000Z</time>
      </trkpt>
      <trkpt lat="46.55233" lon="0.63701">
        <ele>149.11</ele>
        <time>2019-11-17T09:40:26.000Z</time>
      </trkpt>
      <trkpt lat="46.55237" lon="0.63714">
        <ele>149.86</ele>
        <time>2019-11-17T09:40:30.000Z</time>
      </trkpt>
      <trkpt lat="46.55246" lon="0.63728">
        <ele>152.04</ele>
        <time>2019-11-17T09:40:34.000Z</time>
      </trkpt>
      <trkpt lat="46.55253" lon="0.63737">
        <ele>154.48</ele>
        <time>2019-11-17T09:40:36.000Z</time>
      </trkpt>
      <trkpt lat="46.55262" lon="0.63747">
        <ele>157.58</ele>
        <time>2019-11-17T09:40:38.000Z</time>
      </trkpt>
      <trkpt lat="46.55269" lon="0.63758">
        <ele>159.29</ele>
        <time>2019-11-17T09:40:39.000Z</time>
      </trkpt>
      <trkpt lat="46.5528" lon="0.63772">
        <ele>161.5</ele>
        <time>2019-11-17T09:40:41.000Z</time>
      </trkpt>
      <trkpt lat="46.55293" lon="0.63781">
        <ele>161.91</ele>
        <time>2019-11-17T09:40:43.000Z</time>
      </trkpt>
      <trkpt lat="46.55307" lon="0.63791">
        <ele>162.21</ele>
        <time>2019-11-17T09:40:45.000Z</time>
      </trkpt>
      <trkpt lat="46.55318" lon="0.63796">
        <ele>162.96</ele>
        <time>2019-11-17T09:40:47.000Z</time>
      </trkpt>
      <trkpt lat="46.55328" lon="0.63803">
        <ele>163.83</ele>
        <time>2019-11-17T09:40:49.000Z</time>
      </trkpt>
      <trkpt lat="46.55339" lon="0.63811">
        <ele>163.98</ele>
        <time>2019-11-17T09:40:52.000Z</time>
      </trkpt>
      <trkpt lat="46.55348" lon="0.63819">
        <ele>163.71</ele>
        <time>2019-11-17T09:40:56.000Z</time>
      </trkpt>
      <trkpt lat="46.55353" lon="0.63805">
        <ele>162.75</ele>
        <time>2019-11-17T09:40:59.000Z</time>
      </trkpt>
      <trkpt lat="46.55355" lon="0.63786">
        <ele>161.99</ele>
        <time>2019-11-17T09:41:01.000Z</time>
      </trkpt>
      <trkpt lat="46.55359" lon="0.63761">
        <ele>161.28</ele>
        <time>2019-11-17T09:41:03.000Z</time>
      </trkpt>
      <trkpt lat="46.55361" lon="0.63748">
        <ele>160.76</ele>
        <time>2019-11-17T09:41:04.000Z</time>
      </trkpt>
      <trkpt lat="46.55364" lon="0.63733">
        <ele>160.67</ele>
        <time>2019-11-17T09:41:05.000Z</time>
      </trkpt>
      <trkpt lat="46.55369" lon="0.63719">
        <ele>160.5</ele>
        <time>2019-11-17T09:41:06.000Z</time>
      </trkpt>
      <trkpt lat="46.55375" lon="0.63706">
        <ele>160.23</ele>
        <time>2019-11-17T09:41:07.000Z</time>
      </trkpt>
      <trkpt lat="46.55381" lon="0.63694">
        <ele>159.83</ele>
        <time>2019-11-17T09:41:08.000Z</time>
      </trkpt>
      <trkpt lat="46.55388" lon="0.63686">
        <ele>159.43</ele>
        <time>2019-11-17T09:41:09.000Z</time>
      </trkpt>
      <trkpt lat="46.55399" lon="0.63674">
        <ele>158.52</ele>
        <time>2019-11-17T09:41:11.000Z</time>
      </trkpt>
      <trkpt lat="46.55405" lon="0.63664">
        <ele>157.09</ele>
        <time>2019-11-17T09:41:13.000Z</time>
      </trkpt>
      <trkpt lat="46.55406" lon="0.63643">
        <ele>153.28</ele>
        <time>2019-11-17T09:41:16.000Z</time>
      </trkpt>
      <trkpt lat="46.55403" lon="0.63625">
        <ele>150.69</ele>
        <time>2019-11-17T09:41:18.000Z</time>
      </trkpt>
      <trkpt lat="46.55404" lon="0.63604">
        <ele>148.17</ele>
        <time>2019-11-17T09:41:20.000Z</time>
      </trkpt>
      <trkpt lat="46.55408" lon="0.63583">
        <ele>145.99</ele>
        <time>2019-11-17T09:41:22.000Z</time>
      </trkpt>
      <trkpt lat="46.55414" lon="0.63564">
        <ele>144.01</ele>
        <time>2019-11-17T09:41:24.000Z</time>
      </trkpt>
      <trkpt lat="46.55422" lon="0.63549">
        <ele>141.85</ele>
        <time>2019-11-17T09:41:26.000Z</time>
      </trkpt>
      <trkpt lat="46.55434" lon="0.63538">
        <ele>139.8</ele>
        <time>2019-11-17T09:41:28.000Z</time>
      </trkpt>
      <trkpt lat="46.55448" lon="0.63532">
        <ele>138.29</ele>
        <time>2019-11-17T09:41:30.000Z</time>
      </trkpt>
      <trkpt lat="46.55461" lon="0.63527">
        <ele>136.82</ele>
        <time>2019-11-17T09:41:32.000Z</time>
      </trkpt>
      <trkpt lat="46.55474" lon="0.6353">
        <ele>135.21</ele>
        <time>2019-11-17T09:41:34.000Z</time>
      </trkpt>
      <trkpt lat="46.55487" lon="0.63538">
        <ele>133.76</ele>
        <time>2019-11-17T09:41:36.000Z</time>
      </trkpt>
      <trkpt lat="46.55498" lon="0.63543">
        <ele>132.26</ele>
        <time>2019-11-17T09:41:38.000Z</time>
      </trkpt>
      <trkpt lat="46.55509" lon="0.63551">
        <ele>130.67</ele>
        <time>2019-11-17T09:41:40.000Z</time>
      </trkpt>
      <trkpt lat="46.55521" lon="0.63559">
        <ele>129.25</ele>
        <time>2019-11-17T09:41:42.000Z</time>
      </trkpt>
      <trkpt lat="46.55532" lon="0.63566">
        <ele>127.77</ele>
        <time>2019-11-17T09:41:44.000Z</time>
      </trkpt>
      <trkpt lat="46.55543" lon="0.63573">
        <ele>126.53</ele>
        <time>2019-11-17T09:41:46.000Z</time>
      </trkpt>
      <trkpt lat="46.55554" lon="0.6358">
        <ele>125.09</ele>
        <time>2019-11-17T09:41:48.000Z</time>
      </trkpt>
      <trkpt lat="46.55565" lon="0.63586">
        <ele>123.77</ele>
        <time>2019-11-17T09:41:50.000Z</time>
      </trkpt>
      <trkpt lat="46.55576" lon="0.63592">
        <ele>122.89</ele>
        <time>2019-11-17T09:41:52.000Z</time>
      </trkpt>
      <trkpt lat="46.55587" lon="0.63599">
        <ele>122.07</ele>
        <time>2019-11-17T09:41:54.000Z</time>
      </trkpt>
      <trkpt lat="46.55597" lon="0.63607">
        <ele>121.64</ele>
        <time>2019-11-17T09:41:56.000Z</time>
      </trkpt>
      <trkpt lat="46.55608" lon="0.63614">
        <ele>121.41</ele>
        <time>2019-11-17T09:41:58.000Z</time>
      </trkpt>
      <trkpt lat="46.55618" lon="0.63622">
        <ele>121.16</ele>
        <time>2019-11-17T09:42:00.000Z</time>
      </trkpt>
      <trkpt lat="46.55629" lon="0.63629">
        <ele>120.7</ele>
        <time>2019-11-17T09:42:02.000Z</time>
      </trkpt>
      <trkpt lat="46.55638" lon="0.63636">
        <ele>120.31</ele>
        <time>2019-11-17T09:42:04.000Z</time>
      </trkpt>
      <trkpt lat="46.55648" lon="0.63643">
        <ele>120.25</ele>
        <time>2019-11-17T09:42:06.000Z</time>
      </trkpt>
      <trkpt lat="46.55659" lon="0.63649">
        <ele>120.03</ele>
        <time>2019-11-17T09:42:08.000Z</time>
      </trkpt>
      <trkpt lat="46.55669" lon="0.63656">
        <ele>119.86</ele>
        <time>2019-11-17T09:42:10.000Z</time>
      </trkpt>
      <trkpt lat="46.55679" lon="0.63663">
        <ele>120.16</ele>
        <time>2019-11-17T09:42:12.000Z</time>
      </trkpt>
      <trkpt lat="46.55689" lon="0.63669">
        <ele>120.51</ele>
        <time>2019-11-17T09:42:14.000Z</time>
      </trkpt>
      <trkpt lat="46.55699" lon="0.63674">
        <ele>120.97</ele>
        <time>2019-11-17T09:42:16.000Z</time>
      </trkpt>
      <trkpt lat="46.55709" lon="0.63679">
        <ele>120.9</ele>
        <time>2019-11-17T09:42:18.000Z</time>
      </trkpt>
      <trkpt lat="46.55719" lon="0.63685">
        <ele>120.6</ele>
        <time>2019-11-17T09:42:20.000Z</time>
      </trkpt>
      <trkpt lat="46.55731" lon="0.63691">
        <ele>119.85</ele>
        <time>2019-11-17T09:42:22.000Z</time>
      </trkpt>
      <trkpt lat="46.55743" lon="0.63698">
        <ele>119.24</ele>
        <time>2019-11-17T09:42:24.000Z</time>
      </trkpt>
      <trkpt lat="46.55753" lon="0.63705">
        <ele>118.22</ele>
        <time>2019-11-17T09:42:26.000Z</time>
      </trkpt>
      <trkpt lat="46.55762" lon="0.63712">
        <ele>117.2</ele>
        <time>2019-11-17T09:42:28.000Z</time>
      </trkpt>
      <trkpt lat="46.55771" lon="0.63719">
        <ele>116.77</ele>
        <time>2019-11-17T09:42:30.000Z</time>
      </trkpt>
      <trkpt lat="46.5578" lon="0.63725">
        <ele>115.98</ele>
        <time>2019-11-17T09:42:32.000Z</time>
      </trkpt>
      <trkpt lat="46.55788" lon="0.63731">
        <ele>115.53</ele>
        <time>2019-11-17T09:42:34.000Z</time>
      </trkpt>
      <trkpt lat="46.55798" lon="0.6374">
        <ele>114.36</ele>
        <time>2019-11-17T09:42:37.000Z</time>
      </trkpt>
      <trkpt lat="46.55805" lon="0.63751">
        <ele>114.34</ele>
        <time>2019-11-17T09:42:39.000Z</time>
      </trkpt>
      <trkpt lat="46.55817" lon="0.63756">
        <ele>114.88</ele>
        <time>2019-11-17T09:42:42.000Z</time>
      </trkpt>
      <trkpt lat="46.55823" lon="0.63766">
        <ele>114.88</ele>
        <time>2019-11-17T09:42:46.000Z</time>
      </trkpt>
      <trkpt lat="46.55834" lon="0.63777">
        <ele>115.47</ele>
        <time>2019-11-17T09:42:48.000Z</time>
      </trkpt>
      <trkpt lat="46.55842" lon="0.63797">
        <ele>118.86</ele>
        <time>2019-11-17T09:42:50.000Z</time>
      </trkpt>
      <trkpt lat="46.55852" lon="0.63808">
        <ele>122.22</ele>
        <time>2019-11-17T09:42:52.000Z</time>
      </trkpt>
      <trkpt lat="46.55863" lon="0.63817">
        <ele>124.9</ele>
        <time>2019-11-17T09:42:55.000Z</time>
      </trkpt>
      <trkpt lat="46.55876" lon="0.6382">
        <ele>128.31</ele>
        <time>2019-11-17T09:42:58.000Z</time>
      </trkpt>
      <trkpt lat="46.55885" lon="0.63813">
        <ele>128.44</ele>
        <time>2019-11-17T09:43:00.000Z</time>
      </trkpt>
      <trkpt lat="46.55891" lon="0.63794">
        <ele>129.28</ele>
        <time>2019-11-17T09:43:02.000Z</time>
      </trkpt>
      <trkpt lat="46.55896" lon="0.63778">
        <ele>130.79</ele>
        <time>2019-11-17T09:43:04.000Z</time>
      </trkpt>
      <trkpt lat="46.559" lon="0.63762">
        <ele>129.95</ele>
        <time>2019-11-17T09:43:06.000Z</time>
      </trkpt>
      <trkpt lat="46.55904" lon="0.63746">
        <ele>129.79</ele>
        <time>2019-11-17T09:43:08.000Z</time>
      </trkpt>
      <trkpt lat="46.55908" lon="0.63733">
        <ele>130.68</ele>
        <time>2019-11-17T09:43:10.000Z</time>
      </trkpt>
      <trkpt lat="46.55915" lon="0.63721">
        <ele>128.34</ele>
        <time>2019-11-17T09:43:13.000Z</time>
      </trkpt>
      <trkpt lat="46.55925" lon="0.63717">
        <ele>126.41</ele>
        <time>2019-11-17T09:43:15.000Z</time>
      </trkpt>
      <trkpt lat="46.55935" lon="0.63721">
        <ele>125.53</ele>
        <time>2019-11-17T09:43:17.000Z</time>
      </trkpt>
      <trkpt lat="46.55945" lon="0.63732">
        <ele>124.65</ele>
        <time>2019-11-17T09:43:21.000Z</time>
      </trkpt>
      <trkpt lat="46.55952" lon="0.6375">
        <ele>124.4</ele>
        <time>2019-11-17T09:43:23.000Z</time>
      </trkpt>
      <trkpt lat="46.55961" lon="0.63758">
        <ele>124.38</ele>
        <time>2019-11-17T09:43:25.000Z</time>
      </trkpt>
      <trkpt lat="46.55972" lon="0.63766">
        <ele>124.76</ele>
        <time>2019-11-17T09:43:28.000Z</time>
      </trkpt>
      <trkpt lat="46.55982" lon="0.63774">
        <ele>125.52</ele>
        <time>2019-11-17T09:43:31.000Z</time>
      </trkpt>
      <trkpt lat="46.55989" lon="0.63783">
        <ele>126.05</ele>
        <time>2019-11-17T09:43:33.000Z</time>
      </trkpt>
      <trkpt lat="46.55999" lon="0.63787">
        <ele>127.32</ele>
        <time>2019-11-17T09:43:37.000Z</time>
      </trkpt>
      <trkpt lat="46.56006" lon="0.63795">
        <ele>127.98</ele>
        <time>2019-11-17T09:43:41.000Z</time>
      </trkpt>
      <trkpt lat="46.56011" lon="0.63808">
        <ele>128.28</ele>
        <time>2019-11-17T09:43:44.000Z</time>
      </trkpt>
      <trkpt lat="46.56016" lon="0.6382">
        <ele>128.41</ele>
        <time>2019-11-17T09:43:47.000Z</time>
      </trkpt>
      <trkpt lat="46.56021" lon="0.63834">
        <ele>128.53</ele>
        <time>2019-11-17T09:43:52.000Z</time>
      </trkpt>
      <trkpt lat="46.56027" lon="0.63849">
        <ele>128.67</ele>
        <time>2019-11-17T09:43:56.000Z</time>
      </trkpt>
      <trkpt lat="46.56037" lon="0.63858">
        <ele>129.11</ele>
        <time>2019-11-17T09:44:02.000Z</time>
      </trkpt>
      <trkpt lat="46.56048" lon="0.63857">
        <ele>129.52</ele>
        <time>2019-11-17T09:44:06.000Z</time>
      </trkpt>
      <trkpt lat="46.5606" lon="0.63858">
        <ele>129.75</ele>
        <time>2019-11-17T09:44:10.000Z</time>
      </trkpt>
      <trkpt lat="46.56073" lon="0.63862">
        <ele>129.85</ele>
        <time>2019-11-17T09:44:13.000Z</time>
      </trkpt>
      <trkpt lat="46.56083" lon="0.63865">
        <ele>130.1</ele>
        <time>2019-11-17T09:44:16.000Z</time>
      </trkpt>
      <trkpt lat="46.56093" lon="0.63867">
        <ele>130.35</ele>
        <time>2019-11-17T09:44:18.000Z</time>
      </trkpt>
      <trkpt lat="46.56106" lon="0.63871">
        <ele>130.82</ele>
        <time>2019-11-17T09:44:21.000Z</time>
      </trkpt>
      <trkpt lat="46.56111" lon="0.63882">
        <ele>131.18</ele>
        <time>2019-11-17T09:44:23.000Z</time>
      </trkpt>
      <trkpt lat="46.56122" lon="0.63885">
        <ele>131.78</ele>
        <time>2019-11-17T09:44:26.000Z</time>
      </trkpt>
      <trkpt lat="46.56134" lon="0.63893">
        <ele>132.36</ele>
        <time>2019-11-17T09:44:29.000Z</time>
      </trkpt>
      <trkpt lat="46.56143" lon="0.63902">
        <ele>132.94</ele>
        <time>2019-11-17T09:44:32.000Z</time>
      </trkpt>
      <trkpt lat="46.56153" lon="0.63903">
        <ele>134.2</ele>
        <time>2019-11-17T09:44:37.000Z</time>
      </trkpt>
      <trkpt lat="46.56163" lon="0.6391">
        <ele>135.08</ele>
        <time>2019-11-17T09:44:40.000Z</time>
      </trkpt>
      <trkpt lat="46.56174" lon="0.63915">
        <ele>135.33</ele>
        <time>2019-11-17T09:44:41.000Z</time>
      </trkpt>
      <trkpt lat="46.56187" lon="0.6392">
        <ele>136.1</ele>
        <time>2019-11-17T09:44:44.000Z</time>
      </trkpt>
      <trkpt lat="46.56197" lon="0.63929">
        <ele>136.77</ele>
        <time>2019-11-17T09:44:47.000Z</time>
      </trkpt>
      <trkpt lat="46.56204" lon="0.63936">
        <ele>136.97</ele>
        <time>2019-11-17T09:44:48.000Z</time>
      </trkpt>
      <trkpt lat="46.56212" lon="0.63944">
        <ele>138.97</ele>
        <time>2019-11-17T09:44:49.000Z</time>
      </trkpt>
      <trkpt lat="46.5622" lon="0.63962">
        <ele>139.27</ele>
        <time>2019-11-17T09:44:51.000Z</time>
      </trkpt>
      <trkpt lat="46.56226" lon="0.63974">
        <ele>139.52</ele>
        <time>2019-11-17T09:44:53.000Z</time>
      </trkpt>
      <trkpt lat="46.56233" lon="0.63987">
        <ele>139.91</ele>
        <time>2019-11-17T09:44:56.000Z</time>
      </trkpt>
      <trkpt lat="46.56241" lon="0.63998">
        <ele>140.05</ele>
        <time>2019-11-17T09:44:59.000Z</time>
      </trkpt>
      <trkpt lat="46.56251" lon="0.64008">
        <ele>139.73</ele>
        <time>2019-11-17T09:45:02.000Z</time>
      </trkpt>
      <trkpt lat="46.56261" lon="0.64016">
        <ele>139.49</ele>
        <time>2019-11-17T09:45:05.000Z</time>
      </trkpt>
      <trkpt lat="46.56272" lon="0.64021">
        <ele>139.25</ele>
        <time>2019-11-17T09:45:09.000Z</time>
      </trkpt>
      <trkpt lat="46.56281" lon="0.64022">
        <ele>139.37</ele>
        <time>2019-11-17T09:45:13.000Z</time>
      </trkpt>
      <trkpt lat="46.56291" lon="0.64027">
        <ele>139.51</ele>
        <time>2019-11-17T09:45:19.000Z</time>
      </trkpt>
      <trkpt lat="46.563" lon="0.6403">
        <ele>139.3</ele>
        <time>2019-11-17T09:45:24.000Z</time>
      </trkpt>
      <trkpt lat="46.56309" lon="0.64036">
        <ele>138.4</ele>
        <time>2019-11-17T09:45:35.000Z</time>
      </trkpt>
      <trkpt lat="46.56317" lon="0.64045">
        <ele>136.15</ele>
        <time>2019-11-17T09:45:55.000Z</time>
      </trkpt>
      <trkpt lat="46.56322" lon="0.64058">
        <ele>134.29</ele>
        <time>2019-11-17T09:46:03.000Z</time>
      </trkpt>
      <trkpt lat="46.56329" lon="0.64066">
        <ele>130.87</ele>
        <time>2019-11-17T09:46:13.000Z</time>
      </trkpt>
      <trkpt lat="46.56338" lon="0.64061">
        <ele>129.42</ele>
        <time>2019-11-17T09:46:17.000Z</time>
      </trkpt>
      <trkpt lat="46.56347" lon="0.64053">
        <ele>128.04</ele>
        <time>2019-11-17T09:46:22.000Z</time>
      </trkpt>
      <trkpt lat="46.56357" lon="0.64052">
        <ele>127.11</ele>
        <time>2019-11-17T09:46:26.000Z</time>
      </trkpt>
      <trkpt lat="46.56365" lon="0.64058">
        <ele>126.25</ele>
        <time>2019-11-17T09:46:31.000Z</time>
      </trkpt>
      <trkpt lat="46.56376" lon="0.64061">
        <ele>125.55</ele>
        <time>2019-11-17T09:46:35.000Z</time>
      </trkpt>
      <trkpt lat="46.56385" lon="0.64066">
        <ele>124.78</ele>
        <time>2019-11-17T09:46:39.000Z</time>
      </trkpt>
      <trkpt lat="46.56387" lon="0.64079">
        <ele>123.9</ele>
        <time>2019-11-17T09:46:43.000Z</time>
      </trkpt>
      <trkpt lat="46.56385" lon="0.64094">
        <ele>123.6</ele>
        <time>2019-11-17T09:46:45.000Z</time>
      </trkpt>
      <trkpt lat="46.56384" lon="0.64109">
        <ele>123.39</ele>
        <time>2019-11-17T09:46:48.000Z</time>
      </trkpt>
      <trkpt lat="46.56383" lon="0.64125">
        <ele>123.37</ele>
        <time>2019-11-17T09:46:52.000Z</time>
      </trkpt>
      <trkpt lat="46.56382" lon="0.64143">
        <ele>123.58</ele>
        <time>2019-11-17T09:46:55.000Z</time>
      </trkpt>
      <trkpt lat="46.5638" lon="0.64161">
        <ele>123.87</ele>
        <time>2019-11-17T09:46:59.000Z</time>
      </trkpt>
      <trkpt lat="46.56378" lon="0.64175">
        <ele>124.06</ele>
        <time>2019-11-17T09:47:02.000Z</time>
      </trkpt>
      <trkpt lat="46.56378" lon="0.6419">
        <ele>124.24</ele>
        <time>2019-11-17T09:47:05.000Z</time>
      </trkpt>
      <trkpt lat="46.56376" lon="0.64206">
        <ele>124.32</ele>
        <time>2019-11-17T09:47:08.000Z</time>
      </trkpt>
      <trkpt lat="46.56377" lon="0.64221">
        <ele>124.3</ele>
        <time>2019-11-17T09:47:11.000Z</time>
      </trkpt>
      <trkpt lat="46.56372" lon="0.64239">
        <ele>124.21</ele>
        <time>2019-11-17T09:47:14.000Z</time>
      </trkpt>
      <trkpt lat="46.56367" lon="0.64255">
        <ele>123.82</ele>
        <time>2019-11-17T09:47:17.000Z</time>
      </trkpt>
      <trkpt lat="46.56365" lon="0.64271">
        <ele>123.17</ele>
        <time>2019-11-17T09:47:20.000Z</time>
      </trkpt>
      <trkpt lat="46.56362" lon="0.64287">
        <ele>122.6</ele>
        <time>2019-11-17T09:47:23.000Z</time>
      </trkpt>
      <trkpt lat="46.56358" lon="0.643">
        <ele>121.81</ele>
        <time>2019-11-17T09:47:34.000Z</time>
      </trkpt>
      <trkpt lat="46.56364" lon="0.64288">
        <ele>121.76</ele>
        <time>2019-11-17T09:47:50.000Z</time>
      </trkpt>
      <trkpt lat="46.56363" lon="0.64275">
        <ele>128.3</ele>
        <time>2019-11-17T09:48:19.000Z</time>
      </trkpt>
      <trkpt lat="46.56367" lon="0.64263">
        <ele>130.93</ele>
        <time>2019-11-17T09:48:28.000Z</time>
      </trkpt>
      <trkpt lat="46.5637" lon="0.6425">
        <ele>132.85</ele>
        <time>2019-11-17T09:48:36.000Z</time>
      </trkpt>
      <trkpt lat="46.56377" lon="0.64241">
        <ele>134.14</ele>
        <time>2019-11-17T09:48:41.000Z</time>
      </trkpt>
      <trkpt lat="46.56379" lon="0.64224">
        <ele>135.29</ele>
        <time>2019-11-17T09:48:46.000Z</time>
      </trkpt>
      <trkpt lat="46.56379" lon="0.64209">
        <ele>135.94</ele>
        <time>2019-11-17T09:48:49.000Z</time>
      </trkpt>
      <trkpt lat="46.56382" lon="0.64191">
        <ele>136.41</ele>
        <time>2019-11-17T09:48:52.000Z</time>
      </trkpt>
      <trkpt lat="46.56383" lon="0.64176">
        <ele>138.58</ele>
        <time>2019-11-17T09:48:54.000Z</time>
      </trkpt>
      <trkpt lat="46.56386" lon="0.64163">
        <ele>139.99</ele>
        <time>2019-11-17T09:48:56.000Z</time>
      </trkpt>
      <trkpt lat="46.56389" lon="0.64146">
        <ele>140.71</ele>
        <time>2019-11-17T09:48:59.000Z</time>
      </trkpt>
      <trkpt lat="46.56393" lon="0.64128">
        <ele>140.08</ele>
        <time>2019-11-17T09:49:02.000Z</time>
      </trkpt>
      <trkpt lat="46.56397" lon="0.64116">
        <ele>140.06</ele>
        <time>2019-11-17T09:49:04.000Z</time>
      </trkpt>
      <trkpt lat="46.56402" lon="0.64104">
        <ele>140.23</ele>
        <time>2019-11-17T09:49:06.000Z</time>
      </trkpt>
      <trkpt lat="46.56405" lon="0.64089">
        <ele>140.86</ele>
        <time>2019-11-17T09:49:08.000Z</time>
      </trkpt>
      <trkpt lat="46.56411" lon="0.64074">
        <ele>140.8</ele>
        <time>2019-11-17T09:49:10.000Z</time>
      </trkpt>
      <trkpt lat="46.56416" lon="0.64061">
        <ele>140.71</ele>
        <time>2019-11-17T09:49:12.000Z</time>
      </trkpt>
      <trkpt lat="46.5642" lon="0.64049">
        <ele>140.61</ele>
        <time>2019-11-17T09:49:14.000Z</time>
      </trkpt>
      <trkpt lat="46.56424" lon="0.64035">
        <ele>140</ele>
        <time>2019-11-17T09:49:16.000Z</time>
      </trkpt>
      <trkpt lat="46.56431" lon="0.64019">
        <ele>138.83</ele>
        <time>2019-11-17T09:49:18.000Z</time>
      </trkpt>
      <trkpt lat="46.56435" lon="0.64005">
        <ele>137.42</ele>
        <time>2019-11-17T09:49:20.000Z</time>
      </trkpt>
      <trkpt lat="46.56441" lon="0.6399">
        <ele>136.45</ele>
        <time>2019-11-17T09:49:23.000Z</time>
      </trkpt>
      <trkpt lat="46.56448" lon="0.63977">
        <ele>136.42</ele>
        <time>2019-11-17T09:49:26.000Z</time>
      </trkpt>
      <trkpt lat="46.56454" lon="0.63962">
        <ele>136.32</ele>
        <time>2019-11-17T09:49:29.000Z</time>
      </trkpt>
      <trkpt lat="46.5646" lon="0.63949">
        <ele>135.12</ele>
        <time>2019-11-17T09:49:32.000Z</time>
      </trkpt>
      <trkpt lat="46.56466" lon="0.63939">
        <ele>134.44</ele>
        <time>2019-11-17T09:49:34.000Z</time>
      </trkpt>
      <trkpt lat="46.56471" lon="0.63928">
        <ele>133.27</ele>
        <time>2019-11-17T09:49:36.000Z</time>
      </trkpt>
      <trkpt lat="46.56476" lon="0.63916">
        <ele>132</ele>
        <time>2019-11-17T09:49:38.000Z</time>
      </trkpt>
      <trkpt lat="46.56483" lon="0.63905">
        <ele>130.41</ele>
        <time>2019-11-17T09:49:40.000Z</time>
      </trkpt>
      <trkpt lat="46.56491" lon="0.6389">
        <ele>129.03</ele>
        <time>2019-11-17T09:49:43.000Z</time>
      </trkpt>
      <trkpt lat="46.565" lon="0.63877">
        <ele>128.74</ele>
        <time>2019-11-17T09:49:46.000Z</time>
      </trkpt>
      <trkpt lat="46.56508" lon="0.63865">
        <ele>128.22</ele>
        <time>2019-11-17T09:49:49.000Z</time>
      </trkpt>
      <trkpt lat="46.56516" lon="0.63856">
        <ele>128.18</ele>
        <time>2019-11-17T09:49:52.000Z</time>
      </trkpt>
      <trkpt lat="46.56523" lon="0.63847">
        <ele>128.3</ele>
        <time>2019-11-17T09:49:57.000Z</time>
      </trkpt>
      <trkpt lat="46.56528" lon="0.63836">
        <ele>128.76</ele>
        <time>2019-11-17T09:50:04.000Z</time>
      </trkpt>
      <trkpt lat="46.56527" lon="0.63823">
        <ele>128.36</ele>
        <time>2019-11-17T09:50:57.000Z</time>
      </trkpt>
      <trkpt lat="46.56527" lon="0.63807">
        <ele>129.68</ele>
        <time>2019-11-17T09:51:11.000Z</time>
      </trkpt>
      <trkpt lat="46.56529" lon="0.63794">
        <ele>132.4</ele>
        <time>2019-11-17T09:51:25.000Z</time>
      </trkpt>
      <trkpt lat="46.56528" lon="0.6378">
        <ele>134.73</ele>
        <time>2019-11-17T09:51:33.000Z</time>
      </trkpt>
      <trkpt lat="46.56527" lon="0.63765">
        <ele>136.09</ele>
        <time>2019-11-17T09:51:38.000Z</time>
      </trkpt>
      <trkpt lat="46.56525" lon="0.63751">
        <ele>137.1</ele>
        <time>2019-11-17T09:51:42.000Z</time>
      </trkpt>
      <trkpt lat="46.56523" lon="0.63738">
        <ele>138.58</ele>
        <time>2019-11-17T09:51:48.000Z</time>
      </trkpt>
      <trkpt lat="46.56522" lon="0.63725">
        <ele>139.52</ele>
        <time>2019-11-17T09:51:52.000Z</time>
      </trkpt>
      <trkpt lat="46.56521" lon="0.63709">
        <ele>141.08</ele>
        <time>2019-11-17T09:51:57.000Z</time>
      </trkpt>
      <trkpt lat="46.5652" lon="0.63695">
        <ele>141.83</ele>
        <time>2019-11-17T09:52:00.000Z</time>
      </trkpt>
      <trkpt lat="46.5652" lon="0.63678">
        <ele>142.74</ele>
        <time>2019-11-17T09:52:05.000Z</time>
      </trkpt>
      <trkpt lat="46.5652" lon="0.63664">
        <ele>143.11</ele>
        <time>2019-11-17T09:52:09.000Z</time>
      </trkpt>
      <trkpt lat="46.56515" lon="0.63651">
        <ele>143.15</ele>
        <time>2019-11-17T09:52:16.000Z</time>
      </trkpt>
      <trkpt lat="46.56505" lon="0.6365">
        <ele>143</ele>
        <time>2019-11-17T09:52:21.000Z</time>
      </trkpt>
      <trkpt lat="46.565" lon="0.63636">
        <ele>142.98</ele>
        <time>2019-11-17T09:52:27.000Z</time>
      </trkpt>
      <trkpt lat="46.56499" lon="0.63621">
        <ele>143.11</ele>
        <time>2019-11-17T09:52:31.000Z</time>
      </trkpt>
      <trkpt lat="46.56498" lon="0.63606">
        <ele>143.36</ele>
        <time>2019-11-17T09:52:35.000Z</time>
      </trkpt>
      <trkpt lat="46.56496" lon="0.63592">
        <ele>143.62</ele>
        <time>2019-11-17T09:52:39.000Z</time>
      </trkpt>
      <trkpt lat="46.56493" lon="0.6358">
        <ele>143.98</ele>
        <time>2019-11-17T09:52:44.000Z</time>
      </trkpt>
      <trkpt lat="46.5648" lon="0.6358">
        <ele>144.57</ele>
        <time>2019-11-17T09:52:49.000Z</time>
      </trkpt>
      <trkpt lat="46.56468" lon="0.63582">
        <ele>144.87</ele>
        <time>2019-11-17T09:52:52.000Z</time>
      </trkpt>
      <trkpt lat="46.56457" lon="0.63588">
        <ele>145.13</ele>
        <time>2019-11-17T09:52:55.000Z</time>
      </trkpt>
      <trkpt lat="46.56446" lon="0.63592">
        <ele>145.41</ele>
        <time>2019-11-17T09:52:58.000Z</time>
      </trkpt>
      <trkpt lat="46.56434" lon="0.63596">
        <ele>145.65</ele>
        <time>2019-11-17T09:53:01.000Z</time>
      </trkpt>
      <trkpt lat="46.56422" lon="0.63601">
        <ele>147.42</ele>
        <time>2019-11-17T09:53:04.000Z</time>
      </trkpt>
      <trkpt lat="46.56411" lon="0.63605">
        <ele>147.6</ele>
        <time>2019-11-17T09:53:07.000Z</time>
      </trkpt>
      <trkpt lat="46.56403" lon="0.63594">
        <ele>147.56</ele>
        <time>2019-11-17T09:53:11.000Z</time>
      </trkpt>
      <trkpt lat="46.56402" lon="0.63578">
        <ele>147.6</ele>
        <time>2019-11-17T09:53:14.000Z</time>
      </trkpt>
      <trkpt lat="46.56391" lon="0.63568">
        <ele>147.64</ele>
        <time>2019-11-17T09:53:18.000Z</time>
      </trkpt>
      <trkpt lat="46.56378" lon="0.63564">
        <ele>147.61</ele>
        <time>2019-11-17T09:53:21.000Z</time>
      </trkpt>
      <trkpt lat="46.56369" lon="0.63556">
        <ele>147.55</ele>
        <time>2019-11-17T09:53:23.000Z</time>
      </trkpt>
      <trkpt lat="46.5636" lon="0.63546">
        <ele>147.03</ele>
        <time>2019-11-17T09:53:25.000Z</time>
      </trkpt>
      <trkpt lat="46.56353" lon="0.63538">
        <ele>147</ele>
        <time>2019-11-17T09:53:27.000Z</time>
      </trkpt>
      <trkpt lat="46.56343" lon="0.63526">
        <ele>146.99</ele>
        <time>2019-11-17T09:53:30.000Z</time>
      </trkpt>
      <trkpt lat="46.56335" lon="0.63519">
        <ele>147.12</ele>
        <time>2019-11-17T09:53:34.000Z</time>
      </trkpt>
      <trkpt lat="46.56325" lon="0.63523">
        <ele>147.35</ele>
        <time>2019-11-17T09:53:38.000Z</time>
      </trkpt>
      <trkpt lat="46.56314" lon="0.63534">
        <ele>148.47</ele>
        <time>2019-11-17T09:53:41.000Z</time>
      </trkpt>
      <trkpt lat="46.56305" lon="0.63546">
        <ele>150.11</ele>
        <time>2019-11-17T09:53:43.000Z</time>
      </trkpt>
      <trkpt lat="46.56297" lon="0.63557">
        <ele>150.49</ele>
        <time>2019-11-17T09:53:45.000Z</time>
      </trkpt>
      <trkpt lat="46.56289" lon="0.63568">
        <ele>150.71</ele>
        <time>2019-11-17T09:53:47.000Z</time>
      </trkpt>
      <trkpt lat="46.56282" lon="0.6358">
        <ele>150.29</ele>
        <time>2019-11-17T09:53:49.000Z</time>
      </trkpt>
      <trkpt lat="46.56274" lon="0.63589">
        <ele>149.87</ele>
        <time>2019-11-17T09:53:51.000Z</time>
      </trkpt>
      <trkpt lat="46.56264" lon="0.63589">
        <ele>149.98</ele>
        <time>2019-11-17T09:53:53.000Z</time>
      </trkpt>
      <trkpt lat="46.56254" lon="0.6358">
        <ele>149.96</ele>
        <time>2019-11-17T09:53:56.000Z</time>
      </trkpt>
      <trkpt lat="46.56247" lon="0.63566">
        <ele>150.09</ele>
        <time>2019-11-17T09:53:59.000Z</time>
      </trkpt>
      <trkpt lat="46.56241" lon="0.63554">
        <ele>150.41</ele>
        <time>2019-11-17T09:54:02.000Z</time>
      </trkpt>
      <trkpt lat="46.56231" lon="0.63544">
        <ele>150.79</ele>
        <time>2019-11-17T09:54:05.000Z</time>
      </trkpt>
      <trkpt lat="46.56223" lon="0.63538">
        <ele>151.05</ele>
        <time>2019-11-17T09:54:07.000Z</time>
      </trkpt>
      <trkpt lat="46.56213" lon="0.63533">
        <ele>151.47</ele>
        <time>2019-11-17T09:54:10.000Z</time>
      </trkpt>
      <trkpt lat="46.56206" lon="0.63526">
        <ele>151.97</ele>
        <time>2019-11-17T09:54:15.000Z</time>
      </trkpt>
      <trkpt lat="46.56198" lon="0.63517">
        <ele>152.18</ele>
        <time>2019-11-17T09:54:19.000Z</time>
      </trkpt>
      <trkpt lat="46.56192" lon="0.63507">
        <ele>152.28</ele>
        <time>2019-11-17T09:54:22.000Z</time>
      </trkpt>
      <trkpt lat="46.56184" lon="0.63496">
        <ele>152.39</ele>
        <time>2019-11-17T09:54:26.000Z</time>
      </trkpt>
      <trkpt lat="46.56176" lon="0.63481">
        <ele>152.51</ele>
        <time>2019-11-17T09:54:30.000Z</time>
      </trkpt>
      <trkpt lat="46.56174" lon="0.63464">
        <ele>152.59</ele>
        <time>2019-11-17T09:54:33.000Z</time>
      </trkpt>
      <trkpt lat="46.56168" lon="0.6345">
        <ele>152.72</ele>
        <time>2019-11-17T09:54:36.000Z</time>
      </trkpt>
      <trkpt lat="46.56161" lon="0.63442">
        <ele>152.97</ele>
        <time>2019-11-17T09:54:39.000Z</time>
      </trkpt>
      <trkpt lat="46.56154" lon="0.63429">
        <ele>153.22</ele>
        <time>2019-11-17T09:54:42.000Z</time>
      </trkpt>
      <trkpt lat="46.56146" lon="0.63416">
        <ele>153.42</ele>
        <time>2019-11-17T09:54:45.000Z</time>
      </trkpt>
      <trkpt lat="46.56138" lon="0.63405">
        <ele>153.44</ele>
        <time>2019-11-17T09:54:49.000Z</time>
      </trkpt>
      <trkpt lat="46.56129" lon="0.63395">
        <ele>153.34</ele>
        <time>2019-11-17T09:54:52.000Z</time>
      </trkpt>
      <trkpt lat="46.56125" lon="0.6338">
        <ele>153.26</ele>
        <time>2019-11-17T09:54:57.000Z</time>
      </trkpt>
      <trkpt lat="46.56122" lon="0.63366">
        <ele>153.33</ele>
        <time>2019-11-17T09:55:00.000Z</time>
      </trkpt>
      <trkpt lat="46.56118" lon="0.63349">
        <ele>153.41</ele>
        <time>2019-11-17T09:55:03.000Z</time>
      </trkpt>
      <trkpt lat="46.56114" lon="0.63334">
        <ele>153.37</ele>
        <time>2019-11-17T09:55:06.000Z</time>
      </trkpt>
      <trkpt lat="46.5611" lon="0.63322">
        <ele>153.27</ele>
        <time>2019-11-17T09:55:08.000Z</time>
      </trkpt>
      <trkpt lat="46.56108" lon="0.63309">
        <ele>153.16</ele>
        <time>2019-11-17T09:55:10.000Z</time>
      </trkpt>
      <trkpt lat="46.561" lon="0.63294">
        <ele>153.05</ele>
        <time>2019-11-17T09:55:13.000Z</time>
      </trkpt>
      <trkpt lat="46.56091" lon="0.63286">
        <ele>153.06</ele>
        <time>2019-11-17T09:55:16.000Z</time>
      </trkpt>
      <trkpt lat="46.56081" lon="0.63281">
        <ele>153.09</ele>
        <time>2019-11-17T09:55:21.000Z</time>
      </trkpt>
      <trkpt lat="46.56073" lon="0.63275">
        <ele>152.86</ele>
        <time>2019-11-17T09:55:25.000Z</time>
      </trkpt>
      <trkpt lat="46.56066" lon="0.63264">
        <ele>152.5</ele>
        <time>2019-11-17T09:55:28.000Z</time>
      </trkpt>
      <trkpt lat="46.56061" lon="0.63251">
        <ele>152.08</ele>
        <time>2019-11-17T09:55:31.000Z</time>
      </trkpt>
      <trkpt lat="46.56065" lon="0.63239">
        <ele>151.84</ele>
        <time>2019-11-17T09:55:36.000Z</time>
      </trkpt>
      <trkpt lat="46.56073" lon="0.63228">
        <ele>151.67</ele>
        <time>2019-11-17T09:55:39.000Z</time>
      </trkpt>
      <trkpt lat="46.56079" lon="0.63213">
        <ele>151.48</ele>
        <time>2019-11-17T09:55:42.000Z</time>
      </trkpt>
      <trkpt lat="46.56084" lon="0.632">
        <ele>151.32</ele>
        <time>2019-11-17T09:55:45.000Z</time>
      </trkpt>
      <trkpt lat="46.56087" lon="0.63187">
        <ele>151.12</ele>
        <time>2019-11-17T09:55:50.000Z</time>
      </trkpt>
      <trkpt lat="46.56096" lon="0.63178">
        <ele>151.19</ele>
        <time>2019-11-17T09:55:54.000Z</time>
      </trkpt>
      <trkpt lat="46.56105" lon="0.63167">
        <ele>151.25</ele>
        <time>2019-11-17T09:55:58.000Z</time>
      </trkpt>
      <trkpt lat="46.56112" lon="0.63159">
        <ele>151.13</ele>
        <time>2019-11-17T09:56:01.000Z</time>
      </trkpt>
      <trkpt lat="46.56119" lon="0.6315">
        <ele>150.96</ele>
        <time>2019-11-17T09:56:04.000Z</time>
      </trkpt>
      <trkpt lat="46.56126" lon="0.63141">
        <ele>150.72</ele>
        <time>2019-11-17T09:56:07.000Z</time>
      </trkpt>
      <trkpt lat="46.56135" lon="0.63133">
        <ele>150.39</ele>
        <time>2019-11-17T09:56:10.000Z</time>
      </trkpt>
      <trkpt lat="46.56144" lon="0.63125">
        <ele>149.82</ele>
        <time>2019-11-17T09:56:15.000Z</time>
      </trkpt>
      <trkpt lat="46.56154" lon="0.63116">
        <ele>149.39</ele>
        <time>2019-11-17T09:56:19.000Z</time>
      </trkpt>
      <trkpt lat="46.56164" lon="0.63105">
        <ele>148.93</ele>
        <time>2019-11-17T09:56:23.000Z</time>
      </trkpt>
      <trkpt lat="46.56169" lon="0.63094">
        <ele>148.35</ele>
        <time>2019-11-17T09:56:28.000Z</time>
      </trkpt>
      <trkpt lat="46.56175" lon="0.6308">
        <ele>148.07</ele>
        <time>2019-11-17T09:56:33.000Z</time>
      </trkpt>
      <trkpt lat="46.56178" lon="0.63066">
        <ele>148.17</ele>
        <time>2019-11-17T09:56:37.000Z</time>
      </trkpt>
      <trkpt lat="46.56186" lon="0.63054">
        <ele>148.52</ele>
        <time>2019-11-17T09:56:41.000Z</time>
      </trkpt>
      <trkpt lat="46.56195" lon="0.63043">
        <ele>149.08</ele>
        <time>2019-11-17T09:56:45.000Z</time>
      </trkpt>
      <trkpt lat="46.56203" lon="0.63029">
        <ele>149.65</ele>
        <time>2019-11-17T09:56:49.000Z</time>
      </trkpt>
      <trkpt lat="46.56208" lon="0.63016">
        <ele>149.92</ele>
        <time>2019-11-17T09:56:52.000Z</time>
      </trkpt>
      <trkpt lat="46.56214" lon="0.63001">
        <ele>150.52</ele>
        <time>2019-11-17T09:56:56.000Z</time>
      </trkpt>
      <trkpt lat="46.56221" lon="0.6299">
        <ele>150.92</ele>
        <time>2019-11-17T09:56:59.000Z</time>
      </trkpt>
      <trkpt lat="46.56227" lon="0.62977">
        <ele>151.26</ele>
        <time>2019-11-17T09:57:02.000Z</time>
      </trkpt>
      <trkpt lat="46.56235" lon="0.62963">
        <ele>153.01</ele>
        <time>2019-11-17T09:57:05.000Z</time>
      </trkpt>
      <trkpt lat="46.56242" lon="0.6295">
        <ele>153.56</ele>
        <time>2019-11-17T09:57:08.000Z</time>
      </trkpt>
      <trkpt lat="46.56248" lon="0.62937">
        <ele>154.05</ele>
        <time>2019-11-17T09:57:11.000Z</time>
      </trkpt>
      <trkpt lat="46.56254" lon="0.62925">
        <ele>154.03</ele>
        <time>2019-11-17T09:57:14.000Z</time>
      </trkpt>
      <trkpt lat="46.5626" lon="0.62914">
        <ele>154.09</ele>
        <time>2019-11-17T09:57:19.000Z</time>
      </trkpt>
      <trkpt lat="46.56268" lon="0.62906">
        <ele>154.18</ele>
        <time>2019-11-17T09:57:25.000Z</time>
      </trkpt>
      <trkpt lat="46.56279" lon="0.62908">
        <ele>154.3</ele>
        <time>2019-11-17T09:57:29.000Z</time>
      </trkpt>
      <trkpt lat="46.5629" lon="0.62907">
        <ele>154.44</ele>
        <time>2019-11-17T09:57:32.000Z</time>
      </trkpt>
      <trkpt lat="46.56302" lon="0.62903">
        <ele>154.43</ele>
        <time>2019-11-17T09:57:36.000Z</time>
      </trkpt>
      <trkpt lat="46.56312" lon="0.62895">
        <ele>154.25</ele>
        <time>2019-11-17T09:57:40.000Z</time>
      </trkpt>
      <trkpt lat="46.56321" lon="0.62883">
        <ele>153.87</ele>
        <time>2019-11-17T09:57:43.000Z</time>
      </trkpt>
      <trkpt lat="46.5633" lon="0.62874">
        <ele>153.3</ele>
        <time>2019-11-17T09:57:45.000Z</time>
      </trkpt>
      <trkpt lat="46.56339" lon="0.62863">
        <ele>153.19</ele>
        <time>2019-11-17T09:57:48.000Z</time>
      </trkpt>
      <trkpt lat="46.56335" lon="0.62849">
        <ele>152.11</ele>
        <time>2019-11-17T09:57:51.000Z</time>
      </trkpt>
      <trkpt lat="46.5633" lon="0.62837">
        <ele>150.52</ele>
        <time>2019-11-17T09:57:53.000Z</time>
      </trkpt>
      <trkpt lat="46.56325" lon="0.62824">
        <ele>149.93</ele>
        <time>2019-11-17T09:57:55.000Z</time>
      </trkpt>
      <trkpt lat="46.5632" lon="0.62811">
        <ele>148.87</ele>
        <time>2019-11-17T09:57:57.000Z</time>
      </trkpt>
      <trkpt lat="46.56314" lon="0.62793">
        <ele>147.74</ele>
        <time>2019-11-17T09:58:00.000Z</time>
      </trkpt>
      <trkpt lat="46.5631" lon="0.62781">
        <ele>147.45</ele>
        <time>2019-11-17T09:58:02.000Z</time>
      </trkpt>
      <trkpt lat="46.56304" lon="0.6277">
        <ele>147.47</ele>
        <time>2019-11-17T09:58:04.000Z</time>
      </trkpt>
      <trkpt lat="46.56297" lon="0.62754">
        <ele>148.15</ele>
        <time>2019-11-17T09:58:07.000Z</time>
      </trkpt>
      <trkpt lat="46.56288" lon="0.62741">
        <ele>149.17</ele>
        <time>2019-11-17T09:58:10.000Z</time>
      </trkpt>
      <trkpt lat="46.5628" lon="0.62733">
        <ele>149.93</ele>
        <time>2019-11-17T09:58:12.000Z</time>
      </trkpt>
      <trkpt lat="46.56272" lon="0.62725">
        <ele>150.63</ele>
        <time>2019-11-17T09:58:14.000Z</time>
      </trkpt>
      <trkpt lat="46.56261" lon="0.62713">
        <ele>151.54</ele>
        <time>2019-11-17T09:58:17.000Z</time>
      </trkpt>
      <trkpt lat="46.56252" lon="0.62707">
        <ele>152.46</ele>
        <time>2019-11-17T09:58:19.000Z</time>
      </trkpt>
      <trkpt lat="46.56244" lon="0.62701">
        <ele>153.41</ele>
        <time>2019-11-17T09:58:21.000Z</time>
      </trkpt>
      <trkpt lat="46.56236" lon="0.62694">
        <ele>154.23</ele>
        <time>2019-11-17T09:58:23.000Z</time>
      </trkpt>
      <trkpt lat="46.56226" lon="0.62682">
        <ele>154.74</ele>
        <time>2019-11-17T09:58:26.000Z</time>
      </trkpt>
      <trkpt lat="46.56218" lon="0.62671">
        <ele>154.82</ele>
        <time>2019-11-17T09:58:29.000Z</time>
      </trkpt>
      <trkpt lat="46.56213" lon="0.62659">
        <ele>154.74</ele>
        <time>2019-11-17T09:58:31.000Z</time>
      </trkpt>
      <trkpt lat="46.56206" lon="0.62644">
        <ele>154.85</ele>
        <time>2019-11-17T09:58:34.000Z</time>
      </trkpt>
      <trkpt lat="46.5621" lon="0.62628">
        <ele>155.04</ele>
        <time>2019-11-17T09:58:38.000Z</time>
      </trkpt>
      <trkpt lat="46.56216" lon="0.62611">
        <ele>156.03</ele>
        <time>2019-11-17T09:58:41.000Z</time>
      </trkpt>
      <trkpt lat="46.5622" lon="0.62596">
        <ele>157.73</ele>
        <time>2019-11-17T09:58:43.000Z</time>
      </trkpt>
      <trkpt lat="46.56224" lon="0.62584">
        <ele>158.06</ele>
        <time>2019-11-17T09:58:45.000Z</time>
      </trkpt>
      <trkpt lat="46.5623" lon="0.62568">
        <ele>157.68</ele>
        <time>2019-11-17T09:58:48.000Z</time>
      </trkpt>
      <trkpt lat="46.56234" lon="0.62553">
        <ele>157.88</ele>
        <time>2019-11-17T09:58:51.000Z</time>
      </trkpt>
      <trkpt lat="46.56239" lon="0.6254">
        <ele>157.11</ele>
        <time>2019-11-17T09:58:53.000Z</time>
      </trkpt>
      <trkpt lat="46.56246" lon="0.62527">
        <ele>156.52</ele>
        <time>2019-11-17T09:58:56.000Z</time>
      </trkpt>
      <trkpt lat="46.56253" lon="0.6251">
        <ele>157.76</ele>
        <time>2019-11-17T09:58:59.000Z</time>
      </trkpt>
      <trkpt lat="46.56257" lon="0.62498">
        <ele>159.2</ele>
        <time>2019-11-17T09:59:01.000Z</time>
      </trkpt>
      <trkpt lat="46.56263" lon="0.62488">
        <ele>160.19</ele>
        <time>2019-11-17T09:59:03.000Z</time>
      </trkpt>
      <trkpt lat="46.56269" lon="0.62473">
        <ele>161.04</ele>
        <time>2019-11-17T09:59:05.000Z</time>
      </trkpt>
      <trkpt lat="46.56276" lon="0.6246">
        <ele>161.56</ele>
        <time>2019-11-17T09:59:07.000Z</time>
      </trkpt>
      <trkpt lat="46.5628" lon="0.62442">
        <ele>161.55</ele>
        <time>2019-11-17T09:59:09.000Z</time>
      </trkpt>
      <trkpt lat="46.56275" lon="0.62427">
        <ele>160.59</ele>
        <time>2019-11-17T09:59:11.000Z</time>
      </trkpt>
      <trkpt lat="46.56266" lon="0.62424">
        <ele>159.55</ele>
        <time>2019-11-17T09:59:13.000Z</time>
      </trkpt>
      <trkpt lat="46.56256" lon="0.62422">
        <ele>158.27</ele>
        <time>2019-11-17T09:59:15.000Z</time>
      </trkpt>
      <trkpt lat="46.56248" lon="0.62413">
        <ele>157.17</ele>
        <time>2019-11-17T09:59:17.000Z</time>
      </trkpt>
      <trkpt lat="46.56242" lon="0.62401">
        <ele>155.9</ele>
        <time>2019-11-17T09:59:19.000Z</time>
      </trkpt>
      <trkpt lat="46.56235" lon="0.62389">
        <ele>154.74</ele>
        <time>2019-11-17T09:59:21.000Z</time>
      </trkpt>
      <trkpt lat="46.56231" lon="0.62375">
        <ele>153.95</ele>
        <time>2019-11-17T09:59:23.000Z</time>
      </trkpt>
      <trkpt lat="46.56221" lon="0.62366">
        <ele>153.03</ele>
        <time>2019-11-17T09:59:25.000Z</time>
      </trkpt>
      <trkpt lat="46.56211" lon="0.62358">
        <ele>152.23</ele>
        <time>2019-11-17T09:59:27.000Z</time>
      </trkpt>
      <trkpt lat="46.56204" lon="0.62348">
        <ele>151.68</ele>
        <time>2019-11-17T09:59:29.000Z</time>
      </trkpt>
      <trkpt lat="46.56195" lon="0.62338">
        <ele>151.22</ele>
        <time>2019-11-17T09:59:31.000Z</time>
      </trkpt>
      <trkpt lat="46.56186" lon="0.6233">
        <ele>151.04</ele>
        <time>2019-11-17T09:59:33.000Z</time>
      </trkpt>
      <trkpt lat="46.56177" lon="0.62322">
        <ele>150.85</ele>
        <time>2019-11-17T09:59:35.000Z</time>
      </trkpt>
      <trkpt lat="46.56168" lon="0.62315">
        <ele>150.86</ele>
        <time>2019-11-17T09:59:37.000Z</time>
      </trkpt>
      <trkpt lat="46.5616" lon="0.62308">
        <ele>151.07</ele>
        <time>2019-11-17T09:59:39.000Z</time>
      </trkpt>
      <trkpt lat="46.56151" lon="0.62301">
        <ele>150.99</ele>
        <time>2019-11-17T09:59:41.000Z</time>
      </trkpt>
      <trkpt lat="46.56142" lon="0.62293">
        <ele>150.98</ele>
        <time>2019-11-17T09:59:44.000Z</time>
      </trkpt>
      <trkpt lat="46.56134" lon="0.62285">
        <ele>151</ele>
        <time>2019-11-17T09:59:47.000Z</time>
      </trkpt>
      <trkpt lat="46.56124" lon="0.62275">
        <ele>151.12</ele>
        <time>2019-11-17T09:59:50.000Z</time>
      </trkpt>
      <trkpt lat="46.56115" lon="0.62264">
        <ele>151.32</ele>
        <time>2019-11-17T09:59:53.000Z</time>
      </trkpt>
      <trkpt lat="46.56108" lon="0.62251">
        <ele>151.53</ele>
        <time>2019-11-17T09:59:56.000Z</time>
      </trkpt>
      <trkpt lat="46.561" lon="0.62238">
        <ele>151.75</ele>
        <time>2019-11-17T09:59:59.000Z</time>
      </trkpt>
      <trkpt lat="46.56093" lon="0.62228">
        <ele>151.88</ele>
        <time>2019-11-17T10:00:01.000Z</time>
      </trkpt>
      <trkpt lat="46.56084" lon="0.62216">
        <ele>152.04</ele>
        <time>2019-11-17T10:00:03.000Z</time>
      </trkpt>
      <trkpt lat="46.56077" lon="0.62206">
        <ele>152.23</ele>
        <time>2019-11-17T10:00:05.000Z</time>
      </trkpt>
      <trkpt lat="46.56069" lon="0.62195">
        <ele>152.49</ele>
        <time>2019-11-17T10:00:08.000Z</time>
      </trkpt>
      <trkpt lat="46.56059" lon="0.62186">
        <ele>152.68</ele>
        <time>2019-11-17T10:00:11.000Z</time>
      </trkpt>
      <trkpt lat="46.5605" lon="0.62178">
        <ele>153.18</ele>
        <time>2019-11-17T10:00:14.000Z</time>
      </trkpt>
      <trkpt lat="46.5604" lon="0.62163">
        <ele>153.79</ele>
        <time>2019-11-17T10:00:17.000Z</time>
      </trkpt>
      <trkpt lat="46.56032" lon="0.62151">
        <ele>154.31</ele>
        <time>2019-11-17T10:00:19.000Z</time>
      </trkpt>
      <trkpt lat="46.56026" lon="0.6214">
        <ele>154.92</ele>
        <time>2019-11-17T10:00:21.000Z</time>
      </trkpt>
      <trkpt lat="46.56018" lon="0.6213">
        <ele>155.56</ele>
        <time>2019-11-17T10:00:23.000Z</time>
      </trkpt>
      <trkpt lat="46.56012" lon="0.6212">
        <ele>156.17</ele>
        <time>2019-11-17T10:00:25.000Z</time>
      </trkpt>
      <trkpt lat="46.56004" lon="0.62108">
        <ele>157.17</ele>
        <time>2019-11-17T10:00:29.000Z</time>
      </trkpt>
      <trkpt lat="46.55995" lon="0.62099">
        <ele>157.79</ele>
        <time>2019-11-17T10:00:32.000Z</time>
      </trkpt>
      <trkpt lat="46.5599" lon="0.62085">
        <ele>158.34</ele>
        <time>2019-11-17T10:00:35.000Z</time>
      </trkpt>
      <trkpt lat="46.55994" lon="0.62069">
        <ele>158.9</ele>
        <time>2019-11-17T10:00:38.000Z</time>
      </trkpt>
      <trkpt lat="46.55997" lon="0.6205">
        <ele>163.9</ele>
        <time>2019-11-17T10:00:41.000Z</time>
      </trkpt>
      <trkpt lat="46.55997" lon="0.62034">
        <ele>166.03</ele>
        <time>2019-11-17T10:00:43.000Z</time>
      </trkpt>
      <trkpt lat="46.5599" lon="0.62023">
        <ele>166.23</ele>
        <time>2019-11-17T10:00:45.000Z</time>
      </trkpt>
      <trkpt lat="46.55986" lon="0.62008">
        <ele>166.23</ele>
        <time>2019-11-17T10:00:48.000Z</time>
      </trkpt>
      <trkpt lat="46.55969" lon="0.61982">
        <ele>165.95</ele>
        <time>2019-11-17T10:00:55.000Z</time>
      </trkpt>
      <trkpt lat="46.55963" lon="0.61966">
        <ele>166.03</ele>
        <time>2019-11-17T10:00:58.000Z</time>
      </trkpt>
      <trkpt lat="46.55954" lon="0.61976">
        <ele>165.4</ele>
        <time>2019-11-17T10:01:03.000Z</time>
      </trkpt>
      <trkpt lat="46.55947" lon="0.6199">
        <ele>164.95</ele>
        <time>2019-11-17T10:01:07.000Z</time>
      </trkpt>
      <trkpt lat="46.55939" lon="0.62006">
        <ele>164.48</ele>
        <time>2019-11-17T10:01:12.000Z</time>
      </trkpt>
      <trkpt lat="46.55931" lon="0.62016">
        <ele>164.18</ele>
        <time>2019-11-17T10:01:15.000Z</time>
      </trkpt>
      <trkpt lat="46.55919" lon="0.62008">
        <ele>163.68</ele>
        <time>2019-11-17T10:01:20.000Z</time>
      </trkpt>
      <trkpt lat="46.55908" lon="0.62001">
        <ele>163.51</ele>
        <time>2019-11-17T10:01:23.000Z</time>
      </trkpt>
      <trkpt lat="46.55898" lon="0.61994">
        <ele>163.26</ele>
        <time>2019-11-17T10:01:26.000Z</time>
      </trkpt>
      <trkpt lat="46.55887" lon="0.61988">
        <ele>162.88</ele>
        <time>2019-11-17T10:01:29.000Z</time>
      </trkpt>
      <trkpt lat="46.5588" lon="0.6198">
        <ele>162.59</ele>
        <time>2019-11-17T10:01:31.000Z</time>
      </trkpt>
      <trkpt lat="46.55873" lon="0.61972">
        <ele>162.29</ele>
        <time>2019-11-17T10:01:34.000Z</time>
      </trkpt>
      <trkpt lat="46.55862" lon="0.61965">
        <ele>162.14</ele>
        <time>2019-11-17T10:01:38.000Z</time>
      </trkpt>
      <trkpt lat="46.55851" lon="0.61959">
        <ele>162.27</ele>
        <time>2019-11-17T10:01:42.000Z</time>
      </trkpt>
      <trkpt lat="46.55841" lon="0.61948">
        <ele>162.33</ele>
        <time>2019-11-17T10:01:45.000Z</time>
      </trkpt>
      <trkpt lat="46.55834" lon="0.61939">
        <ele>162.45</ele>
        <time>2019-11-17T10:01:48.000Z</time>
      </trkpt>
      <trkpt lat="46.55826" lon="0.61927">
        <ele>162.72</ele>
        <time>2019-11-17T10:01:51.000Z</time>
      </trkpt>
      <trkpt lat="46.55814" lon="0.6192">
        <ele>163.04</ele>
        <time>2019-11-17T10:01:54.000Z</time>
      </trkpt>
      <trkpt lat="46.55805" lon="0.61916">
        <ele>163.36</ele>
        <time>2019-11-17T10:01:56.000Z</time>
      </trkpt>
      <trkpt lat="46.55792" lon="0.61909">
        <ele>163.85</ele>
        <time>2019-11-17T10:01:59.000Z</time>
      </trkpt>
      <trkpt lat="46.55783" lon="0.61901">
        <ele>164.4</ele>
        <time>2019-11-17T10:02:02.000Z</time>
      </trkpt>
      <trkpt lat="46.55772" lon="0.61899">
        <ele>164.79</ele>
        <time>2019-11-17T10:02:04.000Z</time>
      </trkpt>
      <trkpt lat="46.5576" lon="0.61898">
        <ele>165.16</ele>
        <time>2019-11-17T10:02:07.000Z</time>
      </trkpt>
      <trkpt lat="46.55747" lon="0.61897">
        <ele>165.37</ele>
        <time>2019-11-17T10:02:10.000Z</time>
      </trkpt>
      <trkpt lat="46.55735" lon="0.61895">
        <ele>165.44</ele>
        <time>2019-11-17T10:02:13.000Z</time>
      </trkpt>
      <trkpt lat="46.55722" lon="0.61897">
        <ele>165.54</ele>
        <time>2019-11-17T10:02:17.000Z</time>
      </trkpt>
      <trkpt lat="46.55711" lon="0.619">
        <ele>165.78</ele>
        <time>2019-11-17T10:02:21.000Z</time>
      </trkpt>
      <trkpt lat="46.55703" lon="0.61905">
        <ele>166.38</ele>
        <time>2019-11-17T10:02:25.000Z</time>
      </trkpt>
      <trkpt lat="46.55695" lon="0.61913">
        <ele>166.88</ele>
        <time>2019-11-17T10:02:28.000Z</time>
      </trkpt>
      <trkpt lat="46.55686" lon="0.61922">
        <ele>167.41</ele>
        <time>2019-11-17T10:02:31.000Z</time>
      </trkpt>
      <trkpt lat="46.55679" lon="0.61934">
        <ele>167.95</ele>
        <time>2019-11-17T10:02:35.000Z</time>
      </trkpt>
      <trkpt lat="46.5567" lon="0.61941">
        <ele>168.46</ele>
        <time>2019-11-17T10:02:39.000Z</time>
      </trkpt>
      <trkpt lat="46.55662" lon="0.61949">
        <ele>168.8</ele>
        <time>2019-11-17T10:02:42.000Z</time>
      </trkpt>
      <trkpt lat="46.55652" lon="0.61956">
        <ele>169.37</ele>
        <time>2019-11-17T10:02:46.000Z</time>
      </trkpt>
      <trkpt lat="46.55643" lon="0.61964">
        <ele>169.88</ele>
        <time>2019-11-17T10:02:49.000Z</time>
      </trkpt>
      <trkpt lat="46.55631" lon="0.61968">
        <ele>170.62</ele>
        <time>2019-11-17T10:02:53.000Z</time>
      </trkpt>
      <trkpt lat="46.55619" lon="0.61972">
        <ele>171.22</ele>
        <time>2019-11-17T10:02:56.000Z</time>
      </trkpt>
      <trkpt lat="46.55608" lon="0.61975">
        <ele>171.98</ele>
        <time>2019-11-17T10:03:00.000Z</time>
      </trkpt>
      <trkpt lat="46.55599" lon="0.61977">
        <ele>172.64</ele>
        <time>2019-11-17T10:03:03.000Z</time>
      </trkpt>
      <trkpt lat="46.55587" lon="0.61979">
        <ele>173.71</ele>
        <time>2019-11-17T10:03:07.000Z</time>
      </trkpt>
      <trkpt lat="46.55578" lon="0.61981">
        <ele>174.56</ele>
        <time>2019-11-17T10:03:11.000Z</time>
      </trkpt>
      <trkpt lat="46.55569" lon="0.61985">
        <ele>175.13</ele>
        <time>2019-11-17T10:03:14.000Z</time>
      </trkpt>
      <trkpt lat="46.55559" lon="0.61989">
        <ele>175.7</ele>
        <time>2019-11-17T10:03:17.000Z</time>
      </trkpt>
      <trkpt lat="46.55548" lon="0.61993">
        <ele>176.29</ele>
        <time>2019-11-17T10:03:21.000Z</time>
      </trkpt>
      <trkpt lat="46.55538" lon="0.61998">
        <ele>176.91</ele>
        <time>2019-11-17T10:03:25.000Z</time>
      </trkpt>
      <trkpt lat="46.55528" lon="0.61998">
        <ele>177.37</ele>
        <time>2019-11-17T10:03:28.000Z</time>
      </trkpt>
      <trkpt lat="46.55519" lon="0.62">
        <ele>177.94</ele>
        <time>2019-11-17T10:03:32.000Z</time>
      </trkpt>
      <trkpt lat="46.55509" lon="0.62005">
        <ele>178.12</ele>
        <time>2019-11-17T10:03:34.000Z</time>
      </trkpt>
      <trkpt lat="46.55506" lon="0.6202">
        <ele>178.06</ele>
        <time>2019-11-17T10:03:37.000Z</time>
      </trkpt>
      <trkpt lat="46.55506" lon="0.62037">
        <ele>177.68</ele>
        <time>2019-11-17T10:03:40.000Z</time>
      </trkpt>
      <trkpt lat="46.55506" lon="0.62053">
        <ele>177.16</ele>
        <time>2019-11-17T10:03:43.000Z</time>
      </trkpt>
      <trkpt lat="46.55507" lon="0.62072">
        <ele>174.76</ele>
        <time>2019-11-17T10:03:46.000Z</time>
      </trkpt>
      <trkpt lat="46.55507" lon="0.62085">
        <ele>171.69</ele>
        <time>2019-11-17T10:03:48.000Z</time>
      </trkpt>
      <trkpt lat="46.55509" lon="0.62098">
        <ele>169.46</ele>
        <time>2019-11-17T10:03:50.000Z</time>
      </trkpt>
      <trkpt lat="46.5551" lon="0.62112">
        <ele>167.43</ele>
        <time>2019-11-17T10:03:52.000Z</time>
      </trkpt>
      <trkpt lat="46.5551" lon="0.62126">
        <ele>165.72</ele>
        <time>2019-11-17T10:03:54.000Z</time>
      </trkpt>
      <trkpt lat="46.55509" lon="0.62142">
        <ele>163.72</ele>
        <time>2019-11-17T10:03:56.000Z</time>
      </trkpt>
      <trkpt lat="46.55508" lon="0.62156">
        <ele>161.9</ele>
        <time>2019-11-17T10:03:58.000Z</time>
      </trkpt>
      <trkpt lat="46.55507" lon="0.62169">
        <ele>160.61</ele>
        <time>2019-11-17T10:04:00.000Z</time>
      </trkpt>
      <trkpt lat="46.55506" lon="0.62189">
        <ele>159.59</ele>
        <time>2019-11-17T10:04:03.000Z</time>
      </trkpt>
      <trkpt lat="46.55506" lon="0.62204">
        <ele>158.96</ele>
        <time>2019-11-17T10:04:05.000Z</time>
      </trkpt>
      <trkpt lat="46.55505" lon="0.62219">
        <ele>158.42</ele>
        <time>2019-11-17T10:04:07.000Z</time>
      </trkpt>
      <trkpt lat="46.55506" lon="0.62234">
        <ele>157.73</ele>
        <time>2019-11-17T10:04:09.000Z</time>
      </trkpt>
      <trkpt lat="46.55506" lon="0.6225">
        <ele>156.87</ele>
        <time>2019-11-17T10:04:11.000Z</time>
      </trkpt>
      <trkpt lat="46.55506" lon="0.62264">
        <ele>156.11</ele>
        <time>2019-11-17T10:04:13.000Z</time>
      </trkpt>
      <trkpt lat="46.55504" lon="0.6228">
        <ele>155.01</ele>
        <time>2019-11-17T10:04:15.000Z</time>
      </trkpt>
      <trkpt lat="46.55502" lon="0.62299">
        <ele>155.06</ele>
        <time>2019-11-17T10:04:18.000Z</time>
      </trkpt>
      <trkpt lat="46.555" lon="0.62315">
        <ele>155.18</ele>
        <time>2019-11-17T10:04:20.000Z</time>
      </trkpt>
      <trkpt lat="46.55498" lon="0.62329">
        <ele>155.41</ele>
        <time>2019-11-17T10:04:22.000Z</time>
      </trkpt>
      <trkpt lat="46.55498" lon="0.62347">
        <ele>155.42</ele>
        <time>2019-11-17T10:04:24.000Z</time>
      </trkpt>
      <trkpt lat="46.55497" lon="0.62365">
        <ele>155.4</ele>
        <time>2019-11-17T10:04:26.000Z</time>
      </trkpt>
      <trkpt lat="46.55496" lon="0.62384">
        <ele>155.27</ele>
        <time>2019-11-17T10:04:28.000Z</time>
      </trkpt>
      <trkpt lat="46.55494" lon="0.62402">
        <ele>154.87</ele>
        <time>2019-11-17T10:04:30.000Z</time>
      </trkpt>
      <trkpt lat="46.55492" lon="0.62421">
        <ele>154.52</ele>
        <time>2019-11-17T10:04:32.000Z</time>
      </trkpt>
      <trkpt lat="46.55493" lon="0.6244">
        <ele>154.02</ele>
        <time>2019-11-17T10:04:34.000Z</time>
      </trkpt>
      <trkpt lat="46.55495" lon="0.62459">
        <ele>154.31</ele>
        <time>2019-11-17T10:04:36.000Z</time>
      </trkpt>
      <trkpt lat="46.55496" lon="0.62478">
        <ele>154.89</ele>
        <time>2019-11-17T10:04:38.000Z</time>
      </trkpt>
      <trkpt lat="46.55497" lon="0.62499">
        <ele>154.98</ele>
        <time>2019-11-17T10:04:40.000Z</time>
      </trkpt>
      <trkpt lat="46.55497" lon="0.62522">
        <ele>154.61</ele>
        <time>2019-11-17T10:04:42.000Z</time>
      </trkpt>
      <trkpt lat="46.55495" lon="0.62545">
        <ele>153.97</ele>
        <time>2019-11-17T10:04:44.000Z</time>
      </trkpt>
      <trkpt lat="46.55493" lon="0.62569">
        <ele>153.11</ele>
        <time>2019-11-17T10:04:46.000Z</time>
      </trkpt>
      <trkpt lat="46.55492" lon="0.62593">
        <ele>152.01</ele>
        <time>2019-11-17T10:04:48.000Z</time>
      </trkpt>
      <trkpt lat="46.5549" lon="0.62615">
        <ele>150.7</ele>
        <time>2019-11-17T10:04:50.000Z</time>
      </trkpt>
      <trkpt lat="46.55488" lon="0.62639">
        <ele>149.07</ele>
        <time>2019-11-17T10:04:52.000Z</time>
      </trkpt>
      <trkpt lat="46.55486" lon="0.62661">
        <ele>147.66</ele>
        <time>2019-11-17T10:04:54.000Z</time>
      </trkpt>
      <trkpt lat="46.55481" lon="0.62682">
        <ele>146.04</ele>
        <time>2019-11-17T10:04:56.000Z</time>
      </trkpt>
      <trkpt lat="46.55478" lon="0.62701">
        <ele>144.89</ele>
        <time>2019-11-17T10:04:58.000Z</time>
      </trkpt>
      <trkpt lat="46.55478" lon="0.62719">
        <ele>143.7</ele>
        <time>2019-11-17T10:05:00.000Z</time>
      </trkpt>
      <trkpt lat="46.55476" lon="0.62734">
        <ele>142.29</ele>
        <time>2019-11-17T10:05:02.000Z</time>
      </trkpt>
      <trkpt lat="46.55469" lon="0.62746">
        <ele>141.62</ele>
        <time>2019-11-17T10:05:04.000Z</time>
      </trkpt>
      <trkpt lat="46.55465" lon="0.62758">
        <ele>141.19</ele>
        <time>2019-11-17T10:05:05.000Z</time>
      </trkpt>
      <trkpt lat="46.55459" lon="0.62771">
        <ele>140.25</ele>
        <time>2019-11-17T10:05:06.000Z</time>
      </trkpt>
      <trkpt lat="46.55453" lon="0.62785">
        <ele>139.38</ele>
        <time>2019-11-17T10:05:07.000Z</time>
      </trkpt>
      <trkpt lat="46.55444" lon="0.62797">
        <ele>138.33</ele>
        <time>2019-11-17T10:05:08.000Z</time>
      </trkpt>
      <trkpt lat="46.55435" lon="0.62808">
        <ele>137.17</ele>
        <time>2019-11-17T10:05:09.000Z</time>
      </trkpt>
      <trkpt lat="46.55426" lon="0.62819">
        <ele>135.97</ele>
        <time>2019-11-17T10:05:10.000Z</time>
      </trkpt>
      <trkpt lat="46.55417" lon="0.62828">
        <ele>134.74</ele>
        <time>2019-11-17T10:05:11.000Z</time>
      </trkpt>
      <trkpt lat="46.55408" lon="0.62835">
        <ele>133.4</ele>
        <time>2019-11-17T10:05:12.000Z</time>
      </trkpt>
      <trkpt lat="46.55397" lon="0.62847">
        <ele>130.41</ele>
        <time>2019-11-17T10:05:14.000Z</time>
      </trkpt>
      <trkpt lat="46.55405" lon="0.62861">
        <ele>129.28</ele>
        <time>2019-11-17T10:05:23.000Z</time>
      </trkpt>
      <trkpt lat="46.55416" lon="0.62869">
        <ele>128.48</ele>
        <time>2019-11-17T10:05:26.000Z</time>
      </trkpt>
      <trkpt lat="46.55427" lon="0.62873">
        <ele>128.31</ele>
        <time>2019-11-17T10:05:29.000Z</time>
      </trkpt>
      <trkpt lat="46.55436" lon="0.62878">
        <ele>127.91</ele>
        <time>2019-11-17T10:05:35.000Z</time>
      </trkpt>
      <trkpt lat="46.55446" lon="0.62885">
        <ele>127.61</ele>
        <time>2019-11-17T10:05:39.000Z</time>
      </trkpt>
      <trkpt lat="46.55455" lon="0.62893">
        <ele>127.39</ele>
        <time>2019-11-17T10:05:42.000Z</time>
      </trkpt>
      <trkpt lat="46.55465" lon="0.62897">
        <ele>126.51</ele>
        <time>2019-11-17T10:05:59.000Z</time>
      </trkpt>
      <trkpt lat="46.55474" lon="0.62895">
        <ele>126.44</ele>
        <time>2019-11-17T10:06:07.000Z</time>
      </trkpt>
      <trkpt lat="46.55485" lon="0.62899">
        <ele>126.77</ele>
        <time>2019-11-17T10:06:10.000Z</time>
      </trkpt>
      <trkpt lat="46.55496" lon="0.62903">
        <ele>127.21</ele>
        <time>2019-11-17T10:06:14.000Z</time>
      </trkpt>
      <trkpt lat="46.55507" lon="0.62908">
        <ele>127.71</ele>
        <time>2019-11-17T10:06:18.000Z</time>
      </trkpt>
      <trkpt lat="46.55519" lon="0.62914">
        <ele>128.42</ele>
        <time>2019-11-17T10:06:22.000Z</time>
      </trkpt>
      <trkpt lat="46.55527" lon="0.62921">
        <ele>128.79</ele>
        <time>2019-11-17T10:06:25.000Z</time>
      </trkpt>
      <trkpt lat="46.55539" lon="0.62925">
        <ele>129.07</ele>
        <time>2019-11-17T10:06:28.000Z</time>
      </trkpt>
      <trkpt lat="46.55548" lon="0.62928">
        <ele>129.23</ele>
        <time>2019-11-17T10:06:31.000Z</time>
      </trkpt>
      <trkpt lat="46.5556" lon="0.62933">
        <ele>129.38</ele>
        <time>2019-11-17T10:06:34.000Z</time>
      </trkpt>
      <trkpt lat="46.55574" lon="0.6294">
        <ele>129.58</ele>
        <time>2019-11-17T10:06:37.000Z</time>
      </trkpt>
      <trkpt lat="46.55582" lon="0.62947">
        <ele>129.82</ele>
        <time>2019-11-17T10:06:40.000Z</time>
      </trkpt>
      <trkpt lat="46.55593" lon="0.62956">
        <ele>130.08</ele>
        <time>2019-11-17T10:06:43.000Z</time>
      </trkpt>
      <trkpt lat="46.556" lon="0.62964">
        <ele>130.27</ele>
        <time>2019-11-17T10:06:45.000Z</time>
      </trkpt>
      <trkpt lat="46.5561" lon="0.62973">
        <ele>130.43</ele>
        <time>2019-11-17T10:06:47.000Z</time>
      </trkpt>
      <trkpt lat="46.55619" lon="0.62984">
        <ele>130.77</ele>
        <time>2019-11-17T10:06:50.000Z</time>
      </trkpt>
      <trkpt lat="46.55627" lon="0.62991">
        <ele>131.24</ele>
        <time>2019-11-17T10:06:53.000Z</time>
      </trkpt>
      <trkpt lat="46.55636" lon="0.62998">
        <ele>131.79</ele>
        <time>2019-11-17T10:06:57.000Z</time>
      </trkpt>
      <trkpt lat="46.55646" lon="0.62998">
        <ele>132.38</ele>
        <time>2019-11-17T10:07:01.000Z</time>
      </trkpt>
      <trkpt lat="46.55656" lon="0.63003">
        <ele>132.6</ele>
        <time>2019-11-17T10:07:04.000Z</time>
      </trkpt>
      <trkpt lat="46.55667" lon="0.63012">
        <ele>132.75</ele>
        <time>2019-11-17T10:07:07.000Z</time>
      </trkpt>
      <trkpt lat="46.55676" lon="0.63019">
        <ele>132.93</ele>
        <time>2019-11-17T10:07:09.000Z</time>
      </trkpt>
      <trkpt lat="46.55685" lon="0.63029">
        <ele>133.21</ele>
        <time>2019-11-17T10:07:12.000Z</time>
      </trkpt>
      <trkpt lat="46.55693" lon="0.63038">
        <ele>133.52</ele>
        <time>2019-11-17T10:07:14.000Z</time>
      </trkpt>
      <trkpt lat="46.55703" lon="0.63047">
        <ele>133.83</ele>
        <time>2019-11-17T10:07:17.000Z</time>
      </trkpt>
      <trkpt lat="46.55713" lon="0.63059">
        <ele>134.19</ele>
        <time>2019-11-17T10:07:20.000Z</time>
      </trkpt>
      <trkpt lat="46.55723" lon="0.63071">
        <ele>134.68</ele>
        <time>2019-11-17T10:07:23.000Z</time>
      </trkpt>
      <trkpt lat="46.55733" lon="0.6308">
        <ele>135.28</ele>
        <time>2019-11-17T10:07:26.000Z</time>
      </trkpt>
      <trkpt lat="46.55744" lon="0.63092">
        <ele>135.83</ele>
        <time>2019-11-17T10:07:28.000Z</time>
      </trkpt>
      <trkpt lat="46.55755" lon="0.631">
        <ele>136.7</ele>
        <time>2019-11-17T10:07:31.000Z</time>
      </trkpt>
      <trkpt lat="46.55763" lon="0.63106">
        <ele>137.32</ele>
        <time>2019-11-17T10:07:33.000Z</time>
      </trkpt>
      <trkpt lat="46.55773" lon="0.63114">
        <ele>137.95</ele>
        <time>2019-11-17T10:07:35.000Z</time>
      </trkpt>
      <trkpt lat="46.55779" lon="0.63123">
        <ele>138.61</ele>
        <time>2019-11-17T10:07:37.000Z</time>
      </trkpt>
      <trkpt lat="46.55788" lon="0.63131">
        <ele>142.02</ele>
        <time>2019-11-17T10:07:39.000Z</time>
      </trkpt>
      <trkpt lat="46.55798" lon="0.6314">
        <ele>146.44</ele>
        <time>2019-11-17T10:07:41.000Z</time>
      </trkpt>
      <trkpt lat="46.55807" lon="0.63148">
        <ele>147.87</ele>
        <time>2019-11-17T10:07:43.000Z</time>
      </trkpt>
      <trkpt lat="46.55816" lon="0.63155">
        <ele>148.05</ele>
        <time>2019-11-17T10:07:45.000Z</time>
      </trkpt>
      <trkpt lat="46.55825" lon="0.63161">
        <ele>148.11</ele>
        <time>2019-11-17T10:07:47.000Z</time>
      </trkpt>
      <trkpt lat="46.55834" lon="0.63168">
        <ele>146.82</ele>
        <time>2019-11-17T10:07:49.000Z</time>
      </trkpt>
      <trkpt lat="46.55845" lon="0.63176">
        <ele>145.9</ele>
        <time>2019-11-17T10:07:51.000Z</time>
      </trkpt>
      <trkpt lat="46.55854" lon="0.63183">
        <ele>145.4</ele>
        <time>2019-11-17T10:07:53.000Z</time>
      </trkpt>
      <trkpt lat="46.55864" lon="0.63188">
        <ele>143.93</ele>
        <time>2019-11-17T10:07:55.000Z</time>
      </trkpt>
      <trkpt lat="46.55872" lon="0.63193">
        <ele>143.86</ele>
        <time>2019-11-17T10:07:57.000Z</time>
      </trkpt>
      <trkpt lat="46.55884" lon="0.63201">
        <ele>143.59</ele>
        <time>2019-11-17T10:08:00.000Z</time>
      </trkpt>
      <trkpt lat="46.55894" lon="0.63203">
        <ele>143.27</ele>
        <time>2019-11-17T10:08:02.000Z</time>
      </trkpt>
      <trkpt lat="46.55903" lon="0.63205">
        <ele>142.89</ele>
        <time>2019-11-17T10:08:04.000Z</time>
      </trkpt>
      <trkpt lat="46.55914" lon="0.63207">
        <ele>140.59</ele>
        <time>2019-11-17T10:08:06.000Z</time>
      </trkpt>
      <trkpt lat="46.55923" lon="0.63212">
        <ele>140.23</ele>
        <time>2019-11-17T10:08:08.000Z</time>
      </trkpt>
      <trkpt lat="46.5593" lon="0.63221">
        <ele>139.92</ele>
        <time>2019-11-17T10:08:10.000Z</time>
      </trkpt>
      <trkpt lat="46.55936" lon="0.63232">
        <ele>139.69</ele>
        <time>2019-11-17T10:08:12.000Z</time>
      </trkpt>
      <trkpt lat="46.55948" lon="0.63236">
        <ele>139.4</ele>
        <time>2019-11-17T10:08:15.000Z</time>
      </trkpt>
      <trkpt lat="46.55957" lon="0.63244">
        <ele>139.15</ele>
        <time>2019-11-17T10:08:19.000Z</time>
      </trkpt>
      <trkpt lat="46.55967" lon="0.63252">
        <ele>138.92</ele>
        <time>2019-11-17T10:08:23.000Z</time>
      </trkpt>
      <trkpt lat="46.55977" lon="0.63261">
        <ele>138.71</ele>
        <time>2019-11-17T10:08:27.000Z</time>
      </trkpt>
      <trkpt lat="46.55986" lon="0.63272">
        <ele>138.67</ele>
        <time>2019-11-17T10:08:29.000Z</time>
      </trkpt>
      <trkpt lat="46.55993" lon="0.63281">
        <ele>138.61</ele>
        <time>2019-11-17T10:08:31.000Z</time>
      </trkpt>
      <trkpt lat="46.56001" lon="0.63288">
        <ele>138.52</ele>
        <time>2019-11-17T10:08:33.000Z</time>
      </trkpt>
      <trkpt lat="46.56009" lon="0.63297">
        <ele>138.39</ele>
        <time>2019-11-17T10:08:35.000Z</time>
      </trkpt>
      <trkpt lat="46.56013" lon="0.63315">
        <ele>135.72</ele>
        <time>2019-11-17T10:08:38.000Z</time>
      </trkpt>
      <trkpt lat="46.56009" lon="0.63336">
        <ele>131.67</ele>
        <time>2019-11-17T10:08:40.000Z</time>
      </trkpt>
      <trkpt lat="46.56008" lon="0.6335">
        <ele>129.23</ele>
        <time>2019-11-17T10:08:41.000Z</time>
      </trkpt>
      <trkpt lat="46.56007" lon="0.63374">
        <ele>124.61</ele>
        <time>2019-11-17T10:08:43.000Z</time>
      </trkpt>
      <trkpt lat="46.56005" lon="0.63398">
        <ele>120.74</ele>
        <time>2019-11-17T10:08:45.000Z</time>
      </trkpt>
      <trkpt lat="46.56003" lon="0.63421">
        <ele>117.64</ele>
        <time>2019-11-17T10:08:47.000Z</time>
      </trkpt>
      <trkpt lat="46.55999" lon="0.63443">
        <ele>115.23</ele>
        <time>2019-11-17T10:08:49.000Z</time>
      </trkpt>
      <trkpt lat="46.55995" lon="0.63465">
        <ele>113.28</ele>
        <time>2019-11-17T10:08:51.000Z</time>
      </trkpt>
      <trkpt lat="46.55988" lon="0.63485">
        <ele>111.78</ele>
        <time>2019-11-17T10:08:53.000Z</time>
      </trkpt>
      <trkpt lat="46.55983" lon="0.63505">
        <ele>110.74</ele>
        <time>2019-11-17T10:08:55.000Z</time>
      </trkpt>
      <trkpt lat="46.55979" lon="0.63522">
        <ele>109.89</ele>
        <time>2019-11-17T10:08:57.000Z</time>
      </trkpt>
      <trkpt lat="46.55981" lon="0.63537">
        <ele>109.64</ele>
        <time>2019-11-17T10:08:59.000Z</time>
      </trkpt>
      <trkpt lat="46.5599" lon="0.63549">
        <ele>109.9</ele>
        <time>2019-11-17T10:09:02.000Z</time>
      </trkpt>
      <trkpt lat="46.56" lon="0.63553">
        <ele>110.55</ele>
        <time>2019-11-17T10:09:05.000Z</time>
      </trkpt>
      <trkpt lat="46.5601" lon="0.63557">
        <ele>110.69</ele>
        <time>2019-11-17T10:09:08.000Z</time>
      </trkpt>
      <trkpt lat="46.56021" lon="0.6356">
        <ele>111.86</ele>
        <time>2019-11-17T10:09:12.000Z</time>
      </trkpt>
      <trkpt lat="46.56031" lon="0.63549">
        <ele>112.32</ele>
        <time>2019-11-17T10:09:15.000Z</time>
      </trkpt>
      <trkpt lat="46.5604" lon="0.63543">
        <ele>112.18</ele>
        <time>2019-11-17T10:09:17.000Z</time>
      </trkpt>
      <trkpt lat="46.56049" lon="0.6354">
        <ele>112.34</ele>
        <time>2019-11-17T10:09:19.000Z</time>
      </trkpt>
      <trkpt lat="46.56059" lon="0.63538">
        <ele>112.46</ele>
        <time>2019-11-17T10:09:21.000Z</time>
      </trkpt>
      <trkpt lat="46.56068" lon="0.63537">
        <ele>112.19</ele>
        <time>2019-11-17T10:09:23.000Z</time>
      </trkpt>
      <trkpt lat="46.5608" lon="0.63535">
        <ele>111.78</ele>
        <time>2019-11-17T10:09:26.000Z</time>
      </trkpt>
      <trkpt lat="46.56092" lon="0.63531">
        <ele>112.14</ele>
        <time>2019-11-17T10:09:29.000Z</time>
      </trkpt>
      <trkpt lat="46.56102" lon="0.63525">
        <ele>112.54</ele>
        <time>2019-11-17T10:09:32.000Z</time>
      </trkpt>
      <trkpt lat="46.56106" lon="0.63513">
        <ele>112.68</ele>
        <time>2019-11-17T10:09:35.000Z</time>
      </trkpt>
      <trkpt lat="46.56099" lon="0.63502">
        <ele>113.33</ele>
        <time>2019-11-17T10:09:42.000Z</time>
      </trkpt>
      <trkpt lat="46.56093" lon="0.63491">
        <ele>113.83</ele>
        <time>2019-11-17T10:09:45.000Z</time>
      </trkpt>
      <trkpt lat="46.56087" lon="0.63478">
        <ele>114.59</ele>
        <time>2019-11-17T10:09:49.000Z</time>
      </trkpt>
      <trkpt lat="46.56081" lon="0.63468">
        <ele>115.24</ele>
        <time>2019-11-17T10:09:52.000Z</time>
      </trkpt>
      <trkpt lat="46.56075" lon="0.63454">
        <ele>116.07</ele>
        <time>2019-11-17T10:09:56.000Z</time>
      </trkpt>
      <trkpt lat="46.5607" lon="0.63439">
        <ele>116.87</ele>
        <time>2019-11-17T10:10:00.000Z</time>
      </trkpt>
      <trkpt lat="46.56066" lon="0.63427">
        <ele>117.37</ele>
        <time>2019-11-17T10:10:03.000Z</time>
      </trkpt>
      <trkpt lat="46.56063" lon="0.63413">
        <ele>117.96</ele>
        <time>2019-11-17T10:10:07.000Z</time>
      </trkpt>
      <trkpt lat="46.56059" lon="0.63401">
        <ele>118.51</ele>
        <time>2019-11-17T10:10:11.000Z</time>
      </trkpt>
      <trkpt lat="46.56057" lon="0.63388">
        <ele>119.19</ele>
        <time>2019-11-17T10:10:16.000Z</time>
      </trkpt>
      <trkpt lat="46.56056" lon="0.63374">
        <ele>119.88</ele>
        <time>2019-11-17T10:10:21.000Z</time>
      </trkpt>
      <trkpt lat="46.56054" lon="0.63361">
        <ele>120.92</ele>
        <time>2019-11-17T10:10:27.000Z</time>
      </trkpt>
      <trkpt lat="46.56052" lon="0.63347">
        <ele>122.93</ele>
        <time>2019-11-17T10:10:35.000Z</time>
      </trkpt>
      <trkpt lat="46.56052" lon="0.63334">
        <ele>124.55</ele>
        <time>2019-11-17T10:10:41.000Z</time>
      </trkpt>
      <trkpt lat="46.56055" lon="0.63319">
        <ele>126.26</ele>
        <time>2019-11-17T10:10:48.000Z</time>
      </trkpt>
      <trkpt lat="46.56053" lon="0.63303">
        <ele>127.29</ele>
        <time>2019-11-17T10:10:53.000Z</time>
      </trkpt>
      <trkpt lat="46.56053" lon="0.63288">
        <ele>128.19</ele>
        <time>2019-11-17T10:10:58.000Z</time>
      </trkpt>
      <trkpt lat="46.56053" lon="0.63274">
        <ele>129.09</ele>
        <time>2019-11-17T10:11:04.000Z</time>
      </trkpt>
      <trkpt lat="46.56052" lon="0.63261">
        <ele>130.25</ele>
        <time>2019-11-17T10:11:11.000Z</time>
      </trkpt>
      <trkpt lat="46.56055" lon="0.63248">
        <ele>131.97</ele>
        <time>2019-11-17T10:11:19.000Z</time>
      </trkpt>
      <trkpt lat="46.56061" lon="0.63237">
        <ele>134.56</ele>
        <time>2019-11-17T10:11:31.000Z</time>
      </trkpt>
      <trkpt lat="46.5607" lon="0.63226">
        <ele>135.91</ele>
        <time>2019-11-17T10:11:36.000Z</time>
      </trkpt>
      <trkpt lat="46.56076" lon="0.63215">
        <ele>137.04</ele>
        <time>2019-11-17T10:11:41.000Z</time>
      </trkpt>
      <trkpt lat="46.56082" lon="0.63203">
        <ele>137.72</ele>
        <time>2019-11-17T10:11:45.000Z</time>
      </trkpt>
      <trkpt lat="46.56086" lon="0.63189">
        <ele>138.58</ele>
        <time>2019-11-17T10:11:50.000Z</time>
      </trkpt>
      <trkpt lat="46.56092" lon="0.63179">
        <ele>139.16</ele>
        <time>2019-11-17T10:11:55.000Z</time>
      </trkpt>
      <trkpt lat="46.561" lon="0.63168">
        <ele>139.22</ele>
        <time>2019-11-17T10:12:00.000Z</time>
      </trkpt>
      <trkpt lat="46.56106" lon="0.63159">
        <ele>139.29</ele>
        <time>2019-11-17T10:12:05.000Z</time>
      </trkpt>
      <trkpt lat="46.56115" lon="0.63149">
        <ele>139.64</ele>
        <time>2019-11-17T10:12:10.000Z</time>
      </trkpt>
      <trkpt lat="46.56124" lon="0.6314">
        <ele>140.03</ele>
        <time>2019-11-17T10:12:14.000Z</time>
      </trkpt>
      <trkpt lat="46.56132" lon="0.63133">
        <ele>140.2</ele>
        <time>2019-11-17T10:12:17.000Z</time>
      </trkpt>
      <trkpt lat="46.56141" lon="0.63125">
        <ele>140.34</ele>
        <time>2019-11-17T10:12:22.000Z</time>
      </trkpt>
      <trkpt lat="46.56149" lon="0.63118">
        <ele>140.58</ele>
        <time>2019-11-17T10:12:26.000Z</time>
      </trkpt>
      <trkpt lat="46.56157" lon="0.63111">
        <ele>140.86</ele>
        <time>2019-11-17T10:12:29.000Z</time>
      </trkpt>
      <trkpt lat="46.56165" lon="0.631">
        <ele>141.32</ele>
        <time>2019-11-17T10:12:34.000Z</time>
      </trkpt>
      <trkpt lat="46.56169" lon="0.63088">
        <ele>141.59</ele>
        <time>2019-11-17T10:12:37.000Z</time>
      </trkpt>
      <trkpt lat="46.56174" lon="0.63075">
        <ele>141.79</ele>
        <time>2019-11-17T10:12:41.000Z</time>
      </trkpt>
      <trkpt lat="46.56179" lon="0.6306">
        <ele>142.13</ele>
        <time>2019-11-17T10:12:46.000Z</time>
      </trkpt>
      <trkpt lat="46.56187" lon="0.63048">
        <ele>142.58</ele>
        <time>2019-11-17T10:12:50.000Z</time>
      </trkpt>
      <trkpt lat="46.56193" lon="0.63037">
        <ele>143.2</ele>
        <time>2019-11-17T10:12:54.000Z</time>
      </trkpt>
      <trkpt lat="46.562" lon="0.63027">
        <ele>143.7</ele>
        <time>2019-11-17T10:12:57.000Z</time>
      </trkpt>
      <trkpt lat="46.56206" lon="0.63016">
        <ele>144.07</ele>
        <time>2019-11-17T10:13:00.000Z</time>
      </trkpt>
      <trkpt lat="46.56213" lon="0.63004">
        <ele>144.44</ele>
        <time>2019-11-17T10:13:04.000Z</time>
      </trkpt>
      <trkpt lat="46.56218" lon="0.62993">
        <ele>145.15</ele>
        <time>2019-11-17T10:13:09.000Z</time>
      </trkpt>
      <trkpt lat="46.56226" lon="0.62985">
        <ele>146.2</ele>
        <time>2019-11-17T10:13:16.000Z</time>
      </trkpt>
      <trkpt lat="46.56234" lon="0.62979">
        <ele>146.78</ele>
        <time>2019-11-17T10:13:21.000Z</time>
      </trkpt>
      <trkpt lat="46.5624" lon="0.62968">
        <ele>147.27</ele>
        <time>2019-11-17T10:13:27.000Z</time>
      </trkpt>
      <trkpt lat="46.56245" lon="0.62956">
        <ele>147.48</ele>
        <time>2019-11-17T10:13:31.000Z</time>
      </trkpt>
      <trkpt lat="46.56248" lon="0.62942">
        <ele>147.89</ele>
        <time>2019-11-17T10:13:35.000Z</time>
      </trkpt>
      <trkpt lat="46.56253" lon="0.62931">
        <ele>148.15</ele>
        <time>2019-11-17T10:13:38.000Z</time>
      </trkpt>
      <trkpt lat="46.56259" lon="0.62918">
        <ele>148.32</ele>
        <time>2019-11-17T10:13:42.000Z</time>
      </trkpt>
      <trkpt lat="46.56264" lon="0.62906">
        <ele>148.64</ele>
        <time>2019-11-17T10:13:46.000Z</time>
      </trkpt>
      <trkpt lat="46.5627" lon="0.62895">
        <ele>149.22</ele>
        <time>2019-11-17T10:13:51.000Z</time>
      </trkpt>
      <trkpt lat="46.56278" lon="0.62887">
        <ele>149.94</ele>
        <time>2019-11-17T10:13:56.000Z</time>
      </trkpt>
      <trkpt lat="46.56287" lon="0.62896">
        <ele>150.15</ele>
        <time>2019-11-17T10:13:59.000Z</time>
      </trkpt>
      <trkpt lat="46.56296" lon="0.62903">
        <ele>150.13</ele>
        <time>2019-11-17T10:14:01.000Z</time>
      </trkpt>
      <trkpt lat="46.56306" lon="0.62907">
        <ele>150.04</ele>
        <time>2019-11-17T10:14:04.000Z</time>
      </trkpt>
      <trkpt lat="46.56314" lon="0.62896">
        <ele>149.88</ele>
        <time>2019-11-17T10:14:08.000Z</time>
      </trkpt>
      <trkpt lat="46.56322" lon="0.62885">
        <ele>149.69</ele>
        <time>2019-11-17T10:14:11.000Z</time>
      </trkpt>
      <trkpt lat="46.56332" lon="0.62878">
        <ele>148.53</ele>
        <time>2019-11-17T10:14:14.000Z</time>
      </trkpt>
      <trkpt lat="46.56341" lon="0.62866">
        <ele>148.46</ele>
        <time>2019-11-17T10:14:17.000Z</time>
      </trkpt>
      <trkpt lat="46.56338" lon="0.62847">
        <ele>148.39</ele>
        <time>2019-11-17T10:14:20.000Z</time>
      </trkpt>
      <trkpt lat="46.56333" lon="0.62837">
        <ele>147.83</ele>
        <time>2019-11-17T10:14:22.000Z</time>
      </trkpt>
      <trkpt lat="46.56327" lon="0.6282">
        <ele>147.85</ele>
        <time>2019-11-17T10:14:25.000Z</time>
      </trkpt>
      <trkpt lat="46.56321" lon="0.62805">
        <ele>148.11</ele>
        <time>2019-11-17T10:14:28.000Z</time>
      </trkpt>
      <trkpt lat="46.56315" lon="0.62789">
        <ele>148.36</ele>
        <time>2019-11-17T10:14:31.000Z</time>
      </trkpt>
      <trkpt lat="46.56309" lon="0.62773">
        <ele>149.33</ele>
        <time>2019-11-17T10:14:34.000Z</time>
      </trkpt>
      <trkpt lat="46.56302" lon="0.6276">
        <ele>150.49</ele>
        <time>2019-11-17T10:14:37.000Z</time>
      </trkpt>
      <trkpt lat="46.56295" lon="0.6275">
        <ele>151.32</ele>
        <time>2019-11-17T10:14:39.000Z</time>
      </trkpt>
      <trkpt lat="46.56287" lon="0.62743">
        <ele>152.08</ele>
        <time>2019-11-17T10:14:41.000Z</time>
      </trkpt>
      <trkpt lat="46.56279" lon="0.62735">
        <ele>153.01</ele>
        <time>2019-11-17T10:14:43.000Z</time>
      </trkpt>
      <trkpt lat="46.5627" lon="0.62725">
        <ele>153.74</ele>
        <time>2019-11-17T10:14:46.000Z</time>
      </trkpt>
      <trkpt lat="46.56259" lon="0.62717">
        <ele>154.99</ele>
        <time>2019-11-17T10:14:49.000Z</time>
      </trkpt>
      <trkpt lat="46.56251" lon="0.62711">
        <ele>155.68</ele>
        <time>2019-11-17T10:14:51.000Z</time>
      </trkpt>
      <trkpt lat="46.56243" lon="0.62703">
        <ele>155.69</ele>
        <time>2019-11-17T10:14:53.000Z</time>
      </trkpt>
      <trkpt lat="46.56231" lon="0.62692">
        <ele>154.96</ele>
        <time>2019-11-17T10:14:56.000Z</time>
      </trkpt>
      <trkpt lat="46.56221" lon="0.62682">
        <ele>153.99</ele>
        <time>2019-11-17T10:14:59.000Z</time>
      </trkpt>
      <trkpt lat="46.56214" lon="0.62671">
        <ele>154</ele>
        <time>2019-11-17T10:15:02.000Z</time>
      </trkpt>
      <trkpt lat="46.56209" lon="0.62656">
        <ele>154.05</ele>
        <time>2019-11-17T10:15:05.000Z</time>
      </trkpt>
      <trkpt lat="46.56205" lon="0.6264">
        <ele>154.12</ele>
        <time>2019-11-17T10:15:08.000Z</time>
      </trkpt>
      <trkpt lat="46.5621" lon="0.62627">
        <ele>154.24</ele>
        <time>2019-11-17T10:15:11.000Z</time>
      </trkpt>
      <trkpt lat="46.56215" lon="0.62613">
        <ele>154.47</ele>
        <time>2019-11-17T10:15:14.000Z</time>
      </trkpt>
      <trkpt lat="46.56221" lon="0.62599">
        <ele>154.81</ele>
        <time>2019-11-17T10:15:17.000Z</time>
      </trkpt>
      <trkpt lat="46.56225" lon="0.62583">
        <ele>155.18</ele>
        <time>2019-11-17T10:15:20.000Z</time>
      </trkpt>
      <trkpt lat="46.5623" lon="0.62569">
        <ele>156.29</ele>
        <time>2019-11-17T10:15:23.000Z</time>
      </trkpt>
      <trkpt lat="46.56236" lon="0.62555">
        <ele>158.06</ele>
        <time>2019-11-17T10:15:26.000Z</time>
      </trkpt>
      <trkpt lat="46.56242" lon="0.6254">
        <ele>159.84</ele>
        <time>2019-11-17T10:15:29.000Z</time>
      </trkpt>
      <trkpt lat="46.56248" lon="0.62529">
        <ele>160.82</ele>
        <time>2019-11-17T10:15:31.000Z</time>
      </trkpt>
      <trkpt lat="46.56253" lon="0.62516">
        <ele>160.89</ele>
        <time>2019-11-17T10:15:33.000Z</time>
      </trkpt>
      <trkpt lat="46.56259" lon="0.62502">
        <ele>159.86</ele>
        <time>2019-11-17T10:15:35.000Z</time>
      </trkpt>
      <trkpt lat="46.56265" lon="0.62488">
        <ele>157.74</ele>
        <time>2019-11-17T10:15:37.000Z</time>
      </trkpt>
      <trkpt lat="46.5627" lon="0.62474">
        <ele>156.07</ele>
        <time>2019-11-17T10:15:39.000Z</time>
      </trkpt>
      <trkpt lat="46.56275" lon="0.62462">
        <ele>154.96</ele>
        <time>2019-11-17T10:15:41.000Z</time>
      </trkpt>
      <trkpt lat="46.56281" lon="0.6245">
        <ele>153.89</ele>
        <time>2019-11-17T10:15:43.000Z</time>
      </trkpt>
      <trkpt lat="46.56284" lon="0.62433">
        <ele>153.11</ele>
        <time>2019-11-17T10:15:46.000Z</time>
      </trkpt>
      <trkpt lat="46.56274" lon="0.62425">
        <ele>153.06</ele>
        <time>2019-11-17T10:15:49.000Z</time>
      </trkpt>
      <trkpt lat="46.56263" lon="0.62429">
        <ele>153.22</ele>
        <time>2019-11-17T10:15:52.000Z</time>
      </trkpt>
      <trkpt lat="46.56253" lon="0.62424">
        <ele>154.46</ele>
        <time>2019-11-17T10:15:55.000Z</time>
      </trkpt>
      <trkpt lat="46.56248" lon="0.62412">
        <ele>156.11</ele>
        <time>2019-11-17T10:15:57.000Z</time>
      </trkpt>
      <trkpt lat="46.5624" lon="0.62398">
        <ele>157.53</ele>
        <time>2019-11-17T10:16:00.000Z</time>
      </trkpt>
      <trkpt lat="46.56232" lon="0.62382">
        <ele>157.58</ele>
        <time>2019-11-17T10:16:03.000Z</time>
      </trkpt>
      <trkpt lat="46.56222" lon="0.62371">
        <ele>157.13</ele>
        <time>2019-11-17T10:16:06.000Z</time>
      </trkpt>
      <trkpt lat="46.56214" lon="0.62361">
        <ele>157.19</ele>
        <time>2019-11-17T10:16:08.000Z</time>
      </trkpt>
      <trkpt lat="46.56207" lon="0.62351">
        <ele>157.24</ele>
        <time>2019-11-17T10:16:10.000Z</time>
      </trkpt>
      <trkpt lat="46.56198" lon="0.62341">
        <ele>157.78</ele>
        <time>2019-11-17T10:16:13.000Z</time>
      </trkpt>
      <trkpt lat="46.56188" lon="0.62333">
        <ele>158.16</ele>
        <time>2019-11-17T10:16:15.000Z</time>
      </trkpt>
      <trkpt lat="46.56178" lon="0.62326">
        <ele>157.91</ele>
        <time>2019-11-17T10:16:17.000Z</time>
      </trkpt>
      <trkpt lat="46.56166" lon="0.62318">
        <ele>157.86</ele>
        <time>2019-11-17T10:16:19.000Z</time>
      </trkpt>
      <trkpt lat="46.56156" lon="0.6231">
        <ele>158.07</ele>
        <time>2019-11-17T10:16:21.000Z</time>
      </trkpt>
      <trkpt lat="46.56144" lon="0.62299">
        <ele>157.65</ele>
        <time>2019-11-17T10:16:24.000Z</time>
      </trkpt>
      <trkpt lat="46.56136" lon="0.6229">
        <ele>157.57</ele>
        <time>2019-11-17T10:16:27.000Z</time>
      </trkpt>
      <trkpt lat="46.56128" lon="0.62282">
        <ele>157.55</ele>
        <time>2019-11-17T10:16:29.000Z</time>
      </trkpt>
      <trkpt lat="46.56119" lon="0.62271">
        <ele>157.56</ele>
        <time>2019-11-17T10:16:31.000Z</time>
      </trkpt>
      <trkpt lat="46.56111" lon="0.62261">
        <ele>158.09</ele>
        <time>2019-11-17T10:16:33.000Z</time>
      </trkpt>
      <trkpt lat="46.56103" lon="0.62251">
        <ele>158.45</ele>
        <time>2019-11-17T10:16:35.000Z</time>
      </trkpt>
      <trkpt lat="46.56095" lon="0.62242">
        <ele>158.88</ele>
        <time>2019-11-17T10:16:37.000Z</time>
      </trkpt>
      <trkpt lat="46.56085" lon="0.62228">
        <ele>158.95</ele>
        <time>2019-11-17T10:16:40.000Z</time>
      </trkpt>
      <trkpt lat="46.56078" lon="0.62215">
        <ele>158.65</ele>
        <time>2019-11-17T10:16:42.000Z</time>
      </trkpt>
      <trkpt lat="46.56071" lon="0.62199">
        <ele>158.66</ele>
        <time>2019-11-17T10:16:45.000Z</time>
      </trkpt>
      <trkpt lat="46.56061" lon="0.6219">
        <ele>158.63</ele>
        <time>2019-11-17T10:16:47.000Z</time>
      </trkpt>
      <trkpt lat="46.56051" lon="0.62183">
        <ele>158.6</ele>
        <time>2019-11-17T10:16:49.000Z</time>
      </trkpt>
      <trkpt lat="46.56043" lon="0.62176">
        <ele>158.57</ele>
        <time>2019-11-17T10:16:51.000Z</time>
      </trkpt>
      <trkpt lat="46.56034" lon="0.62166">
        <ele>158.69</ele>
        <time>2019-11-17T10:16:54.000Z</time>
      </trkpt>
      <trkpt lat="46.56026" lon="0.62157">
        <ele>159.86</ele>
        <time>2019-11-17T10:16:56.000Z</time>
      </trkpt>
      <trkpt lat="46.56017" lon="0.62147">
        <ele>161.87</ele>
        <time>2019-11-17T10:16:58.000Z</time>
      </trkpt>
      <trkpt lat="46.56009" lon="0.62135">
        <ele>163.78</ele>
        <time>2019-11-17T10:17:00.000Z</time>
      </trkpt>
      <trkpt lat="46.56" lon="0.62126">
        <ele>163.99</ele>
        <time>2019-11-17T10:17:02.000Z</time>
      </trkpt>
      <trkpt lat="46.55994" lon="0.62115">
        <ele>164.36</ele>
        <time>2019-11-17T10:17:05.000Z</time>
      </trkpt>
      <trkpt lat="46.55987" lon="0.62102">
        <ele>164.66</ele>
        <time>2019-11-17T10:17:07.000Z</time>
      </trkpt>
      <trkpt lat="46.55985" lon="0.62085">
        <ele>165.55</ele>
        <time>2019-11-17T10:17:11.000Z</time>
      </trkpt>
      <trkpt lat="46.55991" lon="0.62074">
        <ele>171.18</ele>
        <time>2019-11-17T10:17:13.000Z</time>
      </trkpt>
      <trkpt lat="46.55998" lon="0.62066">
        <ele>175.56</ele>
        <time>2019-11-17T10:17:15.000Z</time>
      </trkpt>
      <trkpt lat="46.56001" lon="0.62044">
        <ele>175.7</ele>
        <time>2019-11-17T10:17:17.000Z</time>
      </trkpt>
      <trkpt lat="46.55996" lon="0.62024">
        <ele>175.12</ele>
        <time>2019-11-17T10:17:19.000Z</time>
      </trkpt>
      <trkpt lat="46.55989" lon="0.62005">
        <ele>173.34</ele>
        <time>2019-11-17T10:17:21.000Z</time>
      </trkpt>
      <trkpt lat="46.55978" lon="0.61968">
        <ele>170.25</ele>
        <time>2019-11-17T10:17:27.000Z</time>
      </trkpt>
      <trkpt lat="46.55969" lon="0.61964">
        <ele>170.14</ele>
        <time>2019-11-17T10:17:30.000Z</time>
      </trkpt>
      <trkpt lat="46.55961" lon="0.61975">
        <ele>168.1</ele>
        <time>2019-11-17T10:17:32.000Z</time>
      </trkpt>
      <trkpt lat="46.55953" lon="0.61989">
        <ele>163.97</ele>
        <time>2019-11-17T10:17:35.000Z</time>
      </trkpt>
      <trkpt lat="46.55948" lon="0.62">
        <ele>162.12</ele>
        <time>2019-11-17T10:17:37.000Z</time>
      </trkpt>
      <trkpt lat="46.55942" lon="0.62013">
        <ele>161.7</ele>
        <time>2019-11-17T10:17:40.000Z</time>
      </trkpt>
      <trkpt lat="46.55933" lon="0.62018">
        <ele>161.44</ele>
        <time>2019-11-17T10:17:43.000Z</time>
      </trkpt>
      <trkpt lat="46.55922" lon="0.62012">
        <ele>161.33</ele>
        <time>2019-11-17T10:17:46.000Z</time>
      </trkpt>
      <trkpt lat="46.55911" lon="0.62007">
        <ele>161.65</ele>
        <time>2019-11-17T10:17:49.000Z</time>
      </trkpt>
      <trkpt lat="46.55901" lon="0.62001">
        <ele>161.8</ele>
        <time>2019-11-17T10:17:52.000Z</time>
      </trkpt>
      <trkpt lat="46.5589" lon="0.61991">
        <ele>161.97</ele>
        <time>2019-11-17T10:17:54.000Z</time>
      </trkpt>
      <trkpt lat="46.55884" lon="0.61981">
        <ele>162.09</ele>
        <time>2019-11-17T10:17:56.000Z</time>
      </trkpt>
      <trkpt lat="46.55877" lon="0.61972">
        <ele>162.25</ele>
        <time>2019-11-17T10:17:59.000Z</time>
      </trkpt>
      <trkpt lat="46.55867" lon="0.61966">
        <ele>162.51</ele>
        <time>2019-11-17T10:18:02.000Z</time>
      </trkpt>
      <trkpt lat="46.55859" lon="0.61958">
        <ele>162.64</ele>
        <time>2019-11-17T10:18:05.000Z</time>
      </trkpt>
      <trkpt lat="46.5585" lon="0.61954">
        <ele>162.82</ele>
        <time>2019-11-17T10:18:07.000Z</time>
      </trkpt>
      <trkpt lat="46.55841" lon="0.6195">
        <ele>163.03</ele>
        <time>2019-11-17T10:18:09.000Z</time>
      </trkpt>
      <trkpt lat="46.55833" lon="0.61944">
        <ele>163.28</ele>
        <time>2019-11-17T10:18:11.000Z</time>
      </trkpt>
      <trkpt lat="46.55824" lon="0.61933">
        <ele>163.81</ele>
        <time>2019-11-17T10:18:14.000Z</time>
      </trkpt>
      <trkpt lat="46.55815" lon="0.61928">
        <ele>164.65</ele>
        <time>2019-11-17T10:18:17.000Z</time>
      </trkpt>
      <trkpt lat="46.55806" lon="0.61923">
        <ele>165.28</ele>
        <time>2019-11-17T10:18:19.000Z</time>
      </trkpt>
      <trkpt lat="46.55797" lon="0.61916">
        <ele>165.94</ele>
        <time>2019-11-17T10:18:21.000Z</time>
      </trkpt>
      <trkpt lat="46.55785" lon="0.61905">
        <ele>166.95</ele>
        <time>2019-11-17T10:18:24.000Z</time>
      </trkpt>
      <trkpt lat="46.55775" lon="0.619">
        <ele>167.99</ele>
        <time>2019-11-17T10:18:27.000Z</time>
      </trkpt>
      <trkpt lat="46.55764" lon="0.61898">
        <ele>169.04</ele>
        <time>2019-11-17T10:18:30.000Z</time>
      </trkpt>
      <trkpt lat="46.55753" lon="0.61896">
        <ele>170.15</ele>
        <time>2019-11-17T10:18:33.000Z</time>
      </trkpt>
      <trkpt lat="46.55743" lon="0.61898">
        <ele>171.15</ele>
        <time>2019-11-17T10:18:36.000Z</time>
      </trkpt>
      <trkpt lat="46.55731" lon="0.61898">
        <ele>172.44</ele>
        <time>2019-11-17T10:18:40.000Z</time>
      </trkpt>
      <trkpt lat="46.55722" lon="0.61895">
        <ele>172.94</ele>
        <time>2019-11-17T10:18:42.000Z</time>
      </trkpt>
      <trkpt lat="46.55712" lon="0.61899">
        <ele>173.64</ele>
        <time>2019-11-17T10:18:45.000Z</time>
      </trkpt>
      <trkpt lat="46.55702" lon="0.61907">
        <ele>174.51</ele>
        <time>2019-11-17T10:18:49.000Z</time>
      </trkpt>
      <trkpt lat="46.55695" lon="0.61916">
        <ele>175.16</ele>
        <time>2019-11-17T10:18:52.000Z</time>
      </trkpt>
      <trkpt lat="46.55685" lon="0.61924">
        <ele>175.95</ele>
        <time>2019-11-17T10:18:57.000Z</time>
      </trkpt>
      <trkpt lat="46.55676" lon="0.61932">
        <ele>176.45</ele>
        <time>2019-11-17T10:19:00.000Z</time>
      </trkpt>
      <trkpt lat="46.5567" lon="0.61942">
        <ele>176.78</ele>
        <time>2019-11-17T10:19:04.000Z</time>
      </trkpt>
      <trkpt lat="46.55662" lon="0.61953">
        <ele>177.08</ele>
        <time>2019-11-17T10:19:09.000Z</time>
      </trkpt>
      <trkpt lat="46.55653" lon="0.61963">
        <ele>177.62</ele>
        <time>2019-11-17T10:19:14.000Z</time>
      </trkpt>
      <trkpt lat="46.5564" lon="0.61966">
        <ele>177.94</ele>
        <time>2019-11-17T10:19:17.000Z</time>
      </trkpt>
      <trkpt lat="46.55629" lon="0.61967">
        <ele>178.1</ele>
        <time>2019-11-17T10:19:19.000Z</time>
      </trkpt>
      <trkpt lat="46.55616" lon="0.6197">
        <ele>178.35</ele>
        <time>2019-11-17T10:19:22.000Z</time>
      </trkpt>
      <trkpt lat="46.55607" lon="0.61974">
        <ele>178.61</ele>
        <time>2019-11-17T10:19:25.000Z</time>
      </trkpt>
      <trkpt lat="46.55598" lon="0.61975">
        <ele>178.91</ele>
        <time>2019-11-17T10:19:28.000Z</time>
      </trkpt>
      <trkpt lat="46.55587" lon="0.61977">
        <ele>179.3</ele>
        <time>2019-11-17T10:19:31.000Z</time>
      </trkpt>
      <trkpt lat="46.55578" lon="0.61978">
        <ele>179.75</ele>
        <time>2019-11-17T10:19:34.000Z</time>
      </trkpt>
      <trkpt lat="46.55567" lon="0.61979">
        <ele>180.12</ele>
        <time>2019-11-17T10:19:37.000Z</time>
      </trkpt>
      <trkpt lat="46.55557" lon="0.61979">
        <ele>180.53</ele>
        <time>2019-11-17T10:19:40.000Z</time>
      </trkpt>
      <trkpt lat="46.55547" lon="0.61983">
        <ele>180.88</ele>
        <time>2019-11-17T10:19:43.000Z</time>
      </trkpt>
      <trkpt lat="46.55535" lon="0.61986">
        <ele>181.12</ele>
        <time>2019-11-17T10:19:46.000Z</time>
      </trkpt>
      <trkpt lat="46.55526" lon="0.61987">
        <ele>181.22</ele>
        <time>2019-11-17T10:19:48.000Z</time>
      </trkpt>
      <trkpt lat="46.55515" lon="0.61996">
        <ele>181.51</ele>
        <time>2019-11-17T10:19:52.000Z</time>
      </trkpt>
      <trkpt lat="46.55505" lon="0.62006">
        <ele>181.77</ele>
        <time>2019-11-17T10:19:55.000Z</time>
      </trkpt>
      <trkpt lat="46.55505" lon="0.62023">
        <ele>181.87</ele>
        <time>2019-11-17T10:19:59.000Z</time>
      </trkpt>
      <trkpt lat="46.55506" lon="0.62037">
        <ele>181.63</ele>
        <time>2019-11-17T10:20:02.000Z</time>
      </trkpt>
      <trkpt lat="46.55508" lon="0.62056">
        <ele>178.22</ele>
        <time>2019-11-17T10:20:05.000Z</time>
      </trkpt>
      <trkpt lat="46.55508" lon="0.62069">
        <ele>176.29</ele>
        <time>2019-11-17T10:20:07.000Z</time>
      </trkpt>
      <trkpt lat="46.55508" lon="0.62083">
        <ele>173.87</ele>
        <time>2019-11-17T10:20:09.000Z</time>
      </trkpt>
      <trkpt lat="46.55508" lon="0.62097">
        <ele>171.23</ele>
        <time>2019-11-17T10:20:11.000Z</time>
      </trkpt>
      <trkpt lat="46.55508" lon="0.62111">
        <ele>169.09</ele>
        <time>2019-11-17T10:20:13.000Z</time>
      </trkpt>
      <trkpt lat="46.55507" lon="0.62125">
        <ele>167.4</ele>
        <time>2019-11-17T10:20:15.000Z</time>
      </trkpt>
      <trkpt lat="46.55507" lon="0.6214">
        <ele>166.16</ele>
        <time>2019-11-17T10:20:17.000Z</time>
      </trkpt>
      <trkpt lat="46.55507" lon="0.62153">
        <ele>164.9</ele>
        <time>2019-11-17T10:20:19.000Z</time>
      </trkpt>
      <trkpt lat="46.55506" lon="0.62167">
        <ele>163.26</ele>
        <time>2019-11-17T10:20:21.000Z</time>
      </trkpt>
      <trkpt lat="46.55506" lon="0.62182">
        <ele>161.63</ele>
        <time>2019-11-17T10:20:23.000Z</time>
      </trkpt>
      <trkpt lat="46.55505" lon="0.62197">
        <ele>159.87</ele>
        <time>2019-11-17T10:20:25.000Z</time>
      </trkpt>
      <trkpt lat="46.55505" lon="0.62212">
        <ele>158.48</ele>
        <time>2019-11-17T10:20:27.000Z</time>
      </trkpt>
      <trkpt lat="46.55506" lon="0.62227">
        <ele>156.43</ele>
        <time>2019-11-17T10:20:29.000Z</time>
      </trkpt>
      <trkpt lat="46.55506" lon="0.6224">
        <ele>155</ele>
        <time>2019-11-17T10:20:31.000Z</time>
      </trkpt>
      <trkpt lat="46.55506" lon="0.62256">
        <ele>154.51</ele>
        <time>2019-11-17T10:20:33.000Z</time>
      </trkpt>
      <trkpt lat="46.55504" lon="0.62273">
        <ele>154.61</ele>
        <time>2019-11-17T10:20:35.000Z</time>
      </trkpt>
      <trkpt lat="46.55502" lon="0.6229">
        <ele>154.72</ele>
        <time>2019-11-17T10:20:37.000Z</time>
      </trkpt>
      <trkpt lat="46.555" lon="0.62307">
        <ele>154.73</ele>
        <time>2019-11-17T10:20:39.000Z</time>
      </trkpt>
      <trkpt lat="46.55498" lon="0.62324">
        <ele>154.51</ele>
        <time>2019-11-17T10:20:41.000Z</time>
      </trkpt>
      <trkpt lat="46.55496" lon="0.62342">
        <ele>154.2</ele>
        <time>2019-11-17T10:20:43.000Z</time>
      </trkpt>
      <trkpt lat="46.55495" lon="0.6236">
        <ele>154.07</ele>
        <time>2019-11-17T10:20:45.000Z</time>
      </trkpt>
      <trkpt lat="46.55494" lon="0.62377">
        <ele>154.05</ele>
        <time>2019-11-17T10:20:47.000Z</time>
      </trkpt>
      <trkpt lat="46.55492" lon="0.62394">
        <ele>153.98</ele>
        <time>2019-11-17T10:20:49.000Z</time>
      </trkpt>
      <trkpt lat="46.55491" lon="0.62413">
        <ele>153.39</ele>
        <time>2019-11-17T10:20:51.000Z</time>
      </trkpt>
      <trkpt lat="46.5549" lon="0.62431">
        <ele>152.12</ele>
        <time>2019-11-17T10:20:53.000Z</time>
      </trkpt>
      <trkpt lat="46.5549" lon="0.62451">
        <ele>150.72</ele>
        <time>2019-11-17T10:20:55.000Z</time>
      </trkpt>
      <trkpt lat="46.55491" lon="0.62472">
        <ele>149.8</ele>
        <time>2019-11-17T10:20:57.000Z</time>
      </trkpt>
      <trkpt lat="46.55493" lon="0.62492">
        <ele>149.42</ele>
        <time>2019-11-17T10:20:59.000Z</time>
      </trkpt>
      <trkpt lat="46.55493" lon="0.62514">
        <ele>148.93</ele>
        <time>2019-11-17T10:21:01.000Z</time>
      </trkpt>
      <trkpt lat="46.55493" lon="0.62536">
        <ele>148.51</ele>
        <time>2019-11-17T10:21:03.000Z</time>
      </trkpt>
      <trkpt lat="46.55492" lon="0.62558">
        <ele>148.19</ele>
        <time>2019-11-17T10:21:05.000Z</time>
      </trkpt>
      <trkpt lat="46.55494" lon="0.62581">
        <ele>147.84</ele>
        <time>2019-11-17T10:21:07.000Z</time>
      </trkpt>
      <trkpt lat="46.55494" lon="0.62605">
        <ele>147.24</ele>
        <time>2019-11-17T10:21:09.000Z</time>
      </trkpt>
      <trkpt lat="46.5549" lon="0.62629">
        <ele>146.17</ele>
        <time>2019-11-17T10:21:11.000Z</time>
      </trkpt>
      <trkpt lat="46.5549" lon="0.62652">
        <ele>145.01</ele>
        <time>2019-11-17T10:21:13.000Z</time>
      </trkpt>
      <trkpt lat="46.55487" lon="0.62673">
        <ele>144.36</ele>
        <time>2019-11-17T10:21:15.000Z</time>
      </trkpt>
      <trkpt lat="46.55483" lon="0.62694">
        <ele>144.03</ele>
        <time>2019-11-17T10:21:17.000Z</time>
      </trkpt>
      <trkpt lat="46.5548" lon="0.62712">
        <ele>143.65</ele>
        <time>2019-11-17T10:21:19.000Z</time>
      </trkpt>
      <trkpt lat="46.55478" lon="0.62728">
        <ele>143.31</ele>
        <time>2019-11-17T10:21:21.000Z</time>
      </trkpt>
      <trkpt lat="46.55472" lon="0.6274">
        <ele>144.09</ele>
        <time>2019-11-17T10:21:23.000Z</time>
      </trkpt>
      <trkpt lat="46.55464" lon="0.62758">
        <ele>144.74</ele>
        <time>2019-11-17T10:21:25.000Z</time>
      </trkpt>
      <trkpt lat="46.5546" lon="0.62769">
        <ele>144.61</ele>
        <time>2019-11-17T10:21:26.000Z</time>
      </trkpt>
      <trkpt lat="46.55454" lon="0.6278">
        <ele>144.22</ele>
        <time>2019-11-17T10:21:27.000Z</time>
      </trkpt>
      <trkpt lat="46.55447" lon="0.62792">
        <ele>143.62</ele>
        <time>2019-11-17T10:21:28.000Z</time>
      </trkpt>
      <trkpt lat="46.55439" lon="0.62804">
        <ele>143.07</ele>
        <time>2019-11-17T10:21:29.000Z</time>
      </trkpt>
      <trkpt lat="46.5543" lon="0.62815">
        <ele>142.39</ele>
        <time>2019-11-17T10:21:30.000Z</time>
      </trkpt>
      <trkpt lat="46.55422" lon="0.62826">
        <ele>141.77</ele>
        <time>2019-11-17T10:21:31.000Z</time>
      </trkpt>
      <trkpt lat="46.55414" lon="0.62834">
        <ele>140.92</ele>
        <time>2019-11-17T10:21:32.000Z</time>
      </trkpt>
      <trkpt lat="46.55402" lon="0.62847">
        <ele>138.76</ele>
        <time>2019-11-17T10:21:34.000Z</time>
      </trkpt>
      <trkpt lat="46.55398" lon="0.62859">
        <ele>138.35</ele>
        <time>2019-11-17T10:21:37.000Z</time>
      </trkpt>
      <trkpt lat="46.55408" lon="0.62865">
        <ele>137.12</ele>
        <time>2019-11-17T10:21:43.000Z</time>
      </trkpt>
      <trkpt lat="46.55418" lon="0.62869">
        <ele>134.76</ele>
        <time>2019-11-17T10:21:46.000Z</time>
      </trkpt>
      <trkpt lat="46.55428" lon="0.62871">
        <ele>133.1</ele>
        <time>2019-11-17T10:21:48.000Z</time>
      </trkpt>
      <trkpt lat="46.55438" lon="0.62879">
        <ele>132.72</ele>
        <time>2019-11-17T10:21:51.000Z</time>
      </trkpt>
      <trkpt lat="46.55448" lon="0.62888">
        <ele>130.87</ele>
        <time>2019-11-17T10:21:54.000Z</time>
      </trkpt>
      <trkpt lat="46.55458" lon="0.62895">
        <ele>130.47</ele>
        <time>2019-11-17T10:21:57.000Z</time>
      </trkpt>
      <trkpt lat="46.55469" lon="0.62896">
        <ele>129.82</ele>
        <time>2019-11-17T10:22:01.000Z</time>
      </trkpt>
      <trkpt lat="46.5548" lon="0.62896">
        <ele>128.92</ele>
        <time>2019-11-17T10:22:06.000Z</time>
      </trkpt>
      <trkpt lat="46.55492" lon="0.62898">
        <ele>128.47</ele>
        <time>2019-11-17T10:22:10.000Z</time>
      </trkpt>
      <trkpt lat="46.55501" lon="0.62902">
        <ele>128.27</ele>
        <time>2019-11-17T10:22:13.000Z</time>
      </trkpt>
      <trkpt lat="46.55512" lon="0.62906">
        <ele>128.32</ele>
        <time>2019-11-17T10:22:17.000Z</time>
      </trkpt>
      <trkpt lat="46.5552" lon="0.62912">
        <ele>128.49</ele>
        <time>2019-11-17T10:22:19.000Z</time>
      </trkpt>
      <trkpt lat="46.55531" lon="0.62918">
        <ele>128.79</ele>
        <time>2019-11-17T10:22:22.000Z</time>
      </trkpt>
      <trkpt lat="46.5554" lon="0.62926">
        <ele>129.2</ele>
        <time>2019-11-17T10:22:25.000Z</time>
      </trkpt>
      <trkpt lat="46.55549" lon="0.62933">
        <ele>129.65</ele>
        <time>2019-11-17T10:22:28.000Z</time>
      </trkpt>
      <trkpt lat="46.55559" lon="0.62937">
        <ele>130.03</ele>
        <time>2019-11-17T10:22:31.000Z</time>
      </trkpt>
      <trkpt lat="46.55569" lon="0.62941">
        <ele>130.37</ele>
        <time>2019-11-17T10:22:34.000Z</time>
      </trkpt>
      <trkpt lat="46.5558" lon="0.62948">
        <ele>130.68</ele>
        <time>2019-11-17T10:22:37.000Z</time>
      </trkpt>
      <trkpt lat="46.55592" lon="0.62956">
        <ele>130.87</ele>
        <time>2019-11-17T10:22:41.000Z</time>
      </trkpt>
      <trkpt lat="46.556" lon="0.62963">
        <ele>130.98</ele>
        <time>2019-11-17T10:22:43.000Z</time>
      </trkpt>
      <trkpt lat="46.55609" lon="0.6297">
        <ele>131.25</ele>
        <time>2019-11-17T10:22:46.000Z</time>
      </trkpt>
      <trkpt lat="46.55616" lon="0.6298">
        <ele>131.49</ele>
        <time>2019-11-17T10:22:48.000Z</time>
      </trkpt>
      <trkpt lat="46.55627" lon="0.62988">
        <ele>131.63</ele>
        <time>2019-11-17T10:22:52.000Z</time>
      </trkpt>
      <trkpt lat="46.55634" lon="0.62995">
        <ele>131.71</ele>
        <time>2019-11-17T10:22:56.000Z</time>
      </trkpt>
      <trkpt lat="46.55644" lon="0.62999">
        <ele>131.86</ele>
        <time>2019-11-17T10:22:59.000Z</time>
      </trkpt>
      <trkpt lat="46.55654" lon="0.63003">
        <ele>132.23</ele>
        <time>2019-11-17T10:23:02.000Z</time>
      </trkpt>
      <trkpt lat="46.55665" lon="0.63009">
        <ele>132.58</ele>
        <time>2019-11-17T10:23:05.000Z</time>
      </trkpt>
      <trkpt lat="46.55672" lon="0.63016">
        <ele>132.79</ele>
        <time>2019-11-17T10:23:07.000Z</time>
      </trkpt>
      <trkpt lat="46.55679" lon="0.63025">
        <ele>133</ele>
        <time>2019-11-17T10:23:09.000Z</time>
      </trkpt>
      <trkpt lat="46.55689" lon="0.63037">
        <ele>133.19</ele>
        <time>2019-11-17T10:23:12.000Z</time>
      </trkpt>
      <trkpt lat="46.55698" lon="0.63045">
        <ele>133.39</ele>
        <time>2019-11-17T10:23:15.000Z</time>
      </trkpt>
      <trkpt lat="46.55711" lon="0.63055">
        <ele>133.54</ele>
        <time>2019-11-17T10:23:18.000Z</time>
      </trkpt>
      <trkpt lat="46.5572" lon="0.63066">
        <ele>133.7</ele>
        <time>2019-11-17T10:23:20.000Z</time>
      </trkpt>
      <trkpt lat="46.55729" lon="0.63077">
        <ele>133.96</ele>
        <time>2019-11-17T10:23:23.000Z</time>
      </trkpt>
      <trkpt lat="46.55739" lon="0.63088">
        <ele>134.28</ele>
        <time>2019-11-17T10:23:26.000Z</time>
      </trkpt>
      <trkpt lat="46.55749" lon="0.63097">
        <ele>134.57</ele>
        <time>2019-11-17T10:23:29.000Z</time>
      </trkpt>
      <trkpt lat="46.55759" lon="0.63103">
        <ele>134.75</ele>
        <time>2019-11-17T10:23:31.000Z</time>
      </trkpt>
      <trkpt lat="46.55767" lon="0.63111">
        <ele>134.93</ele>
        <time>2019-11-17T10:23:33.000Z</time>
      </trkpt>
      <trkpt lat="46.55774" lon="0.6312">
        <ele>135.15</ele>
        <time>2019-11-17T10:23:35.000Z</time>
      </trkpt>
      <trkpt lat="46.55782" lon="0.63132">
        <ele>135.35</ele>
        <time>2019-11-17T10:23:38.000Z</time>
      </trkpt>
      <trkpt lat="46.55793" lon="0.63138">
        <ele>135.47</ele>
        <time>2019-11-17T10:23:40.000Z</time>
      </trkpt>
      <trkpt lat="46.55804" lon="0.63146">
        <ele>135.66</ele>
        <time>2019-11-17T10:23:42.000Z</time>
      </trkpt>
      <trkpt lat="46.55814" lon="0.63152">
        <ele>135.85</ele>
        <time>2019-11-17T10:23:45.000Z</time>
      </trkpt>
      <trkpt lat="46.55824" lon="0.6316">
        <ele>135.98</ele>
        <time>2019-11-17T10:23:47.000Z</time>
      </trkpt>
      <trkpt lat="46.55833" lon="0.63164">
        <ele>136.07</ele>
        <time>2019-11-17T10:23:49.000Z</time>
      </trkpt>
      <trkpt lat="46.55842" lon="0.63176">
        <ele>136.12</ele>
        <time>2019-11-17T10:23:51.000Z</time>
      </trkpt>
      <trkpt lat="46.55855" lon="0.63184">
        <ele>136.23</ele>
        <time>2019-11-17T10:23:54.000Z</time>
      </trkpt>
      <trkpt lat="46.55865" lon="0.6319">
        <ele>136.33</ele>
        <time>2019-11-17T10:23:56.000Z</time>
      </trkpt>
      <trkpt lat="46.55874" lon="0.63195">
        <ele>136.43</ele>
        <time>2019-11-17T10:23:58.000Z</time>
      </trkpt>
      <trkpt lat="46.55884" lon="0.63202">
        <ele>136.63</ele>
        <time>2019-11-17T10:24:01.000Z</time>
      </trkpt>
      <trkpt lat="46.55895" lon="0.63208">
        <ele>136.73</ele>
        <time>2019-11-17T10:24:03.000Z</time>
      </trkpt>
      <trkpt lat="46.55904" lon="0.63207">
        <ele>137.61</ele>
        <time>2019-11-17T10:24:05.000Z</time>
      </trkpt>
      <trkpt lat="46.55915" lon="0.63211">
        <ele>137.69</ele>
        <time>2019-11-17T10:24:07.000Z</time>
      </trkpt>
      <trkpt lat="46.55925" lon="0.63218">
        <ele>137.75</ele>
        <time>2019-11-17T10:24:10.000Z</time>
      </trkpt>
      <trkpt lat="46.55933" lon="0.63228">
        <ele>137.82</ele>
        <time>2019-11-17T10:24:12.000Z</time>
      </trkpt>
      <trkpt lat="46.55944" lon="0.63238">
        <ele>137.97</ele>
        <time>2019-11-17T10:24:15.000Z</time>
      </trkpt>
      <trkpt lat="46.55954" lon="0.63245">
        <ele>137.95</ele>
        <time>2019-11-17T10:24:18.000Z</time>
      </trkpt>
      <trkpt lat="46.55963" lon="0.63251">
        <ele>137.67</ele>
        <time>2019-11-17T10:24:22.000Z</time>
      </trkpt>
      <trkpt lat="46.55972" lon="0.63257">
        <ele>137.25</ele>
        <time>2019-11-17T10:24:26.000Z</time>
      </trkpt>
      <trkpt lat="46.55983" lon="0.63264">
        <ele>136.94</ele>
        <time>2019-11-17T10:24:30.000Z</time>
      </trkpt>
      <trkpt lat="46.5599" lon="0.63272">
        <ele>136.72</ele>
        <time>2019-11-17T10:24:32.000Z</time>
      </trkpt>
      <trkpt lat="46.56" lon="0.63282">
        <ele>136.58</ele>
        <time>2019-11-17T10:24:34.000Z</time>
      </trkpt>
      <trkpt lat="46.5601" lon="0.63298">
        <ele>136.56</ele>
        <time>2019-11-17T10:24:36.000Z</time>
      </trkpt>
      <trkpt lat="46.56014" lon="0.63317">
        <ele>136.2</ele>
        <time>2019-11-17T10:24:38.000Z</time>
      </trkpt>
      <trkpt lat="46.56016" lon="0.63335">
        <ele>134.56</ele>
        <time>2019-11-17T10:24:40.000Z</time>
      </trkpt>
      <trkpt lat="46.56014" lon="0.63357">
        <ele>130.97</ele>
        <time>2019-11-17T10:24:42.000Z</time>
      </trkpt>
      <trkpt lat="46.56011" lon="0.63379">
        <ele>127.48</ele>
        <time>2019-11-17T10:24:44.000Z</time>
      </trkpt>
      <trkpt lat="46.56009" lon="0.63403">
        <ele>124.2</ele>
        <time>2019-11-17T10:24:46.000Z</time>
      </trkpt>
      <trkpt lat="46.56004" lon="0.63427">
        <ele>121.29</ele>
        <time>2019-11-17T10:24:48.000Z</time>
      </trkpt>
      <trkpt lat="46.55999" lon="0.63451">
        <ele>118.84</ele>
        <time>2019-11-17T10:24:50.000Z</time>
      </trkpt>
      <trkpt lat="46.55993" lon="0.63475">
        <ele>116.95</ele>
        <time>2019-11-17T10:24:52.000Z</time>
      </trkpt>
      <trkpt lat="46.55986" lon="0.63498">
        <ele>115.51</ele>
        <time>2019-11-17T10:24:54.000Z</time>
      </trkpt>
      <trkpt lat="46.55981" lon="0.63516">
        <ele>114.34</ele>
        <time>2019-11-17T10:24:56.000Z</time>
      </trkpt>
      <trkpt lat="46.55979" lon="0.63532">
        <ele>113.49</ele>
        <time>2019-11-17T10:24:58.000Z</time>
      </trkpt>
      <trkpt lat="46.55985" lon="0.63548">
        <ele>112.67</ele>
        <time>2019-11-17T10:25:01.000Z</time>
      </trkpt>
      <trkpt lat="46.55996" lon="0.63553">
        <ele>112.58</ele>
        <time>2019-11-17T10:25:06.000Z</time>
      </trkpt>
      <trkpt lat="46.56006" lon="0.63555">
        <ele>112.49</ele>
        <time>2019-11-17T10:25:09.000Z</time>
      </trkpt>
      <trkpt lat="46.56015" lon="0.63557">
        <ele>112.5</ele>
        <time>2019-11-17T10:25:12.000Z</time>
      </trkpt>
      <trkpt lat="46.56022" lon="0.63547">
        <ele>112.54</ele>
        <time>2019-11-17T10:25:15.000Z</time>
      </trkpt>
      <trkpt lat="46.56032" lon="0.6354">
        <ele>112.75</ele>
        <time>2019-11-17T10:25:17.000Z</time>
      </trkpt>
      <trkpt lat="46.56043" lon="0.63537">
        <ele>112.85</ele>
        <time>2019-11-17T10:25:19.000Z</time>
      </trkpt>
      <trkpt lat="46.56052" lon="0.63536">
        <ele>112.65</ele>
        <time>2019-11-17T10:25:21.000Z</time>
      </trkpt>
      <trkpt lat="46.56065" lon="0.63535">
        <ele>112.19</ele>
        <time>2019-11-17T10:25:24.000Z</time>
      </trkpt>
      <trkpt lat="46.56077" lon="0.63533">
        <ele>112.07</ele>
        <time>2019-11-17T10:25:27.000Z</time>
      </trkpt>
      <trkpt lat="46.56088" lon="0.6353">
        <ele>111.97</ele>
        <time>2019-11-17T10:25:30.000Z</time>
      </trkpt>
      <trkpt lat="46.56098" lon="0.63523">
        <ele>111.87</ele>
        <time>2019-11-17T10:25:33.000Z</time>
      </trkpt>
      <trkpt lat="46.56104" lon="0.63512">
        <ele>111.79</ele>
        <time>2019-11-17T10:25:36.000Z</time>
      </trkpt>
      <trkpt lat="46.56098" lon="0.63499">
        <ele>111.64</ele>
        <time>2019-11-17T10:25:44.000Z</time>
      </trkpt>
      <trkpt lat="46.56093" lon="0.63483">
        <ele>111.84</ele>
        <time>2019-11-17T10:25:48.000Z</time>
      </trkpt>
      <trkpt lat="46.56089" lon="0.63469">
        <ele>112.11</ele>
        <time>2019-11-17T10:25:52.000Z</time>
      </trkpt>
      <trkpt lat="46.56083" lon="0.63456">
        <ele>112.4</ele>
        <time>2019-11-17T10:25:56.000Z</time>
      </trkpt>
      <trkpt lat="46.56077" lon="0.63443">
        <ele>112.59</ele>
        <time>2019-11-17T10:26:00.000Z</time>
      </trkpt>
      <trkpt lat="46.56071" lon="0.63432">
        <ele>112.84</ele>
        <time>2019-11-17T10:26:04.000Z</time>
      </trkpt>
      <trkpt lat="46.56065" lon="0.63418">
        <ele>113.19</ele>
        <time>2019-11-17T10:26:08.000Z</time>
      </trkpt>
      <trkpt lat="46.56062" lon="0.63405">
        <ele>113.51</ele>
        <time>2019-11-17T10:26:12.000Z</time>
      </trkpt>
      <trkpt lat="46.56061" lon="0.63391">
        <ele>113.77</ele>
        <time>2019-11-17T10:26:16.000Z</time>
      </trkpt>
      <trkpt lat="46.56058" lon="0.63377">
        <ele>114.12</ele>
        <time>2019-11-17T10:26:22.000Z</time>
      </trkpt>
      <trkpt lat="46.56057" lon="0.63364">
        <ele>114.73</ele>
        <time>2019-11-17T10:26:28.000Z</time>
      </trkpt>
      <trkpt lat="46.56055" lon="0.6335">
        <ele>115.99</ele>
        <time>2019-11-17T10:26:36.000Z</time>
      </trkpt>
      <trkpt lat="46.56054" lon="0.63337">
        <ele>117</ele>
        <time>2019-11-17T10:26:42.000Z</time>
      </trkpt>
      <trkpt lat="46.56054" lon="0.63323">
        <ele>118.42</ele>
        <time>2019-11-17T10:26:48.000Z</time>
      </trkpt>
      <trkpt lat="46.56054" lon="0.6331">
        <ele>119.28</ele>
        <time>2019-11-17T10:26:52.000Z</time>
      </trkpt>
      <trkpt lat="46.56055" lon="0.63295">
        <ele>120.22</ele>
        <time>2019-11-17T10:26:58.000Z</time>
      </trkpt>
      <trkpt lat="46.56057" lon="0.63279">
        <ele>120.96</ele>
        <time>2019-11-17T10:27:03.000Z</time>
      </trkpt>
      <trkpt lat="46.56058" lon="0.63264">
        <ele>121.71</ele>
        <time>2019-11-17T10:27:09.000Z</time>
      </trkpt>
      <trkpt lat="46.56058" lon="0.6325">
        <ele>123.17</ele>
        <time>2019-11-17T10:27:16.000Z</time>
      </trkpt>
      <trkpt lat="46.56063" lon="0.63236">
        <ele>124.1</ele>
        <time>2019-11-17T10:27:23.000Z</time>
      </trkpt>
      <trkpt lat="46.56072" lon="0.63233">
        <ele>124.67</ele>
        <time>2019-11-17T10:27:29.000Z</time>
      </trkpt>
      <trkpt lat="46.56081" lon="0.63228">
        <ele>125.52</ele>
        <time>2019-11-17T10:27:34.000Z</time>
      </trkpt>
      <trkpt lat="46.56089" lon="0.63218">
        <ele>127.05</ele>
        <time>2019-11-17T10:27:40.000Z</time>
      </trkpt>
      <trkpt lat="46.56092" lon="0.63201">
        <ele>127.87</ele>
        <time>2019-11-17T10:27:44.000Z</time>
      </trkpt>
      <trkpt lat="46.56093" lon="0.63188">
        <ele>128.74</ele>
        <time>2019-11-17T10:27:50.000Z</time>
      </trkpt>
      <trkpt lat="46.56097" lon="0.63175">
        <ele>130.2</ele>
        <time>2019-11-17T10:27:57.000Z</time>
      </trkpt>
      <trkpt lat="46.56104" lon="0.63163">
        <ele>131.99</ele>
        <time>2019-11-17T10:28:03.000Z</time>
      </trkpt>
      <trkpt lat="46.56113" lon="0.63151">
        <ele>133.37</ele>
        <time>2019-11-17T10:28:08.000Z</time>
      </trkpt>
      <trkpt lat="46.56121" lon="0.63143">
        <ele>134.13</ele>
        <time>2019-11-17T10:28:11.000Z</time>
      </trkpt>
      <trkpt lat="46.56128" lon="0.63134">
        <ele>134.8</ele>
        <time>2019-11-17T10:28:15.000Z</time>
      </trkpt>
      <trkpt lat="46.56136" lon="0.63127">
        <ele>135.91</ele>
        <time>2019-11-17T10:28:21.000Z</time>
      </trkpt>
      <trkpt lat="46.56146" lon="0.6312">
        <ele>137.97</ele>
        <time>2019-11-17T10:28:28.000Z</time>
      </trkpt>
      <trkpt lat="46.56156" lon="0.6312">
        <ele>139.47</ele>
        <time>2019-11-17T10:28:32.000Z</time>
      </trkpt>
      <trkpt lat="46.56159" lon="0.63135">
        <ele>141.74</ele>
        <time>2019-11-17T10:28:37.000Z</time>
      </trkpt>
      <trkpt lat="46.56156" lon="0.63148">
        <ele>143.42</ele>
        <time>2019-11-17T10:28:41.000Z</time>
      </trkpt>
      <trkpt lat="46.56152" lon="0.63164">
        <ele>144.94</ele>
        <time>2019-11-17T10:28:45.000Z</time>
      </trkpt>
      <trkpt lat="46.56147" lon="0.63177">
        <ele>145.98</ele>
        <time>2019-11-17T10:28:48.000Z</time>
      </trkpt>
      <trkpt lat="46.5614" lon="0.63189">
        <ele>146.97</ele>
        <time>2019-11-17T10:28:51.000Z</time>
      </trkpt>
      <trkpt lat="46.56132" lon="0.63203">
        <ele>147.83</ele>
        <time>2019-11-17T10:28:54.000Z</time>
      </trkpt>
      <trkpt lat="46.56129" lon="0.63216">
        <ele>148.47</ele>
        <time>2019-11-17T10:28:57.000Z</time>
      </trkpt>
      <trkpt lat="46.56129" lon="0.6323">
        <ele>148.75</ele>
        <time>2019-11-17T10:29:00.000Z</time>
      </trkpt>
      <trkpt lat="46.56124" lon="0.63242">
        <ele>148.72</ele>
        <time>2019-11-17T10:29:03.000Z</time>
      </trkpt>
      <trkpt lat="46.56116" lon="0.63251">
        <ele>148.66</ele>
        <time>2019-11-17T10:29:06.000Z</time>
      </trkpt>
      <trkpt lat="46.5611" lon="0.63264">
        <ele>148.84</ele>
        <time>2019-11-17T10:29:10.000Z</time>
      </trkpt>
      <trkpt lat="46.56105" lon="0.63277">
        <ele>149.12</ele>
        <time>2019-11-17T10:29:14.000Z</time>
      </trkpt>
      <trkpt lat="46.56094" lon="0.6328">
        <ele>149.31</ele>
        <time>2019-11-17T10:29:20.000Z</time>
      </trkpt>
      <trkpt lat="46.56084" lon="0.63281">
        <ele>149.25</ele>
        <time>2019-11-17T10:29:31.000Z</time>
      </trkpt>
      <trkpt lat="46.56076" lon="0.63285">
        <ele>149.13</ele>
        <time>2019-11-17T10:29:42.000Z</time>
      </trkpt>
      <trkpt lat="46.5607" lon="0.63273">
        <ele>149.69</ele>
        <time>2019-11-17T10:29:49.000Z</time>
      </trkpt>
      <trkpt lat="46.56063" lon="0.63262">
        <ele>149.89</ele>
        <time>2019-11-17T10:29:52.000Z</time>
      </trkpt>
      <trkpt lat="46.5606" lon="0.63248">
        <ele>149.96</ele>
        <time>2019-11-17T10:29:55.000Z</time>
      </trkpt>
      <trkpt lat="46.56067" lon="0.63237">
        <ele>149.83</ele>
        <time>2019-11-17T10:30:00.000Z</time>
      </trkpt>
      <trkpt lat="46.56077" lon="0.63229">
        <ele>149.47</ele>
        <time>2019-11-17T10:30:04.000Z</time>
      </trkpt>
      <trkpt lat="46.56085" lon="0.63222">
        <ele>149.06</ele>
        <time>2019-11-17T10:30:07.000Z</time>
      </trkpt>
      <trkpt lat="46.56092" lon="0.6321">
        <ele>148.7</ele>
        <time>2019-11-17T10:30:10.000Z</time>
      </trkpt>
      <trkpt lat="46.56094" lon="0.63193">
        <ele>148.32</ele>
        <time>2019-11-17T10:30:13.000Z</time>
      </trkpt>
      <trkpt lat="46.56098" lon="0.6318">
        <ele>147.92</ele>
        <time>2019-11-17T10:30:16.000Z</time>
      </trkpt>
      <trkpt lat="46.561" lon="0.63167">
        <ele>147.37</ele>
        <time>2019-11-17T10:30:20.000Z</time>
      </trkpt>
      <trkpt lat="46.56107" lon="0.63157">
        <ele>147.22</ele>
        <time>2019-11-17T10:30:23.000Z</time>
      </trkpt>
      <trkpt lat="46.56115" lon="0.63148">
        <ele>146.98</ele>
        <time>2019-11-17T10:30:27.000Z</time>
      </trkpt>
      <trkpt lat="46.56123" lon="0.6314">
        <ele>146.97</ele>
        <time>2019-11-17T10:30:30.000Z</time>
      </trkpt>
      <trkpt lat="46.56132" lon="0.63134">
        <ele>147.16</ele>
        <time>2019-11-17T10:30:33.000Z</time>
      </trkpt>
      <trkpt lat="46.56143" lon="0.63129">
        <ele>147.55</ele>
        <time>2019-11-17T10:30:37.000Z</time>
      </trkpt>
      <trkpt lat="46.56153" lon="0.63121">
        <ele>148.13</ele>
        <time>2019-11-17T10:30:41.000Z</time>
      </trkpt>
      <trkpt lat="46.56162" lon="0.63111">
        <ele>148.64</ele>
        <time>2019-11-17T10:30:45.000Z</time>
      </trkpt>
      <trkpt lat="46.56167" lon="0.63098">
        <ele>148.89</ele>
        <time>2019-11-17T10:30:48.000Z</time>
      </trkpt>
      <trkpt lat="46.56173" lon="0.63083">
        <ele>149.19</ele>
        <time>2019-11-17T10:30:51.000Z</time>
      </trkpt>
      <trkpt lat="46.56181" lon="0.63068">
        <ele>149.13</ele>
        <time>2019-11-17T10:30:54.000Z</time>
      </trkpt>
      <trkpt lat="46.56187" lon="0.63057">
        <ele>148.99</ele>
        <time>2019-11-17T10:30:57.000Z</time>
      </trkpt>
      <trkpt lat="46.56193" lon="0.63046">
        <ele>148.84</ele>
        <time>2019-11-17T10:30:59.000Z</time>
      </trkpt>
      <trkpt lat="46.56199" lon="0.63034">
        <ele>148.57</ele>
        <time>2019-11-17T10:31:02.000Z</time>
      </trkpt>
      <trkpt lat="46.56205" lon="0.63019">
        <ele>148.19</ele>
        <time>2019-11-17T10:31:05.000Z</time>
      </trkpt>
      <trkpt lat="46.56211" lon="0.63006">
        <ele>147.75</ele>
        <time>2019-11-17T10:31:08.000Z</time>
      </trkpt>
      <trkpt lat="46.56219" lon="0.62998">
        <ele>147.26</ele>
        <time>2019-11-17T10:31:11.000Z</time>
      </trkpt>
      <trkpt lat="46.56229" lon="0.62998">
        <ele>146.42</ele>
        <time>2019-11-17T10:31:19.000Z</time>
      </trkpt>
      <trkpt lat="46.56223" lon="0.6301">
        <ele>146.72</ele>
        <time>2019-11-17T10:31:27.000Z</time>
      </trkpt>
      <trkpt lat="46.56212" lon="0.6301">
        <ele>147.13</ele>
        <time>2019-11-17T10:31:33.000Z</time>
      </trkpt>
      <trkpt lat="46.56205" lon="0.63021">
        <ele>147.25</ele>
        <time>2019-11-17T10:31:38.000Z</time>
      </trkpt>
      <trkpt lat="46.56198" lon="0.63034">
        <ele>147.31</ele>
        <time>2019-11-17T10:31:41.000Z</time>
      </trkpt>
      <trkpt lat="46.56189" lon="0.63043">
        <ele>147.34</ele>
        <time>2019-11-17T10:31:44.000Z</time>
      </trkpt>
      <trkpt lat="46.56181" lon="0.63056">
        <ele>147.57</ele>
        <time>2019-11-17T10:31:47.000Z</time>
      </trkpt>
      <trkpt lat="46.56175" lon="0.63072">
        <ele>147.73</ele>
        <time>2019-11-17T10:31:50.000Z</time>
      </trkpt>
      <trkpt lat="46.56174" lon="0.63088">
        <ele>147.81</ele>
        <time>2019-11-17T10:31:52.000Z</time>
      </trkpt>
      <trkpt lat="46.5617" lon="0.63105">
        <ele>148.02</ele>
        <time>2019-11-17T10:31:55.000Z</time>
      </trkpt>
      <trkpt lat="46.56163" lon="0.63119">
        <ele>148.49</ele>
        <time>2019-11-17T10:31:59.000Z</time>
      </trkpt>
      <trkpt lat="46.56161" lon="0.63136">
        <ele>149.29</ele>
        <time>2019-11-17T10:32:03.000Z</time>
      </trkpt>
      <trkpt lat="46.5616" lon="0.6315">
        <ele>149.67</ele>
        <time>2019-11-17T10:32:05.000Z</time>
      </trkpt>
      <trkpt lat="46.56155" lon="0.63165">
        <ele>150.14</ele>
        <time>2019-11-17T10:32:08.000Z</time>
      </trkpt>
      <trkpt lat="46.5615" lon="0.63181">
        <ele>150.75</ele>
        <time>2019-11-17T10:32:12.000Z</time>
      </trkpt>
      <trkpt lat="46.56142" lon="0.63191">
        <ele>151.2</ele>
        <time>2019-11-17T10:32:15.000Z</time>
      </trkpt>
      <trkpt lat="46.56135" lon="0.63202">
        <ele>151.53</ele>
        <time>2019-11-17T10:32:18.000Z</time>
      </trkpt>
      <trkpt lat="46.56128" lon="0.63214">
        <ele>151.79</ele>
        <time>2019-11-17T10:32:22.000Z</time>
      </trkpt>
      <trkpt lat="46.56131" lon="0.63229">
        <ele>151.55</ele>
        <time>2019-11-17T10:32:26.000Z</time>
      </trkpt>
      <trkpt lat="46.5614" lon="0.63234">
        <ele>151.55</ele>
        <time>2019-11-17T10:32:34.000Z</time>
      </trkpt>
      <trkpt lat="46.5615" lon="0.63238">
        <ele>151.74</ele>
        <time>2019-11-17T10:32:38.000Z</time>
      </trkpt>
      <trkpt lat="46.56137" lon="0.63237">
        <ele>153.15</ele>
        <time>2019-11-17T10:32:50.000Z</time>
      </trkpt>
      <trkpt lat="46.56128" lon="0.63235">
        <ele>153.41</ele>
        <time>2019-11-17T10:32:53.000Z</time>
      </trkpt>
      <trkpt lat="46.5612" lon="0.63247">
        <ele>153.64</ele>
        <time>2019-11-17T10:32:57.000Z</time>
      </trkpt>
      <trkpt lat="46.56114" lon="0.6326">
        <ele>153.61</ele>
        <time>2019-11-17T10:33:00.000Z</time>
      </trkpt>
      <trkpt lat="46.56109" lon="0.63273">
        <ele>153.59</ele>
        <time>2019-11-17T10:33:03.000Z</time>
      </trkpt>
      <trkpt lat="46.56101" lon="0.63286">
        <ele>153.61</ele>
        <time>2019-11-17T10:33:08.000Z</time>
      </trkpt>
      <trkpt lat="46.56092" lon="0.63282">
        <ele>153.33</ele>
        <time>2019-11-17T10:33:13.000Z</time>
      </trkpt>
      <trkpt lat="46.56078" lon="0.63277">
        <ele>152.96</ele>
        <time>2019-11-17T10:33:18.000Z</time>
      </trkpt>
      <trkpt lat="46.56069" lon="0.63261">
        <ele>152.55</ele>
        <time>2019-11-17T10:33:21.000Z</time>
      </trkpt>
      <trkpt lat="46.56061" lon="0.63244">
        <ele>152.07</ele>
        <time>2019-11-17T10:33:24.000Z</time>
      </trkpt>
      <trkpt lat="46.56071" lon="0.63235">
        <ele>150.88</ele>
        <time>2019-11-17T10:33:30.000Z</time>
      </trkpt>
      <trkpt lat="46.56077" lon="0.63226">
        <ele>150.21</ele>
        <time>2019-11-17T10:33:33.000Z</time>
      </trkpt>
      <trkpt lat="46.56083" lon="0.63213">
        <ele>149.65</ele>
        <time>2019-11-17T10:33:36.000Z</time>
      </trkpt>
      <trkpt lat="46.56089" lon="0.63201">
        <ele>148.8</ele>
        <time>2019-11-17T10:33:40.000Z</time>
      </trkpt>
      <trkpt lat="46.56094" lon="0.63188">
        <ele>147.93</ele>
        <time>2019-11-17T10:33:44.000Z</time>
      </trkpt>
      <trkpt lat="46.56098" lon="0.63174">
        <ele>147.33</ele>
        <time>2019-11-17T10:33:48.000Z</time>
      </trkpt>
      <trkpt lat="46.56104" lon="0.63163">
        <ele>147.11</ele>
        <time>2019-11-17T10:33:53.000Z</time>
      </trkpt>
      <trkpt lat="46.56111" lon="0.63153">
        <ele>147.1</ele>
        <time>2019-11-17T10:33:56.000Z</time>
      </trkpt>
      <trkpt lat="46.56121" lon="0.63143">
        <ele>147.37</ele>
        <time>2019-11-17T10:34:01.000Z</time>
      </trkpt>
      <trkpt lat="46.56129" lon="0.63134">
        <ele>147.57</ele>
        <time>2019-11-17T10:34:04.000Z</time>
      </trkpt>
      <trkpt lat="46.56139" lon="0.63127">
        <ele>147.61</ele>
        <time>2019-11-17T10:34:07.000Z</time>
      </trkpt>
      <trkpt lat="46.56147" lon="0.63119">
        <ele>147.79</ele>
        <time>2019-11-17T10:34:11.000Z</time>
      </trkpt>
      <trkpt lat="46.56156" lon="0.63113">
        <ele>147.92</ele>
        <time>2019-11-17T10:34:15.000Z</time>
      </trkpt>
      <trkpt lat="46.56159" lon="0.63125">
        <ele>148.14</ele>
        <time>2019-11-17T10:34:19.000Z</time>
      </trkpt>
      <trkpt lat="46.5616" lon="0.6314">
        <ele>148.43</ele>
        <time>2019-11-17T10:34:22.000Z</time>
      </trkpt>
      <trkpt lat="46.56158" lon="0.63157">
        <ele>149.37</ele>
        <time>2019-11-17T10:34:27.000Z</time>
      </trkpt>
      <trkpt lat="46.56153" lon="0.6317">
        <ele>149.96</ele>
        <time>2019-11-17T10:34:31.000Z</time>
      </trkpt>
      <trkpt lat="46.56153" lon="0.63183">
        <ele>149.94</ele>
        <time>2019-11-17T10:34:37.000Z</time>
      </trkpt>
      <trkpt lat="46.5616" lon="0.63195">
        <ele>149.78</ele>
        <time>2019-11-17T10:34:41.000Z</time>
      </trkpt>
      <trkpt lat="46.56162" lon="0.6321">
        <ele>149.79</ele>
        <time>2019-11-17T10:34:45.000Z</time>
      </trkpt>
      <trkpt lat="46.5616" lon="0.63226">
        <ele>149.9</ele>
        <time>2019-11-17T10:34:49.000Z</time>
      </trkpt>
      <trkpt lat="46.56156" lon="0.63239">
        <ele>149.96</ele>
        <time>2019-11-17T10:34:53.000Z</time>
      </trkpt>
      <trkpt lat="46.5615" lon="0.6325">
        <ele>149.95</ele>
        <time>2019-11-17T10:34:58.000Z</time>
      </trkpt>
      <trkpt lat="46.56141" lon="0.63242">
        <ele>149.7</ele>
        <time>2019-11-17T10:35:03.000Z</time>
      </trkpt>
      <trkpt lat="46.56133" lon="0.63234">
        <ele>149.68</ele>
        <time>2019-11-17T10:35:05.000Z</time>
      </trkpt>
      <trkpt lat="46.56129" lon="0.63222">
        <ele>149.44</ele>
        <time>2019-11-17T10:35:11.000Z</time>
      </trkpt>
      <trkpt lat="46.56127" lon="0.63236">
        <ele>150.14</ele>
        <time>2019-11-17T10:35:19.000Z</time>
      </trkpt>
      <trkpt lat="46.56118" lon="0.63243">
        <ele>150.6</ele>
        <time>2019-11-17T10:35:22.000Z</time>
      </trkpt>
      <trkpt lat="46.5611" lon="0.63251">
        <ele>151.11</ele>
        <time>2019-11-17T10:35:26.000Z</time>
      </trkpt>
      <trkpt lat="46.56106" lon="0.63263">
        <ele>151.57</ele>
        <time>2019-11-17T10:35:29.000Z</time>
      </trkpt>
      <trkpt lat="46.56103" lon="0.63278">
        <ele>152.32</ele>
        <time>2019-11-17T10:35:33.000Z</time>
      </trkpt>
      <trkpt lat="46.56094" lon="0.63283">
        <ele>152.59</ele>
        <time>2019-11-17T10:35:37.000Z</time>
      </trkpt>
      <trkpt lat="46.56085" lon="0.63284">
        <ele>152.79</ele>
        <time>2019-11-17T10:35:45.000Z</time>
      </trkpt>
      <trkpt lat="46.56077" lon="0.63274">
        <ele>152.71</ele>
        <time>2019-11-17T10:35:59.000Z</time>
      </trkpt>
      <trkpt lat="46.56071" lon="0.63264">
        <ele>152.15</ele>
        <time>2019-11-17T10:36:01.000Z</time>
      </trkpt>
      <trkpt lat="46.56065" lon="0.63247">
        <ele>149.63</ele>
        <time>2019-11-17T10:36:04.000Z</time>
      </trkpt>
      <trkpt lat="46.56069" lon="0.63233">
        <ele>148.8</ele>
        <time>2019-11-17T10:36:09.000Z</time>
      </trkpt>
      <trkpt lat="46.56075" lon="0.63223">
        <ele>148.22</ele>
        <time>2019-11-17T10:36:12.000Z</time>
      </trkpt>
      <trkpt lat="46.56085" lon="0.63217">
        <ele>147.82</ele>
        <time>2019-11-17T10:36:15.000Z</time>
      </trkpt>
      <trkpt lat="46.56093" lon="0.63207">
        <ele>147.22</ele>
        <time>2019-11-17T10:36:18.000Z</time>
      </trkpt>
      <trkpt lat="46.56094" lon="0.63194">
        <ele>146.4</ele>
        <time>2019-11-17T10:36:21.000Z</time>
      </trkpt>
      <trkpt lat="46.56099" lon="0.63178">
        <ele>145.28</ele>
        <time>2019-11-17T10:36:26.000Z</time>
      </trkpt>
      <trkpt lat="46.56106" lon="0.63165">
        <ele>144.85</ele>
        <time>2019-11-17T10:36:29.000Z</time>
      </trkpt>
      <trkpt lat="46.56113" lon="0.63154">
        <ele>144.5</ele>
        <time>2019-11-17T10:36:32.000Z</time>
      </trkpt>
      <trkpt lat="46.56119" lon="0.63146">
        <ele>144.28</ele>
        <time>2019-11-17T10:36:35.000Z</time>
      </trkpt>
      <trkpt lat="46.56128" lon="0.63136">
        <ele>144.22</ele>
        <time>2019-11-17T10:36:38.000Z</time>
      </trkpt>
      <trkpt lat="46.56137" lon="0.63131">
        <ele>144.37</ele>
        <time>2019-11-17T10:36:42.000Z</time>
      </trkpt>
      <trkpt lat="46.56146" lon="0.63122">
        <ele>144.86</ele>
        <time>2019-11-17T10:36:47.000Z</time>
      </trkpt>
      <trkpt lat="46.56154" lon="0.63113">
        <ele>145.06</ele>
        <time>2019-11-17T10:36:50.000Z</time>
      </trkpt>
      <trkpt lat="46.56163" lon="0.63103">
        <ele>145.51</ele>
        <time>2019-11-17T10:36:55.000Z</time>
      </trkpt>
      <trkpt lat="46.56168" lon="0.63092">
        <ele>145.82</ele>
        <time>2019-11-17T10:36:58.000Z</time>
      </trkpt>
      <trkpt lat="46.56174" lon="0.63081">
        <ele>146.04</ele>
        <time>2019-11-17T10:37:01.000Z</time>
      </trkpt>
      <trkpt lat="46.56181" lon="0.6307">
        <ele>146.15</ele>
        <time>2019-11-17T10:37:04.000Z</time>
      </trkpt>
      <trkpt lat="46.56191" lon="0.63064">
        <ele>146.25</ele>
        <time>2019-11-17T10:37:08.000Z</time>
      </trkpt>
      <trkpt lat="46.56196" lon="0.63052">
        <ele>146.36</ele>
        <time>2019-11-17T10:37:11.000Z</time>
      </trkpt>
      <trkpt lat="46.562" lon="0.63038">
        <ele>146.4</ele>
        <time>2019-11-17T10:37:14.000Z</time>
      </trkpt>
      <trkpt lat="46.56205" lon="0.63024">
        <ele>146.43</ele>
        <time>2019-11-17T10:37:17.000Z</time>
      </trkpt>
      <trkpt lat="46.5621" lon="0.63012">
        <ele>146.43</ele>
        <time>2019-11-17T10:37:20.000Z</time>
      </trkpt>
      <trkpt lat="46.56216" lon="0.63">
        <ele>146.41</ele>
        <time>2019-11-17T10:37:23.000Z</time>
      </trkpt>
      <trkpt lat="46.56224" lon="0.62992">
        <ele>146.37</ele>
        <time>2019-11-17T10:37:26.000Z</time>
      </trkpt>
      <trkpt lat="46.56235" lon="0.62991">
        <ele>146.27</ele>
        <time>2019-11-17T10:37:29.000Z</time>
      </trkpt>
      <trkpt lat="46.56244" lon="0.62987">
        <ele>146.17</ele>
        <time>2019-11-17T10:37:32.000Z</time>
      </trkpt>
      <trkpt lat="46.56253" lon="0.62984">
        <ele>146.13</ele>
        <time>2019-11-17T10:37:36.000Z</time>
      </trkpt>
      <trkpt lat="46.56262" lon="0.6298">
        <ele>146.22</ele>
        <time>2019-11-17T10:37:40.000Z</time>
      </trkpt>
      <trkpt lat="46.56273" lon="0.62977">
        <ele>146.37</ele>
        <time>2019-11-17T10:37:44.000Z</time>
      </trkpt>
      <trkpt lat="46.56281" lon="0.62984">
        <ele>146.32</ele>
        <time>2019-11-17T10:37:47.000Z</time>
      </trkpt>
      <trkpt lat="46.56286" lon="0.63001">
        <ele>146.22</ele>
        <time>2019-11-17T10:37:51.000Z</time>
      </trkpt>
      <trkpt lat="46.56288" lon="0.63016">
        <ele>146.6</ele>
        <time>2019-11-17T10:37:55.000Z</time>
      </trkpt>
      <trkpt lat="46.56292" lon="0.6303">
        <ele>147.73</ele>
        <time>2019-11-17T10:38:00.000Z</time>
      </trkpt>
      <trkpt lat="46.56292" lon="0.63043">
        <ele>150.97</ele>
        <time>2019-11-17T10:38:42.000Z</time>
      </trkpt>
    </trkseg>
  </trk>
</gpx>